<?xml version="1.0" encoding="UTF-8" standalone="no" ?>
<gpx xmlns="http://www.topografix.com/GPX/1/1" xmlns:xsi="http://www.w3.org/2001/XMLSchema-instance" xsi:schemaLocation="http://www.topografix.com/GPX/1/1 http://www.topografix.com/GPX/1/1/gpx.xsd" version="1.1" creator="VisuGPX - https://www.visugpx.com">
  <metadata>
    <name>La Resiniere non raggiunta</name>
  </metadata>
  <trk>
    <name><![CDATA[La Resiniere andata e ritorno]]></name>
    <trkseg>
      <trkpt lat="44.47425" lon="6.71972">
        <ele>1812.22</ele>
        <time>2023-01-20T08:54:48Z</time>
      </trkpt>
      <trkpt lat="44.47427" lon="6.71971">
        <ele>1810.78</ele>
        <time>2023-01-20T08:54:53Z</time>
      </trkpt>
      <trkpt lat="44.47425" lon="6.71963">
        <ele>1807.9</ele>
        <time>2023-01-20T08:55:49Z</time>
      </trkpt>
      <trkpt lat="44.47424" lon="6.71957">
        <ele>1806.94</ele>
        <time>2023-01-20T08:56:14Z</time>
      </trkpt>
      <trkpt lat="44.47427" lon="6.71959">
        <ele>1805.97</ele>
        <time>2023-01-20T08:56:31Z</time>
      </trkpt>
      <trkpt lat="44.47454" lon="6.71928">
        <ele>1805.97</ele>
        <time>2023-01-20T08:56:39Z</time>
      </trkpt>
      <trkpt lat="44.47455" lon="6.71917">
        <ele>1806.45</ele>
        <time>2023-01-20T08:56:50Z</time>
      </trkpt>
      <trkpt lat="44.47453" lon="6.71919">
        <ele>1805.97</ele>
        <time>2023-01-20T08:56:51Z</time>
      </trkpt>
      <trkpt lat="44.47443" lon="6.7193">
        <ele>1805.49</ele>
        <time>2023-01-20T08:57:08Z</time>
      </trkpt>
      <trkpt lat="44.4744" lon="6.71927">
        <ele>1805.97</ele>
        <time>2023-01-20T08:57:33Z</time>
      </trkpt>
      <trkpt lat="44.4744" lon="6.71917">
        <ele>1808.86</ele>
        <time>2023-01-20T08:58:29Z</time>
      </trkpt>
      <trkpt lat="44.4744" lon="6.71916">
        <ele>1812.22</ele>
        <time>2023-01-20T08:58:54Z</time>
      </trkpt>
      <trkpt lat="44.47438" lon="6.71914">
        <ele>1815.11</ele>
        <time>2023-01-20T08:59:28Z</time>
      </trkpt>
      <trkpt lat="44.47436" lon="6.71912">
        <ele>1817.03</ele>
        <time>2023-01-20T08:59:59Z</time>
      </trkpt>
      <trkpt lat="44.47436" lon="6.71911">
        <ele>1818.95</ele>
        <time>2023-01-20T09:00:46Z</time>
      </trkpt>
      <trkpt lat="44.47434" lon="6.71907">
        <ele>1817.51</ele>
        <time>2023-01-20T09:00:55Z</time>
      </trkpt>
      <trkpt lat="44.47413" lon="6.71848">
        <ele>1818.95</ele>
        <time>2023-01-20T09:01:21Z</time>
      </trkpt>
      <trkpt lat="44.47411" lon="6.71831">
        <ele>1818.47</ele>
        <time>2023-01-20T09:01:29Z</time>
      </trkpt>
      <trkpt lat="44.47396" lon="6.71745">
        <ele>1820.39</ele>
        <time>2023-01-20T09:02:02Z</time>
      </trkpt>
      <trkpt lat="44.47394" lon="6.71685">
        <ele>1823.28</ele>
        <time>2023-01-20T09:02:28Z</time>
      </trkpt>
      <trkpt lat="44.47395" lon="6.71659">
        <ele>1825.2</ele>
        <time>2023-01-20T09:02:45Z</time>
      </trkpt>
      <trkpt lat="44.47386" lon="6.71647">
        <ele>1826.64</ele>
        <time>2023-01-20T09:03:00Z</time>
      </trkpt>
      <trkpt lat="44.47372" lon="6.71639">
        <ele>1829.05</ele>
        <time>2023-01-20T09:03:22Z</time>
      </trkpt>
      <trkpt lat="44.47373" lon="6.71619">
        <ele>1830.49</ele>
        <time>2023-01-20T09:03:39Z</time>
      </trkpt>
      <trkpt lat="44.4737" lon="6.71587">
        <ele>1833.37</ele>
        <time>2023-01-20T09:04:13Z</time>
      </trkpt>
      <trkpt lat="44.47368" lon="6.71553">
        <ele>1836.26</ele>
        <time>2023-01-20T09:04:41Z</time>
      </trkpt>
      <trkpt lat="44.4737" lon="6.7152">
        <ele>1836.26</ele>
        <time>2023-01-20T09:05:09Z</time>
      </trkpt>
      <trkpt lat="44.47392" lon="6.71495">
        <ele>1838.66</ele>
        <time>2023-01-20T09:05:40Z</time>
      </trkpt>
      <trkpt lat="44.474" lon="6.71491">
        <ele>1841.06</ele>
        <time>2023-01-20T09:06:05Z</time>
      </trkpt>
      <trkpt lat="44.47399" lon="6.71493">
        <ele>1777.4</ele>
        <time>2023-01-20T09:06:08Z</time>
      </trkpt>
      <trkpt lat="44.47398" lon="6.71493">
        <ele>1777.4</ele>
        <time>2023-01-20T09:06:09Z</time>
      </trkpt>
      <trkpt lat="44.47398" lon="6.71492">
        <ele>1777.5</ele>
        <time>2023-01-20T09:06:10Z</time>
      </trkpt>
      <trkpt lat="44.47398" lon="6.71494">
        <ele>1777.1</ele>
        <time>2023-01-20T09:06:11Z</time>
      </trkpt>
      <trkpt lat="44.47398" lon="6.71494">
        <ele>1777.1</ele>
        <time>2023-01-20T09:06:12Z</time>
      </trkpt>
      <trkpt lat="44.47398" lon="6.71496">
        <ele>1776.9</ele>
        <time>2023-01-20T09:06:13Z</time>
      </trkpt>
      <trkpt lat="44.47398" lon="6.71497">
        <ele>1776.6</ele>
        <time>2023-01-20T09:06:14Z</time>
      </trkpt>
      <trkpt lat="44.47398" lon="6.71498">
        <ele>1776.4</ele>
        <time>2023-01-20T09:06:15Z</time>
      </trkpt>
      <trkpt lat="44.47398" lon="6.71498">
        <ele>1776.4</ele>
        <time>2023-01-20T09:06:16Z</time>
      </trkpt>
      <trkpt lat="44.47397" lon="6.71498">
        <ele>1776.3</ele>
        <time>2023-01-20T09:06:17Z</time>
      </trkpt>
      <trkpt lat="44.47397" lon="6.71499">
        <ele>1776.1</ele>
        <time>2023-01-20T09:06:18Z</time>
      </trkpt>
      <trkpt lat="44.47397" lon="6.715">
        <ele>1776</ele>
        <time>2023-01-20T09:06:19Z</time>
      </trkpt>
      <trkpt lat="44.47396" lon="6.71501">
        <ele>1775.9</ele>
        <time>2023-01-20T09:06:20Z</time>
      </trkpt>
      <trkpt lat="44.47396" lon="6.715">
        <ele>1775.9</ele>
        <time>2023-01-20T09:06:21Z</time>
      </trkpt>
      <trkpt lat="44.47396" lon="6.71501">
        <ele>1775.9</ele>
        <time>2023-01-20T09:06:22Z</time>
      </trkpt>
      <trkpt lat="44.47396" lon="6.71501">
        <ele>1775.9</ele>
        <time>2023-01-20T09:06:23Z</time>
      </trkpt>
      <trkpt lat="44.47395" lon="6.71501">
        <ele>1775.7</ele>
        <time>2023-01-20T09:06:24Z</time>
      </trkpt>
      <trkpt lat="44.47395" lon="6.71502">
        <ele>1775.7</ele>
        <time>2023-01-20T09:06:25Z</time>
      </trkpt>
      <trkpt lat="44.47395" lon="6.71502">
        <ele>1775.6</ele>
        <time>2023-01-20T09:06:26Z</time>
      </trkpt>
      <trkpt lat="44.47395" lon="6.71502">
        <ele>1775.6</ele>
        <time>2023-01-20T09:06:27Z</time>
      </trkpt>
      <trkpt lat="44.47396" lon="6.71503">
        <ele>1775.5</ele>
        <time>2023-01-20T09:06:28Z</time>
      </trkpt>
      <trkpt lat="44.47396" lon="6.71503">
        <ele>1775.5</ele>
        <time>2023-01-20T09:06:29Z</time>
      </trkpt>
      <trkpt lat="44.47396" lon="6.71503">
        <ele>1775.5</ele>
        <time>2023-01-20T09:06:30Z</time>
      </trkpt>
      <trkpt lat="44.47396" lon="6.71503">
        <ele>1775.4</ele>
        <time>2023-01-20T09:06:31Z</time>
      </trkpt>
      <trkpt lat="44.47396" lon="6.71503">
        <ele>1775.4</ele>
        <time>2023-01-20T09:06:32Z</time>
      </trkpt>
      <trkpt lat="44.47396" lon="6.71503">
        <ele>1775.4</ele>
        <time>2023-01-20T09:06:33Z</time>
      </trkpt>
      <trkpt lat="44.47396" lon="6.71503">
        <ele>1775.4</ele>
        <time>2023-01-20T09:06:34Z</time>
      </trkpt>
      <trkpt lat="44.47396" lon="6.71503">
        <ele>1775.4</ele>
        <time>2023-01-20T09:06:35Z</time>
      </trkpt>
      <trkpt lat="44.47396" lon="6.71503">
        <ele>1775.4</ele>
        <time>2023-01-20T09:06:36Z</time>
      </trkpt>
      <trkpt lat="44.47395" lon="6.71503">
        <ele>1775.5</ele>
        <time>2023-01-20T09:06:37Z</time>
      </trkpt>
      <trkpt lat="44.47395" lon="6.71503">
        <ele>1775.5</ele>
        <time>2023-01-20T09:06:38Z</time>
      </trkpt>
      <trkpt lat="44.47395" lon="6.71503">
        <ele>1775.5</ele>
        <time>2023-01-20T09:06:39Z</time>
      </trkpt>
      <trkpt lat="44.47395" lon="6.71503">
        <ele>1775.5</ele>
        <time>2023-01-20T09:06:40Z</time>
      </trkpt>
      <trkpt lat="44.47395" lon="6.71503">
        <ele>1775.5</ele>
        <time>2023-01-20T09:06:41Z</time>
      </trkpt>
      <trkpt lat="44.47395" lon="6.71503">
        <ele>1775.5</ele>
        <time>2023-01-20T09:06:42Z</time>
      </trkpt>
      <trkpt lat="44.47395" lon="6.71503">
        <ele>1775.5</ele>
        <time>2023-01-20T09:06:43Z</time>
      </trkpt>
      <trkpt lat="44.47395" lon="6.71503">
        <ele>1775.5</ele>
        <time>2023-01-20T09:06:44Z</time>
      </trkpt>
      <trkpt lat="44.47395" lon="6.71503">
        <ele>1775.5</ele>
        <time>2023-01-20T09:06:45Z</time>
      </trkpt>
      <trkpt lat="44.47395" lon="6.71503">
        <ele>1775.5</ele>
        <time>2023-01-20T09:06:46Z</time>
      </trkpt>
      <trkpt lat="44.47395" lon="6.71502">
        <ele>1775.6</ele>
        <time>2023-01-20T09:06:47Z</time>
      </trkpt>
      <trkpt lat="44.47395" lon="6.71502">
        <ele>1775.6</ele>
        <time>2023-01-20T09:06:48Z</time>
      </trkpt>
      <trkpt lat="44.47395" lon="6.71502">
        <ele>1775.6</ele>
        <time>2023-01-20T09:06:49Z</time>
      </trkpt>
      <trkpt lat="44.47395" lon="6.71502">
        <ele>1775.6</ele>
        <time>2023-01-20T09:06:50Z</time>
      </trkpt>
      <trkpt lat="44.47395" lon="6.71503">
        <ele>1775.5</ele>
        <time>2023-01-20T09:06:51Z</time>
      </trkpt>
      <trkpt lat="44.47396" lon="6.71503">
        <ele>1775.5</ele>
        <time>2023-01-20T09:06:52Z</time>
      </trkpt>
      <trkpt lat="44.47396" lon="6.71503">
        <ele>1775.5</ele>
        <time>2023-01-20T09:06:53Z</time>
      </trkpt>
      <trkpt lat="44.47396" lon="6.71503">
        <ele>1775.5</ele>
        <time>2023-01-20T09:06:54Z</time>
      </trkpt>
      <trkpt lat="44.47396" lon="6.71503">
        <ele>1775.4</ele>
        <time>2023-01-20T09:06:55Z</time>
      </trkpt>
      <trkpt lat="44.47396" lon="6.71503">
        <ele>1775.4</ele>
        <time>2023-01-20T09:06:56Z</time>
      </trkpt>
      <trkpt lat="44.47396" lon="6.71503">
        <ele>1775.4</ele>
        <time>2023-01-20T09:06:57Z</time>
      </trkpt>
      <trkpt lat="44.47396" lon="6.71504">
        <ele>1775.4</ele>
        <time>2023-01-20T09:06:58Z</time>
      </trkpt>
      <trkpt lat="44.47396" lon="6.71504">
        <ele>1775.3</ele>
        <time>2023-01-20T09:06:59Z</time>
      </trkpt>
      <trkpt lat="44.47396" lon="6.71504">
        <ele>1775.3</ele>
        <time>2023-01-20T09:07:00Z</time>
      </trkpt>
      <trkpt lat="44.47396" lon="6.71504">
        <ele>1775.3</ele>
        <time>2023-01-20T09:07:01Z</time>
      </trkpt>
      <trkpt lat="44.47397" lon="6.71504">
        <ele>1775.2</ele>
        <time>2023-01-20T09:07:02Z</time>
      </trkpt>
      <trkpt lat="44.47397" lon="6.71504">
        <ele>1775.2</ele>
        <time>2023-01-20T09:07:03Z</time>
      </trkpt>
      <trkpt lat="44.47397" lon="6.71505">
        <ele>1775.2</ele>
        <time>2023-01-20T09:07:04Z</time>
      </trkpt>
      <trkpt lat="44.47397" lon="6.71505">
        <ele>1775.1</ele>
        <time>2023-01-20T09:07:05Z</time>
      </trkpt>
      <trkpt lat="44.47397" lon="6.71505">
        <ele>1775.1</ele>
        <time>2023-01-20T09:07:06Z</time>
      </trkpt>
      <trkpt lat="44.47397" lon="6.71505">
        <ele>1775.1</ele>
        <time>2023-01-20T09:07:07Z</time>
      </trkpt>
      <trkpt lat="44.47396" lon="6.71505">
        <ele>1775.1</ele>
        <time>2023-01-20T09:07:08Z</time>
      </trkpt>
      <trkpt lat="44.47396" lon="6.71505">
        <ele>1775.1</ele>
        <time>2023-01-20T09:07:09Z</time>
      </trkpt>
      <trkpt lat="44.47396" lon="6.71505">
        <ele>1775.1</ele>
        <time>2023-01-20T09:07:10Z</time>
      </trkpt>
      <trkpt lat="44.47396" lon="6.71505">
        <ele>1775</ele>
        <time>2023-01-20T09:07:11Z</time>
      </trkpt>
      <trkpt lat="44.47396" lon="6.71505">
        <ele>1775</ele>
        <time>2023-01-20T09:07:12Z</time>
      </trkpt>
      <trkpt lat="44.47396" lon="6.71505">
        <ele>1775</ele>
        <time>2023-01-20T09:07:13Z</time>
      </trkpt>
      <trkpt lat="44.47396" lon="6.71505">
        <ele>1775</ele>
        <time>2023-01-20T09:07:14Z</time>
      </trkpt>
      <trkpt lat="44.47396" lon="6.71505">
        <ele>1775</ele>
        <time>2023-01-20T09:07:15Z</time>
      </trkpt>
      <trkpt lat="44.47396" lon="6.71505">
        <ele>1775</ele>
        <time>2023-01-20T09:07:16Z</time>
      </trkpt>
      <trkpt lat="44.47396" lon="6.71506">
        <ele>1775</ele>
        <time>2023-01-20T09:07:17Z</time>
      </trkpt>
      <trkpt lat="44.47396" lon="6.71506">
        <ele>1775</ele>
        <time>2023-01-20T09:07:18Z</time>
      </trkpt>
      <trkpt lat="44.47396" lon="6.71506">
        <ele>1775</ele>
        <time>2023-01-20T09:07:19Z</time>
      </trkpt>
      <trkpt lat="44.47396" lon="6.71506">
        <ele>1775</ele>
        <time>2023-01-20T09:07:20Z</time>
      </trkpt>
      <trkpt lat="44.47396" lon="6.71506">
        <ele>1775</ele>
        <time>2023-01-20T09:07:21Z</time>
      </trkpt>
      <trkpt lat="44.47396" lon="6.71506">
        <ele>1775</ele>
        <time>2023-01-20T09:07:22Z</time>
      </trkpt>
      <trkpt lat="44.47396" lon="6.71505">
        <ele>1775</ele>
        <time>2023-01-20T09:07:23Z</time>
      </trkpt>
      <trkpt lat="44.47396" lon="6.71505">
        <ele>1775.1</ele>
        <time>2023-01-20T09:07:24Z</time>
      </trkpt>
      <trkpt lat="44.47396" lon="6.71505">
        <ele>1775.1</ele>
        <time>2023-01-20T09:07:25Z</time>
      </trkpt>
      <trkpt lat="44.47396" lon="6.71505">
        <ele>1775.1</ele>
        <time>2023-01-20T09:07:26Z</time>
      </trkpt>
      <trkpt lat="44.47396" lon="6.71505">
        <ele>1775.1</ele>
        <time>2023-01-20T09:07:27Z</time>
      </trkpt>
      <trkpt lat="44.47396" lon="6.71505">
        <ele>1775.1</ele>
        <time>2023-01-20T09:07:28Z</time>
      </trkpt>
      <trkpt lat="44.47396" lon="6.71505">
        <ele>1775.1</ele>
        <time>2023-01-20T09:07:29Z</time>
      </trkpt>
      <trkpt lat="44.47396" lon="6.71505">
        <ele>1775.2</ele>
        <time>2023-01-20T09:07:30Z</time>
      </trkpt>
      <trkpt lat="44.47396" lon="6.71505">
        <ele>1775.2</ele>
        <time>2023-01-20T09:07:31Z</time>
      </trkpt>
      <trkpt lat="44.47396" lon="6.71504">
        <ele>1775.2</ele>
        <time>2023-01-20T09:07:32Z</time>
      </trkpt>
      <trkpt lat="44.47396" lon="6.71504">
        <ele>1775.2</ele>
        <time>2023-01-20T09:07:33Z</time>
      </trkpt>
      <trkpt lat="44.47396" lon="6.71504">
        <ele>1775.2</ele>
        <time>2023-01-20T09:07:34Z</time>
      </trkpt>
      <trkpt lat="44.47396" lon="6.71504">
        <ele>1775.3</ele>
        <time>2023-01-20T09:07:35Z</time>
      </trkpt>
      <trkpt lat="44.47396" lon="6.71504">
        <ele>1775.3</ele>
        <time>2023-01-20T09:07:36Z</time>
      </trkpt>
      <trkpt lat="44.47396" lon="6.71504">
        <ele>1775.3</ele>
        <time>2023-01-20T09:07:37Z</time>
      </trkpt>
      <trkpt lat="44.47396" lon="6.71504">
        <ele>1775.3</ele>
        <time>2023-01-20T09:07:38Z</time>
      </trkpt>
      <trkpt lat="44.47396" lon="6.71504">
        <ele>1775.4</ele>
        <time>2023-01-20T09:07:39Z</time>
      </trkpt>
      <trkpt lat="44.47396" lon="6.71503">
        <ele>1775.4</ele>
        <time>2023-01-20T09:07:40Z</time>
      </trkpt>
      <trkpt lat="44.47396" lon="6.71503">
        <ele>1775.4</ele>
        <time>2023-01-20T09:07:41Z</time>
      </trkpt>
      <trkpt lat="44.47395" lon="6.71503">
        <ele>1775.4</ele>
        <time>2023-01-20T09:07:42Z</time>
      </trkpt>
      <trkpt lat="44.47395" lon="6.71503">
        <ele>1775.4</ele>
        <time>2023-01-20T09:07:43Z</time>
      </trkpt>
      <trkpt lat="44.47395" lon="6.71503">
        <ele>1775.4</ele>
        <time>2023-01-20T09:07:44Z</time>
      </trkpt>
      <trkpt lat="44.47395" lon="6.71503">
        <ele>1775.4</ele>
        <time>2023-01-20T09:07:45Z</time>
      </trkpt>
      <trkpt lat="44.47395" lon="6.71503">
        <ele>1775.4</ele>
        <time>2023-01-20T09:07:46Z</time>
      </trkpt>
      <trkpt lat="44.47395" lon="6.71503">
        <ele>1775.4</ele>
        <time>2023-01-20T09:07:47Z</time>
      </trkpt>
      <trkpt lat="44.47394" lon="6.71503">
        <ele>1775.4</ele>
        <time>2023-01-20T09:07:48Z</time>
      </trkpt>
      <trkpt lat="44.47394" lon="6.71503">
        <ele>1775.4</ele>
        <time>2023-01-20T09:07:49Z</time>
      </trkpt>
      <trkpt lat="44.47394" lon="6.71503">
        <ele>1775.4</ele>
        <time>2023-01-20T09:07:50Z</time>
      </trkpt>
      <trkpt lat="44.47394" lon="6.71503">
        <ele>1775.4</ele>
        <time>2023-01-20T09:07:51Z</time>
      </trkpt>
      <trkpt lat="44.47394" lon="6.71503">
        <ele>1775.4</ele>
        <time>2023-01-20T09:07:52Z</time>
      </trkpt>
      <trkpt lat="44.47394" lon="6.71503">
        <ele>1775.4</ele>
        <time>2023-01-20T09:07:53Z</time>
      </trkpt>
      <trkpt lat="44.47394" lon="6.71504">
        <ele>1775.4</ele>
        <time>2023-01-20T09:07:54Z</time>
      </trkpt>
      <trkpt lat="44.47394" lon="6.71504">
        <ele>1775.4</ele>
        <time>2023-01-20T09:07:55Z</time>
      </trkpt>
      <trkpt lat="44.47395" lon="6.71504">
        <ele>1775.3</ele>
        <time>2023-01-20T09:07:56Z</time>
      </trkpt>
      <trkpt lat="44.47395" lon="6.71504">
        <ele>1775.3</ele>
        <time>2023-01-20T09:07:57Z</time>
      </trkpt>
      <trkpt lat="44.47395" lon="6.71504">
        <ele>1775.3</ele>
        <time>2023-01-20T09:07:58Z</time>
      </trkpt>
      <trkpt lat="44.47395" lon="6.71504">
        <ele>1775.2</ele>
        <time>2023-01-20T09:07:59Z</time>
      </trkpt>
      <trkpt lat="44.47395" lon="6.71505">
        <ele>1775.1</ele>
        <time>2023-01-20T09:08:00Z</time>
      </trkpt>
      <trkpt lat="44.47395" lon="6.71505">
        <ele>1775</ele>
        <time>2023-01-20T09:08:01Z</time>
      </trkpt>
      <trkpt lat="44.47395" lon="6.71505">
        <ele>1775.1</ele>
        <time>2023-01-20T09:08:02Z</time>
      </trkpt>
      <trkpt lat="44.47394" lon="6.71505">
        <ele>1775.1</ele>
        <time>2023-01-20T09:08:03Z</time>
      </trkpt>
      <trkpt lat="44.47393" lon="6.71505">
        <ele>1775</ele>
        <time>2023-01-20T09:08:04Z</time>
      </trkpt>
      <trkpt lat="44.47393" lon="6.71506">
        <ele>1775</ele>
        <time>2023-01-20T09:08:05Z</time>
      </trkpt>
      <trkpt lat="44.47393" lon="6.71506">
        <ele>1774.9</ele>
        <time>2023-01-20T09:08:06Z</time>
      </trkpt>
      <trkpt lat="44.47394" lon="6.71506">
        <ele>1774.9</ele>
        <time>2023-01-20T09:08:07Z</time>
      </trkpt>
      <trkpt lat="44.47394" lon="6.71506">
        <ele>1774.8</ele>
        <time>2023-01-20T09:08:08Z</time>
      </trkpt>
      <trkpt lat="44.47393" lon="6.71506">
        <ele>1774.8</ele>
        <time>2023-01-20T09:08:09Z</time>
      </trkpt>
      <trkpt lat="44.47393" lon="6.71507">
        <ele>1774.8</ele>
        <time>2023-01-20T09:08:10Z</time>
      </trkpt>
      <trkpt lat="44.47393" lon="6.71507">
        <ele>1774.8</ele>
        <time>2023-01-20T09:08:11Z</time>
      </trkpt>
      <trkpt lat="44.47393" lon="6.71507">
        <ele>1774.7</ele>
        <time>2023-01-20T09:08:12Z</time>
      </trkpt>
      <trkpt lat="44.47393" lon="6.71508">
        <ele>1774.6</ele>
        <time>2023-01-20T09:08:13Z</time>
      </trkpt>
      <trkpt lat="44.47394" lon="6.71508">
        <ele>1774.5</ele>
        <time>2023-01-20T09:08:14Z</time>
      </trkpt>
      <trkpt lat="44.47393" lon="6.71509">
        <ele>1774.4</ele>
        <time>2023-01-20T09:08:15Z</time>
      </trkpt>
      <trkpt lat="44.47393" lon="6.71509">
        <ele>1774.4</ele>
        <time>2023-01-20T09:08:16Z</time>
      </trkpt>
      <trkpt lat="44.47394" lon="6.7151">
        <ele>1774.2</ele>
        <time>2023-01-20T09:08:17Z</time>
      </trkpt>
      <trkpt lat="44.47394" lon="6.7151">
        <ele>1774.2</ele>
        <time>2023-01-20T09:08:18Z</time>
      </trkpt>
      <trkpt lat="44.47394" lon="6.7151">
        <ele>1774.1</ele>
        <time>2023-01-20T09:08:19Z</time>
      </trkpt>
      <trkpt lat="44.47394" lon="6.7151">
        <ele>1774.1</ele>
        <time>2023-01-20T09:08:20Z</time>
      </trkpt>
      <trkpt lat="44.47394" lon="6.7151">
        <ele>1774.2</ele>
        <time>2023-01-20T09:08:21Z</time>
      </trkpt>
      <trkpt lat="44.47395" lon="6.71509">
        <ele>1774.3</ele>
        <time>2023-01-20T09:08:22Z</time>
      </trkpt>
      <trkpt lat="44.47395" lon="6.7151">
        <ele>1774.3</ele>
        <time>2023-01-20T09:08:23Z</time>
      </trkpt>
      <trkpt lat="44.47395" lon="6.7151">
        <ele>1774.3</ele>
        <time>2023-01-20T09:08:24Z</time>
      </trkpt>
      <trkpt lat="44.47396" lon="6.7151">
        <ele>1774.2</ele>
        <time>2023-01-20T09:08:25Z</time>
      </trkpt>
      <trkpt lat="44.47396" lon="6.7151">
        <ele>1774.2</ele>
        <time>2023-01-20T09:08:26Z</time>
      </trkpt>
      <trkpt lat="44.47396" lon="6.7151">
        <ele>1774.1</ele>
        <time>2023-01-20T09:08:27Z</time>
      </trkpt>
      <trkpt lat="44.47396" lon="6.7151">
        <ele>1774.1</ele>
        <time>2023-01-20T09:08:28Z</time>
      </trkpt>
      <trkpt lat="44.47396" lon="6.71511">
        <ele>1774.1</ele>
        <time>2023-01-20T09:08:29Z</time>
      </trkpt>
      <trkpt lat="44.47396" lon="6.71511">
        <ele>1774.1</ele>
        <time>2023-01-20T09:08:30Z</time>
      </trkpt>
      <trkpt lat="44.47396" lon="6.71511">
        <ele>1774.1</ele>
        <time>2023-01-20T09:08:31Z</time>
      </trkpt>
      <trkpt lat="44.47396" lon="6.71511">
        <ele>1774</ele>
        <time>2023-01-20T09:08:32Z</time>
      </trkpt>
      <trkpt lat="44.47396" lon="6.71511">
        <ele>1774.1</ele>
        <time>2023-01-20T09:08:33Z</time>
      </trkpt>
      <trkpt lat="44.47396" lon="6.71511">
        <ele>1774.1</ele>
        <time>2023-01-20T09:08:34Z</time>
      </trkpt>
      <trkpt lat="44.47397" lon="6.71511">
        <ele>1774</ele>
        <time>2023-01-20T09:08:36Z</time>
      </trkpt>
      <trkpt lat="44.47397" lon="6.71511">
        <ele>1774</ele>
        <time>2023-01-20T09:08:37Z</time>
      </trkpt>
      <trkpt lat="44.47397" lon="6.71511">
        <ele>1774</ele>
        <time>2023-01-20T09:08:38Z</time>
      </trkpt>
      <trkpt lat="44.47397" lon="6.71511">
        <ele>1773.9</ele>
        <time>2023-01-20T09:08:39Z</time>
      </trkpt>
      <trkpt lat="44.47397" lon="6.71512">
        <ele>1773.9</ele>
        <time>2023-01-20T09:08:40Z</time>
      </trkpt>
      <trkpt lat="44.47397" lon="6.71512">
        <ele>1773.9</ele>
        <time>2023-01-20T09:08:41Z</time>
      </trkpt>
      <trkpt lat="44.47397" lon="6.71512">
        <ele>1773.8</ele>
        <time>2023-01-20T09:08:42Z</time>
      </trkpt>
      <trkpt lat="44.47397" lon="6.71512">
        <ele>1773.8</ele>
        <time>2023-01-20T09:08:43Z</time>
      </trkpt>
      <trkpt lat="44.47397" lon="6.71513">
        <ele>1773.7</ele>
        <time>2023-01-20T09:08:44Z</time>
      </trkpt>
      <trkpt lat="44.47397" lon="6.71513">
        <ele>1773.7</ele>
        <time>2023-01-20T09:08:45Z</time>
      </trkpt>
      <trkpt lat="44.47397" lon="6.71513">
        <ele>1773.7</ele>
        <time>2023-01-20T09:08:46Z</time>
      </trkpt>
      <trkpt lat="44.47397" lon="6.71513">
        <ele>1773.7</ele>
        <time>2023-01-20T09:08:47Z</time>
      </trkpt>
      <trkpt lat="44.47397" lon="6.71513">
        <ele>1773.7</ele>
        <time>2023-01-20T09:08:48Z</time>
      </trkpt>
      <trkpt lat="44.47397" lon="6.71513">
        <ele>1773.7</ele>
        <time>2023-01-20T09:08:49Z</time>
      </trkpt>
      <trkpt lat="44.47397" lon="6.71513">
        <ele>1773.7</ele>
        <time>2023-01-20T09:08:50Z</time>
      </trkpt>
      <trkpt lat="44.47397" lon="6.71512">
        <ele>1773.8</ele>
        <time>2023-01-20T09:08:51Z</time>
      </trkpt>
      <trkpt lat="44.47397" lon="6.71512">
        <ele>1773.8</ele>
        <time>2023-01-20T09:08:52Z</time>
      </trkpt>
      <trkpt lat="44.47397" lon="6.71512">
        <ele>1773.8</ele>
        <time>2023-01-20T09:08:53Z</time>
      </trkpt>
      <trkpt lat="44.47397" lon="6.71512">
        <ele>1773.8</ele>
        <time>2023-01-20T09:08:54Z</time>
      </trkpt>
      <trkpt lat="44.47397" lon="6.71512">
        <ele>1773.8</ele>
        <time>2023-01-20T09:08:55Z</time>
      </trkpt>
      <trkpt lat="44.47397" lon="6.71512">
        <ele>1773.8</ele>
        <time>2023-01-20T09:08:56Z</time>
      </trkpt>
      <trkpt lat="44.47397" lon="6.71512">
        <ele>1773.8</ele>
        <time>2023-01-20T09:08:57Z</time>
      </trkpt>
      <trkpt lat="44.47397" lon="6.71512">
        <ele>1773.8</ele>
        <time>2023-01-20T09:08:58Z</time>
      </trkpt>
      <trkpt lat="44.47397" lon="6.71512">
        <ele>1773.8</ele>
        <time>2023-01-20T09:08:59Z</time>
      </trkpt>
      <trkpt lat="44.47397" lon="6.71512">
        <ele>1773.8</ele>
        <time>2023-01-20T09:09:00Z</time>
      </trkpt>
      <trkpt lat="44.47397" lon="6.71512">
        <ele>1773.8</ele>
        <time>2023-01-20T09:09:01Z</time>
      </trkpt>
      <trkpt lat="44.47397" lon="6.71512">
        <ele>1773.8</ele>
        <time>2023-01-20T09:09:02Z</time>
      </trkpt>
      <trkpt lat="44.47397" lon="6.71512">
        <ele>1773.8</ele>
        <time>2023-01-20T09:09:03Z</time>
      </trkpt>
      <trkpt lat="44.47397" lon="6.71512">
        <ele>1773.9</ele>
        <time>2023-01-20T09:09:04Z</time>
      </trkpt>
      <trkpt lat="44.47397" lon="6.71512">
        <ele>1773.9</ele>
        <time>2023-01-20T09:09:05Z</time>
      </trkpt>
      <trkpt lat="44.47397" lon="6.71512">
        <ele>1773.9</ele>
        <time>2023-01-20T09:09:06Z</time>
      </trkpt>
      <trkpt lat="44.47397" lon="6.71512">
        <ele>1773.9</ele>
        <time>2023-01-20T09:09:07Z</time>
      </trkpt>
      <trkpt lat="44.47397" lon="6.71512">
        <ele>1773.9</ele>
        <time>2023-01-20T09:09:08Z</time>
      </trkpt>
      <trkpt lat="44.47397" lon="6.71511">
        <ele>1773.9</ele>
        <time>2023-01-20T09:09:09Z</time>
      </trkpt>
      <trkpt lat="44.47397" lon="6.71511">
        <ele>1774</ele>
        <time>2023-01-20T09:09:10Z</time>
      </trkpt>
      <trkpt lat="44.47397" lon="6.71511">
        <ele>1774</ele>
        <time>2023-01-20T09:09:11Z</time>
      </trkpt>
      <trkpt lat="44.47397" lon="6.71511">
        <ele>1774</ele>
        <time>2023-01-20T09:09:12Z</time>
      </trkpt>
      <trkpt lat="44.47397" lon="6.71511">
        <ele>1774.1</ele>
        <time>2023-01-20T09:09:13Z</time>
      </trkpt>
      <trkpt lat="44.47397" lon="6.71511">
        <ele>1774.1</ele>
        <time>2023-01-20T09:09:14Z</time>
      </trkpt>
      <trkpt lat="44.47398" lon="6.71511">
        <ele>1774.1</ele>
        <time>2023-01-20T09:09:15Z</time>
      </trkpt>
      <trkpt lat="44.47398" lon="6.7151">
        <ele>1774.1</ele>
        <time>2023-01-20T09:09:16Z</time>
      </trkpt>
      <trkpt lat="44.47398" lon="6.7151">
        <ele>1774.1</ele>
        <time>2023-01-20T09:09:17Z</time>
      </trkpt>
      <trkpt lat="44.47398" lon="6.7151">
        <ele>1774.2</ele>
        <time>2023-01-20T09:09:18Z</time>
      </trkpt>
      <trkpt lat="44.47397" lon="6.7151">
        <ele>1774.2</ele>
        <time>2023-01-20T09:09:19Z</time>
      </trkpt>
      <trkpt lat="44.47397" lon="6.7151">
        <ele>1774.2</ele>
        <time>2023-01-20T09:09:20Z</time>
      </trkpt>
      <trkpt lat="44.47397" lon="6.7151">
        <ele>1774.2</ele>
        <time>2023-01-20T09:09:21Z</time>
      </trkpt>
      <trkpt lat="44.47397" lon="6.7151">
        <ele>1774.3</ele>
        <time>2023-01-20T09:09:22Z</time>
      </trkpt>
      <trkpt lat="44.47397" lon="6.7151">
        <ele>1774.3</ele>
        <time>2023-01-20T09:09:23Z</time>
      </trkpt>
      <trkpt lat="44.47397" lon="6.71509">
        <ele>1774.3</ele>
        <time>2023-01-20T09:09:24Z</time>
      </trkpt>
      <trkpt lat="44.47397" lon="6.71509">
        <ele>1774.3</ele>
        <time>2023-01-20T09:09:25Z</time>
      </trkpt>
      <trkpt lat="44.47397" lon="6.7151">
        <ele>1774.3</ele>
        <time>2023-01-20T09:09:26Z</time>
      </trkpt>
      <trkpt lat="44.47397" lon="6.7151">
        <ele>1774.3</ele>
        <time>2023-01-20T09:09:27Z</time>
      </trkpt>
      <trkpt lat="44.47397" lon="6.71508">
        <ele>1774.5</ele>
        <time>2023-01-20T09:09:28Z</time>
      </trkpt>
      <trkpt lat="44.47397" lon="6.71506">
        <ele>1774.9</ele>
        <time>2023-01-20T09:09:29Z</time>
      </trkpt>
      <trkpt lat="44.47397" lon="6.71506">
        <ele>1775</ele>
        <time>2023-01-20T09:09:30Z</time>
      </trkpt>
      <trkpt lat="44.47397" lon="6.71505">
        <ele>1775.2</ele>
        <time>2023-01-20T09:09:31Z</time>
      </trkpt>
      <trkpt lat="44.47396" lon="6.71503">
        <ele>1775.4</ele>
        <time>2023-01-20T09:09:32Z</time>
      </trkpt>
      <trkpt lat="44.47396" lon="6.71502">
        <ele>1775.7</ele>
        <time>2023-01-20T09:09:33Z</time>
      </trkpt>
      <trkpt lat="44.47395" lon="6.715">
        <ele>1775.9</ele>
        <time>2023-01-20T09:09:34Z</time>
      </trkpt>
      <trkpt lat="44.47395" lon="6.71499">
        <ele>1776.2</ele>
        <time>2023-01-20T09:09:35Z</time>
      </trkpt>
      <trkpt lat="44.47395" lon="6.71498">
        <ele>1776.5</ele>
        <time>2023-01-20T09:09:36Z</time>
      </trkpt>
      <trkpt lat="44.47395" lon="6.71498">
        <ele>1776.5</ele>
        <time>2023-01-20T09:09:37Z</time>
      </trkpt>
      <trkpt lat="44.47394" lon="6.71498">
        <ele>1776.4</ele>
        <time>2023-01-20T09:09:38Z</time>
      </trkpt>
      <trkpt lat="44.47394" lon="6.71499">
        <ele>1776.3</ele>
        <time>2023-01-20T09:09:39Z</time>
      </trkpt>
      <trkpt lat="44.47394" lon="6.71498">
        <ele>1776.3</ele>
        <time>2023-01-20T09:09:40Z</time>
      </trkpt>
      <trkpt lat="44.47394" lon="6.71498">
        <ele>1776.5</ele>
        <time>2023-01-20T09:09:41Z</time>
      </trkpt>
      <trkpt lat="44.47394" lon="6.71497">
        <ele>1776.5</ele>
        <time>2023-01-20T09:09:42Z</time>
      </trkpt>
      <trkpt lat="44.47393" lon="6.71497">
        <ele>1776.7</ele>
        <time>2023-01-20T09:09:43Z</time>
      </trkpt>
      <trkpt lat="44.47393" lon="6.71496">
        <ele>1776.8</ele>
        <time>2023-01-20T09:09:44Z</time>
      </trkpt>
      <trkpt lat="44.47393" lon="6.71495">
        <ele>1777</ele>
        <time>2023-01-20T09:09:45Z</time>
      </trkpt>
      <trkpt lat="44.47393" lon="6.71494">
        <ele>1777.1</ele>
        <time>2023-01-20T09:09:46Z</time>
      </trkpt>
      <trkpt lat="44.47394" lon="6.71494">
        <ele>1777.2</ele>
        <time>2023-01-20T09:09:47Z</time>
      </trkpt>
      <trkpt lat="44.47393" lon="6.71494">
        <ele>1777.1</ele>
        <time>2023-01-20T09:09:48Z</time>
      </trkpt>
      <trkpt lat="44.47393" lon="6.71495">
        <ele>1777.1</ele>
        <time>2023-01-20T09:09:49Z</time>
      </trkpt>
      <trkpt lat="44.47393" lon="6.71495">
        <ele>1777.1</ele>
        <time>2023-01-20T09:09:50Z</time>
      </trkpt>
      <trkpt lat="44.47393" lon="6.71495">
        <ele>1777</ele>
        <time>2023-01-20T09:09:51Z</time>
      </trkpt>
      <trkpt lat="44.47393" lon="6.71495">
        <ele>1777</ele>
        <time>2023-01-20T09:09:52Z</time>
      </trkpt>
      <trkpt lat="44.47394" lon="6.71496">
        <ele>1776.9</ele>
        <time>2023-01-20T09:09:53Z</time>
      </trkpt>
      <trkpt lat="44.47394" lon="6.71496">
        <ele>1776.9</ele>
        <time>2023-01-20T09:09:54Z</time>
      </trkpt>
      <trkpt lat="44.47394" lon="6.71496">
        <ele>1776.9</ele>
        <time>2023-01-20T09:09:55Z</time>
      </trkpt>
      <trkpt lat="44.47394" lon="6.71496">
        <ele>1776.8</ele>
        <time>2023-01-20T09:09:56Z</time>
      </trkpt>
      <trkpt lat="44.47394" lon="6.71496">
        <ele>1776.8</ele>
        <time>2023-01-20T09:09:57Z</time>
      </trkpt>
      <trkpt lat="44.47394" lon="6.71496">
        <ele>1776.9</ele>
        <time>2023-01-20T09:09:58Z</time>
      </trkpt>
      <trkpt lat="44.47394" lon="6.71495">
        <ele>1777</ele>
        <time>2023-01-20T09:09:59Z</time>
      </trkpt>
      <trkpt lat="44.47394" lon="6.71495">
        <ele>1777</ele>
        <time>2023-01-20T09:10:00Z</time>
      </trkpt>
      <trkpt lat="44.47394" lon="6.71495">
        <ele>1776.9</ele>
        <time>2023-01-20T09:10:01Z</time>
      </trkpt>
      <trkpt lat="44.47394" lon="6.71496">
        <ele>1776.9</ele>
        <time>2023-01-20T09:10:02Z</time>
      </trkpt>
      <trkpt lat="44.47394" lon="6.71496">
        <ele>1776.9</ele>
        <time>2023-01-20T09:10:03Z</time>
      </trkpt>
      <trkpt lat="44.47394" lon="6.71496">
        <ele>1776.9</ele>
        <time>2023-01-20T09:10:04Z</time>
      </trkpt>
      <trkpt lat="44.47394" lon="6.71495">
        <ele>1777.1</ele>
        <time>2023-01-20T09:10:05Z</time>
      </trkpt>
      <trkpt lat="44.47393" lon="6.71494">
        <ele>1777.2</ele>
        <time>2023-01-20T09:10:06Z</time>
      </trkpt>
      <trkpt lat="44.47393" lon="6.71493">
        <ele>1777.5</ele>
        <time>2023-01-20T09:10:07Z</time>
      </trkpt>
      <trkpt lat="44.47392" lon="6.71491">
        <ele>1777.8</ele>
        <time>2023-01-20T09:10:08Z</time>
      </trkpt>
      <trkpt lat="44.47392" lon="6.7149">
        <ele>1778</ele>
        <time>2023-01-20T09:10:09Z</time>
      </trkpt>
      <trkpt lat="44.47392" lon="6.71489">
        <ele>1778.3</ele>
        <time>2023-01-20T09:10:10Z</time>
      </trkpt>
      <trkpt lat="44.47392" lon="6.71487">
        <ele>1778.7</ele>
        <time>2023-01-20T09:10:11Z</time>
      </trkpt>
      <trkpt lat="44.47392" lon="6.71485">
        <ele>1779.1</ele>
        <time>2023-01-20T09:10:12Z</time>
      </trkpt>
      <trkpt lat="44.47391" lon="6.71484">
        <ele>1779.4</ele>
        <time>2023-01-20T09:10:13Z</time>
      </trkpt>
      <trkpt lat="44.47391" lon="6.71483">
        <ele>1779.6</ele>
        <time>2023-01-20T09:10:14Z</time>
      </trkpt>
      <trkpt lat="44.47391" lon="6.71481">
        <ele>1780</ele>
        <time>2023-01-20T09:10:15Z</time>
      </trkpt>
      <trkpt lat="44.4739" lon="6.7148">
        <ele>1780.3</ele>
        <time>2023-01-20T09:10:16Z</time>
      </trkpt>
      <trkpt lat="44.4739" lon="6.71478">
        <ele>1780.6</ele>
        <time>2023-01-20T09:10:17Z</time>
      </trkpt>
      <trkpt lat="44.4739" lon="6.71477">
        <ele>1780.9</ele>
        <time>2023-01-20T09:10:18Z</time>
      </trkpt>
      <trkpt lat="44.4739" lon="6.71476">
        <ele>1781.2</ele>
        <time>2023-01-20T09:10:19Z</time>
      </trkpt>
      <trkpt lat="44.4739" lon="6.71475">
        <ele>1781.3</ele>
        <time>2023-01-20T09:10:20Z</time>
      </trkpt>
      <trkpt lat="44.4739" lon="6.71474">
        <ele>1781.5</ele>
        <time>2023-01-20T09:10:21Z</time>
      </trkpt>
      <trkpt lat="44.4739" lon="6.71473">
        <ele>1781.7</ele>
        <time>2023-01-20T09:10:22Z</time>
      </trkpt>
      <trkpt lat="44.4739" lon="6.71472">
        <ele>1781.9</ele>
        <time>2023-01-20T09:10:23Z</time>
      </trkpt>
      <trkpt lat="44.4739" lon="6.71471">
        <ele>1782.1</ele>
        <time>2023-01-20T09:10:24Z</time>
      </trkpt>
      <trkpt lat="44.47389" lon="6.7147">
        <ele>1782.3</ele>
        <time>2023-01-20T09:10:25Z</time>
      </trkpt>
      <trkpt lat="44.47389" lon="6.71468">
        <ele>1782.6</ele>
        <time>2023-01-20T09:10:26Z</time>
      </trkpt>
      <trkpt lat="44.47389" lon="6.71465">
        <ele>1783</ele>
        <time>2023-01-20T09:10:27Z</time>
      </trkpt>
      <trkpt lat="44.47389" lon="6.71463">
        <ele>1783.3</ele>
        <time>2023-01-20T09:10:28Z</time>
      </trkpt>
      <trkpt lat="44.47389" lon="6.71462">
        <ele>1783.5</ele>
        <time>2023-01-20T09:10:29Z</time>
      </trkpt>
      <trkpt lat="44.47389" lon="6.7146">
        <ele>1783.8</ele>
        <time>2023-01-20T09:10:30Z</time>
      </trkpt>
      <trkpt lat="44.47389" lon="6.71459">
        <ele>1783.9</ele>
        <time>2023-01-20T09:10:31Z</time>
      </trkpt>
      <trkpt lat="44.47388" lon="6.71458">
        <ele>1784.2</ele>
        <time>2023-01-20T09:10:32Z</time>
      </trkpt>
      <trkpt lat="44.47388" lon="6.71456">
        <ele>1784.4</ele>
        <time>2023-01-20T09:10:33Z</time>
      </trkpt>
      <trkpt lat="44.47388" lon="6.71455">
        <ele>1784.7</ele>
        <time>2023-01-20T09:10:34Z</time>
      </trkpt>
      <trkpt lat="44.47387" lon="6.71453">
        <ele>1784.9</ele>
        <time>2023-01-20T09:10:35Z</time>
      </trkpt>
      <trkpt lat="44.47387" lon="6.71452">
        <ele>1785.1</ele>
        <time>2023-01-20T09:10:36Z</time>
      </trkpt>
      <trkpt lat="44.47388" lon="6.71451">
        <ele>1785.3</ele>
        <time>2023-01-20T09:10:37Z</time>
      </trkpt>
      <trkpt lat="44.47388" lon="6.7145">
        <ele>1785.4</ele>
        <time>2023-01-20T09:10:38Z</time>
      </trkpt>
      <trkpt lat="44.47388" lon="6.71448">
        <ele>1785.6</ele>
        <time>2023-01-20T09:10:39Z</time>
      </trkpt>
      <trkpt lat="44.47388" lon="6.71447">
        <ele>1785.8</ele>
        <time>2023-01-20T09:10:40Z</time>
      </trkpt>
      <trkpt lat="44.47388" lon="6.71446">
        <ele>1785.9</ele>
        <time>2023-01-20T09:10:41Z</time>
      </trkpt>
      <trkpt lat="44.47389" lon="6.71445">
        <ele>1786</ele>
        <time>2023-01-20T09:10:42Z</time>
      </trkpt>
      <trkpt lat="44.47389" lon="6.71444">
        <ele>1786.1</ele>
        <time>2023-01-20T09:10:43Z</time>
      </trkpt>
      <trkpt lat="44.47389" lon="6.71443">
        <ele>1786.1</ele>
        <time>2023-01-20T09:10:44Z</time>
      </trkpt>
      <trkpt lat="44.47389" lon="6.71442">
        <ele>1786.2</ele>
        <time>2023-01-20T09:10:45Z</time>
      </trkpt>
      <trkpt lat="44.47389" lon="6.71441">
        <ele>1786.3</ele>
        <time>2023-01-20T09:10:46Z</time>
      </trkpt>
      <trkpt lat="44.47389" lon="6.7144">
        <ele>1786.4</ele>
        <time>2023-01-20T09:10:47Z</time>
      </trkpt>
      <trkpt lat="44.47388" lon="6.71439">
        <ele>1786.5</ele>
        <time>2023-01-20T09:10:48Z</time>
      </trkpt>
      <trkpt lat="44.47388" lon="6.71437">
        <ele>1786.7</ele>
        <time>2023-01-20T09:10:49Z</time>
      </trkpt>
      <trkpt lat="44.47388" lon="6.71436">
        <ele>1786.8</ele>
        <time>2023-01-20T09:10:50Z</time>
      </trkpt>
      <trkpt lat="44.47388" lon="6.71435">
        <ele>1786.8</ele>
        <time>2023-01-20T09:10:51Z</time>
      </trkpt>
      <trkpt lat="44.47388" lon="6.71433">
        <ele>1787</ele>
        <time>2023-01-20T09:10:52Z</time>
      </trkpt>
      <trkpt lat="44.47388" lon="6.71432">
        <ele>1787</ele>
        <time>2023-01-20T09:10:53Z</time>
      </trkpt>
      <trkpt lat="44.47388" lon="6.71431">
        <ele>1787.2</ele>
        <time>2023-01-20T09:10:54Z</time>
      </trkpt>
      <trkpt lat="44.47388" lon="6.71429">
        <ele>1787.3</ele>
        <time>2023-01-20T09:10:55Z</time>
      </trkpt>
      <trkpt lat="44.47388" lon="6.71428">
        <ele>1787.4</ele>
        <time>2023-01-20T09:10:56Z</time>
      </trkpt>
      <trkpt lat="44.47388" lon="6.71427">
        <ele>1787.5</ele>
        <time>2023-01-20T09:10:57Z</time>
      </trkpt>
      <trkpt lat="44.47388" lon="6.71426">
        <ele>1787.6</ele>
        <time>2023-01-20T09:10:58Z</time>
      </trkpt>
      <trkpt lat="44.47387" lon="6.71425">
        <ele>1787.7</ele>
        <time>2023-01-20T09:10:59Z</time>
      </trkpt>
      <trkpt lat="44.47387" lon="6.71424">
        <ele>1787.8</ele>
        <time>2023-01-20T09:11:00Z</time>
      </trkpt>
      <trkpt lat="44.47387" lon="6.71423">
        <ele>1787.9</ele>
        <time>2023-01-20T09:11:01Z</time>
      </trkpt>
      <trkpt lat="44.47387" lon="6.71421">
        <ele>1788</ele>
        <time>2023-01-20T09:11:02Z</time>
      </trkpt>
      <trkpt lat="44.47387" lon="6.7142">
        <ele>1788.2</ele>
        <time>2023-01-20T09:11:03Z</time>
      </trkpt>
      <trkpt lat="44.47387" lon="6.71419">
        <ele>1788.2</ele>
        <time>2023-01-20T09:11:04Z</time>
      </trkpt>
      <trkpt lat="44.47386" lon="6.71422">
        <ele>1788.2</ele>
        <time>2023-01-20T09:11:05Z</time>
      </trkpt>
      <trkpt lat="44.47386" lon="6.71422">
        <ele>1788.1</ele>
        <time>2023-01-20T09:11:06Z</time>
      </trkpt>
      <trkpt lat="44.47386" lon="6.71421">
        <ele>1788.2</ele>
        <time>2023-01-20T09:11:07Z</time>
      </trkpt>
      <trkpt lat="44.47385" lon="6.71421">
        <ele>1788.3</ele>
        <time>2023-01-20T09:11:08Z</time>
      </trkpt>
      <trkpt lat="44.47385" lon="6.71421">
        <ele>1788.4</ele>
        <time>2023-01-20T09:11:09Z</time>
      </trkpt>
      <trkpt lat="44.47384" lon="6.7142">
        <ele>1788.5</ele>
        <time>2023-01-20T09:11:10Z</time>
      </trkpt>
      <trkpt lat="44.47384" lon="6.71419">
        <ele>1788.6</ele>
        <time>2023-01-20T09:11:11Z</time>
      </trkpt>
      <trkpt lat="44.47384" lon="6.71418">
        <ele>1788.7</ele>
        <time>2023-01-20T09:11:12Z</time>
      </trkpt>
      <trkpt lat="44.47384" lon="6.71418">
        <ele>1788.8</ele>
        <time>2023-01-20T09:11:13Z</time>
      </trkpt>
      <trkpt lat="44.47384" lon="6.71418">
        <ele>1788.8</ele>
        <time>2023-01-20T09:11:14Z</time>
      </trkpt>
      <trkpt lat="44.47384" lon="6.71417">
        <ele>1788.9</ele>
        <time>2023-01-20T09:11:15Z</time>
      </trkpt>
      <trkpt lat="44.47384" lon="6.71416">
        <ele>1789</ele>
        <time>2023-01-20T09:11:16Z</time>
      </trkpt>
      <trkpt lat="44.47383" lon="6.71414">
        <ele>1789.1</ele>
        <time>2023-01-20T09:11:17Z</time>
      </trkpt>
      <trkpt lat="44.47383" lon="6.71413">
        <ele>1789.2</ele>
        <time>2023-01-20T09:11:18Z</time>
      </trkpt>
      <trkpt lat="44.47383" lon="6.71412">
        <ele>1789.3</ele>
        <time>2023-01-20T09:11:19Z</time>
      </trkpt>
      <trkpt lat="44.47383" lon="6.71411">
        <ele>1789.3</ele>
        <time>2023-01-20T09:11:20Z</time>
      </trkpt>
      <trkpt lat="44.47383" lon="6.71411">
        <ele>1789.4</ele>
        <time>2023-01-20T09:11:21Z</time>
      </trkpt>
      <trkpt lat="44.47383" lon="6.71411">
        <ele>1789.4</ele>
        <time>2023-01-20T09:11:22Z</time>
      </trkpt>
      <trkpt lat="44.47383" lon="6.7141">
        <ele>1789.4</ele>
        <time>2023-01-20T09:11:23Z</time>
      </trkpt>
      <trkpt lat="44.47383" lon="6.7141">
        <ele>1789.4</ele>
        <time>2023-01-20T09:11:24Z</time>
      </trkpt>
      <trkpt lat="44.47383" lon="6.71409">
        <ele>1789.5</ele>
        <time>2023-01-20T09:11:25Z</time>
      </trkpt>
      <trkpt lat="44.47383" lon="6.71408">
        <ele>1789.6</ele>
        <time>2023-01-20T09:11:26Z</time>
      </trkpt>
      <trkpt lat="44.47383" lon="6.71407">
        <ele>1789.6</ele>
        <time>2023-01-20T09:11:27Z</time>
      </trkpt>
      <trkpt lat="44.47383" lon="6.71406">
        <ele>1789.7</ele>
        <time>2023-01-20T09:11:28Z</time>
      </trkpt>
      <trkpt lat="44.47382" lon="6.71405">
        <ele>1789.8</ele>
        <time>2023-01-20T09:11:29Z</time>
      </trkpt>
      <trkpt lat="44.47382" lon="6.71404">
        <ele>1789.9</ele>
        <time>2023-01-20T09:11:30Z</time>
      </trkpt>
      <trkpt lat="44.47382" lon="6.71403">
        <ele>1790</ele>
        <time>2023-01-20T09:11:31Z</time>
      </trkpt>
      <trkpt lat="44.47382" lon="6.71402">
        <ele>1790.1</ele>
        <time>2023-01-20T09:11:32Z</time>
      </trkpt>
      <trkpt lat="44.47382" lon="6.71402">
        <ele>1790.1</ele>
        <time>2023-01-20T09:11:33Z</time>
      </trkpt>
      <trkpt lat="44.47381" lon="6.71401">
        <ele>1790.2</ele>
        <time>2023-01-20T09:11:34Z</time>
      </trkpt>
      <trkpt lat="44.47381" lon="6.714">
        <ele>1790.3</ele>
        <time>2023-01-20T09:11:35Z</time>
      </trkpt>
      <trkpt lat="44.47381" lon="6.714">
        <ele>1790.4</ele>
        <time>2023-01-20T09:11:36Z</time>
      </trkpt>
      <trkpt lat="44.4738" lon="6.71399">
        <ele>1790.5</ele>
        <time>2023-01-20T09:11:37Z</time>
      </trkpt>
      <trkpt lat="44.4738" lon="6.71398">
        <ele>1790.7</ele>
        <time>2023-01-20T09:11:38Z</time>
      </trkpt>
      <trkpt lat="44.47379" lon="6.71398">
        <ele>1790.9</ele>
        <time>2023-01-20T09:11:39Z</time>
      </trkpt>
      <trkpt lat="44.47379" lon="6.71398">
        <ele>1791</ele>
        <time>2023-01-20T09:11:40Z</time>
      </trkpt>
      <trkpt lat="44.47378" lon="6.71398">
        <ele>1791.1</ele>
        <time>2023-01-20T09:11:41Z</time>
      </trkpt>
      <trkpt lat="44.47378" lon="6.71397">
        <ele>1791.3</ele>
        <time>2023-01-20T09:11:42Z</time>
      </trkpt>
      <trkpt lat="44.47377" lon="6.71397">
        <ele>1791.4</ele>
        <time>2023-01-20T09:11:43Z</time>
      </trkpt>
      <trkpt lat="44.47377" lon="6.71396">
        <ele>1791.6</ele>
        <time>2023-01-20T09:11:44Z</time>
      </trkpt>
      <trkpt lat="44.47376" lon="6.71395">
        <ele>1791.7</ele>
        <time>2023-01-20T09:11:45Z</time>
      </trkpt>
      <trkpt lat="44.47376" lon="6.71394">
        <ele>1791.9</ele>
        <time>2023-01-20T09:11:46Z</time>
      </trkpt>
      <trkpt lat="44.47375" lon="6.71393">
        <ele>1792.1</ele>
        <time>2023-01-20T09:11:47Z</time>
      </trkpt>
      <trkpt lat="44.47375" lon="6.71392">
        <ele>1792.4</ele>
        <time>2023-01-20T09:11:48Z</time>
      </trkpt>
      <trkpt lat="44.47374" lon="6.71391">
        <ele>1792.5</ele>
        <time>2023-01-20T09:11:49Z</time>
      </trkpt>
      <trkpt lat="44.47374" lon="6.7139">
        <ele>1792.7</ele>
        <time>2023-01-20T09:11:50Z</time>
      </trkpt>
      <trkpt lat="44.47374" lon="6.71389">
        <ele>1792.8</ele>
        <time>2023-01-20T09:11:51Z</time>
      </trkpt>
      <trkpt lat="44.47373" lon="6.71388">
        <ele>1793</ele>
        <time>2023-01-20T09:11:52Z</time>
      </trkpt>
      <trkpt lat="44.47373" lon="6.71387">
        <ele>1793.2</ele>
        <time>2023-01-20T09:11:53Z</time>
      </trkpt>
      <trkpt lat="44.47373" lon="6.71385">
        <ele>1793.3</ele>
        <time>2023-01-20T09:11:54Z</time>
      </trkpt>
      <trkpt lat="44.47374" lon="6.71382">
        <ele>1793.5</ele>
        <time>2023-01-20T09:11:55Z</time>
      </trkpt>
      <trkpt lat="44.47374" lon="6.7138">
        <ele>1793.6</ele>
        <time>2023-01-20T09:11:56Z</time>
      </trkpt>
      <trkpt lat="44.47375" lon="6.71378">
        <ele>1793.6</ele>
        <time>2023-01-20T09:11:57Z</time>
      </trkpt>
      <trkpt lat="44.47376" lon="6.71375">
        <ele>1793.8</ele>
        <time>2023-01-20T09:11:58Z</time>
      </trkpt>
      <trkpt lat="44.47376" lon="6.71373">
        <ele>1793.9</ele>
        <time>2023-01-20T09:11:59Z</time>
      </trkpt>
      <trkpt lat="44.47376" lon="6.71372">
        <ele>1794</ele>
        <time>2023-01-20T09:12:00Z</time>
      </trkpt>
      <trkpt lat="44.47377" lon="6.71371">
        <ele>1794.1</ele>
        <time>2023-01-20T09:12:01Z</time>
      </trkpt>
      <trkpt lat="44.47377" lon="6.71369">
        <ele>1794.1</ele>
        <time>2023-01-20T09:12:02Z</time>
      </trkpt>
      <trkpt lat="44.47377" lon="6.71367">
        <ele>1794.2</ele>
        <time>2023-01-20T09:12:03Z</time>
      </trkpt>
      <trkpt lat="44.47378" lon="6.71366">
        <ele>1794.3</ele>
        <time>2023-01-20T09:12:04Z</time>
      </trkpt>
      <trkpt lat="44.47378" lon="6.71364">
        <ele>1794.3</ele>
        <time>2023-01-20T09:12:05Z</time>
      </trkpt>
      <trkpt lat="44.47379" lon="6.71363">
        <ele>1794.4</ele>
        <time>2023-01-20T09:12:06Z</time>
      </trkpt>
      <trkpt lat="44.47379" lon="6.71362">
        <ele>1794.3</ele>
        <time>2023-01-20T09:12:07Z</time>
      </trkpt>
      <trkpt lat="44.4738" lon="6.71361">
        <ele>1794.2</ele>
        <time>2023-01-20T09:12:08Z</time>
      </trkpt>
      <trkpt lat="44.4738" lon="6.71361">
        <ele>1794.2</ele>
        <time>2023-01-20T09:12:09Z</time>
      </trkpt>
      <trkpt lat="44.47381" lon="6.71359">
        <ele>1794.3</ele>
        <time>2023-01-20T09:12:10Z</time>
      </trkpt>
      <trkpt lat="44.47381" lon="6.71359">
        <ele>1794.4</ele>
        <time>2023-01-20T09:12:11Z</time>
      </trkpt>
      <trkpt lat="44.47381" lon="6.71357">
        <ele>1794.5</ele>
        <time>2023-01-20T09:12:12Z</time>
      </trkpt>
      <trkpt lat="44.47382" lon="6.71355">
        <ele>1794.6</ele>
        <time>2023-01-20T09:12:13Z</time>
      </trkpt>
      <trkpt lat="44.47382" lon="6.71355">
        <ele>1794.6</ele>
        <time>2023-01-20T09:12:14Z</time>
      </trkpt>
      <trkpt lat="44.47383" lon="6.71354">
        <ele>1794.6</ele>
        <time>2023-01-20T09:12:15Z</time>
      </trkpt>
      <trkpt lat="44.47383" lon="6.71353">
        <ele>1794.7</ele>
        <time>2023-01-20T09:12:16Z</time>
      </trkpt>
      <trkpt lat="44.47383" lon="6.71351">
        <ele>1794.8</ele>
        <time>2023-01-20T09:12:17Z</time>
      </trkpt>
      <trkpt lat="44.47384" lon="6.7135">
        <ele>1794.9</ele>
        <time>2023-01-20T09:12:18Z</time>
      </trkpt>
      <trkpt lat="44.47384" lon="6.71349">
        <ele>1794.9</ele>
        <time>2023-01-20T09:12:19Z</time>
      </trkpt>
      <trkpt lat="44.47384" lon="6.71348">
        <ele>1795</ele>
        <time>2023-01-20T09:12:20Z</time>
      </trkpt>
      <trkpt lat="44.47385" lon="6.71347">
        <ele>1795</ele>
        <time>2023-01-20T09:12:21Z</time>
      </trkpt>
      <trkpt lat="44.47385" lon="6.71346">
        <ele>1795</ele>
        <time>2023-01-20T09:12:22Z</time>
      </trkpt>
      <trkpt lat="44.47386" lon="6.71346">
        <ele>1794.9</ele>
        <time>2023-01-20T09:12:23Z</time>
      </trkpt>
      <trkpt lat="44.47386" lon="6.71346">
        <ele>1794.9</ele>
        <time>2023-01-20T09:12:24Z</time>
      </trkpt>
      <trkpt lat="44.47386" lon="6.71345">
        <ele>1795</ele>
        <time>2023-01-20T09:12:25Z</time>
      </trkpt>
      <trkpt lat="44.47387" lon="6.71344">
        <ele>1795</ele>
        <time>2023-01-20T09:12:26Z</time>
      </trkpt>
      <trkpt lat="44.47387" lon="6.71343">
        <ele>1795</ele>
        <time>2023-01-20T09:12:27Z</time>
      </trkpt>
      <trkpt lat="44.47387" lon="6.71343">
        <ele>1795.1</ele>
        <time>2023-01-20T09:12:28Z</time>
      </trkpt>
      <trkpt lat="44.47388" lon="6.71342">
        <ele>1795.1</ele>
        <time>2023-01-20T09:12:29Z</time>
      </trkpt>
      <trkpt lat="44.47388" lon="6.71341">
        <ele>1795.1</ele>
        <time>2023-01-20T09:12:30Z</time>
      </trkpt>
      <trkpt lat="44.47388" lon="6.71341">
        <ele>1795.1</ele>
        <time>2023-01-20T09:12:31Z</time>
      </trkpt>
      <trkpt lat="44.47388" lon="6.7134">
        <ele>1795.1</ele>
        <time>2023-01-20T09:12:32Z</time>
      </trkpt>
      <trkpt lat="44.47389" lon="6.7134">
        <ele>1795.1</ele>
        <time>2023-01-20T09:12:33Z</time>
      </trkpt>
      <trkpt lat="44.47388" lon="6.71339">
        <ele>1795.3</ele>
        <time>2023-01-20T09:12:34Z</time>
      </trkpt>
      <trkpt lat="44.47388" lon="6.71339">
        <ele>1795.3</ele>
        <time>2023-01-20T09:12:35Z</time>
      </trkpt>
      <trkpt lat="44.47388" lon="6.71338">
        <ele>1795.5</ele>
        <time>2023-01-20T09:12:36Z</time>
      </trkpt>
      <trkpt lat="44.47388" lon="6.71337">
        <ele>1795.7</ele>
        <time>2023-01-20T09:12:37Z</time>
      </trkpt>
      <trkpt lat="44.47388" lon="6.71336">
        <ele>1795.9</ele>
        <time>2023-01-20T09:12:38Z</time>
      </trkpt>
      <trkpt lat="44.47388" lon="6.71335">
        <ele>1796</ele>
        <time>2023-01-20T09:12:39Z</time>
      </trkpt>
      <trkpt lat="44.47388" lon="6.71335">
        <ele>1796.2</ele>
        <time>2023-01-20T09:12:40Z</time>
      </trkpt>
      <trkpt lat="44.47387" lon="6.71334">
        <ele>1796.3</ele>
        <time>2023-01-20T09:12:41Z</time>
      </trkpt>
      <trkpt lat="44.47387" lon="6.71334">
        <ele>1796.4</ele>
        <time>2023-01-20T09:12:42Z</time>
      </trkpt>
      <trkpt lat="44.47387" lon="6.71334">
        <ele>1796.5</ele>
        <time>2023-01-20T09:12:43Z</time>
      </trkpt>
      <trkpt lat="44.47387" lon="6.71333">
        <ele>1796.7</ele>
        <time>2023-01-20T09:12:44Z</time>
      </trkpt>
      <trkpt lat="44.47387" lon="6.71334">
        <ele>1796.5</ele>
        <time>2023-01-20T09:12:45Z</time>
      </trkpt>
      <trkpt lat="44.47386" lon="6.71334">
        <ele>1796.6</ele>
        <time>2023-01-20T09:12:46Z</time>
      </trkpt>
      <trkpt lat="44.47386" lon="6.71334">
        <ele>1796.6</ele>
        <time>2023-01-20T09:12:47Z</time>
      </trkpt>
      <trkpt lat="44.47386" lon="6.71334">
        <ele>1796.7</ele>
        <time>2023-01-20T09:12:48Z</time>
      </trkpt>
      <trkpt lat="44.47386" lon="6.71334">
        <ele>1796.8</ele>
        <time>2023-01-20T09:12:49Z</time>
      </trkpt>
      <trkpt lat="44.47386" lon="6.71334">
        <ele>1796.8</ele>
        <time>2023-01-20T09:12:50Z</time>
      </trkpt>
      <trkpt lat="44.47385" lon="6.71334">
        <ele>1796.9</ele>
        <time>2023-01-20T09:12:51Z</time>
      </trkpt>
      <trkpt lat="44.47385" lon="6.71334">
        <ele>1796.9</ele>
        <time>2023-01-20T09:12:52Z</time>
      </trkpt>
      <trkpt lat="44.47385" lon="6.71334">
        <ele>1797</ele>
        <time>2023-01-20T09:12:53Z</time>
      </trkpt>
      <trkpt lat="44.47385" lon="6.71334">
        <ele>1797</ele>
        <time>2023-01-20T09:12:54Z</time>
      </trkpt>
      <trkpt lat="44.47384" lon="6.71334">
        <ele>1797.1</ele>
        <time>2023-01-20T09:12:55Z</time>
      </trkpt>
      <trkpt lat="44.47384" lon="6.71334">
        <ele>1797.1</ele>
        <time>2023-01-20T09:12:56Z</time>
      </trkpt>
      <trkpt lat="44.47384" lon="6.71335">
        <ele>1797.1</ele>
        <time>2023-01-20T09:12:57Z</time>
      </trkpt>
      <trkpt lat="44.47383" lon="6.71335">
        <ele>1797.2</ele>
        <time>2023-01-20T09:12:58Z</time>
      </trkpt>
      <trkpt lat="44.47383" lon="6.71335">
        <ele>1797.3</ele>
        <time>2023-01-20T09:12:59Z</time>
      </trkpt>
      <trkpt lat="44.47382" lon="6.71336">
        <ele>1797.4</ele>
        <time>2023-01-20T09:13:00Z</time>
      </trkpt>
      <trkpt lat="44.47381" lon="6.71336">
        <ele>1797.5</ele>
        <time>2023-01-20T09:13:01Z</time>
      </trkpt>
      <trkpt lat="44.47381" lon="6.71336">
        <ele>1797.6</ele>
        <time>2023-01-20T09:13:02Z</time>
      </trkpt>
      <trkpt lat="44.4738" lon="6.71337">
        <ele>1797.7</ele>
        <time>2023-01-20T09:13:03Z</time>
      </trkpt>
      <trkpt lat="44.47379" lon="6.71337">
        <ele>1797.8</ele>
        <time>2023-01-20T09:13:04Z</time>
      </trkpt>
      <trkpt lat="44.47379" lon="6.71338">
        <ele>1797.8</ele>
        <time>2023-01-20T09:13:05Z</time>
      </trkpt>
      <trkpt lat="44.47378" lon="6.71339">
        <ele>1797.9</ele>
        <time>2023-01-20T09:13:06Z</time>
      </trkpt>
      <trkpt lat="44.47377" lon="6.7134">
        <ele>1798</ele>
        <time>2023-01-20T09:13:07Z</time>
      </trkpt>
      <trkpt lat="44.47376" lon="6.7134">
        <ele>1798.2</ele>
        <time>2023-01-20T09:13:08Z</time>
      </trkpt>
      <trkpt lat="44.47376" lon="6.71341">
        <ele>1798.3</ele>
        <time>2023-01-20T09:13:09Z</time>
      </trkpt>
      <trkpt lat="44.47375" lon="6.7134">
        <ele>1798.4</ele>
        <time>2023-01-20T09:13:10Z</time>
      </trkpt>
      <trkpt lat="44.47375" lon="6.71341">
        <ele>1798.4</ele>
        <time>2023-01-20T09:13:11Z</time>
      </trkpt>
      <trkpt lat="44.47374" lon="6.71341">
        <ele>1798.5</ele>
        <time>2023-01-20T09:13:12Z</time>
      </trkpt>
      <trkpt lat="44.47374" lon="6.71342">
        <ele>1798.6</ele>
        <time>2023-01-20T09:13:13Z</time>
      </trkpt>
      <trkpt lat="44.47373" lon="6.71342">
        <ele>1798.7</ele>
        <time>2023-01-20T09:13:14Z</time>
      </trkpt>
      <trkpt lat="44.47372" lon="6.71343">
        <ele>1798.8</ele>
        <time>2023-01-20T09:13:15Z</time>
      </trkpt>
      <trkpt lat="44.47372" lon="6.71343">
        <ele>1798.9</ele>
        <time>2023-01-20T09:13:16Z</time>
      </trkpt>
      <trkpt lat="44.47371" lon="6.71343">
        <ele>1799</ele>
        <time>2023-01-20T09:13:17Z</time>
      </trkpt>
      <trkpt lat="44.47371" lon="6.71344">
        <ele>1799.1</ele>
        <time>2023-01-20T09:13:18Z</time>
      </trkpt>
      <trkpt lat="44.47369" lon="6.71345">
        <ele>1799.3</ele>
        <time>2023-01-20T09:13:19Z</time>
      </trkpt>
      <trkpt lat="44.47368" lon="6.71345">
        <ele>1799.6</ele>
        <time>2023-01-20T09:13:20Z</time>
      </trkpt>
      <trkpt lat="44.47367" lon="6.71345">
        <ele>1799.8</ele>
        <time>2023-01-20T09:13:21Z</time>
      </trkpt>
      <trkpt lat="44.47367" lon="6.71344">
        <ele>1799.9</ele>
        <time>2023-01-20T09:13:22Z</time>
      </trkpt>
      <trkpt lat="44.47368" lon="6.71342">
        <ele>1800.1</ele>
        <time>2023-01-20T09:13:23Z</time>
      </trkpt>
      <trkpt lat="44.47368" lon="6.71341">
        <ele>1800.2</ele>
        <time>2023-01-20T09:13:24Z</time>
      </trkpt>
      <trkpt lat="44.47368" lon="6.7134">
        <ele>1800.3</ele>
        <time>2023-01-20T09:13:25Z</time>
      </trkpt>
      <trkpt lat="44.47368" lon="6.71339">
        <ele>1800.4</ele>
        <time>2023-01-20T09:13:26Z</time>
      </trkpt>
      <trkpt lat="44.47369" lon="6.71338">
        <ele>1800.4</ele>
        <time>2023-01-20T09:13:27Z</time>
      </trkpt>
      <trkpt lat="44.47369" lon="6.71336">
        <ele>1800.6</ele>
        <time>2023-01-20T09:13:28Z</time>
      </trkpt>
      <trkpt lat="44.47369" lon="6.71336">
        <ele>1800.6</ele>
        <time>2023-01-20T09:13:29Z</time>
      </trkpt>
      <trkpt lat="44.4737" lon="6.71334">
        <ele>1800.7</ele>
        <time>2023-01-20T09:13:30Z</time>
      </trkpt>
      <trkpt lat="44.4737" lon="6.71333">
        <ele>1800.8</ele>
        <time>2023-01-20T09:13:31Z</time>
      </trkpt>
      <trkpt lat="44.4737" lon="6.71332">
        <ele>1801.1</ele>
        <time>2023-01-20T09:13:32Z</time>
      </trkpt>
      <trkpt lat="44.4737" lon="6.7133">
        <ele>1801.6</ele>
        <time>2023-01-20T09:13:33Z</time>
      </trkpt>
      <trkpt lat="44.4737" lon="6.71328">
        <ele>1802</ele>
        <time>2023-01-20T09:13:34Z</time>
      </trkpt>
      <trkpt lat="44.4737" lon="6.71327">
        <ele>1802.2</ele>
        <time>2023-01-20T09:13:35Z</time>
      </trkpt>
      <trkpt lat="44.4737" lon="6.71326">
        <ele>1802.5</ele>
        <time>2023-01-20T09:13:36Z</time>
      </trkpt>
      <trkpt lat="44.4737" lon="6.71325">
        <ele>1802.7</ele>
        <time>2023-01-20T09:13:37Z</time>
      </trkpt>
      <trkpt lat="44.4737" lon="6.71325">
        <ele>1802.6</ele>
        <time>2023-01-20T09:13:38Z</time>
      </trkpt>
      <trkpt lat="44.47371" lon="6.71324">
        <ele>1802.8</ele>
        <time>2023-01-20T09:13:39Z</time>
      </trkpt>
      <trkpt lat="44.47371" lon="6.71323">
        <ele>1803</ele>
        <time>2023-01-20T09:13:40Z</time>
      </trkpt>
      <trkpt lat="44.47371" lon="6.71322">
        <ele>1803.2</ele>
        <time>2023-01-20T09:13:41Z</time>
      </trkpt>
      <trkpt lat="44.47371" lon="6.71321">
        <ele>1803.3</ele>
        <time>2023-01-20T09:13:42Z</time>
      </trkpt>
      <trkpt lat="44.47372" lon="6.7132">
        <ele>1803.5</ele>
        <time>2023-01-20T09:13:43Z</time>
      </trkpt>
      <trkpt lat="44.47372" lon="6.71319">
        <ele>1803.6</ele>
        <time>2023-01-20T09:13:44Z</time>
      </trkpt>
      <trkpt lat="44.47372" lon="6.71318">
        <ele>1803.7</ele>
        <time>2023-01-20T09:13:45Z</time>
      </trkpt>
      <trkpt lat="44.47372" lon="6.71318">
        <ele>1803.8</ele>
        <time>2023-01-20T09:13:46Z</time>
      </trkpt>
      <trkpt lat="44.47372" lon="6.71317">
        <ele>1803.9</ele>
        <time>2023-01-20T09:13:47Z</time>
      </trkpt>
      <trkpt lat="44.47372" lon="6.71316">
        <ele>1804.1</ele>
        <time>2023-01-20T09:13:48Z</time>
      </trkpt>
      <trkpt lat="44.47373" lon="6.71316">
        <ele>1804.2</ele>
        <time>2023-01-20T09:13:49Z</time>
      </trkpt>
      <trkpt lat="44.47373" lon="6.71315">
        <ele>1804.4</ele>
        <time>2023-01-20T09:13:50Z</time>
      </trkpt>
      <trkpt lat="44.47373" lon="6.71314">
        <ele>1804.5</ele>
        <time>2023-01-20T09:13:51Z</time>
      </trkpt>
      <trkpt lat="44.47373" lon="6.71313">
        <ele>1804.7</ele>
        <time>2023-01-20T09:13:52Z</time>
      </trkpt>
      <trkpt lat="44.47373" lon="6.71313">
        <ele>1804.8</ele>
        <time>2023-01-20T09:13:53Z</time>
      </trkpt>
      <trkpt lat="44.47373" lon="6.71313">
        <ele>1804.8</ele>
        <time>2023-01-20T09:13:54Z</time>
      </trkpt>
      <trkpt lat="44.47373" lon="6.71312">
        <ele>1804.9</ele>
        <time>2023-01-20T09:13:55Z</time>
      </trkpt>
      <trkpt lat="44.47373" lon="6.71312">
        <ele>1804.9</ele>
        <time>2023-01-20T09:13:56Z</time>
      </trkpt>
      <trkpt lat="44.47374" lon="6.71311">
        <ele>1805</ele>
        <time>2023-01-20T09:13:57Z</time>
      </trkpt>
      <trkpt lat="44.47374" lon="6.71311">
        <ele>1804.9</ele>
        <time>2023-01-20T09:13:58Z</time>
      </trkpt>
      <trkpt lat="44.47373" lon="6.71311">
        <ele>1805.2</ele>
        <time>2023-01-20T09:13:59Z</time>
      </trkpt>
      <trkpt lat="44.47373" lon="6.7131">
        <ele>1805.4</ele>
        <time>2023-01-20T09:14:00Z</time>
      </trkpt>
      <trkpt lat="44.47373" lon="6.71309">
        <ele>1805.7</ele>
        <time>2023-01-20T09:14:01Z</time>
      </trkpt>
      <trkpt lat="44.47373" lon="6.71308">
        <ele>1805.8</ele>
        <time>2023-01-20T09:14:02Z</time>
      </trkpt>
      <trkpt lat="44.47373" lon="6.71307">
        <ele>1806</ele>
        <time>2023-01-20T09:14:03Z</time>
      </trkpt>
      <trkpt lat="44.47373" lon="6.71307">
        <ele>1806.1</ele>
        <time>2023-01-20T09:14:04Z</time>
      </trkpt>
      <trkpt lat="44.47373" lon="6.71306">
        <ele>1806.4</ele>
        <time>2023-01-20T09:14:05Z</time>
      </trkpt>
      <trkpt lat="44.47373" lon="6.71305">
        <ele>1806.5</ele>
        <time>2023-01-20T09:14:06Z</time>
      </trkpt>
      <trkpt lat="44.47374" lon="6.71304">
        <ele>1806.7</ele>
        <time>2023-01-20T09:14:07Z</time>
      </trkpt>
      <trkpt lat="44.47374" lon="6.71303">
        <ele>1806.8</ele>
        <time>2023-01-20T09:14:08Z</time>
      </trkpt>
      <trkpt lat="44.47374" lon="6.71302">
        <ele>1807.1</ele>
        <time>2023-01-20T09:14:09Z</time>
      </trkpt>
      <trkpt lat="44.47374" lon="6.71302">
        <ele>1807.2</ele>
        <time>2023-01-20T09:14:10Z</time>
      </trkpt>
      <trkpt lat="44.47374" lon="6.71301">
        <ele>1807.4</ele>
        <time>2023-01-20T09:14:11Z</time>
      </trkpt>
      <trkpt lat="44.47374" lon="6.713">
        <ele>1807.6</ele>
        <time>2023-01-20T09:14:12Z</time>
      </trkpt>
      <trkpt lat="44.47374" lon="6.71299">
        <ele>1807.9</ele>
        <time>2023-01-20T09:14:13Z</time>
      </trkpt>
      <trkpt lat="44.47374" lon="6.71298">
        <ele>1808.2</ele>
        <time>2023-01-20T09:14:14Z</time>
      </trkpt>
      <trkpt lat="44.47374" lon="6.71297">
        <ele>1808.4</ele>
        <time>2023-01-20T09:14:15Z</time>
      </trkpt>
      <trkpt lat="44.47374" lon="6.71296">
        <ele>1808.7</ele>
        <time>2023-01-20T09:14:16Z</time>
      </trkpt>
      <trkpt lat="44.47374" lon="6.71295">
        <ele>1808.9</ele>
        <time>2023-01-20T09:14:17Z</time>
      </trkpt>
      <trkpt lat="44.47374" lon="6.71294">
        <ele>1809.2</ele>
        <time>2023-01-20T09:14:18Z</time>
      </trkpt>
      <trkpt lat="44.47374" lon="6.71293">
        <ele>1809.5</ele>
        <time>2023-01-20T09:14:19Z</time>
      </trkpt>
      <trkpt lat="44.47374" lon="6.71292">
        <ele>1809.6</ele>
        <time>2023-01-20T09:14:20Z</time>
      </trkpt>
      <trkpt lat="44.47374" lon="6.71292">
        <ele>1809.6</ele>
        <time>2023-01-20T09:14:21Z</time>
      </trkpt>
      <trkpt lat="44.47375" lon="6.71291">
        <ele>1809.8</ele>
        <time>2023-01-20T09:14:22Z</time>
      </trkpt>
      <trkpt lat="44.47375" lon="6.7129">
        <ele>1809.9</ele>
        <time>2023-01-20T09:14:23Z</time>
      </trkpt>
      <trkpt lat="44.47376" lon="6.71289">
        <ele>1810.2</ele>
        <time>2023-01-20T09:14:24Z</time>
      </trkpt>
      <trkpt lat="44.47376" lon="6.71287">
        <ele>1810.4</ele>
        <time>2023-01-20T09:14:25Z</time>
      </trkpt>
      <trkpt lat="44.47376" lon="6.71287">
        <ele>1810.6</ele>
        <time>2023-01-20T09:14:26Z</time>
      </trkpt>
      <trkpt lat="44.47376" lon="6.71286">
        <ele>1810.7</ele>
        <time>2023-01-20T09:14:27Z</time>
      </trkpt>
      <trkpt lat="44.47376" lon="6.71284">
        <ele>1811.2</ele>
        <time>2023-01-20T09:14:28Z</time>
      </trkpt>
      <trkpt lat="44.47376" lon="6.71283">
        <ele>1811.4</ele>
        <time>2023-01-20T09:14:29Z</time>
      </trkpt>
      <trkpt lat="44.47376" lon="6.71283">
        <ele>1811.5</ele>
        <time>2023-01-20T09:14:30Z</time>
      </trkpt>
      <trkpt lat="44.47376" lon="6.71282">
        <ele>1811.6</ele>
        <time>2023-01-20T09:14:31Z</time>
      </trkpt>
      <trkpt lat="44.47377" lon="6.71281">
        <ele>1811.7</ele>
        <time>2023-01-20T09:14:32Z</time>
      </trkpt>
      <trkpt lat="44.47377" lon="6.7128">
        <ele>1811.9</ele>
        <time>2023-01-20T09:14:33Z</time>
      </trkpt>
      <trkpt lat="44.47378" lon="6.7128">
        <ele>1811.9</ele>
        <time>2023-01-20T09:14:34Z</time>
      </trkpt>
      <trkpt lat="44.47378" lon="6.71278">
        <ele>1812.2</ele>
        <time>2023-01-20T09:14:35Z</time>
      </trkpt>
      <trkpt lat="44.47379" lon="6.71277">
        <ele>1812.4</ele>
        <time>2023-01-20T09:14:36Z</time>
      </trkpt>
      <trkpt lat="44.47379" lon="6.71276">
        <ele>1812.5</ele>
        <time>2023-01-20T09:14:37Z</time>
      </trkpt>
      <trkpt lat="44.4738" lon="6.71275">
        <ele>1812.7</ele>
        <time>2023-01-20T09:14:38Z</time>
      </trkpt>
      <trkpt lat="44.4738" lon="6.71274">
        <ele>1812.9</ele>
        <time>2023-01-20T09:14:39Z</time>
      </trkpt>
      <trkpt lat="44.4738" lon="6.71273">
        <ele>1813.2</ele>
        <time>2023-01-20T09:14:40Z</time>
      </trkpt>
      <trkpt lat="44.47381" lon="6.71273">
        <ele>1813.2</ele>
        <time>2023-01-20T09:14:41Z</time>
      </trkpt>
      <trkpt lat="44.47381" lon="6.71272">
        <ele>1813.3</ele>
        <time>2023-01-20T09:14:42Z</time>
      </trkpt>
      <trkpt lat="44.47382" lon="6.71271">
        <ele>1813.4</ele>
        <time>2023-01-20T09:14:43Z</time>
      </trkpt>
      <trkpt lat="44.47382" lon="6.7127">
        <ele>1813.7</ele>
        <time>2023-01-20T09:14:44Z</time>
      </trkpt>
      <trkpt lat="44.47382" lon="6.71269">
        <ele>1813.9</ele>
        <time>2023-01-20T09:14:45Z</time>
      </trkpt>
      <trkpt lat="44.47382" lon="6.71268">
        <ele>1814.1</ele>
        <time>2023-01-20T09:14:46Z</time>
      </trkpt>
      <trkpt lat="44.47383" lon="6.71267">
        <ele>1814.4</ele>
        <time>2023-01-20T09:14:47Z</time>
      </trkpt>
      <trkpt lat="44.47383" lon="6.71266">
        <ele>1814.7</ele>
        <time>2023-01-20T09:14:48Z</time>
      </trkpt>
      <trkpt lat="44.47383" lon="6.71265">
        <ele>1815</ele>
        <time>2023-01-20T09:14:49Z</time>
      </trkpt>
      <trkpt lat="44.47383" lon="6.71264">
        <ele>1815.2</ele>
        <time>2023-01-20T09:14:50Z</time>
      </trkpt>
      <trkpt lat="44.47384" lon="6.71262">
        <ele>1815.4</ele>
        <time>2023-01-20T09:14:51Z</time>
      </trkpt>
      <trkpt lat="44.47384" lon="6.71261">
        <ele>1815.7</ele>
        <time>2023-01-20T09:14:52Z</time>
      </trkpt>
      <trkpt lat="44.47384" lon="6.7126">
        <ele>1816</ele>
        <time>2023-01-20T09:14:53Z</time>
      </trkpt>
      <trkpt lat="44.47385" lon="6.71259">
        <ele>1816.1</ele>
        <time>2023-01-20T09:14:54Z</time>
      </trkpt>
      <trkpt lat="44.47386" lon="6.71258">
        <ele>1816.3</ele>
        <time>2023-01-20T09:14:55Z</time>
      </trkpt>
      <trkpt lat="44.47387" lon="6.71258">
        <ele>1816.1</ele>
        <time>2023-01-20T09:14:56Z</time>
      </trkpt>
      <trkpt lat="44.47388" lon="6.71257">
        <ele>1816.1</ele>
        <time>2023-01-20T09:14:57Z</time>
      </trkpt>
      <trkpt lat="44.47389" lon="6.71257">
        <ele>1816.2</ele>
        <time>2023-01-20T09:14:58Z</time>
      </trkpt>
      <trkpt lat="44.47389" lon="6.71255">
        <ele>1816.5</ele>
        <time>2023-01-20T09:14:59Z</time>
      </trkpt>
      <trkpt lat="44.4739" lon="6.71254">
        <ele>1816.7</ele>
        <time>2023-01-20T09:15:00Z</time>
      </trkpt>
      <trkpt lat="44.4739" lon="6.71254">
        <ele>1816.8</ele>
        <time>2023-01-20T09:15:01Z</time>
      </trkpt>
      <trkpt lat="44.47391" lon="6.71253">
        <ele>1816.9</ele>
        <time>2023-01-20T09:15:02Z</time>
      </trkpt>
      <trkpt lat="44.47392" lon="6.71253">
        <ele>1817</ele>
        <time>2023-01-20T09:15:03Z</time>
      </trkpt>
      <trkpt lat="44.47393" lon="6.71252">
        <ele>1817.1</ele>
        <time>2023-01-20T09:15:04Z</time>
      </trkpt>
      <trkpt lat="44.47395" lon="6.71252">
        <ele>1817.1</ele>
        <time>2023-01-20T09:15:05Z</time>
      </trkpt>
      <trkpt lat="44.47396" lon="6.71251">
        <ele>1817.1</ele>
        <time>2023-01-20T09:15:06Z</time>
      </trkpt>
      <trkpt lat="44.47397" lon="6.71251">
        <ele>1817.2</ele>
        <time>2023-01-20T09:15:07Z</time>
      </trkpt>
      <trkpt lat="44.47397" lon="6.7125">
        <ele>1817.3</ele>
        <time>2023-01-20T09:15:08Z</time>
      </trkpt>
      <trkpt lat="44.47398" lon="6.71249">
        <ele>1817.5</ele>
        <time>2023-01-20T09:15:09Z</time>
      </trkpt>
      <trkpt lat="44.47399" lon="6.71249">
        <ele>1817.6</ele>
        <time>2023-01-20T09:15:10Z</time>
      </trkpt>
      <trkpt lat="44.474" lon="6.71248">
        <ele>1817.6</ele>
        <time>2023-01-20T09:15:11Z</time>
      </trkpt>
      <trkpt lat="44.474" lon="6.71248">
        <ele>1817.7</ele>
        <time>2023-01-20T09:15:12Z</time>
      </trkpt>
      <trkpt lat="44.47401" lon="6.71247">
        <ele>1817.8</ele>
        <time>2023-01-20T09:15:13Z</time>
      </trkpt>
      <trkpt lat="44.47402" lon="6.71246">
        <ele>1817.9</ele>
        <time>2023-01-20T09:15:14Z</time>
      </trkpt>
      <trkpt lat="44.47402" lon="6.71246">
        <ele>1818</ele>
        <time>2023-01-20T09:15:15Z</time>
      </trkpt>
      <trkpt lat="44.47403" lon="6.71246">
        <ele>1818.1</ele>
        <time>2023-01-20T09:15:16Z</time>
      </trkpt>
      <trkpt lat="44.47403" lon="6.71245">
        <ele>1818</ele>
        <time>2023-01-20T09:15:17Z</time>
      </trkpt>
      <trkpt lat="44.47404" lon="6.71245">
        <ele>1818</ele>
        <time>2023-01-20T09:15:18Z</time>
      </trkpt>
      <trkpt lat="44.47404" lon="6.71244">
        <ele>1818.3</ele>
        <time>2023-01-20T09:15:19Z</time>
      </trkpt>
      <trkpt lat="44.47405" lon="6.71244">
        <ele>1818.3</ele>
        <time>2023-01-20T09:15:20Z</time>
      </trkpt>
      <trkpt lat="44.47406" lon="6.71243">
        <ele>1818.3</ele>
        <time>2023-01-20T09:15:21Z</time>
      </trkpt>
      <trkpt lat="44.47407" lon="6.71243">
        <ele>1818.4</ele>
        <time>2023-01-20T09:15:22Z</time>
      </trkpt>
      <trkpt lat="44.47407" lon="6.71242">
        <ele>1818.4</ele>
        <time>2023-01-20T09:15:23Z</time>
      </trkpt>
      <trkpt lat="44.47408" lon="6.71241">
        <ele>1818.6</ele>
        <time>2023-01-20T09:15:24Z</time>
      </trkpt>
      <trkpt lat="44.47408" lon="6.71241">
        <ele>1818.7</ele>
        <time>2023-01-20T09:15:25Z</time>
      </trkpt>
      <trkpt lat="44.47408" lon="6.7124">
        <ele>1818.9</ele>
        <time>2023-01-20T09:15:26Z</time>
      </trkpt>
      <trkpt lat="44.47409" lon="6.71239">
        <ele>1819</ele>
        <time>2023-01-20T09:15:27Z</time>
      </trkpt>
      <trkpt lat="44.4741" lon="6.71239">
        <ele>1819</ele>
        <time>2023-01-20T09:15:28Z</time>
      </trkpt>
      <trkpt lat="44.4741" lon="6.71238">
        <ele>1819.1</ele>
        <time>2023-01-20T09:15:29Z</time>
      </trkpt>
      <trkpt lat="44.47411" lon="6.71238">
        <ele>1819.2</ele>
        <time>2023-01-20T09:15:30Z</time>
      </trkpt>
      <trkpt lat="44.47412" lon="6.71237">
        <ele>1819.2</ele>
        <time>2023-01-20T09:15:31Z</time>
      </trkpt>
      <trkpt lat="44.47412" lon="6.71237">
        <ele>1819.3</ele>
        <time>2023-01-20T09:15:32Z</time>
      </trkpt>
      <trkpt lat="44.47413" lon="6.71236">
        <ele>1819.3</ele>
        <time>2023-01-20T09:15:33Z</time>
      </trkpt>
      <trkpt lat="44.47414" lon="6.71235">
        <ele>1819.4</ele>
        <time>2023-01-20T09:15:34Z</time>
      </trkpt>
      <trkpt lat="44.47416" lon="6.71234">
        <ele>1819.4</ele>
        <time>2023-01-20T09:15:36Z</time>
      </trkpt>
      <trkpt lat="44.47417" lon="6.71234">
        <ele>1819.4</ele>
        <time>2023-01-20T09:15:37Z</time>
      </trkpt>
      <trkpt lat="44.47418" lon="6.71234">
        <ele>1819.5</ele>
        <time>2023-01-20T09:15:38Z</time>
      </trkpt>
      <trkpt lat="44.47419" lon="6.71234">
        <ele>1819.5</ele>
        <time>2023-01-20T09:15:39Z</time>
      </trkpt>
      <trkpt lat="44.4742" lon="6.71234">
        <ele>1819.4</ele>
        <time>2023-01-20T09:15:40Z</time>
      </trkpt>
      <trkpt lat="44.4742" lon="6.71234">
        <ele>1819.4</ele>
        <time>2023-01-20T09:15:41Z</time>
      </trkpt>
      <trkpt lat="44.47422" lon="6.71234">
        <ele>1819.4</ele>
        <time>2023-01-20T09:15:42Z</time>
      </trkpt>
      <trkpt lat="44.47423" lon="6.71234">
        <ele>1819.3</ele>
        <time>2023-01-20T09:15:43Z</time>
      </trkpt>
      <trkpt lat="44.47423" lon="6.71233">
        <ele>1819.4</ele>
        <time>2023-01-20T09:15:44Z</time>
      </trkpt>
      <trkpt lat="44.47424" lon="6.71233">
        <ele>1819.3</ele>
        <time>2023-01-20T09:15:45Z</time>
      </trkpt>
      <trkpt lat="44.47425" lon="6.71233">
        <ele>1819.3</ele>
        <time>2023-01-20T09:15:46Z</time>
      </trkpt>
      <trkpt lat="44.47425" lon="6.71234">
        <ele>1819.3</ele>
        <time>2023-01-20T09:15:47Z</time>
      </trkpt>
      <trkpt lat="44.47426" lon="6.71233">
        <ele>1819.3</ele>
        <time>2023-01-20T09:15:48Z</time>
      </trkpt>
      <trkpt lat="44.47427" lon="6.71233">
        <ele>1819.3</ele>
        <time>2023-01-20T09:15:49Z</time>
      </trkpt>
      <trkpt lat="44.47427" lon="6.71233">
        <ele>1819.4</ele>
        <time>2023-01-20T09:15:50Z</time>
      </trkpt>
      <trkpt lat="44.47428" lon="6.71232">
        <ele>1819.4</ele>
        <time>2023-01-20T09:15:51Z</time>
      </trkpt>
      <trkpt lat="44.47428" lon="6.71232">
        <ele>1819.5</ele>
        <time>2023-01-20T09:15:52Z</time>
      </trkpt>
      <trkpt lat="44.47428" lon="6.71232">
        <ele>1819.5</ele>
        <time>2023-01-20T09:15:53Z</time>
      </trkpt>
      <trkpt lat="44.47429" lon="6.71232">
        <ele>1819.5</ele>
        <time>2023-01-20T09:15:54Z</time>
      </trkpt>
      <trkpt lat="44.47429" lon="6.71232">
        <ele>1819.4</ele>
        <time>2023-01-20T09:15:55Z</time>
      </trkpt>
      <trkpt lat="44.47429" lon="6.71232">
        <ele>1819.4</ele>
        <time>2023-01-20T09:15:56Z</time>
      </trkpt>
      <trkpt lat="44.47429" lon="6.71232">
        <ele>1819.4</ele>
        <time>2023-01-20T09:15:57Z</time>
      </trkpt>
      <trkpt lat="44.47429" lon="6.71232">
        <ele>1819.4</ele>
        <time>2023-01-20T09:15:58Z</time>
      </trkpt>
      <trkpt lat="44.4743" lon="6.71232">
        <ele>1819.5</ele>
        <time>2023-01-20T09:15:59Z</time>
      </trkpt>
      <trkpt lat="44.4743" lon="6.71231">
        <ele>1819.5</ele>
        <time>2023-01-20T09:16:00Z</time>
      </trkpt>
      <trkpt lat="44.47431" lon="6.71231">
        <ele>1819.5</ele>
        <time>2023-01-20T09:16:01Z</time>
      </trkpt>
      <trkpt lat="44.47431" lon="6.71231">
        <ele>1819.6</ele>
        <time>2023-01-20T09:16:02Z</time>
      </trkpt>
      <trkpt lat="44.47432" lon="6.71231">
        <ele>1819.6</ele>
        <time>2023-01-20T09:16:03Z</time>
      </trkpt>
      <trkpt lat="44.47432" lon="6.7123">
        <ele>1819.7</ele>
        <time>2023-01-20T09:16:04Z</time>
      </trkpt>
      <trkpt lat="44.47432" lon="6.7123">
        <ele>1819.8</ele>
        <time>2023-01-20T09:16:05Z</time>
      </trkpt>
      <trkpt lat="44.47433" lon="6.71229">
        <ele>1820</ele>
        <time>2023-01-20T09:16:07Z</time>
      </trkpt>
      <trkpt lat="44.47434" lon="6.71228">
        <ele>1820.1</ele>
        <time>2023-01-20T09:16:08Z</time>
      </trkpt>
      <trkpt lat="44.47434" lon="6.71228">
        <ele>1820.2</ele>
        <time>2023-01-20T09:16:09Z</time>
      </trkpt>
      <trkpt lat="44.47435" lon="6.71227">
        <ele>1820.2</ele>
        <time>2023-01-20T09:16:10Z</time>
      </trkpt>
      <trkpt lat="44.47435" lon="6.71227">
        <ele>1820.3</ele>
        <time>2023-01-20T09:16:11Z</time>
      </trkpt>
      <trkpt lat="44.47436" lon="6.71226">
        <ele>1820.4</ele>
        <time>2023-01-20T09:16:12Z</time>
      </trkpt>
      <trkpt lat="44.47436" lon="6.71226">
        <ele>1820.5</ele>
        <time>2023-01-20T09:16:13Z</time>
      </trkpt>
      <trkpt lat="44.47436" lon="6.71225">
        <ele>1820.6</ele>
        <time>2023-01-20T09:16:14Z</time>
      </trkpt>
      <trkpt lat="44.47437" lon="6.71225">
        <ele>1820.7</ele>
        <time>2023-01-20T09:16:15Z</time>
      </trkpt>
      <trkpt lat="44.47437" lon="6.71224">
        <ele>1820.8</ele>
        <time>2023-01-20T09:16:16Z</time>
      </trkpt>
      <trkpt lat="44.47437" lon="6.71224">
        <ele>1820.9</ele>
        <time>2023-01-20T09:16:17Z</time>
      </trkpt>
      <trkpt lat="44.47436" lon="6.71223">
        <ele>1821.1</ele>
        <time>2023-01-20T09:16:18Z</time>
      </trkpt>
      <trkpt lat="44.47436" lon="6.71222">
        <ele>1821.2</ele>
        <time>2023-01-20T09:16:19Z</time>
      </trkpt>
      <trkpt lat="44.47436" lon="6.71222">
        <ele>1821.3</ele>
        <time>2023-01-20T09:16:20Z</time>
      </trkpt>
      <trkpt lat="44.47436" lon="6.71222">
        <ele>1821.4</ele>
        <time>2023-01-20T09:16:21Z</time>
      </trkpt>
      <trkpt lat="44.47435" lon="6.71222">
        <ele>1821.4</ele>
        <time>2023-01-20T09:16:22Z</time>
      </trkpt>
      <trkpt lat="44.47435" lon="6.71221">
        <ele>1821.6</ele>
        <time>2023-01-20T09:16:23Z</time>
      </trkpt>
      <trkpt lat="44.47434" lon="6.71221">
        <ele>1821.6</ele>
        <time>2023-01-20T09:16:24Z</time>
      </trkpt>
      <trkpt lat="44.47434" lon="6.71221">
        <ele>1821.8</ele>
        <time>2023-01-20T09:16:25Z</time>
      </trkpt>
      <trkpt lat="44.47434" lon="6.71221">
        <ele>1821.7</ele>
        <time>2023-01-20T09:16:26Z</time>
      </trkpt>
      <trkpt lat="44.47433" lon="6.71221">
        <ele>1821.7</ele>
        <time>2023-01-20T09:16:27Z</time>
      </trkpt>
      <trkpt lat="44.47433" lon="6.71221">
        <ele>1821.8</ele>
        <time>2023-01-20T09:16:28Z</time>
      </trkpt>
      <trkpt lat="44.47433" lon="6.7122">
        <ele>1821.9</ele>
        <time>2023-01-20T09:16:29Z</time>
      </trkpt>
      <trkpt lat="44.47433" lon="6.7122">
        <ele>1822</ele>
        <time>2023-01-20T09:16:30Z</time>
      </trkpt>
      <trkpt lat="44.47433" lon="6.71219">
        <ele>1822.1</ele>
        <time>2023-01-20T09:16:31Z</time>
      </trkpt>
      <trkpt lat="44.47433" lon="6.71218">
        <ele>1822.4</ele>
        <time>2023-01-20T09:16:32Z</time>
      </trkpt>
      <trkpt lat="44.47433" lon="6.71217">
        <ele>1822.5</ele>
        <time>2023-01-20T09:16:33Z</time>
      </trkpt>
      <trkpt lat="44.47433" lon="6.71217">
        <ele>1822.7</ele>
        <time>2023-01-20T09:16:34Z</time>
      </trkpt>
      <trkpt lat="44.47434" lon="6.71215">
        <ele>1823</ele>
        <time>2023-01-20T09:16:36Z</time>
      </trkpt>
      <trkpt lat="44.47434" lon="6.71214">
        <ele>1823.1</ele>
        <time>2023-01-20T09:16:37Z</time>
      </trkpt>
      <trkpt lat="44.47435" lon="6.71214">
        <ele>1823.3</ele>
        <time>2023-01-20T09:16:38Z</time>
      </trkpt>
      <trkpt lat="44.47435" lon="6.71213">
        <ele>1823.4</ele>
        <time>2023-01-20T09:16:39Z</time>
      </trkpt>
      <trkpt lat="44.47436" lon="6.71212">
        <ele>1823.5</ele>
        <time>2023-01-20T09:16:40Z</time>
      </trkpt>
      <trkpt lat="44.47436" lon="6.71212">
        <ele>1823.6</ele>
        <time>2023-01-20T09:16:41Z</time>
      </trkpt>
      <trkpt lat="44.47436" lon="6.71211">
        <ele>1823.8</ele>
        <time>2023-01-20T09:16:42Z</time>
      </trkpt>
      <trkpt lat="44.47436" lon="6.7121">
        <ele>1824</ele>
        <time>2023-01-20T09:16:43Z</time>
      </trkpt>
      <trkpt lat="44.47437" lon="6.7121">
        <ele>1824.2</ele>
        <time>2023-01-20T09:16:44Z</time>
      </trkpt>
      <trkpt lat="44.47437" lon="6.71209">
        <ele>1824.3</ele>
        <time>2023-01-20T09:16:45Z</time>
      </trkpt>
      <trkpt lat="44.47437" lon="6.71208">
        <ele>1824.4</ele>
        <time>2023-01-20T09:16:46Z</time>
      </trkpt>
      <trkpt lat="44.47438" lon="6.71208">
        <ele>1824.5</ele>
        <time>2023-01-20T09:16:47Z</time>
      </trkpt>
      <trkpt lat="44.47438" lon="6.71208">
        <ele>1824.5</ele>
        <time>2023-01-20T09:16:48Z</time>
      </trkpt>
      <trkpt lat="44.47439" lon="6.71207">
        <ele>1824.6</ele>
        <time>2023-01-20T09:16:49Z</time>
      </trkpt>
      <trkpt lat="44.47439" lon="6.71207">
        <ele>1824.7</ele>
        <time>2023-01-20T09:16:50Z</time>
      </trkpt>
      <trkpt lat="44.47439" lon="6.71205">
        <ele>1824.9</ele>
        <time>2023-01-20T09:16:51Z</time>
      </trkpt>
      <trkpt lat="44.47439" lon="6.71205">
        <ele>1825.1</ele>
        <time>2023-01-20T09:16:52Z</time>
      </trkpt>
      <trkpt lat="44.47439" lon="6.71204">
        <ele>1825.3</ele>
        <time>2023-01-20T09:16:53Z</time>
      </trkpt>
      <trkpt lat="44.47439" lon="6.71203">
        <ele>1825.5</ele>
        <time>2023-01-20T09:16:54Z</time>
      </trkpt>
      <trkpt lat="44.47438" lon="6.71202">
        <ele>1825.7</ele>
        <time>2023-01-20T09:16:55Z</time>
      </trkpt>
      <trkpt lat="44.47438" lon="6.71201">
        <ele>1825.9</ele>
        <time>2023-01-20T09:16:56Z</time>
      </trkpt>
      <trkpt lat="44.47438" lon="6.712">
        <ele>1826.1</ele>
        <time>2023-01-20T09:16:57Z</time>
      </trkpt>
      <trkpt lat="44.47439" lon="6.712">
        <ele>1826.3</ele>
        <time>2023-01-20T09:16:58Z</time>
      </trkpt>
      <trkpt lat="44.47439" lon="6.71199">
        <ele>1826.4</ele>
        <time>2023-01-20T09:16:59Z</time>
      </trkpt>
      <trkpt lat="44.47439" lon="6.71198">
        <ele>1826.6</ele>
        <time>2023-01-20T09:17:00Z</time>
      </trkpt>
      <trkpt lat="44.47439" lon="6.71197">
        <ele>1826.8</ele>
        <time>2023-01-20T09:17:01Z</time>
      </trkpt>
      <trkpt lat="44.47439" lon="6.71196">
        <ele>1827</ele>
        <time>2023-01-20T09:17:02Z</time>
      </trkpt>
      <trkpt lat="44.4744" lon="6.71195">
        <ele>1827.2</ele>
        <time>2023-01-20T09:17:03Z</time>
      </trkpt>
      <trkpt lat="44.4744" lon="6.71195">
        <ele>1827.3</ele>
        <time>2023-01-20T09:17:04Z</time>
      </trkpt>
      <trkpt lat="44.47441" lon="6.71193">
        <ele>1827.6</ele>
        <time>2023-01-20T09:17:05Z</time>
      </trkpt>
      <trkpt lat="44.47441" lon="6.71191">
        <ele>1827.9</ele>
        <time>2023-01-20T09:17:06Z</time>
      </trkpt>
      <trkpt lat="44.47442" lon="6.71191">
        <ele>1828</ele>
        <time>2023-01-20T09:17:07Z</time>
      </trkpt>
      <trkpt lat="44.47442" lon="6.7119">
        <ele>1828.2</ele>
        <time>2023-01-20T09:17:08Z</time>
      </trkpt>
      <trkpt lat="44.47443" lon="6.71189">
        <ele>1828.3</ele>
        <time>2023-01-20T09:17:09Z</time>
      </trkpt>
      <trkpt lat="44.47443" lon="6.71188">
        <ele>1828.4</ele>
        <time>2023-01-20T09:17:10Z</time>
      </trkpt>
      <trkpt lat="44.47444" lon="6.71187">
        <ele>1828.6</ele>
        <time>2023-01-20T09:17:11Z</time>
      </trkpt>
      <trkpt lat="44.47444" lon="6.71187">
        <ele>1828.7</ele>
        <time>2023-01-20T09:17:12Z</time>
      </trkpt>
      <trkpt lat="44.47445" lon="6.71186">
        <ele>1828.8</ele>
        <time>2023-01-20T09:17:13Z</time>
      </trkpt>
      <trkpt lat="44.47445" lon="6.71186">
        <ele>1828.9</ele>
        <time>2023-01-20T09:17:14Z</time>
      </trkpt>
      <trkpt lat="44.47446" lon="6.71185">
        <ele>1828.9</ele>
        <time>2023-01-20T09:17:15Z</time>
      </trkpt>
      <trkpt lat="44.47446" lon="6.71185">
        <ele>1829.1</ele>
        <time>2023-01-20T09:17:16Z</time>
      </trkpt>
      <trkpt lat="44.47447" lon="6.71184">
        <ele>1829.2</ele>
        <time>2023-01-20T09:17:17Z</time>
      </trkpt>
      <trkpt lat="44.47447" lon="6.71183">
        <ele>1829.3</ele>
        <time>2023-01-20T09:17:18Z</time>
      </trkpt>
      <trkpt lat="44.47448" lon="6.71182">
        <ele>1829.4</ele>
        <time>2023-01-20T09:17:19Z</time>
      </trkpt>
      <trkpt lat="44.47449" lon="6.71182">
        <ele>1829.5</ele>
        <time>2023-01-20T09:17:20Z</time>
      </trkpt>
      <trkpt lat="44.47449" lon="6.71181">
        <ele>1829.7</ele>
        <time>2023-01-20T09:17:21Z</time>
      </trkpt>
      <trkpt lat="44.4745" lon="6.71181">
        <ele>1829.7</ele>
        <time>2023-01-20T09:17:22Z</time>
      </trkpt>
      <trkpt lat="44.4745" lon="6.7118">
        <ele>1829.8</ele>
        <time>2023-01-20T09:17:23Z</time>
      </trkpt>
      <trkpt lat="44.47451" lon="6.7118">
        <ele>1829.9</ele>
        <time>2023-01-20T09:17:24Z</time>
      </trkpt>
      <trkpt lat="44.47452" lon="6.71179">
        <ele>1830</ele>
        <time>2023-01-20T09:17:25Z</time>
      </trkpt>
      <trkpt lat="44.47452" lon="6.71179">
        <ele>1830.1</ele>
        <time>2023-01-20T09:17:26Z</time>
      </trkpt>
      <trkpt lat="44.47453" lon="6.71178">
        <ele>1830.2</ele>
        <time>2023-01-20T09:17:27Z</time>
      </trkpt>
      <trkpt lat="44.47454" lon="6.71178">
        <ele>1830.3</ele>
        <time>2023-01-20T09:17:28Z</time>
      </trkpt>
      <trkpt lat="44.47454" lon="6.71177">
        <ele>1830.4</ele>
        <time>2023-01-20T09:17:29Z</time>
      </trkpt>
      <trkpt lat="44.47455" lon="6.71177">
        <ele>1830.5</ele>
        <time>2023-01-20T09:17:30Z</time>
      </trkpt>
      <trkpt lat="44.47455" lon="6.71176">
        <ele>1830.6</ele>
        <time>2023-01-20T09:17:31Z</time>
      </trkpt>
      <trkpt lat="44.47456" lon="6.71176">
        <ele>1830.7</ele>
        <time>2023-01-20T09:17:32Z</time>
      </trkpt>
      <trkpt lat="44.47456" lon="6.71175">
        <ele>1830.8</ele>
        <time>2023-01-20T09:17:33Z</time>
      </trkpt>
      <trkpt lat="44.47457" lon="6.71174">
        <ele>1830.9</ele>
        <time>2023-01-20T09:17:34Z</time>
      </trkpt>
      <trkpt lat="44.47457" lon="6.71173">
        <ele>1831.1</ele>
        <time>2023-01-20T09:17:35Z</time>
      </trkpt>
      <trkpt lat="44.47458" lon="6.71172">
        <ele>1831.3</ele>
        <time>2023-01-20T09:17:36Z</time>
      </trkpt>
      <trkpt lat="44.47458" lon="6.71172">
        <ele>1831.5</ele>
        <time>2023-01-20T09:17:37Z</time>
      </trkpt>
      <trkpt lat="44.47458" lon="6.71171">
        <ele>1831.6</ele>
        <time>2023-01-20T09:17:38Z</time>
      </trkpt>
      <trkpt lat="44.47458" lon="6.7117">
        <ele>1831.7</ele>
        <time>2023-01-20T09:17:39Z</time>
      </trkpt>
      <trkpt lat="44.47459" lon="6.71169">
        <ele>1831.9</ele>
        <time>2023-01-20T09:17:40Z</time>
      </trkpt>
      <trkpt lat="44.47459" lon="6.71169">
        <ele>1832</ele>
        <time>2023-01-20T09:17:41Z</time>
      </trkpt>
      <trkpt lat="44.4746" lon="6.71168">
        <ele>1832.2</ele>
        <time>2023-01-20T09:17:42Z</time>
      </trkpt>
      <trkpt lat="44.4746" lon="6.71167">
        <ele>1832.3</ele>
        <time>2023-01-20T09:17:43Z</time>
      </trkpt>
      <trkpt lat="44.4746" lon="6.71166">
        <ele>1832.5</ele>
        <time>2023-01-20T09:17:44Z</time>
      </trkpt>
      <trkpt lat="44.47461" lon="6.71166">
        <ele>1832.5</ele>
        <time>2023-01-20T09:17:45Z</time>
      </trkpt>
      <trkpt lat="44.47461" lon="6.71167">
        <ele>1832.4</ele>
        <time>2023-01-20T09:17:46Z</time>
      </trkpt>
      <trkpt lat="44.47461" lon="6.71167">
        <ele>1832.4</ele>
        <time>2023-01-20T09:17:47Z</time>
      </trkpt>
      <trkpt lat="44.47461" lon="6.71167">
        <ele>1832.4</ele>
        <time>2023-01-20T09:17:48Z</time>
      </trkpt>
      <trkpt lat="44.47461" lon="6.71167">
        <ele>1832.4</ele>
        <time>2023-01-20T09:17:49Z</time>
      </trkpt>
      <trkpt lat="44.47461" lon="6.71166">
        <ele>1832.6</ele>
        <time>2023-01-20T09:17:50Z</time>
      </trkpt>
      <trkpt lat="44.47462" lon="6.71165">
        <ele>1832.9</ele>
        <time>2023-01-20T09:17:51Z</time>
      </trkpt>
      <trkpt lat="44.47462" lon="6.71164">
        <ele>1833.2</ele>
        <time>2023-01-20T09:17:52Z</time>
      </trkpt>
      <trkpt lat="44.47462" lon="6.71162">
        <ele>1833.6</ele>
        <time>2023-01-20T09:17:53Z</time>
      </trkpt>
      <trkpt lat="44.47462" lon="6.7116">
        <ele>1834.1</ele>
        <time>2023-01-20T09:17:54Z</time>
      </trkpt>
      <trkpt lat="44.47462" lon="6.71159">
        <ele>1834.4</ele>
        <time>2023-01-20T09:17:55Z</time>
      </trkpt>
      <trkpt lat="44.47462" lon="6.71158">
        <ele>1834.7</ele>
        <time>2023-01-20T09:17:56Z</time>
      </trkpt>
      <trkpt lat="44.47462" lon="6.71157">
        <ele>1835</ele>
        <time>2023-01-20T09:17:57Z</time>
      </trkpt>
      <trkpt lat="44.47462" lon="6.71155">
        <ele>1835.4</ele>
        <time>2023-01-20T09:17:58Z</time>
      </trkpt>
      <trkpt lat="44.47462" lon="6.71154">
        <ele>1835.6</ele>
        <time>2023-01-20T09:17:59Z</time>
      </trkpt>
      <trkpt lat="44.47463" lon="6.71154">
        <ele>1835.8</ele>
        <time>2023-01-20T09:18:00Z</time>
      </trkpt>
      <trkpt lat="44.47463" lon="6.71152">
        <ele>1836.1</ele>
        <time>2023-01-20T09:18:01Z</time>
      </trkpt>
      <trkpt lat="44.47463" lon="6.71152">
        <ele>1836.3</ele>
        <time>2023-01-20T09:18:02Z</time>
      </trkpt>
      <trkpt lat="44.47463" lon="6.71151">
        <ele>1836.5</ele>
        <time>2023-01-20T09:18:03Z</time>
      </trkpt>
      <trkpt lat="44.47463" lon="6.7115">
        <ele>1836.7</ele>
        <time>2023-01-20T09:18:04Z</time>
      </trkpt>
      <trkpt lat="44.47463" lon="6.71149">
        <ele>1836.9</ele>
        <time>2023-01-20T09:18:05Z</time>
      </trkpt>
      <trkpt lat="44.47463" lon="6.71148">
        <ele>1837.1</ele>
        <time>2023-01-20T09:18:06Z</time>
      </trkpt>
      <trkpt lat="44.47463" lon="6.71147">
        <ele>1837.4</ele>
        <time>2023-01-20T09:18:07Z</time>
      </trkpt>
      <trkpt lat="44.47463" lon="6.71146">
        <ele>1837.7</ele>
        <time>2023-01-20T09:18:08Z</time>
      </trkpt>
      <trkpt lat="44.47463" lon="6.71145">
        <ele>1837.9</ele>
        <time>2023-01-20T09:18:09Z</time>
      </trkpt>
      <trkpt lat="44.47463" lon="6.71145">
        <ele>1838.2</ele>
        <time>2023-01-20T09:18:10Z</time>
      </trkpt>
      <trkpt lat="44.47463" lon="6.71144">
        <ele>1838.4</ele>
        <time>2023-01-20T09:18:11Z</time>
      </trkpt>
      <trkpt lat="44.47463" lon="6.71142">
        <ele>1838.7</ele>
        <time>2023-01-20T09:18:12Z</time>
      </trkpt>
      <trkpt lat="44.47463" lon="6.71142">
        <ele>1839</ele>
        <time>2023-01-20T09:18:13Z</time>
      </trkpt>
      <trkpt lat="44.47463" lon="6.71139">
        <ele>1839.5</ele>
        <time>2023-01-20T09:18:14Z</time>
      </trkpt>
      <trkpt lat="44.47463" lon="6.71139">
        <ele>1839.8</ele>
        <time>2023-01-20T09:18:15Z</time>
      </trkpt>
      <trkpt lat="44.47463" lon="6.71137">
        <ele>1840.3</ele>
        <time>2023-01-20T09:18:16Z</time>
      </trkpt>
      <trkpt lat="44.47463" lon="6.71136">
        <ele>1840.5</ele>
        <time>2023-01-20T09:18:17Z</time>
      </trkpt>
      <trkpt lat="44.47463" lon="6.71134">
        <ele>1841</ele>
        <time>2023-01-20T09:18:18Z</time>
      </trkpt>
      <trkpt lat="44.47463" lon="6.71133">
        <ele>1841.4</ele>
        <time>2023-01-20T09:18:19Z</time>
      </trkpt>
      <trkpt lat="44.47463" lon="6.71132">
        <ele>1841.7</ele>
        <time>2023-01-20T09:18:20Z</time>
      </trkpt>
      <trkpt lat="44.47464" lon="6.71131">
        <ele>1842</ele>
        <time>2023-01-20T09:18:21Z</time>
      </trkpt>
      <trkpt lat="44.47464" lon="6.7113">
        <ele>1842.2</ele>
        <time>2023-01-20T09:18:22Z</time>
      </trkpt>
      <trkpt lat="44.47464" lon="6.71129">
        <ele>1842.5</ele>
        <time>2023-01-20T09:18:23Z</time>
      </trkpt>
      <trkpt lat="44.47464" lon="6.71128">
        <ele>1842.8</ele>
        <time>2023-01-20T09:18:24Z</time>
      </trkpt>
      <trkpt lat="44.47464" lon="6.71128">
        <ele>1842.9</ele>
        <time>2023-01-20T09:18:25Z</time>
      </trkpt>
      <trkpt lat="44.47464" lon="6.71127">
        <ele>1843.1</ele>
        <time>2023-01-20T09:18:26Z</time>
      </trkpt>
      <trkpt lat="44.47464" lon="6.71126">
        <ele>1843.3</ele>
        <time>2023-01-20T09:18:27Z</time>
      </trkpt>
      <trkpt lat="44.47465" lon="6.71126">
        <ele>1843.4</ele>
        <time>2023-01-20T09:18:28Z</time>
      </trkpt>
      <trkpt lat="44.47465" lon="6.71125">
        <ele>1843.6</ele>
        <time>2023-01-20T09:18:29Z</time>
      </trkpt>
      <trkpt lat="44.47465" lon="6.71125">
        <ele>1843.7</ele>
        <time>2023-01-20T09:18:30Z</time>
      </trkpt>
      <trkpt lat="44.47465" lon="6.71124">
        <ele>1843.8</ele>
        <time>2023-01-20T09:18:31Z</time>
      </trkpt>
      <trkpt lat="44.47465" lon="6.71124">
        <ele>1844</ele>
        <time>2023-01-20T09:18:32Z</time>
      </trkpt>
      <trkpt lat="44.47466" lon="6.71123">
        <ele>1844.1</ele>
        <time>2023-01-20T09:18:33Z</time>
      </trkpt>
      <trkpt lat="44.47466" lon="6.71123">
        <ele>1844.2</ele>
        <time>2023-01-20T09:18:34Z</time>
      </trkpt>
      <trkpt lat="44.47466" lon="6.71122">
        <ele>1844.3</ele>
        <time>2023-01-20T09:18:35Z</time>
      </trkpt>
      <trkpt lat="44.47467" lon="6.71122">
        <ele>1844.4</ele>
        <time>2023-01-20T09:18:36Z</time>
      </trkpt>
      <trkpt lat="44.47467" lon="6.71121">
        <ele>1844.5</ele>
        <time>2023-01-20T09:18:37Z</time>
      </trkpt>
      <trkpt lat="44.47468" lon="6.7112">
        <ele>1844.8</ele>
        <time>2023-01-20T09:18:38Z</time>
      </trkpt>
      <trkpt lat="44.47469" lon="6.71119">
        <ele>1844.9</ele>
        <time>2023-01-20T09:18:39Z</time>
      </trkpt>
      <trkpt lat="44.47469" lon="6.71119">
        <ele>1845.1</ele>
        <time>2023-01-20T09:18:40Z</time>
      </trkpt>
      <trkpt lat="44.4747" lon="6.71118">
        <ele>1845.2</ele>
        <time>2023-01-20T09:18:41Z</time>
      </trkpt>
      <trkpt lat="44.4747" lon="6.71118">
        <ele>1845.2</ele>
        <time>2023-01-20T09:18:42Z</time>
      </trkpt>
      <trkpt lat="44.4747" lon="6.71118">
        <ele>1845.4</ele>
        <time>2023-01-20T09:18:43Z</time>
      </trkpt>
      <trkpt lat="44.4747" lon="6.71117">
        <ele>1845.5</ele>
        <time>2023-01-20T09:18:44Z</time>
      </trkpt>
      <trkpt lat="44.47469" lon="6.71117">
        <ele>1845.7</ele>
        <time>2023-01-20T09:18:45Z</time>
      </trkpt>
      <trkpt lat="44.47469" lon="6.71116">
        <ele>1845.9</ele>
        <time>2023-01-20T09:18:46Z</time>
      </trkpt>
      <trkpt lat="44.47469" lon="6.71116">
        <ele>1846</ele>
        <time>2023-01-20T09:18:47Z</time>
      </trkpt>
      <trkpt lat="44.47468" lon="6.71116">
        <ele>1845.9</ele>
        <time>2023-01-20T09:18:48Z</time>
      </trkpt>
      <trkpt lat="44.47468" lon="6.71116">
        <ele>1846</ele>
        <time>2023-01-20T09:18:49Z</time>
      </trkpt>
      <trkpt lat="44.47467" lon="6.71116">
        <ele>1846.1</ele>
        <time>2023-01-20T09:18:50Z</time>
      </trkpt>
      <trkpt lat="44.47467" lon="6.71116">
        <ele>1846.2</ele>
        <time>2023-01-20T09:18:51Z</time>
      </trkpt>
      <trkpt lat="44.47467" lon="6.71115">
        <ele>1846.3</ele>
        <time>2023-01-20T09:18:52Z</time>
      </trkpt>
      <trkpt lat="44.47466" lon="6.71116">
        <ele>1846.3</ele>
        <time>2023-01-20T09:18:53Z</time>
      </trkpt>
      <trkpt lat="44.47466" lon="6.71116">
        <ele>1846.3</ele>
        <time>2023-01-20T09:18:54Z</time>
      </trkpt>
      <trkpt lat="44.47466" lon="6.71116">
        <ele>1846.3</ele>
        <time>2023-01-20T09:18:55Z</time>
      </trkpt>
      <trkpt lat="44.47466" lon="6.71116">
        <ele>1846.2</ele>
        <time>2023-01-20T09:18:56Z</time>
      </trkpt>
      <trkpt lat="44.47465" lon="6.71116">
        <ele>1846.2</ele>
        <time>2023-01-20T09:18:57Z</time>
      </trkpt>
      <trkpt lat="44.47464" lon="6.71117">
        <ele>1846.1</ele>
        <time>2023-01-20T09:18:58Z</time>
      </trkpt>
      <trkpt lat="44.47464" lon="6.71117">
        <ele>1846.1</ele>
        <time>2023-01-20T09:18:59Z</time>
      </trkpt>
      <trkpt lat="44.47463" lon="6.71118">
        <ele>1846.1</ele>
        <time>2023-01-20T09:19:00Z</time>
      </trkpt>
      <trkpt lat="44.47462" lon="6.71118">
        <ele>1846</ele>
        <time>2023-01-20T09:19:01Z</time>
      </trkpt>
      <trkpt lat="44.47461" lon="6.71119">
        <ele>1845.9</ele>
        <time>2023-01-20T09:19:02Z</time>
      </trkpt>
      <trkpt lat="44.4746" lon="6.7112">
        <ele>1845.7</ele>
        <time>2023-01-20T09:19:03Z</time>
      </trkpt>
      <trkpt lat="44.47459" lon="6.7112">
        <ele>1845.6</ele>
        <time>2023-01-20T09:19:04Z</time>
      </trkpt>
      <trkpt lat="44.47458" lon="6.71121">
        <ele>1845.6</ele>
        <time>2023-01-20T09:19:05Z</time>
      </trkpt>
      <trkpt lat="44.47457" lon="6.71122">
        <ele>1845.4</ele>
        <time>2023-01-20T09:19:06Z</time>
      </trkpt>
      <trkpt lat="44.47456" lon="6.71122">
        <ele>1845.3</ele>
        <time>2023-01-20T09:19:07Z</time>
      </trkpt>
      <trkpt lat="44.47455" lon="6.71123">
        <ele>1845.2</ele>
        <time>2023-01-20T09:19:08Z</time>
      </trkpt>
      <trkpt lat="44.47454" lon="6.71123">
        <ele>1845.1</ele>
        <time>2023-01-20T09:19:09Z</time>
      </trkpt>
      <trkpt lat="44.47454" lon="6.71123">
        <ele>1845.2</ele>
        <time>2023-01-20T09:19:10Z</time>
      </trkpt>
      <trkpt lat="44.47453" lon="6.71123">
        <ele>1845.3</ele>
        <time>2023-01-20T09:19:11Z</time>
      </trkpt>
      <trkpt lat="44.47452" lon="6.71123">
        <ele>1845.3</ele>
        <time>2023-01-20T09:19:12Z</time>
      </trkpt>
      <trkpt lat="44.47451" lon="6.71124">
        <ele>1845.3</ele>
        <time>2023-01-20T09:19:13Z</time>
      </trkpt>
      <trkpt lat="44.4745" lon="6.71124">
        <ele>1845.3</ele>
        <time>2023-01-20T09:19:14Z</time>
      </trkpt>
      <trkpt lat="44.47451" lon="6.71123">
        <ele>1845.6</ele>
        <time>2023-01-20T09:19:15Z</time>
      </trkpt>
      <trkpt lat="44.4745" lon="6.71124">
        <ele>1845.5</ele>
        <time>2023-01-20T09:19:16Z</time>
      </trkpt>
      <trkpt lat="44.47449" lon="6.71124">
        <ele>1845.5</ele>
        <time>2023-01-20T09:19:17Z</time>
      </trkpt>
      <trkpt lat="44.47449" lon="6.71123">
        <ele>1845.6</ele>
        <time>2023-01-20T09:19:18Z</time>
      </trkpt>
      <trkpt lat="44.47449" lon="6.71123">
        <ele>1845.6</ele>
        <time>2023-01-20T09:19:19Z</time>
      </trkpt>
      <trkpt lat="44.47449" lon="6.71123">
        <ele>1845.7</ele>
        <time>2023-01-20T09:19:20Z</time>
      </trkpt>
      <trkpt lat="44.47449" lon="6.71123">
        <ele>1845.7</ele>
        <time>2023-01-20T09:19:21Z</time>
      </trkpt>
      <trkpt lat="44.47449" lon="6.71123">
        <ele>1845.8</ele>
        <time>2023-01-20T09:19:22Z</time>
      </trkpt>
      <trkpt lat="44.47449" lon="6.71122">
        <ele>1846</ele>
        <time>2023-01-20T09:19:23Z</time>
      </trkpt>
      <trkpt lat="44.47449" lon="6.71121">
        <ele>1846.3</ele>
        <time>2023-01-20T09:19:24Z</time>
      </trkpt>
      <trkpt lat="44.4745" lon="6.7112">
        <ele>1846.5</ele>
        <time>2023-01-20T09:19:25Z</time>
      </trkpt>
      <trkpt lat="44.47451" lon="6.71119">
        <ele>1846.9</ele>
        <time>2023-01-20T09:19:26Z</time>
      </trkpt>
      <trkpt lat="44.47451" lon="6.71118">
        <ele>1847.2</ele>
        <time>2023-01-20T09:19:27Z</time>
      </trkpt>
      <trkpt lat="44.47452" lon="6.71117">
        <ele>1847.4</ele>
        <time>2023-01-20T09:19:28Z</time>
      </trkpt>
      <trkpt lat="44.47452" lon="6.71116">
        <ele>1847.6</ele>
        <time>2023-01-20T09:19:29Z</time>
      </trkpt>
      <trkpt lat="44.47452" lon="6.71116">
        <ele>1847.7</ele>
        <time>2023-01-20T09:19:30Z</time>
      </trkpt>
      <trkpt lat="44.47453" lon="6.71115">
        <ele>1847.8</ele>
        <time>2023-01-20T09:19:31Z</time>
      </trkpt>
      <trkpt lat="44.47453" lon="6.71115">
        <ele>1847.9</ele>
        <time>2023-01-20T09:19:32Z</time>
      </trkpt>
      <trkpt lat="44.47454" lon="6.71114">
        <ele>1848.1</ele>
        <time>2023-01-20T09:19:33Z</time>
      </trkpt>
      <trkpt lat="44.47455" lon="6.71113">
        <ele>1848.3</ele>
        <time>2023-01-20T09:19:34Z</time>
      </trkpt>
      <trkpt lat="44.47455" lon="6.71111">
        <ele>1848.9</ele>
        <time>2023-01-20T09:19:35Z</time>
      </trkpt>
      <trkpt lat="44.47456" lon="6.7111">
        <ele>1849.1</ele>
        <time>2023-01-20T09:19:36Z</time>
      </trkpt>
      <trkpt lat="44.47456" lon="6.7111">
        <ele>1849.2</ele>
        <time>2023-01-20T09:19:37Z</time>
      </trkpt>
      <trkpt lat="44.47456" lon="6.71109">
        <ele>1849.4</ele>
        <time>2023-01-20T09:19:38Z</time>
      </trkpt>
      <trkpt lat="44.47456" lon="6.71109">
        <ele>1849.5</ele>
        <time>2023-01-20T09:19:39Z</time>
      </trkpt>
      <trkpt lat="44.47456" lon="6.71109">
        <ele>1849.6</ele>
        <time>2023-01-20T09:19:40Z</time>
      </trkpt>
      <trkpt lat="44.47456" lon="6.71108">
        <ele>1849.8</ele>
        <time>2023-01-20T09:19:41Z</time>
      </trkpt>
      <trkpt lat="44.47456" lon="6.71108">
        <ele>1849.9</ele>
        <time>2023-01-20T09:19:42Z</time>
      </trkpt>
      <trkpt lat="44.47456" lon="6.71108">
        <ele>1849.9</ele>
        <time>2023-01-20T09:19:43Z</time>
      </trkpt>
      <trkpt lat="44.47456" lon="6.71107">
        <ele>1850</ele>
        <time>2023-01-20T09:19:44Z</time>
      </trkpt>
      <trkpt lat="44.47456" lon="6.71107">
        <ele>1850.1</ele>
        <time>2023-01-20T09:19:45Z</time>
      </trkpt>
      <trkpt lat="44.47456" lon="6.71107">
        <ele>1850.3</ele>
        <time>2023-01-20T09:19:46Z</time>
      </trkpt>
      <trkpt lat="44.47456" lon="6.71106">
        <ele>1850.3</ele>
        <time>2023-01-20T09:19:47Z</time>
      </trkpt>
      <trkpt lat="44.47456" lon="6.71106">
        <ele>1850.4</ele>
        <time>2023-01-20T09:19:48Z</time>
      </trkpt>
      <trkpt lat="44.47455" lon="6.71106">
        <ele>1850.5</ele>
        <time>2023-01-20T09:19:49Z</time>
      </trkpt>
      <trkpt lat="44.47455" lon="6.71106">
        <ele>1850.6</ele>
        <time>2023-01-20T09:19:50Z</time>
      </trkpt>
      <trkpt lat="44.47454" lon="6.71107">
        <ele>1850.5</ele>
        <time>2023-01-20T09:19:51Z</time>
      </trkpt>
      <trkpt lat="44.47453" lon="6.71107">
        <ele>1850.5</ele>
        <time>2023-01-20T09:19:52Z</time>
      </trkpt>
      <trkpt lat="44.47453" lon="6.71106">
        <ele>1850.9</ele>
        <time>2023-01-20T09:19:53Z</time>
      </trkpt>
      <trkpt lat="44.47453" lon="6.71106">
        <ele>1850.8</ele>
        <time>2023-01-20T09:19:54Z</time>
      </trkpt>
      <trkpt lat="44.47452" lon="6.71106">
        <ele>1850.8</ele>
        <time>2023-01-20T09:19:55Z</time>
      </trkpt>
      <trkpt lat="44.47451" lon="6.71107">
        <ele>1850.7</ele>
        <time>2023-01-20T09:19:56Z</time>
      </trkpt>
      <trkpt lat="44.47451" lon="6.71107">
        <ele>1850.6</ele>
        <time>2023-01-20T09:19:57Z</time>
      </trkpt>
      <trkpt lat="44.4745" lon="6.71108">
        <ele>1850.5</ele>
        <time>2023-01-20T09:19:58Z</time>
      </trkpt>
      <trkpt lat="44.4745" lon="6.71108">
        <ele>1850.5</ele>
        <time>2023-01-20T09:19:59Z</time>
      </trkpt>
      <trkpt lat="44.47449" lon="6.71108">
        <ele>1850.5</ele>
        <time>2023-01-20T09:20:00Z</time>
      </trkpt>
      <trkpt lat="44.47449" lon="6.71108">
        <ele>1850.6</ele>
        <time>2023-01-20T09:20:01Z</time>
      </trkpt>
      <trkpt lat="44.47448" lon="6.71108">
        <ele>1850.6</ele>
        <time>2023-01-20T09:20:02Z</time>
      </trkpt>
      <trkpt lat="44.47447" lon="6.71109">
        <ele>1850.5</ele>
        <time>2023-01-20T09:20:03Z</time>
      </trkpt>
      <trkpt lat="44.47446" lon="6.71109">
        <ele>1850.3</ele>
        <time>2023-01-20T09:20:04Z</time>
      </trkpt>
      <trkpt lat="44.47445" lon="6.7111">
        <ele>1850.3</ele>
        <time>2023-01-20T09:20:05Z</time>
      </trkpt>
      <trkpt lat="44.47444" lon="6.71111">
        <ele>1850.1</ele>
        <time>2023-01-20T09:20:06Z</time>
      </trkpt>
      <trkpt lat="44.47443" lon="6.71111">
        <ele>1850.1</ele>
        <time>2023-01-20T09:20:07Z</time>
      </trkpt>
      <trkpt lat="44.47442" lon="6.71112">
        <ele>1850</ele>
        <time>2023-01-20T09:20:08Z</time>
      </trkpt>
      <trkpt lat="44.47441" lon="6.71112">
        <ele>1850.1</ele>
        <time>2023-01-20T09:20:09Z</time>
      </trkpt>
      <trkpt lat="44.47441" lon="6.71112">
        <ele>1850.1</ele>
        <time>2023-01-20T09:20:10Z</time>
      </trkpt>
      <trkpt lat="44.4744" lon="6.71112">
        <ele>1850.1</ele>
        <time>2023-01-20T09:20:11Z</time>
      </trkpt>
      <trkpt lat="44.47439" lon="6.71112">
        <ele>1850.2</ele>
        <time>2023-01-20T09:20:12Z</time>
      </trkpt>
      <trkpt lat="44.47439" lon="6.71112">
        <ele>1850.3</ele>
        <time>2023-01-20T09:20:13Z</time>
      </trkpt>
      <trkpt lat="44.47438" lon="6.71112">
        <ele>1850.3</ele>
        <time>2023-01-20T09:20:14Z</time>
      </trkpt>
      <trkpt lat="44.47437" lon="6.71112">
        <ele>1850.3</ele>
        <time>2023-01-20T09:20:15Z</time>
      </trkpt>
      <trkpt lat="44.47437" lon="6.71112">
        <ele>1850.3</ele>
        <time>2023-01-20T09:20:16Z</time>
      </trkpt>
      <trkpt lat="44.47436" lon="6.71112">
        <ele>1850.3</ele>
        <time>2023-01-20T09:20:17Z</time>
      </trkpt>
      <trkpt lat="44.47436" lon="6.71112">
        <ele>1850.4</ele>
        <time>2023-01-20T09:20:18Z</time>
      </trkpt>
      <trkpt lat="44.47435" lon="6.71112">
        <ele>1850.5</ele>
        <time>2023-01-20T09:20:19Z</time>
      </trkpt>
      <trkpt lat="44.47435" lon="6.71111">
        <ele>1850.6</ele>
        <time>2023-01-20T09:20:20Z</time>
      </trkpt>
      <trkpt lat="44.47434" lon="6.71112">
        <ele>1850.6</ele>
        <time>2023-01-20T09:20:21Z</time>
      </trkpt>
      <trkpt lat="44.47433" lon="6.71112">
        <ele>1850.5</ele>
        <time>2023-01-20T09:20:22Z</time>
      </trkpt>
      <trkpt lat="44.47432" lon="6.71112">
        <ele>1850.5</ele>
        <time>2023-01-20T09:20:23Z</time>
      </trkpt>
      <trkpt lat="44.47431" lon="6.71113">
        <ele>1850.4</ele>
        <time>2023-01-20T09:20:24Z</time>
      </trkpt>
      <trkpt lat="44.47431" lon="6.71113">
        <ele>1850.5</ele>
        <time>2023-01-20T09:20:25Z</time>
      </trkpt>
      <trkpt lat="44.4743" lon="6.71113">
        <ele>1850.5</ele>
        <time>2023-01-20T09:20:26Z</time>
      </trkpt>
      <trkpt lat="44.47429" lon="6.71113">
        <ele>1850.3</ele>
        <time>2023-01-20T09:20:27Z</time>
      </trkpt>
      <trkpt lat="44.47429" lon="6.71113">
        <ele>1850.4</ele>
        <time>2023-01-20T09:20:28Z</time>
      </trkpt>
      <trkpt lat="44.47428" lon="6.71113">
        <ele>1850.6</ele>
        <time>2023-01-20T09:20:29Z</time>
      </trkpt>
      <trkpt lat="44.47428" lon="6.71113">
        <ele>1850.6</ele>
        <time>2023-01-20T09:20:30Z</time>
      </trkpt>
      <trkpt lat="44.47427" lon="6.71112">
        <ele>1850.8</ele>
        <time>2023-01-20T09:20:31Z</time>
      </trkpt>
      <trkpt lat="44.47427" lon="6.71112">
        <ele>1851</ele>
        <time>2023-01-20T09:20:32Z</time>
      </trkpt>
      <trkpt lat="44.47427" lon="6.71112">
        <ele>1851.1</ele>
        <time>2023-01-20T09:20:33Z</time>
      </trkpt>
      <trkpt lat="44.47426" lon="6.71111">
        <ele>1851.2</ele>
        <time>2023-01-20T09:20:34Z</time>
      </trkpt>
      <trkpt lat="44.47426" lon="6.71111">
        <ele>1851.4</ele>
        <time>2023-01-20T09:20:35Z</time>
      </trkpt>
      <trkpt lat="44.47426" lon="6.7111">
        <ele>1851.6</ele>
        <time>2023-01-20T09:20:36Z</time>
      </trkpt>
      <trkpt lat="44.47425" lon="6.7111">
        <ele>1851.7</ele>
        <time>2023-01-20T09:20:37Z</time>
      </trkpt>
      <trkpt lat="44.47425" lon="6.7111">
        <ele>1851.8</ele>
        <time>2023-01-20T09:20:38Z</time>
      </trkpt>
      <trkpt lat="44.47424" lon="6.71109">
        <ele>1852</ele>
        <time>2023-01-20T09:20:39Z</time>
      </trkpt>
      <trkpt lat="44.47424" lon="6.71109">
        <ele>1852.1</ele>
        <time>2023-01-20T09:20:40Z</time>
      </trkpt>
      <trkpt lat="44.47424" lon="6.71109">
        <ele>1852.1</ele>
        <time>2023-01-20T09:20:41Z</time>
      </trkpt>
      <trkpt lat="44.47423" lon="6.71109">
        <ele>1852.2</ele>
        <time>2023-01-20T09:20:42Z</time>
      </trkpt>
      <trkpt lat="44.47423" lon="6.71109">
        <ele>1852.2</ele>
        <time>2023-01-20T09:20:43Z</time>
      </trkpt>
      <trkpt lat="44.47423" lon="6.71109">
        <ele>1852.3</ele>
        <time>2023-01-20T09:20:44Z</time>
      </trkpt>
      <trkpt lat="44.47423" lon="6.71108">
        <ele>1852.5</ele>
        <time>2023-01-20T09:20:45Z</time>
      </trkpt>
      <trkpt lat="44.47423" lon="6.71108">
        <ele>1852.6</ele>
        <time>2023-01-20T09:20:46Z</time>
      </trkpt>
      <trkpt lat="44.47423" lon="6.71108">
        <ele>1852.7</ele>
        <time>2023-01-20T09:20:47Z</time>
      </trkpt>
      <trkpt lat="44.47423" lon="6.71107">
        <ele>1852.8</ele>
        <time>2023-01-20T09:20:48Z</time>
      </trkpt>
      <trkpt lat="44.47423" lon="6.71107">
        <ele>1852.9</ele>
        <time>2023-01-20T09:20:49Z</time>
      </trkpt>
      <trkpt lat="44.47424" lon="6.71105">
        <ele>1853.4</ele>
        <time>2023-01-20T09:20:50Z</time>
      </trkpt>
      <trkpt lat="44.47425" lon="6.71103">
        <ele>1853.9</ele>
        <time>2023-01-20T09:20:51Z</time>
      </trkpt>
      <trkpt lat="44.47426" lon="6.71102">
        <ele>1854.4</ele>
        <time>2023-01-20T09:20:52Z</time>
      </trkpt>
      <trkpt lat="44.47427" lon="6.711">
        <ele>1854.7</ele>
        <time>2023-01-20T09:20:53Z</time>
      </trkpt>
      <trkpt lat="44.47427" lon="6.71099">
        <ele>1855</ele>
        <time>2023-01-20T09:20:54Z</time>
      </trkpt>
      <trkpt lat="44.47428" lon="6.71098">
        <ele>1855.3</ele>
        <time>2023-01-20T09:20:55Z</time>
      </trkpt>
      <trkpt lat="44.47429" lon="6.71097">
        <ele>1855.6</ele>
        <time>2023-01-20T09:20:56Z</time>
      </trkpt>
      <trkpt lat="44.47429" lon="6.71097">
        <ele>1855.8</ele>
        <time>2023-01-20T09:20:57Z</time>
      </trkpt>
      <trkpt lat="44.4743" lon="6.71096">
        <ele>1855.9</ele>
        <time>2023-01-20T09:20:58Z</time>
      </trkpt>
      <trkpt lat="44.47431" lon="6.71095">
        <ele>1856.2</ele>
        <time>2023-01-20T09:20:59Z</time>
      </trkpt>
      <trkpt lat="44.47432" lon="6.71093">
        <ele>1856.6</ele>
        <time>2023-01-20T09:21:00Z</time>
      </trkpt>
      <trkpt lat="44.47432" lon="6.71093">
        <ele>1856.9</ele>
        <time>2023-01-20T09:21:01Z</time>
      </trkpt>
      <trkpt lat="44.47433" lon="6.71092">
        <ele>1857.1</ele>
        <time>2023-01-20T09:21:02Z</time>
      </trkpt>
      <trkpt lat="44.47433" lon="6.71091">
        <ele>1857.3</ele>
        <time>2023-01-20T09:21:03Z</time>
      </trkpt>
      <trkpt lat="44.47434" lon="6.7109">
        <ele>1857.6</ele>
        <time>2023-01-20T09:21:04Z</time>
      </trkpt>
      <trkpt lat="44.47434" lon="6.71089">
        <ele>1857.8</ele>
        <time>2023-01-20T09:21:05Z</time>
      </trkpt>
      <trkpt lat="44.47435" lon="6.71089">
        <ele>1858</ele>
        <time>2023-01-20T09:21:06Z</time>
      </trkpt>
      <trkpt lat="44.47435" lon="6.71088">
        <ele>1858.1</ele>
        <time>2023-01-20T09:21:07Z</time>
      </trkpt>
      <trkpt lat="44.47436" lon="6.71087">
        <ele>1858.3</ele>
        <time>2023-01-20T09:21:08Z</time>
      </trkpt>
      <trkpt lat="44.47436" lon="6.71087">
        <ele>1858.6</ele>
        <time>2023-01-20T09:21:09Z</time>
      </trkpt>
      <trkpt lat="44.47436" lon="6.71086">
        <ele>1858.8</ele>
        <time>2023-01-20T09:21:10Z</time>
      </trkpt>
      <trkpt lat="44.47436" lon="6.71085">
        <ele>1859</ele>
        <time>2023-01-20T09:21:11Z</time>
      </trkpt>
      <trkpt lat="44.47436" lon="6.71085">
        <ele>1859</ele>
        <time>2023-01-20T09:21:12Z</time>
      </trkpt>
      <trkpt lat="44.47437" lon="6.71085">
        <ele>1859.1</ele>
        <time>2023-01-20T09:21:13Z</time>
      </trkpt>
      <trkpt lat="44.47437" lon="6.71084">
        <ele>1859.2</ele>
        <time>2023-01-20T09:21:14Z</time>
      </trkpt>
      <trkpt lat="44.47438" lon="6.71084">
        <ele>1859.2</ele>
        <time>2023-01-20T09:21:15Z</time>
      </trkpt>
      <trkpt lat="44.47439" lon="6.71084">
        <ele>1859.3</ele>
        <time>2023-01-20T09:21:16Z</time>
      </trkpt>
      <trkpt lat="44.47439" lon="6.71083">
        <ele>1859.4</ele>
        <time>2023-01-20T09:21:17Z</time>
      </trkpt>
      <trkpt lat="44.4744" lon="6.71083">
        <ele>1859.4</ele>
        <time>2023-01-20T09:21:18Z</time>
      </trkpt>
      <trkpt lat="44.4744" lon="6.71083">
        <ele>1859.5</ele>
        <time>2023-01-20T09:21:19Z</time>
      </trkpt>
      <trkpt lat="44.47441" lon="6.71082">
        <ele>1859.6</ele>
        <time>2023-01-20T09:21:20Z</time>
      </trkpt>
      <trkpt lat="44.47442" lon="6.71082">
        <ele>1859.7</ele>
        <time>2023-01-20T09:21:21Z</time>
      </trkpt>
      <trkpt lat="44.47442" lon="6.71082">
        <ele>1859.8</ele>
        <time>2023-01-20T09:21:22Z</time>
      </trkpt>
      <trkpt lat="44.47443" lon="6.71081">
        <ele>1859.9</ele>
        <time>2023-01-20T09:21:23Z</time>
      </trkpt>
      <trkpt lat="44.47443" lon="6.7108">
        <ele>1860.1</ele>
        <time>2023-01-20T09:21:24Z</time>
      </trkpt>
      <trkpt lat="44.47444" lon="6.7108">
        <ele>1860.3</ele>
        <time>2023-01-20T09:21:25Z</time>
      </trkpt>
      <trkpt lat="44.47444" lon="6.71079">
        <ele>1860.4</ele>
        <time>2023-01-20T09:21:26Z</time>
      </trkpt>
      <trkpt lat="44.47445" lon="6.71079">
        <ele>1860.6</ele>
        <time>2023-01-20T09:21:27Z</time>
      </trkpt>
      <trkpt lat="44.47445" lon="6.71079">
        <ele>1860.7</ele>
        <time>2023-01-20T09:21:28Z</time>
      </trkpt>
      <trkpt lat="44.47444" lon="6.71078">
        <ele>1860.9</ele>
        <time>2023-01-20T09:21:29Z</time>
      </trkpt>
      <trkpt lat="44.47444" lon="6.71077">
        <ele>1861.2</ele>
        <time>2023-01-20T09:21:30Z</time>
      </trkpt>
      <trkpt lat="44.47444" lon="6.71077">
        <ele>1861.4</ele>
        <time>2023-01-20T09:21:31Z</time>
      </trkpt>
      <trkpt lat="44.47443" lon="6.71077">
        <ele>1861.3</ele>
        <time>2023-01-20T09:21:32Z</time>
      </trkpt>
      <trkpt lat="44.47443" lon="6.71077">
        <ele>1861.3</ele>
        <time>2023-01-20T09:21:33Z</time>
      </trkpt>
      <trkpt lat="44.47442" lon="6.71078">
        <ele>1861.2</ele>
        <time>2023-01-20T09:21:34Z</time>
      </trkpt>
      <trkpt lat="44.47442" lon="6.71077">
        <ele>1861.3</ele>
        <time>2023-01-20T09:21:35Z</time>
      </trkpt>
      <trkpt lat="44.47441" lon="6.71078">
        <ele>1861.2</ele>
        <time>2023-01-20T09:21:36Z</time>
      </trkpt>
      <trkpt lat="44.47441" lon="6.71078">
        <ele>1861.1</ele>
        <time>2023-01-20T09:21:37Z</time>
      </trkpt>
      <trkpt lat="44.4744" lon="6.71078">
        <ele>1861.2</ele>
        <time>2023-01-20T09:21:38Z</time>
      </trkpt>
      <trkpt lat="44.4744" lon="6.71079">
        <ele>1861</ele>
        <time>2023-01-20T09:21:39Z</time>
      </trkpt>
      <trkpt lat="44.47439" lon="6.71079">
        <ele>1861</ele>
        <time>2023-01-20T09:21:40Z</time>
      </trkpt>
      <trkpt lat="44.47439" lon="6.71079">
        <ele>1860.9</ele>
        <time>2023-01-20T09:21:41Z</time>
      </trkpt>
      <trkpt lat="44.47438" lon="6.71079">
        <ele>1860.9</ele>
        <time>2023-01-20T09:21:42Z</time>
      </trkpt>
      <trkpt lat="44.47437" lon="6.7108">
        <ele>1860.6</ele>
        <time>2023-01-20T09:21:43Z</time>
      </trkpt>
      <trkpt lat="44.47436" lon="6.71082">
        <ele>1860.2</ele>
        <time>2023-01-20T09:21:44Z</time>
      </trkpt>
      <trkpt lat="44.47436" lon="6.71082">
        <ele>1860</ele>
        <time>2023-01-20T09:21:45Z</time>
      </trkpt>
      <trkpt lat="44.47435" lon="6.71082">
        <ele>1860.2</ele>
        <time>2023-01-20T09:21:46Z</time>
      </trkpt>
      <trkpt lat="44.47435" lon="6.71081">
        <ele>1860.5</ele>
        <time>2023-01-20T09:21:47Z</time>
      </trkpt>
      <trkpt lat="44.47435" lon="6.7108">
        <ele>1860.9</ele>
        <time>2023-01-20T09:21:48Z</time>
      </trkpt>
      <trkpt lat="44.47435" lon="6.7108">
        <ele>1861</ele>
        <time>2023-01-20T09:21:49Z</time>
      </trkpt>
      <trkpt lat="44.47435" lon="6.71079">
        <ele>1861</ele>
        <time>2023-01-20T09:21:50Z</time>
      </trkpt>
      <trkpt lat="44.47435" lon="6.71079">
        <ele>1861.1</ele>
        <time>2023-01-20T09:21:51Z</time>
      </trkpt>
      <trkpt lat="44.47436" lon="6.71079">
        <ele>1861.3</ele>
        <time>2023-01-20T09:21:52Z</time>
      </trkpt>
      <trkpt lat="44.47437" lon="6.71078">
        <ele>1861.4</ele>
        <time>2023-01-20T09:21:53Z</time>
      </trkpt>
      <trkpt lat="44.47437" lon="6.71077">
        <ele>1861.6</ele>
        <time>2023-01-20T09:21:54Z</time>
      </trkpt>
      <trkpt lat="44.47438" lon="6.71077">
        <ele>1861.8</ele>
        <time>2023-01-20T09:21:55Z</time>
      </trkpt>
      <trkpt lat="44.47439" lon="6.71076">
        <ele>1862.1</ele>
        <time>2023-01-20T09:21:56Z</time>
      </trkpt>
      <trkpt lat="44.47439" lon="6.71075">
        <ele>1862.3</ele>
        <time>2023-01-20T09:21:57Z</time>
      </trkpt>
      <trkpt lat="44.47439" lon="6.71074">
        <ele>1862.8</ele>
        <time>2023-01-20T09:21:58Z</time>
      </trkpt>
      <trkpt lat="44.47439" lon="6.71073">
        <ele>1863</ele>
        <time>2023-01-20T09:21:59Z</time>
      </trkpt>
      <trkpt lat="44.47439" lon="6.71072">
        <ele>1863.4</ele>
        <time>2023-01-20T09:22:00Z</time>
      </trkpt>
      <trkpt lat="44.4744" lon="6.71071">
        <ele>1863.7</ele>
        <time>2023-01-20T09:22:01Z</time>
      </trkpt>
      <trkpt lat="44.4744" lon="6.7107">
        <ele>1863.9</ele>
        <time>2023-01-20T09:22:02Z</time>
      </trkpt>
      <trkpt lat="44.47441" lon="6.7107">
        <ele>1864.1</ele>
        <time>2023-01-20T09:22:03Z</time>
      </trkpt>
      <trkpt lat="44.47442" lon="6.71069">
        <ele>1864.3</ele>
        <time>2023-01-20T09:22:04Z</time>
      </trkpt>
      <trkpt lat="44.47442" lon="6.71068">
        <ele>1864.5</ele>
        <time>2023-01-20T09:22:05Z</time>
      </trkpt>
      <trkpt lat="44.47443" lon="6.71068">
        <ele>1864.8</ele>
        <time>2023-01-20T09:22:06Z</time>
      </trkpt>
      <trkpt lat="44.47443" lon="6.71067">
        <ele>1864.9</ele>
        <time>2023-01-20T09:22:07Z</time>
      </trkpt>
      <trkpt lat="44.47443" lon="6.71067">
        <ele>1865.1</ele>
        <time>2023-01-20T09:22:08Z</time>
      </trkpt>
      <trkpt lat="44.47444" lon="6.71066">
        <ele>1865.2</ele>
        <time>2023-01-20T09:22:09Z</time>
      </trkpt>
      <trkpt lat="44.47445" lon="6.71066">
        <ele>1865.2</ele>
        <time>2023-01-20T09:22:10Z</time>
      </trkpt>
      <trkpt lat="44.47445" lon="6.71065">
        <ele>1865.4</ele>
        <time>2023-01-20T09:22:11Z</time>
      </trkpt>
      <trkpt lat="44.47446" lon="6.71065">
        <ele>1865.6</ele>
        <time>2023-01-20T09:22:12Z</time>
      </trkpt>
      <trkpt lat="44.47447" lon="6.71063">
        <ele>1866</ele>
        <time>2023-01-20T09:22:13Z</time>
      </trkpt>
      <trkpt lat="44.47448" lon="6.71063">
        <ele>1866</ele>
        <time>2023-01-20T09:22:14Z</time>
      </trkpt>
      <trkpt lat="44.47449" lon="6.71063">
        <ele>1866.2</ele>
        <time>2023-01-20T09:22:15Z</time>
      </trkpt>
      <trkpt lat="44.4745" lon="6.71062">
        <ele>1866.3</ele>
        <time>2023-01-20T09:22:16Z</time>
      </trkpt>
      <trkpt lat="44.4745" lon="6.71061">
        <ele>1866.5</ele>
        <time>2023-01-20T09:22:17Z</time>
      </trkpt>
      <trkpt lat="44.47451" lon="6.71061">
        <ele>1866.7</ele>
        <time>2023-01-20T09:22:18Z</time>
      </trkpt>
      <trkpt lat="44.47452" lon="6.7106">
        <ele>1867</ele>
        <time>2023-01-20T09:22:19Z</time>
      </trkpt>
      <trkpt lat="44.47452" lon="6.71059">
        <ele>1867.2</ele>
        <time>2023-01-20T09:22:20Z</time>
      </trkpt>
      <trkpt lat="44.47452" lon="6.71059">
        <ele>1867.4</ele>
        <time>2023-01-20T09:22:21Z</time>
      </trkpt>
      <trkpt lat="44.47453" lon="6.71058">
        <ele>1867.5</ele>
        <time>2023-01-20T09:22:22Z</time>
      </trkpt>
      <trkpt lat="44.47453" lon="6.71058">
        <ele>1867.6</ele>
        <time>2023-01-20T09:22:23Z</time>
      </trkpt>
      <trkpt lat="44.47454" lon="6.71057">
        <ele>1867.8</ele>
        <time>2023-01-20T09:22:24Z</time>
      </trkpt>
      <trkpt lat="44.47455" lon="6.71057">
        <ele>1867.8</ele>
        <time>2023-01-20T09:22:25Z</time>
      </trkpt>
      <trkpt lat="44.47456" lon="6.71056">
        <ele>1867.9</ele>
        <time>2023-01-20T09:22:26Z</time>
      </trkpt>
      <trkpt lat="44.47456" lon="6.71056">
        <ele>1868.1</ele>
        <time>2023-01-20T09:22:27Z</time>
      </trkpt>
      <trkpt lat="44.47457" lon="6.71055">
        <ele>1868.2</ele>
        <time>2023-01-20T09:22:28Z</time>
      </trkpt>
      <trkpt lat="44.47457" lon="6.71054">
        <ele>1868.4</ele>
        <time>2023-01-20T09:22:29Z</time>
      </trkpt>
      <trkpt lat="44.47458" lon="6.71054">
        <ele>1868.6</ele>
        <time>2023-01-20T09:22:30Z</time>
      </trkpt>
      <trkpt lat="44.47458" lon="6.71053">
        <ele>1868.7</ele>
        <time>2023-01-20T09:22:31Z</time>
      </trkpt>
      <trkpt lat="44.47459" lon="6.71053">
        <ele>1868.7</ele>
        <time>2023-01-20T09:22:32Z</time>
      </trkpt>
      <trkpt lat="44.4746" lon="6.71053">
        <ele>1868.7</ele>
        <time>2023-01-20T09:22:33Z</time>
      </trkpt>
      <trkpt lat="44.4746" lon="6.71053">
        <ele>1868.8</ele>
        <time>2023-01-20T09:22:34Z</time>
      </trkpt>
      <trkpt lat="44.47461" lon="6.71052">
        <ele>1868.8</ele>
        <time>2023-01-20T09:22:35Z</time>
      </trkpt>
      <trkpt lat="44.47461" lon="6.71051">
        <ele>1869.1</ele>
        <time>2023-01-20T09:22:36Z</time>
      </trkpt>
      <trkpt lat="44.47462" lon="6.7105">
        <ele>1869.6</ele>
        <time>2023-01-20T09:22:37Z</time>
      </trkpt>
      <trkpt lat="44.47462" lon="6.7105">
        <ele>1869.6</ele>
        <time>2023-01-20T09:22:38Z</time>
      </trkpt>
      <trkpt lat="44.47463" lon="6.71049">
        <ele>1869.7</ele>
        <time>2023-01-20T09:22:39Z</time>
      </trkpt>
      <trkpt lat="44.47464" lon="6.71049">
        <ele>1869.6</ele>
        <time>2023-01-20T09:22:40Z</time>
      </trkpt>
      <trkpt lat="44.47464" lon="6.71049">
        <ele>1869.7</ele>
        <time>2023-01-20T09:22:41Z</time>
      </trkpt>
      <trkpt lat="44.47464" lon="6.71049">
        <ele>1869.6</ele>
        <time>2023-01-20T09:22:42Z</time>
      </trkpt>
      <trkpt lat="44.47465" lon="6.7105">
        <ele>1869.4</ele>
        <time>2023-01-20T09:22:43Z</time>
      </trkpt>
      <trkpt lat="44.47465" lon="6.7105">
        <ele>1869.4</ele>
        <time>2023-01-20T09:22:44Z</time>
      </trkpt>
      <trkpt lat="44.47466" lon="6.7105">
        <ele>1869.3</ele>
        <time>2023-01-20T09:22:45Z</time>
      </trkpt>
      <trkpt lat="44.47467" lon="6.7105">
        <ele>1869.3</ele>
        <time>2023-01-20T09:22:46Z</time>
      </trkpt>
      <trkpt lat="44.47468" lon="6.71049">
        <ele>1869.4</ele>
        <time>2023-01-20T09:22:47Z</time>
      </trkpt>
      <trkpt lat="44.47468" lon="6.71049">
        <ele>1869.4</ele>
        <time>2023-01-20T09:22:48Z</time>
      </trkpt>
      <trkpt lat="44.47469" lon="6.71049">
        <ele>1869.5</ele>
        <time>2023-01-20T09:22:49Z</time>
      </trkpt>
      <trkpt lat="44.4747" lon="6.71048">
        <ele>1869.5</ele>
        <time>2023-01-20T09:22:50Z</time>
      </trkpt>
      <trkpt lat="44.4747" lon="6.71048">
        <ele>1869.6</ele>
        <time>2023-01-20T09:22:51Z</time>
      </trkpt>
      <trkpt lat="44.47471" lon="6.71048">
        <ele>1869.7</ele>
        <time>2023-01-20T09:22:52Z</time>
      </trkpt>
      <trkpt lat="44.47471" lon="6.71048">
        <ele>1869.7</ele>
        <time>2023-01-20T09:22:53Z</time>
      </trkpt>
      <trkpt lat="44.47472" lon="6.71047">
        <ele>1869.8</ele>
        <time>2023-01-20T09:22:54Z</time>
      </trkpt>
      <trkpt lat="44.47472" lon="6.71047">
        <ele>1869.7</ele>
        <time>2023-01-20T09:22:55Z</time>
      </trkpt>
      <trkpt lat="44.47473" lon="6.71047">
        <ele>1869.6</ele>
        <time>2023-01-20T09:22:56Z</time>
      </trkpt>
      <trkpt lat="44.47474" lon="6.71047">
        <ele>1869.5</ele>
        <time>2023-01-20T09:22:57Z</time>
      </trkpt>
      <trkpt lat="44.47475" lon="6.71047">
        <ele>1869.4</ele>
        <time>2023-01-20T09:22:58Z</time>
      </trkpt>
      <trkpt lat="44.47475" lon="6.71047">
        <ele>1869.4</ele>
        <time>2023-01-20T09:22:59Z</time>
      </trkpt>
      <trkpt lat="44.47476" lon="6.71047">
        <ele>1869.4</ele>
        <time>2023-01-20T09:23:00Z</time>
      </trkpt>
      <trkpt lat="44.47476" lon="6.71047">
        <ele>1869.4</ele>
        <time>2023-01-20T09:23:01Z</time>
      </trkpt>
      <trkpt lat="44.47477" lon="6.71046">
        <ele>1869.6</ele>
        <time>2023-01-20T09:23:02Z</time>
      </trkpt>
      <trkpt lat="44.47477" lon="6.71045">
        <ele>1869.7</ele>
        <time>2023-01-20T09:23:03Z</time>
      </trkpt>
      <trkpt lat="44.47478" lon="6.71045">
        <ele>1869.7</ele>
        <time>2023-01-20T09:23:04Z</time>
      </trkpt>
      <trkpt lat="44.47478" lon="6.71045">
        <ele>1869.8</ele>
        <time>2023-01-20T09:23:05Z</time>
      </trkpt>
      <trkpt lat="44.47479" lon="6.71044">
        <ele>1869.9</ele>
        <time>2023-01-20T09:23:06Z</time>
      </trkpt>
      <trkpt lat="44.47479" lon="6.71044">
        <ele>1869.9</ele>
        <time>2023-01-20T09:23:07Z</time>
      </trkpt>
      <trkpt lat="44.47479" lon="6.71043">
        <ele>1870</ele>
        <time>2023-01-20T09:23:08Z</time>
      </trkpt>
      <trkpt lat="44.4748" lon="6.71043">
        <ele>1870.2</ele>
        <time>2023-01-20T09:23:09Z</time>
      </trkpt>
      <trkpt lat="44.4748" lon="6.71042">
        <ele>1870.3</ele>
        <time>2023-01-20T09:23:10Z</time>
      </trkpt>
      <trkpt lat="44.47481" lon="6.71042">
        <ele>1870.4</ele>
        <time>2023-01-20T09:23:11Z</time>
      </trkpt>
      <trkpt lat="44.47482" lon="6.71041">
        <ele>1870.5</ele>
        <time>2023-01-20T09:23:12Z</time>
      </trkpt>
      <trkpt lat="44.47482" lon="6.71041">
        <ele>1870.6</ele>
        <time>2023-01-20T09:23:13Z</time>
      </trkpt>
      <trkpt lat="44.47482" lon="6.7104">
        <ele>1870.7</ele>
        <time>2023-01-20T09:23:14Z</time>
      </trkpt>
      <trkpt lat="44.47483" lon="6.7104">
        <ele>1870.8</ele>
        <time>2023-01-20T09:23:15Z</time>
      </trkpt>
      <trkpt lat="44.47484" lon="6.71039">
        <ele>1870.9</ele>
        <time>2023-01-20T09:23:16Z</time>
      </trkpt>
      <trkpt lat="44.47484" lon="6.71038">
        <ele>1871.1</ele>
        <time>2023-01-20T09:23:17Z</time>
      </trkpt>
      <trkpt lat="44.47485" lon="6.71038">
        <ele>1871.1</ele>
        <time>2023-01-20T09:23:18Z</time>
      </trkpt>
      <trkpt lat="44.47485" lon="6.71038">
        <ele>1871.1</ele>
        <time>2023-01-20T09:23:19Z</time>
      </trkpt>
      <trkpt lat="44.47485" lon="6.71038">
        <ele>1871.1</ele>
        <time>2023-01-20T09:23:20Z</time>
      </trkpt>
      <trkpt lat="44.47485" lon="6.71038">
        <ele>1871.1</ele>
        <time>2023-01-20T09:23:21Z</time>
      </trkpt>
      <trkpt lat="44.47486" lon="6.71037">
        <ele>1871.2</ele>
        <time>2023-01-20T09:23:22Z</time>
      </trkpt>
      <trkpt lat="44.47486" lon="6.71037">
        <ele>1871.4</ele>
        <time>2023-01-20T09:23:23Z</time>
      </trkpt>
      <trkpt lat="44.47486" lon="6.71037">
        <ele>1871.5</ele>
        <time>2023-01-20T09:23:24Z</time>
      </trkpt>
      <trkpt lat="44.47486" lon="6.71036">
        <ele>1871.7</ele>
        <time>2023-01-20T09:23:25Z</time>
      </trkpt>
      <trkpt lat="44.47485" lon="6.71035">
        <ele>1872</ele>
        <time>2023-01-20T09:23:26Z</time>
      </trkpt>
      <trkpt lat="44.47485" lon="6.71034">
        <ele>1872.4</ele>
        <time>2023-01-20T09:23:27Z</time>
      </trkpt>
      <trkpt lat="44.47485" lon="6.71033">
        <ele>1872.9</ele>
        <time>2023-01-20T09:23:28Z</time>
      </trkpt>
      <trkpt lat="44.47484" lon="6.71032">
        <ele>1873.3</ele>
        <time>2023-01-20T09:23:29Z</time>
      </trkpt>
      <trkpt lat="44.47484" lon="6.7103">
        <ele>1873.8</ele>
        <time>2023-01-20T09:23:30Z</time>
      </trkpt>
      <trkpt lat="44.47483" lon="6.71031">
        <ele>1873.8</ele>
        <time>2023-01-20T09:23:31Z</time>
      </trkpt>
      <trkpt lat="44.47483" lon="6.7103">
        <ele>1874</ele>
        <time>2023-01-20T09:23:32Z</time>
      </trkpt>
      <trkpt lat="44.47482" lon="6.7103">
        <ele>1874.2</ele>
        <time>2023-01-20T09:23:33Z</time>
      </trkpt>
      <trkpt lat="44.47482" lon="6.71029">
        <ele>1874.4</ele>
        <time>2023-01-20T09:23:34Z</time>
      </trkpt>
      <trkpt lat="44.47481" lon="6.71029">
        <ele>1874.6</ele>
        <time>2023-01-20T09:23:35Z</time>
      </trkpt>
      <trkpt lat="44.47481" lon="6.71028">
        <ele>1874.9</ele>
        <time>2023-01-20T09:23:36Z</time>
      </trkpt>
      <trkpt lat="44.47481" lon="6.71028">
        <ele>1874.9</ele>
        <time>2023-01-20T09:23:37Z</time>
      </trkpt>
      <trkpt lat="44.4748" lon="6.71028">
        <ele>1874.9</ele>
        <time>2023-01-20T09:23:38Z</time>
      </trkpt>
      <trkpt lat="44.4748" lon="6.71029">
        <ele>1874.8</ele>
        <time>2023-01-20T09:23:39Z</time>
      </trkpt>
      <trkpt lat="44.47479" lon="6.71029">
        <ele>1874.9</ele>
        <time>2023-01-20T09:23:40Z</time>
      </trkpt>
      <trkpt lat="44.47479" lon="6.71028">
        <ele>1875</ele>
        <time>2023-01-20T09:23:41Z</time>
      </trkpt>
      <trkpt lat="44.47478" lon="6.71028">
        <ele>1875.2</ele>
        <time>2023-01-20T09:23:42Z</time>
      </trkpt>
      <trkpt lat="44.47478" lon="6.71029">
        <ele>1875.1</ele>
        <time>2023-01-20T09:23:43Z</time>
      </trkpt>
      <trkpt lat="44.47477" lon="6.71029">
        <ele>1875.2</ele>
        <time>2023-01-20T09:23:44Z</time>
      </trkpt>
      <trkpt lat="44.47476" lon="6.71029">
        <ele>1875.3</ele>
        <time>2023-01-20T09:23:45Z</time>
      </trkpt>
      <trkpt lat="44.47476" lon="6.71029">
        <ele>1875.1</ele>
        <time>2023-01-20T09:23:46Z</time>
      </trkpt>
      <trkpt lat="44.47475" lon="6.71029">
        <ele>1875.4</ele>
        <time>2023-01-20T09:23:47Z</time>
      </trkpt>
      <trkpt lat="44.47474" lon="6.71029">
        <ele>1875.3</ele>
        <time>2023-01-20T09:23:48Z</time>
      </trkpt>
      <trkpt lat="44.47474" lon="6.71029">
        <ele>1875.3</ele>
        <time>2023-01-20T09:23:49Z</time>
      </trkpt>
      <trkpt lat="44.47473" lon="6.7103">
        <ele>1875.3</ele>
        <time>2023-01-20T09:23:50Z</time>
      </trkpt>
      <trkpt lat="44.47472" lon="6.7103">
        <ele>1875.3</ele>
        <time>2023-01-20T09:23:51Z</time>
      </trkpt>
      <trkpt lat="44.47471" lon="6.7103">
        <ele>1875.2</ele>
        <time>2023-01-20T09:23:52Z</time>
      </trkpt>
      <trkpt lat="44.47471" lon="6.7103">
        <ele>1875.2</ele>
        <time>2023-01-20T09:23:53Z</time>
      </trkpt>
      <trkpt lat="44.4747" lon="6.71031">
        <ele>1875.2</ele>
        <time>2023-01-20T09:23:54Z</time>
      </trkpt>
      <trkpt lat="44.4747" lon="6.71031">
        <ele>1875.2</ele>
        <time>2023-01-20T09:23:55Z</time>
      </trkpt>
      <trkpt lat="44.4747" lon="6.7103">
        <ele>1875.5</ele>
        <time>2023-01-20T09:23:56Z</time>
      </trkpt>
      <trkpt lat="44.4747" lon="6.71029">
        <ele>1875.8</ele>
        <time>2023-01-20T09:23:57Z</time>
      </trkpt>
      <trkpt lat="44.4747" lon="6.71027">
        <ele>1876.3</ele>
        <time>2023-01-20T09:23:58Z</time>
      </trkpt>
      <trkpt lat="44.47471" lon="6.71026">
        <ele>1876.7</ele>
        <time>2023-01-20T09:23:59Z</time>
      </trkpt>
      <trkpt lat="44.47471" lon="6.71025">
        <ele>1876.9</ele>
        <time>2023-01-20T09:24:00Z</time>
      </trkpt>
      <trkpt lat="44.47472" lon="6.71024">
        <ele>1877</ele>
        <time>2023-01-20T09:24:01Z</time>
      </trkpt>
      <trkpt lat="44.47472" lon="6.71024">
        <ele>1877.2</ele>
        <time>2023-01-20T09:24:02Z</time>
      </trkpt>
      <trkpt lat="44.47473" lon="6.71023">
        <ele>1877.3</ele>
        <time>2023-01-20T09:24:03Z</time>
      </trkpt>
      <trkpt lat="44.47473" lon="6.71022">
        <ele>1877.7</ele>
        <time>2023-01-20T09:24:04Z</time>
      </trkpt>
      <trkpt lat="44.47473" lon="6.71021">
        <ele>1877.8</ele>
        <time>2023-01-20T09:24:05Z</time>
      </trkpt>
      <trkpt lat="44.47474" lon="6.71021">
        <ele>1877.9</ele>
        <time>2023-01-20T09:24:06Z</time>
      </trkpt>
      <trkpt lat="44.47474" lon="6.7102">
        <ele>1878</ele>
        <time>2023-01-20T09:24:07Z</time>
      </trkpt>
      <trkpt lat="44.47475" lon="6.71019">
        <ele>1878.1</ele>
        <time>2023-01-20T09:24:08Z</time>
      </trkpt>
      <trkpt lat="44.47475" lon="6.71018">
        <ele>1878.4</ele>
        <time>2023-01-20T09:24:09Z</time>
      </trkpt>
      <trkpt lat="44.47476" lon="6.71017">
        <ele>1878.6</ele>
        <time>2023-01-20T09:24:10Z</time>
      </trkpt>
      <trkpt lat="44.47477" lon="6.71017">
        <ele>1878.7</ele>
        <time>2023-01-20T09:24:11Z</time>
      </trkpt>
      <trkpt lat="44.47478" lon="6.71015">
        <ele>1879</ele>
        <time>2023-01-20T09:24:12Z</time>
      </trkpt>
      <trkpt lat="44.47478" lon="6.71014">
        <ele>1879.2</ele>
        <time>2023-01-20T09:24:13Z</time>
      </trkpt>
      <trkpt lat="44.47478" lon="6.71014">
        <ele>1879.4</ele>
        <time>2023-01-20T09:24:14Z</time>
      </trkpt>
      <trkpt lat="44.47479" lon="6.71013">
        <ele>1879.5</ele>
        <time>2023-01-20T09:24:15Z</time>
      </trkpt>
      <trkpt lat="44.4748" lon="6.71012">
        <ele>1879.6</ele>
        <time>2023-01-20T09:24:16Z</time>
      </trkpt>
      <trkpt lat="44.4748" lon="6.71011">
        <ele>1879.8</ele>
        <time>2023-01-20T09:24:17Z</time>
      </trkpt>
      <trkpt lat="44.47481" lon="6.71011">
        <ele>1879.9</ele>
        <time>2023-01-20T09:24:18Z</time>
      </trkpt>
      <trkpt lat="44.47481" lon="6.71009">
        <ele>1880.5</ele>
        <time>2023-01-20T09:24:19Z</time>
      </trkpt>
      <trkpt lat="44.47482" lon="6.71008">
        <ele>1880.8</ele>
        <time>2023-01-20T09:24:20Z</time>
      </trkpt>
      <trkpt lat="44.47483" lon="6.71007">
        <ele>1880.9</ele>
        <time>2023-01-20T09:24:21Z</time>
      </trkpt>
      <trkpt lat="44.47483" lon="6.71006">
        <ele>1881</ele>
        <time>2023-01-20T09:24:22Z</time>
      </trkpt>
      <trkpt lat="44.47484" lon="6.71005">
        <ele>1881.3</ele>
        <time>2023-01-20T09:24:23Z</time>
      </trkpt>
      <trkpt lat="44.47485" lon="6.71004">
        <ele>1881.4</ele>
        <time>2023-01-20T09:24:24Z</time>
      </trkpt>
      <trkpt lat="44.47485" lon="6.71003">
        <ele>1881.6</ele>
        <time>2023-01-20T09:24:25Z</time>
      </trkpt>
      <trkpt lat="44.47486" lon="6.71003">
        <ele>1881.7</ele>
        <time>2023-01-20T09:24:26Z</time>
      </trkpt>
      <trkpt lat="44.47488" lon="6.71002">
        <ele>1881.6</ele>
        <time>2023-01-20T09:24:27Z</time>
      </trkpt>
      <trkpt lat="44.4749" lon="6.71002">
        <ele>1881.6</ele>
        <time>2023-01-20T09:24:28Z</time>
      </trkpt>
      <trkpt lat="44.47491" lon="6.71001">
        <ele>1881.6</ele>
        <time>2023-01-20T09:24:29Z</time>
      </trkpt>
      <trkpt lat="44.47493" lon="6.71">
        <ele>1881.9</ele>
        <time>2023-01-20T09:24:31Z</time>
      </trkpt>
      <trkpt lat="44.47494" lon="6.70998">
        <ele>1882.1</ele>
        <time>2023-01-20T09:24:32Z</time>
      </trkpt>
      <trkpt lat="44.47495" lon="6.70996">
        <ele>1882.5</ele>
        <time>2023-01-20T09:24:34Z</time>
      </trkpt>
      <trkpt lat="44.47496" lon="6.70995">
        <ele>1882.8</ele>
        <time>2023-01-20T09:24:35Z</time>
      </trkpt>
      <trkpt lat="44.47496" lon="6.70995">
        <ele>1882.8</ele>
        <time>2023-01-20T09:24:36Z</time>
      </trkpt>
      <trkpt lat="44.47497" lon="6.70995">
        <ele>1882.8</ele>
        <time>2023-01-20T09:24:37Z</time>
      </trkpt>
      <trkpt lat="44.47498" lon="6.70994">
        <ele>1882.8</ele>
        <time>2023-01-20T09:24:38Z</time>
      </trkpt>
      <trkpt lat="44.47499" lon="6.70994">
        <ele>1882.8</ele>
        <time>2023-01-20T09:24:39Z</time>
      </trkpt>
      <trkpt lat="44.475" lon="6.70994">
        <ele>1882.7</ele>
        <time>2023-01-20T09:24:40Z</time>
      </trkpt>
      <trkpt lat="44.47501" lon="6.70994">
        <ele>1882.7</ele>
        <time>2023-01-20T09:24:41Z</time>
      </trkpt>
      <trkpt lat="44.47501" lon="6.70993">
        <ele>1882.9</ele>
        <time>2023-01-20T09:24:42Z</time>
      </trkpt>
      <trkpt lat="44.47502" lon="6.70992">
        <ele>1883.1</ele>
        <time>2023-01-20T09:24:43Z</time>
      </trkpt>
      <trkpt lat="44.47502" lon="6.70991">
        <ele>1883.4</ele>
        <time>2023-01-20T09:24:44Z</time>
      </trkpt>
      <trkpt lat="44.47503" lon="6.7099">
        <ele>1883.4</ele>
        <time>2023-01-20T09:24:45Z</time>
      </trkpt>
      <trkpt lat="44.47504" lon="6.7099">
        <ele>1883.5</ele>
        <time>2023-01-20T09:24:46Z</time>
      </trkpt>
      <trkpt lat="44.47505" lon="6.70989">
        <ele>1883.6</ele>
        <time>2023-01-20T09:24:47Z</time>
      </trkpt>
      <trkpt lat="44.47505" lon="6.70989">
        <ele>1883.6</ele>
        <time>2023-01-20T09:24:48Z</time>
      </trkpt>
      <trkpt lat="44.47506" lon="6.70989">
        <ele>1883.5</ele>
        <time>2023-01-20T09:24:49Z</time>
      </trkpt>
      <trkpt lat="44.47508" lon="6.70989">
        <ele>1883.2</ele>
        <time>2023-01-20T09:24:50Z</time>
      </trkpt>
      <trkpt lat="44.47508" lon="6.70989">
        <ele>1883.1</ele>
        <time>2023-01-20T09:24:51Z</time>
      </trkpt>
      <trkpt lat="44.47509" lon="6.70989">
        <ele>1883</ele>
        <time>2023-01-20T09:24:52Z</time>
      </trkpt>
      <trkpt lat="44.4751" lon="6.70988">
        <ele>1883.1</ele>
        <time>2023-01-20T09:24:53Z</time>
      </trkpt>
      <trkpt lat="44.47511" lon="6.70988">
        <ele>1883</ele>
        <time>2023-01-20T09:24:54Z</time>
      </trkpt>
      <trkpt lat="44.47511" lon="6.70988">
        <ele>1883.1</ele>
        <time>2023-01-20T09:24:55Z</time>
      </trkpt>
      <trkpt lat="44.47512" lon="6.70987">
        <ele>1883.1</ele>
        <time>2023-01-20T09:24:56Z</time>
      </trkpt>
      <trkpt lat="44.47513" lon="6.70987">
        <ele>1883.1</ele>
        <time>2023-01-20T09:24:57Z</time>
      </trkpt>
      <trkpt lat="44.47513" lon="6.70987">
        <ele>1883.2</ele>
        <time>2023-01-20T09:24:58Z</time>
      </trkpt>
      <trkpt lat="44.47514" lon="6.70987">
        <ele>1883.1</ele>
        <time>2023-01-20T09:24:59Z</time>
      </trkpt>
      <trkpt lat="44.47515" lon="6.70986">
        <ele>1883</ele>
        <time>2023-01-20T09:25:00Z</time>
      </trkpt>
      <trkpt lat="44.47516" lon="6.70986">
        <ele>1883</ele>
        <time>2023-01-20T09:25:01Z</time>
      </trkpt>
      <trkpt lat="44.47517" lon="6.70986">
        <ele>1883</ele>
        <time>2023-01-20T09:25:02Z</time>
      </trkpt>
      <trkpt lat="44.47517" lon="6.70985">
        <ele>1883.2</ele>
        <time>2023-01-20T09:25:03Z</time>
      </trkpt>
      <trkpt lat="44.47518" lon="6.70985">
        <ele>1883.2</ele>
        <time>2023-01-20T09:25:04Z</time>
      </trkpt>
      <trkpt lat="44.47518" lon="6.70984">
        <ele>1883.2</ele>
        <time>2023-01-20T09:25:05Z</time>
      </trkpt>
      <trkpt lat="44.47519" lon="6.70984">
        <ele>1883.3</ele>
        <time>2023-01-20T09:25:06Z</time>
      </trkpt>
      <trkpt lat="44.4752" lon="6.70983">
        <ele>1883.4</ele>
        <time>2023-01-20T09:25:07Z</time>
      </trkpt>
      <trkpt lat="44.47521" lon="6.70983">
        <ele>1883.4</ele>
        <time>2023-01-20T09:25:08Z</time>
      </trkpt>
      <trkpt lat="44.47522" lon="6.70982">
        <ele>1883.5</ele>
        <time>2023-01-20T09:25:09Z</time>
      </trkpt>
      <trkpt lat="44.47523" lon="6.70981">
        <ele>1883.6</ele>
        <time>2023-01-20T09:25:10Z</time>
      </trkpt>
      <trkpt lat="44.47524" lon="6.70981">
        <ele>1883.7</ele>
        <time>2023-01-20T09:25:11Z</time>
      </trkpt>
      <trkpt lat="44.47524" lon="6.7098">
        <ele>1883.9</ele>
        <time>2023-01-20T09:25:12Z</time>
      </trkpt>
      <trkpt lat="44.47525" lon="6.7098">
        <ele>1883.8</ele>
        <time>2023-01-20T09:25:13Z</time>
      </trkpt>
      <trkpt lat="44.47526" lon="6.70979">
        <ele>1883.9</ele>
        <time>2023-01-20T09:25:14Z</time>
      </trkpt>
      <trkpt lat="44.47527" lon="6.70979">
        <ele>1884</ele>
        <time>2023-01-20T09:25:15Z</time>
      </trkpt>
      <trkpt lat="44.47527" lon="6.70978">
        <ele>1884.1</ele>
        <time>2023-01-20T09:25:16Z</time>
      </trkpt>
      <trkpt lat="44.47528" lon="6.70978">
        <ele>1884.2</ele>
        <time>2023-01-20T09:25:17Z</time>
      </trkpt>
      <trkpt lat="44.47528" lon="6.70977">
        <ele>1884.4</ele>
        <time>2023-01-20T09:25:18Z</time>
      </trkpt>
      <trkpt lat="44.47528" lon="6.70977">
        <ele>1884.5</ele>
        <time>2023-01-20T09:25:19Z</time>
      </trkpt>
      <trkpt lat="44.47529" lon="6.70976">
        <ele>1884.8</ele>
        <time>2023-01-20T09:25:20Z</time>
      </trkpt>
      <trkpt lat="44.47529" lon="6.70975">
        <ele>1885</ele>
        <time>2023-01-20T09:25:21Z</time>
      </trkpt>
      <trkpt lat="44.4753" lon="6.70974">
        <ele>1885.2</ele>
        <time>2023-01-20T09:25:22Z</time>
      </trkpt>
      <trkpt lat="44.47531" lon="6.70973">
        <ele>1885.5</ele>
        <time>2023-01-20T09:25:23Z</time>
      </trkpt>
      <trkpt lat="44.47531" lon="6.70972">
        <ele>1885.7</ele>
        <time>2023-01-20T09:25:24Z</time>
      </trkpt>
      <trkpt lat="44.47532" lon="6.70971">
        <ele>1886</ele>
        <time>2023-01-20T09:25:25Z</time>
      </trkpt>
      <trkpt lat="44.47532" lon="6.7097">
        <ele>1886.2</ele>
        <time>2023-01-20T09:25:26Z</time>
      </trkpt>
      <trkpt lat="44.47532" lon="6.70969">
        <ele>1886.4</ele>
        <time>2023-01-20T09:25:27Z</time>
      </trkpt>
      <trkpt lat="44.47532" lon="6.70969">
        <ele>1886.5</ele>
        <time>2023-01-20T09:25:28Z</time>
      </trkpt>
      <trkpt lat="44.47532" lon="6.70968">
        <ele>1886.8</ele>
        <time>2023-01-20T09:25:29Z</time>
      </trkpt>
      <trkpt lat="44.47533" lon="6.70967">
        <ele>1886.9</ele>
        <time>2023-01-20T09:25:30Z</time>
      </trkpt>
      <trkpt lat="44.47533" lon="6.70966">
        <ele>1887.2</ele>
        <time>2023-01-20T09:25:31Z</time>
      </trkpt>
      <trkpt lat="44.47534" lon="6.70964">
        <ele>1887.6</ele>
        <time>2023-01-20T09:25:32Z</time>
      </trkpt>
      <trkpt lat="44.47534" lon="6.70962">
        <ele>1888.1</ele>
        <time>2023-01-20T09:25:33Z</time>
      </trkpt>
      <trkpt lat="44.47535" lon="6.70961">
        <ele>1888.1</ele>
        <time>2023-01-20T09:25:34Z</time>
      </trkpt>
      <trkpt lat="44.47536" lon="6.70961">
        <ele>1888.2</ele>
        <time>2023-01-20T09:25:35Z</time>
      </trkpt>
      <trkpt lat="44.47537" lon="6.7096">
        <ele>1888.2</ele>
        <time>2023-01-20T09:25:36Z</time>
      </trkpt>
      <trkpt lat="44.47537" lon="6.70959">
        <ele>1888.4</ele>
        <time>2023-01-20T09:25:37Z</time>
      </trkpt>
      <trkpt lat="44.47538" lon="6.70958">
        <ele>1888.5</ele>
        <time>2023-01-20T09:25:38Z</time>
      </trkpt>
      <trkpt lat="44.47539" lon="6.70958">
        <ele>1888.7</ele>
        <time>2023-01-20T09:25:39Z</time>
      </trkpt>
      <trkpt lat="44.47539" lon="6.70957">
        <ele>1888.9</ele>
        <time>2023-01-20T09:25:40Z</time>
      </trkpt>
      <trkpt lat="44.4754" lon="6.70956">
        <ele>1888.9</ele>
        <time>2023-01-20T09:25:41Z</time>
      </trkpt>
      <trkpt lat="44.47541" lon="6.70955">
        <ele>1889</ele>
        <time>2023-01-20T09:25:42Z</time>
      </trkpt>
      <trkpt lat="44.47541" lon="6.70955">
        <ele>1889.1</ele>
        <time>2023-01-20T09:25:43Z</time>
      </trkpt>
      <trkpt lat="44.47541" lon="6.70954">
        <ele>1889.2</ele>
        <time>2023-01-20T09:25:44Z</time>
      </trkpt>
      <trkpt lat="44.47542" lon="6.70954">
        <ele>1889.3</ele>
        <time>2023-01-20T09:25:45Z</time>
      </trkpt>
      <trkpt lat="44.47542" lon="6.70953">
        <ele>1889.5</ele>
        <time>2023-01-20T09:25:46Z</time>
      </trkpt>
      <trkpt lat="44.47543" lon="6.70952">
        <ele>1889.6</ele>
        <time>2023-01-20T09:25:47Z</time>
      </trkpt>
      <trkpt lat="44.47543" lon="6.70951">
        <ele>1889.9</ele>
        <time>2023-01-20T09:25:48Z</time>
      </trkpt>
      <trkpt lat="44.47544" lon="6.7095">
        <ele>1890</ele>
        <time>2023-01-20T09:25:49Z</time>
      </trkpt>
      <trkpt lat="44.47544" lon="6.70949">
        <ele>1890.2</ele>
        <time>2023-01-20T09:25:50Z</time>
      </trkpt>
      <trkpt lat="44.47545" lon="6.70948">
        <ele>1890.3</ele>
        <time>2023-01-20T09:25:51Z</time>
      </trkpt>
      <trkpt lat="44.47546" lon="6.70947">
        <ele>1890.5</ele>
        <time>2023-01-20T09:25:52Z</time>
      </trkpt>
      <trkpt lat="44.47546" lon="6.70946">
        <ele>1890.7</ele>
        <time>2023-01-20T09:25:53Z</time>
      </trkpt>
      <trkpt lat="44.47547" lon="6.70946">
        <ele>1890.6</ele>
        <time>2023-01-20T09:25:54Z</time>
      </trkpt>
      <trkpt lat="44.47548" lon="6.70945">
        <ele>1890.7</ele>
        <time>2023-01-20T09:25:55Z</time>
      </trkpt>
      <trkpt lat="44.47548" lon="6.70944">
        <ele>1890.9</ele>
        <time>2023-01-20T09:25:56Z</time>
      </trkpt>
      <trkpt lat="44.47549" lon="6.70943">
        <ele>1891</ele>
        <time>2023-01-20T09:25:57Z</time>
      </trkpt>
      <trkpt lat="44.4755" lon="6.70942">
        <ele>1891.1</ele>
        <time>2023-01-20T09:25:58Z</time>
      </trkpt>
      <trkpt lat="44.4755" lon="6.70942">
        <ele>1891.1</ele>
        <time>2023-01-20T09:25:59Z</time>
      </trkpt>
      <trkpt lat="44.47551" lon="6.70941">
        <ele>1891.2</ele>
        <time>2023-01-20T09:26:00Z</time>
      </trkpt>
      <trkpt lat="44.47551" lon="6.7094">
        <ele>1891.3</ele>
        <time>2023-01-20T09:26:01Z</time>
      </trkpt>
      <trkpt lat="44.47552" lon="6.70939">
        <ele>1891.3</ele>
        <time>2023-01-20T09:26:02Z</time>
      </trkpt>
      <trkpt lat="44.47553" lon="6.70939">
        <ele>1891.3</ele>
        <time>2023-01-20T09:26:03Z</time>
      </trkpt>
      <trkpt lat="44.47553" lon="6.70938">
        <ele>1891.4</ele>
        <time>2023-01-20T09:26:04Z</time>
      </trkpt>
      <trkpt lat="44.47554" lon="6.70936">
        <ele>1891.6</ele>
        <time>2023-01-20T09:26:05Z</time>
      </trkpt>
      <trkpt lat="44.47554" lon="6.70936">
        <ele>1891.7</ele>
        <time>2023-01-20T09:26:06Z</time>
      </trkpt>
      <trkpt lat="44.47555" lon="6.70935">
        <ele>1891.7</ele>
        <time>2023-01-20T09:26:07Z</time>
      </trkpt>
      <trkpt lat="44.47555" lon="6.70935">
        <ele>1891.8</ele>
        <time>2023-01-20T09:26:08Z</time>
      </trkpt>
      <trkpt lat="44.47556" lon="6.70934">
        <ele>1891.8</ele>
        <time>2023-01-20T09:26:09Z</time>
      </trkpt>
      <trkpt lat="44.47556" lon="6.70934">
        <ele>1891.9</ele>
        <time>2023-01-20T09:26:10Z</time>
      </trkpt>
      <trkpt lat="44.47557" lon="6.70933">
        <ele>1891.9</ele>
        <time>2023-01-20T09:26:11Z</time>
      </trkpt>
      <trkpt lat="44.47557" lon="6.70932">
        <ele>1891.9</ele>
        <time>2023-01-20T09:26:12Z</time>
      </trkpt>
      <trkpt lat="44.47558" lon="6.70932">
        <ele>1892</ele>
        <time>2023-01-20T09:26:13Z</time>
      </trkpt>
      <trkpt lat="44.47558" lon="6.70931">
        <ele>1892</ele>
        <time>2023-01-20T09:26:14Z</time>
      </trkpt>
      <trkpt lat="44.47558" lon="6.7093">
        <ele>1892.1</ele>
        <time>2023-01-20T09:26:15Z</time>
      </trkpt>
      <trkpt lat="44.47559" lon="6.70929">
        <ele>1892.2</ele>
        <time>2023-01-20T09:26:16Z</time>
      </trkpt>
      <trkpt lat="44.47559" lon="6.70928">
        <ele>1892.3</ele>
        <time>2023-01-20T09:26:17Z</time>
      </trkpt>
      <trkpt lat="44.4756" lon="6.70928">
        <ele>1892.3</ele>
        <time>2023-01-20T09:26:18Z</time>
      </trkpt>
      <trkpt lat="44.4756" lon="6.70928">
        <ele>1892.4</ele>
        <time>2023-01-20T09:26:19Z</time>
      </trkpt>
      <trkpt lat="44.4756" lon="6.70927">
        <ele>1892.4</ele>
        <time>2023-01-20T09:26:20Z</time>
      </trkpt>
      <trkpt lat="44.47561" lon="6.70926">
        <ele>1892.4</ele>
        <time>2023-01-20T09:26:21Z</time>
      </trkpt>
      <trkpt lat="44.47561" lon="6.70926">
        <ele>1892.5</ele>
        <time>2023-01-20T09:26:22Z</time>
      </trkpt>
      <trkpt lat="44.47562" lon="6.70924">
        <ele>1892.7</ele>
        <time>2023-01-20T09:26:23Z</time>
      </trkpt>
      <trkpt lat="44.47562" lon="6.70923">
        <ele>1892.8</ele>
        <time>2023-01-20T09:26:24Z</time>
      </trkpt>
      <trkpt lat="44.47563" lon="6.70923">
        <ele>1892.8</ele>
        <time>2023-01-20T09:26:25Z</time>
      </trkpt>
      <trkpt lat="44.47563" lon="6.70923">
        <ele>1892.7</ele>
        <time>2023-01-20T09:26:26Z</time>
      </trkpt>
      <trkpt lat="44.47563" lon="6.70921">
        <ele>1893</ele>
        <time>2023-01-20T09:26:27Z</time>
      </trkpt>
      <trkpt lat="44.47564" lon="6.70921">
        <ele>1893</ele>
        <time>2023-01-20T09:26:28Z</time>
      </trkpt>
      <trkpt lat="44.47565" lon="6.7092">
        <ele>1893.1</ele>
        <time>2023-01-20T09:26:29Z</time>
      </trkpt>
      <trkpt lat="44.47565" lon="6.70919">
        <ele>1893.1</ele>
        <time>2023-01-20T09:26:30Z</time>
      </trkpt>
      <trkpt lat="44.47566" lon="6.70919">
        <ele>1893.1</ele>
        <time>2023-01-20T09:26:31Z</time>
      </trkpt>
      <trkpt lat="44.47567" lon="6.70918">
        <ele>1893.2</ele>
        <time>2023-01-20T09:26:32Z</time>
      </trkpt>
      <trkpt lat="44.47567" lon="6.70917">
        <ele>1893.2</ele>
        <time>2023-01-20T09:26:33Z</time>
      </trkpt>
      <trkpt lat="44.47568" lon="6.70916">
        <ele>1893.2</ele>
        <time>2023-01-20T09:26:34Z</time>
      </trkpt>
      <trkpt lat="44.47569" lon="6.70916">
        <ele>1893.3</ele>
        <time>2023-01-20T09:26:35Z</time>
      </trkpt>
      <trkpt lat="44.4757" lon="6.70916">
        <ele>1893.2</ele>
        <time>2023-01-20T09:26:36Z</time>
      </trkpt>
      <trkpt lat="44.4757" lon="6.70915">
        <ele>1893.3</ele>
        <time>2023-01-20T09:26:37Z</time>
      </trkpt>
      <trkpt lat="44.4757" lon="6.70913">
        <ele>1893.6</ele>
        <time>2023-01-20T09:26:38Z</time>
      </trkpt>
      <trkpt lat="44.47571" lon="6.70913">
        <ele>1893.8</ele>
        <time>2023-01-20T09:26:39Z</time>
      </trkpt>
      <trkpt lat="44.47571" lon="6.70912">
        <ele>1893.8</ele>
        <time>2023-01-20T09:26:40Z</time>
      </trkpt>
      <trkpt lat="44.47573" lon="6.70911">
        <ele>1893.7</ele>
        <time>2023-01-20T09:26:41Z</time>
      </trkpt>
      <trkpt lat="44.47574" lon="6.70911">
        <ele>1893.7</ele>
        <time>2023-01-20T09:26:42Z</time>
      </trkpt>
      <trkpt lat="44.47575" lon="6.7091">
        <ele>1893.7</ele>
        <time>2023-01-20T09:26:43Z</time>
      </trkpt>
      <trkpt lat="44.47576" lon="6.7091">
        <ele>1893.7</ele>
        <time>2023-01-20T09:26:44Z</time>
      </trkpt>
      <trkpt lat="44.47577" lon="6.70909">
        <ele>1893.7</ele>
        <time>2023-01-20T09:26:45Z</time>
      </trkpt>
      <trkpt lat="44.47577" lon="6.70908">
        <ele>1893.8</ele>
        <time>2023-01-20T09:26:46Z</time>
      </trkpt>
      <trkpt lat="44.47578" lon="6.70908">
        <ele>1893.8</ele>
        <time>2023-01-20T09:26:47Z</time>
      </trkpt>
      <trkpt lat="44.47578" lon="6.70907">
        <ele>1893.9</ele>
        <time>2023-01-20T09:26:48Z</time>
      </trkpt>
      <trkpt lat="44.47578" lon="6.70906">
        <ele>1894.1</ele>
        <time>2023-01-20T09:26:49Z</time>
      </trkpt>
      <trkpt lat="44.47579" lon="6.70905">
        <ele>1894.2</ele>
        <time>2023-01-20T09:26:50Z</time>
      </trkpt>
      <trkpt lat="44.47579" lon="6.70905">
        <ele>1894.3</ele>
        <time>2023-01-20T09:26:51Z</time>
      </trkpt>
      <trkpt lat="44.4758" lon="6.70904">
        <ele>1894.3</ele>
        <time>2023-01-20T09:26:52Z</time>
      </trkpt>
      <trkpt lat="44.4758" lon="6.70903">
        <ele>1894.4</ele>
        <time>2023-01-20T09:26:53Z</time>
      </trkpt>
      <trkpt lat="44.47581" lon="6.70902">
        <ele>1894.5</ele>
        <time>2023-01-20T09:26:54Z</time>
      </trkpt>
      <trkpt lat="44.47582" lon="6.70902">
        <ele>1894.6</ele>
        <time>2023-01-20T09:26:55Z</time>
      </trkpt>
      <trkpt lat="44.47582" lon="6.70901">
        <ele>1894.6</ele>
        <time>2023-01-20T09:26:56Z</time>
      </trkpt>
      <trkpt lat="44.47583" lon="6.709">
        <ele>1894.6</ele>
        <time>2023-01-20T09:26:57Z</time>
      </trkpt>
      <trkpt lat="44.47584" lon="6.709">
        <ele>1894.6</ele>
        <time>2023-01-20T09:26:58Z</time>
      </trkpt>
      <trkpt lat="44.47584" lon="6.70899">
        <ele>1894.6</ele>
        <time>2023-01-20T09:26:59Z</time>
      </trkpt>
      <trkpt lat="44.47585" lon="6.70898">
        <ele>1894.7</ele>
        <time>2023-01-20T09:27:00Z</time>
      </trkpt>
      <trkpt lat="44.47586" lon="6.70897">
        <ele>1894.8</ele>
        <time>2023-01-20T09:27:01Z</time>
      </trkpt>
      <trkpt lat="44.47586" lon="6.70896">
        <ele>1895</ele>
        <time>2023-01-20T09:27:02Z</time>
      </trkpt>
      <trkpt lat="44.47586" lon="6.70896">
        <ele>1895</ele>
        <time>2023-01-20T09:27:03Z</time>
      </trkpt>
      <trkpt lat="44.47587" lon="6.70895">
        <ele>1895</ele>
        <time>2023-01-20T09:27:04Z</time>
      </trkpt>
      <trkpt lat="44.47588" lon="6.70894">
        <ele>1895</ele>
        <time>2023-01-20T09:27:05Z</time>
      </trkpt>
      <trkpt lat="44.47589" lon="6.70893">
        <ele>1895</ele>
        <time>2023-01-20T09:27:06Z</time>
      </trkpt>
      <trkpt lat="44.4759" lon="6.70893">
        <ele>1895.1</ele>
        <time>2023-01-20T09:27:07Z</time>
      </trkpt>
      <trkpt lat="44.4759" lon="6.70892">
        <ele>1895.1</ele>
        <time>2023-01-20T09:27:08Z</time>
      </trkpt>
      <trkpt lat="44.47591" lon="6.70891">
        <ele>1895.1</ele>
        <time>2023-01-20T09:27:09Z</time>
      </trkpt>
      <trkpt lat="44.47592" lon="6.70891">
        <ele>1894.9</ele>
        <time>2023-01-20T09:27:10Z</time>
      </trkpt>
      <trkpt lat="44.47593" lon="6.7089">
        <ele>1894.9</ele>
        <time>2023-01-20T09:27:11Z</time>
      </trkpt>
      <trkpt lat="44.47594" lon="6.7089">
        <ele>1894.9</ele>
        <time>2023-01-20T09:27:12Z</time>
      </trkpt>
      <trkpt lat="44.47594" lon="6.70889">
        <ele>1894.9</ele>
        <time>2023-01-20T09:27:13Z</time>
      </trkpt>
      <trkpt lat="44.47595" lon="6.70889">
        <ele>1894.9</ele>
        <time>2023-01-20T09:27:14Z</time>
      </trkpt>
      <trkpt lat="44.47596" lon="6.70888">
        <ele>1894.9</ele>
        <time>2023-01-20T09:27:15Z</time>
      </trkpt>
      <trkpt lat="44.47597" lon="6.70887">
        <ele>1895</ele>
        <time>2023-01-20T09:27:16Z</time>
      </trkpt>
      <trkpt lat="44.47598" lon="6.70886">
        <ele>1894.9</ele>
        <time>2023-01-20T09:27:17Z</time>
      </trkpt>
      <trkpt lat="44.47598" lon="6.70886">
        <ele>1895.1</ele>
        <time>2023-01-20T09:27:18Z</time>
      </trkpt>
      <trkpt lat="44.47599" lon="6.70884">
        <ele>1895.2</ele>
        <time>2023-01-20T09:27:19Z</time>
      </trkpt>
      <trkpt lat="44.47599" lon="6.70883">
        <ele>1895.3</ele>
        <time>2023-01-20T09:27:20Z</time>
      </trkpt>
      <trkpt lat="44.476" lon="6.70882">
        <ele>1895.5</ele>
        <time>2023-01-20T09:27:21Z</time>
      </trkpt>
      <trkpt lat="44.47601" lon="6.70882">
        <ele>1895.4</ele>
        <time>2023-01-20T09:27:22Z</time>
      </trkpt>
      <trkpt lat="44.47601" lon="6.70881">
        <ele>1895.5</ele>
        <time>2023-01-20T09:27:23Z</time>
      </trkpt>
      <trkpt lat="44.47601" lon="6.70881">
        <ele>1895.5</ele>
        <time>2023-01-20T09:27:24Z</time>
      </trkpt>
      <trkpt lat="44.47602" lon="6.7088">
        <ele>1895.5</ele>
        <time>2023-01-20T09:27:25Z</time>
      </trkpt>
      <trkpt lat="44.47603" lon="6.70879">
        <ele>1895.5</ele>
        <time>2023-01-20T09:27:26Z</time>
      </trkpt>
      <trkpt lat="44.47603" lon="6.70879">
        <ele>1895.5</ele>
        <time>2023-01-20T09:27:27Z</time>
      </trkpt>
      <trkpt lat="44.47604" lon="6.70879">
        <ele>1895.5</ele>
        <time>2023-01-20T09:27:28Z</time>
      </trkpt>
      <trkpt lat="44.47604" lon="6.70878">
        <ele>1895.6</ele>
        <time>2023-01-20T09:27:29Z</time>
      </trkpt>
      <trkpt lat="44.47605" lon="6.70877">
        <ele>1895.7</ele>
        <time>2023-01-20T09:27:30Z</time>
      </trkpt>
      <trkpt lat="44.47605" lon="6.70876">
        <ele>1895.9</ele>
        <time>2023-01-20T09:27:31Z</time>
      </trkpt>
      <trkpt lat="44.47606" lon="6.70875">
        <ele>1896</ele>
        <time>2023-01-20T09:27:32Z</time>
      </trkpt>
      <trkpt lat="44.47606" lon="6.70874">
        <ele>1896.1</ele>
        <time>2023-01-20T09:27:33Z</time>
      </trkpt>
      <trkpt lat="44.47607" lon="6.70873">
        <ele>1896.3</ele>
        <time>2023-01-20T09:27:34Z</time>
      </trkpt>
      <trkpt lat="44.47607" lon="6.70872">
        <ele>1896.4</ele>
        <time>2023-01-20T09:27:35Z</time>
      </trkpt>
      <trkpt lat="44.47607" lon="6.70872">
        <ele>1896.4</ele>
        <time>2023-01-20T09:27:36Z</time>
      </trkpt>
      <trkpt lat="44.47607" lon="6.70871">
        <ele>1896.6</ele>
        <time>2023-01-20T09:27:37Z</time>
      </trkpt>
      <trkpt lat="44.47607" lon="6.7087">
        <ele>1896.7</ele>
        <time>2023-01-20T09:27:38Z</time>
      </trkpt>
      <trkpt lat="44.47608" lon="6.70869">
        <ele>1896.9</ele>
        <time>2023-01-20T09:27:39Z</time>
      </trkpt>
      <trkpt lat="44.47608" lon="6.70869">
        <ele>1897</ele>
        <time>2023-01-20T09:27:40Z</time>
      </trkpt>
      <trkpt lat="44.47608" lon="6.70869">
        <ele>1897</ele>
        <time>2023-01-20T09:27:41Z</time>
      </trkpt>
      <trkpt lat="44.47608" lon="6.70867">
        <ele>1897.2</ele>
        <time>2023-01-20T09:27:42Z</time>
      </trkpt>
      <trkpt lat="44.47608" lon="6.70867">
        <ele>1897.3</ele>
        <time>2023-01-20T09:27:43Z</time>
      </trkpt>
      <trkpt lat="44.47608" lon="6.70866">
        <ele>1897.5</ele>
        <time>2023-01-20T09:27:44Z</time>
      </trkpt>
      <trkpt lat="44.47608" lon="6.70865">
        <ele>1897.8</ele>
        <time>2023-01-20T09:27:45Z</time>
      </trkpt>
      <trkpt lat="44.47608" lon="6.70864">
        <ele>1898</ele>
        <time>2023-01-20T09:27:46Z</time>
      </trkpt>
      <trkpt lat="44.47608" lon="6.70863">
        <ele>1898.2</ele>
        <time>2023-01-20T09:27:47Z</time>
      </trkpt>
      <trkpt lat="44.47609" lon="6.70862">
        <ele>1898.4</ele>
        <time>2023-01-20T09:27:48Z</time>
      </trkpt>
      <trkpt lat="44.47609" lon="6.70861">
        <ele>1898.6</ele>
        <time>2023-01-20T09:27:49Z</time>
      </trkpt>
      <trkpt lat="44.47609" lon="6.7086">
        <ele>1898.7</ele>
        <time>2023-01-20T09:27:50Z</time>
      </trkpt>
      <trkpt lat="44.47609" lon="6.70859">
        <ele>1899</ele>
        <time>2023-01-20T09:27:51Z</time>
      </trkpt>
      <trkpt lat="44.47609" lon="6.70859">
        <ele>1899</ele>
        <time>2023-01-20T09:27:52Z</time>
      </trkpt>
      <trkpt lat="44.47609" lon="6.70858">
        <ele>1899.1</ele>
        <time>2023-01-20T09:27:53Z</time>
      </trkpt>
      <trkpt lat="44.47609" lon="6.70857">
        <ele>1899.4</ele>
        <time>2023-01-20T09:27:54Z</time>
      </trkpt>
      <trkpt lat="44.47609" lon="6.70856">
        <ele>1899.7</ele>
        <time>2023-01-20T09:27:55Z</time>
      </trkpt>
      <trkpt lat="44.4761" lon="6.70855">
        <ele>1899.8</ele>
        <time>2023-01-20T09:27:56Z</time>
      </trkpt>
      <trkpt lat="44.4761" lon="6.70854">
        <ele>1900</ele>
        <time>2023-01-20T09:27:57Z</time>
      </trkpt>
      <trkpt lat="44.4761" lon="6.70853">
        <ele>1900.2</ele>
        <time>2023-01-20T09:27:58Z</time>
      </trkpt>
      <trkpt lat="44.4761" lon="6.70853">
        <ele>1900.4</ele>
        <time>2023-01-20T09:27:59Z</time>
      </trkpt>
      <trkpt lat="44.47609" lon="6.70852">
        <ele>1900.7</ele>
        <time>2023-01-20T09:28:00Z</time>
      </trkpt>
      <trkpt lat="44.47609" lon="6.70851">
        <ele>1900.9</ele>
        <time>2023-01-20T09:28:01Z</time>
      </trkpt>
      <trkpt lat="44.47609" lon="6.7085">
        <ele>1901.2</ele>
        <time>2023-01-20T09:28:02Z</time>
      </trkpt>
      <trkpt lat="44.47609" lon="6.70849">
        <ele>1901.5</ele>
        <time>2023-01-20T09:28:03Z</time>
      </trkpt>
      <trkpt lat="44.47609" lon="6.70848">
        <ele>1901.7</ele>
        <time>2023-01-20T09:28:04Z</time>
      </trkpt>
      <trkpt lat="44.47609" lon="6.70847">
        <ele>1902.1</ele>
        <time>2023-01-20T09:28:05Z</time>
      </trkpt>
      <trkpt lat="44.47609" lon="6.70845">
        <ele>1902.5</ele>
        <time>2023-01-20T09:28:06Z</time>
      </trkpt>
      <trkpt lat="44.47609" lon="6.70844">
        <ele>1902.7</ele>
        <time>2023-01-20T09:28:07Z</time>
      </trkpt>
      <trkpt lat="44.47609" lon="6.70844">
        <ele>1902.9</ele>
        <time>2023-01-20T09:28:08Z</time>
      </trkpt>
      <trkpt lat="44.47609" lon="6.70844">
        <ele>1902.8</ele>
        <time>2023-01-20T09:28:09Z</time>
      </trkpt>
      <trkpt lat="44.47609" lon="6.70844">
        <ele>1902.8</ele>
        <time>2023-01-20T09:28:10Z</time>
      </trkpt>
      <trkpt lat="44.47609" lon="6.70845">
        <ele>1902.6</ele>
        <time>2023-01-20T09:28:11Z</time>
      </trkpt>
      <trkpt lat="44.47608" lon="6.70846">
        <ele>1902.4</ele>
        <time>2023-01-20T09:28:12Z</time>
      </trkpt>
      <trkpt lat="44.47608" lon="6.70846">
        <ele>1902.4</ele>
        <time>2023-01-20T09:28:13Z</time>
      </trkpt>
      <trkpt lat="44.47608" lon="6.70846">
        <ele>1902.3</ele>
        <time>2023-01-20T09:28:14Z</time>
      </trkpt>
      <trkpt lat="44.47608" lon="6.70846">
        <ele>1902.3</ele>
        <time>2023-01-20T09:28:15Z</time>
      </trkpt>
      <trkpt lat="44.47608" lon="6.70846">
        <ele>1902.3</ele>
        <time>2023-01-20T09:28:16Z</time>
      </trkpt>
      <trkpt lat="44.47608" lon="6.70847">
        <ele>1902.3</ele>
        <time>2023-01-20T09:28:17Z</time>
      </trkpt>
      <trkpt lat="44.47608" lon="6.70847">
        <ele>1902.3</ele>
        <time>2023-01-20T09:28:18Z</time>
      </trkpt>
      <trkpt lat="44.47608" lon="6.70847">
        <ele>1902.3</ele>
        <time>2023-01-20T09:28:19Z</time>
      </trkpt>
      <trkpt lat="44.47607" lon="6.70847">
        <ele>1902.3</ele>
        <time>2023-01-20T09:28:20Z</time>
      </trkpt>
      <trkpt lat="44.47607" lon="6.70847">
        <ele>1902.4</ele>
        <time>2023-01-20T09:28:21Z</time>
      </trkpt>
      <trkpt lat="44.47607" lon="6.70847">
        <ele>1902.3</ele>
        <time>2023-01-20T09:28:22Z</time>
      </trkpt>
      <trkpt lat="44.47607" lon="6.70847">
        <ele>1902.3</ele>
        <time>2023-01-20T09:28:23Z</time>
      </trkpt>
      <trkpt lat="44.47606" lon="6.70847">
        <ele>1902.3</ele>
        <time>2023-01-20T09:28:24Z</time>
      </trkpt>
      <trkpt lat="44.47606" lon="6.70847">
        <ele>1902.4</ele>
        <time>2023-01-20T09:28:25Z</time>
      </trkpt>
      <trkpt lat="44.47606" lon="6.70848">
        <ele>1902.3</ele>
        <time>2023-01-20T09:28:26Z</time>
      </trkpt>
      <trkpt lat="44.47606" lon="6.70848">
        <ele>1902.2</ele>
        <time>2023-01-20T09:28:27Z</time>
      </trkpt>
      <trkpt lat="44.47605" lon="6.7085">
        <ele>1902.1</ele>
        <time>2023-01-20T09:28:28Z</time>
      </trkpt>
      <trkpt lat="44.47603" lon="6.70851">
        <ele>1902</ele>
        <time>2023-01-20T09:28:29Z</time>
      </trkpt>
      <trkpt lat="44.476" lon="6.70855">
        <ele>1901.6</ele>
        <time>2023-01-20T09:28:30Z</time>
      </trkpt>
      <trkpt lat="44.47599" lon="6.70856">
        <ele>1901.5</ele>
        <time>2023-01-20T09:28:31Z</time>
      </trkpt>
      <trkpt lat="44.47597" lon="6.70857">
        <ele>1901.6</ele>
        <time>2023-01-20T09:28:32Z</time>
      </trkpt>
      <trkpt lat="44.47596" lon="6.70857">
        <ele>1901.6</ele>
        <time>2023-01-20T09:28:33Z</time>
      </trkpt>
      <trkpt lat="44.47595" lon="6.70857">
        <ele>1901.7</ele>
        <time>2023-01-20T09:28:34Z</time>
      </trkpt>
      <trkpt lat="44.47595" lon="6.70857">
        <ele>1901.9</ele>
        <time>2023-01-20T09:28:35Z</time>
      </trkpt>
      <trkpt lat="44.47594" lon="6.70857">
        <ele>1902.1</ele>
        <time>2023-01-20T09:28:36Z</time>
      </trkpt>
      <trkpt lat="44.47594" lon="6.70857">
        <ele>1902.2</ele>
        <time>2023-01-20T09:28:37Z</time>
      </trkpt>
      <trkpt lat="44.47594" lon="6.70857">
        <ele>1902.3</ele>
        <time>2023-01-20T09:28:38Z</time>
      </trkpt>
      <trkpt lat="44.47594" lon="6.70856">
        <ele>1902.5</ele>
        <time>2023-01-20T09:28:39Z</time>
      </trkpt>
      <trkpt lat="44.47594" lon="6.70855">
        <ele>1902.7</ele>
        <time>2023-01-20T09:28:40Z</time>
      </trkpt>
      <trkpt lat="44.47594" lon="6.70854">
        <ele>1902.9</ele>
        <time>2023-01-20T09:28:41Z</time>
      </trkpt>
      <trkpt lat="44.47594" lon="6.70853">
        <ele>1903.1</ele>
        <time>2023-01-20T09:28:42Z</time>
      </trkpt>
      <trkpt lat="44.47594" lon="6.70852">
        <ele>1903.5</ele>
        <time>2023-01-20T09:28:43Z</time>
      </trkpt>
      <trkpt lat="44.47594" lon="6.70851">
        <ele>1903.7</ele>
        <time>2023-01-20T09:28:44Z</time>
      </trkpt>
      <trkpt lat="44.47594" lon="6.7085">
        <ele>1904</ele>
        <time>2023-01-20T09:28:45Z</time>
      </trkpt>
      <trkpt lat="44.47593" lon="6.70849">
        <ele>1904.1</ele>
        <time>2023-01-20T09:28:46Z</time>
      </trkpt>
      <trkpt lat="44.47593" lon="6.70849">
        <ele>1904.3</ele>
        <time>2023-01-20T09:28:47Z</time>
      </trkpt>
      <trkpt lat="44.47593" lon="6.70848">
        <ele>1904.5</ele>
        <time>2023-01-20T09:28:48Z</time>
      </trkpt>
      <trkpt lat="44.47593" lon="6.70847">
        <ele>1904.8</ele>
        <time>2023-01-20T09:28:49Z</time>
      </trkpt>
      <trkpt lat="44.47592" lon="6.70847">
        <ele>1905</ele>
        <time>2023-01-20T09:28:50Z</time>
      </trkpt>
      <trkpt lat="44.47592" lon="6.70846">
        <ele>1905.3</ele>
        <time>2023-01-20T09:28:51Z</time>
      </trkpt>
      <trkpt lat="44.47592" lon="6.70845">
        <ele>1905.6</ele>
        <time>2023-01-20T09:28:52Z</time>
      </trkpt>
      <trkpt lat="44.47591" lon="6.70844">
        <ele>1905.9</ele>
        <time>2023-01-20T09:28:53Z</time>
      </trkpt>
      <trkpt lat="44.47591" lon="6.70843">
        <ele>1906.1</ele>
        <time>2023-01-20T09:28:54Z</time>
      </trkpt>
      <trkpt lat="44.47591" lon="6.70843">
        <ele>1906.3</ele>
        <time>2023-01-20T09:28:55Z</time>
      </trkpt>
      <trkpt lat="44.47591" lon="6.70842">
        <ele>1906.6</ele>
        <time>2023-01-20T09:28:56Z</time>
      </trkpt>
      <trkpt lat="44.4759" lon="6.7084">
        <ele>1907.2</ele>
        <time>2023-01-20T09:28:57Z</time>
      </trkpt>
      <trkpt lat="44.4759" lon="6.70838">
        <ele>1907.5</ele>
        <time>2023-01-20T09:28:58Z</time>
      </trkpt>
      <trkpt lat="44.4759" lon="6.70837">
        <ele>1907.9</ele>
        <time>2023-01-20T09:28:59Z</time>
      </trkpt>
      <trkpt lat="44.47589" lon="6.70836">
        <ele>1908.3</ele>
        <time>2023-01-20T09:29:00Z</time>
      </trkpt>
      <trkpt lat="44.47589" lon="6.70836">
        <ele>1908.5</ele>
        <time>2023-01-20T09:29:01Z</time>
      </trkpt>
      <trkpt lat="44.47588" lon="6.70836">
        <ele>1908.5</ele>
        <time>2023-01-20T09:29:02Z</time>
      </trkpt>
      <trkpt lat="44.47588" lon="6.70836">
        <ele>1908.7</ele>
        <time>2023-01-20T09:29:03Z</time>
      </trkpt>
      <trkpt lat="44.47587" lon="6.70835">
        <ele>1908.9</ele>
        <time>2023-01-20T09:29:04Z</time>
      </trkpt>
      <trkpt lat="44.47587" lon="6.70835">
        <ele>1909</ele>
        <time>2023-01-20T09:29:05Z</time>
      </trkpt>
      <trkpt lat="44.47587" lon="6.70834">
        <ele>1909.1</ele>
        <time>2023-01-20T09:29:06Z</time>
      </trkpt>
      <trkpt lat="44.47586" lon="6.70835">
        <ele>1909.1</ele>
        <time>2023-01-20T09:29:07Z</time>
      </trkpt>
      <trkpt lat="44.47586" lon="6.70835">
        <ele>1909</ele>
        <time>2023-01-20T09:29:08Z</time>
      </trkpt>
      <trkpt lat="44.47586" lon="6.70835">
        <ele>1909</ele>
        <time>2023-01-20T09:29:09Z</time>
      </trkpt>
      <trkpt lat="44.47586" lon="6.70836">
        <ele>1909</ele>
        <time>2023-01-20T09:29:10Z</time>
      </trkpt>
      <trkpt lat="44.47585" lon="6.70836">
        <ele>1908.9</ele>
        <time>2023-01-20T09:29:11Z</time>
      </trkpt>
      <trkpt lat="44.47584" lon="6.70837">
        <ele>1908.8</ele>
        <time>2023-01-20T09:29:12Z</time>
      </trkpt>
      <trkpt lat="44.47584" lon="6.70838">
        <ele>1908.7</ele>
        <time>2023-01-20T09:29:13Z</time>
      </trkpt>
      <trkpt lat="44.47584" lon="6.70838">
        <ele>1908.6</ele>
        <time>2023-01-20T09:29:14Z</time>
      </trkpt>
      <trkpt lat="44.47584" lon="6.70839">
        <ele>1908.4</ele>
        <time>2023-01-20T09:29:15Z</time>
      </trkpt>
      <trkpt lat="44.47584" lon="6.70839">
        <ele>1908.3</ele>
        <time>2023-01-20T09:29:16Z</time>
      </trkpt>
      <trkpt lat="44.47584" lon="6.7084">
        <ele>1908.3</ele>
        <time>2023-01-20T09:29:17Z</time>
      </trkpt>
      <trkpt lat="44.47584" lon="6.7084">
        <ele>1908.2</ele>
        <time>2023-01-20T09:29:18Z</time>
      </trkpt>
      <trkpt lat="44.47584" lon="6.7084">
        <ele>1908.1</ele>
        <time>2023-01-20T09:29:19Z</time>
      </trkpt>
      <trkpt lat="44.47584" lon="6.7084">
        <ele>1908</ele>
        <time>2023-01-20T09:29:20Z</time>
      </trkpt>
      <trkpt lat="44.47584" lon="6.70841">
        <ele>1908</ele>
        <time>2023-01-20T09:29:21Z</time>
      </trkpt>
      <trkpt lat="44.47584" lon="6.70841">
        <ele>1908</ele>
        <time>2023-01-20T09:29:22Z</time>
      </trkpt>
      <trkpt lat="44.47584" lon="6.70841">
        <ele>1907.9</ele>
        <time>2023-01-20T09:29:23Z</time>
      </trkpt>
      <trkpt lat="44.47584" lon="6.70841">
        <ele>1907.9</ele>
        <time>2023-01-20T09:29:24Z</time>
      </trkpt>
      <trkpt lat="44.47583" lon="6.70842">
        <ele>1907.9</ele>
        <time>2023-01-20T09:29:25Z</time>
      </trkpt>
      <trkpt lat="44.47582" lon="6.70842">
        <ele>1907.9</ele>
        <time>2023-01-20T09:29:26Z</time>
      </trkpt>
      <trkpt lat="44.47581" lon="6.70843">
        <ele>1908</ele>
        <time>2023-01-20T09:29:27Z</time>
      </trkpt>
      <trkpt lat="44.4758" lon="6.70843">
        <ele>1908.1</ele>
        <time>2023-01-20T09:29:28Z</time>
      </trkpt>
      <trkpt lat="44.4758" lon="6.70842">
        <ele>1908.3</ele>
        <time>2023-01-20T09:29:29Z</time>
      </trkpt>
      <trkpt lat="44.4758" lon="6.70842">
        <ele>1908.5</ele>
        <time>2023-01-20T09:29:30Z</time>
      </trkpt>
      <trkpt lat="44.4758" lon="6.70841">
        <ele>1908.6</ele>
        <time>2023-01-20T09:29:31Z</time>
      </trkpt>
      <trkpt lat="44.47579" lon="6.7084">
        <ele>1908.9</ele>
        <time>2023-01-20T09:29:32Z</time>
      </trkpt>
      <trkpt lat="44.47579" lon="6.70839">
        <ele>1909.1</ele>
        <time>2023-01-20T09:29:33Z</time>
      </trkpt>
      <trkpt lat="44.47579" lon="6.70838">
        <ele>1909.3</ele>
        <time>2023-01-20T09:29:34Z</time>
      </trkpt>
      <trkpt lat="44.4758" lon="6.70838">
        <ele>1909.5</ele>
        <time>2023-01-20T09:29:35Z</time>
      </trkpt>
      <trkpt lat="44.4758" lon="6.70837">
        <ele>1909.6</ele>
        <time>2023-01-20T09:29:36Z</time>
      </trkpt>
      <trkpt lat="44.4758" lon="6.70837">
        <ele>1909.7</ele>
        <time>2023-01-20T09:29:37Z</time>
      </trkpt>
      <trkpt lat="44.4758" lon="6.70836">
        <ele>1909.8</ele>
        <time>2023-01-20T09:29:38Z</time>
      </trkpt>
      <trkpt lat="44.4758" lon="6.70835">
        <ele>1910</ele>
        <time>2023-01-20T09:29:39Z</time>
      </trkpt>
      <trkpt lat="44.4758" lon="6.70834">
        <ele>1910.2</ele>
        <time>2023-01-20T09:29:40Z</time>
      </trkpt>
      <trkpt lat="44.4758" lon="6.70833">
        <ele>1910.4</ele>
        <time>2023-01-20T09:29:41Z</time>
      </trkpt>
      <trkpt lat="44.4758" lon="6.70832">
        <ele>1910.7</ele>
        <time>2023-01-20T09:29:42Z</time>
      </trkpt>
      <trkpt lat="44.4758" lon="6.70831">
        <ele>1910.9</ele>
        <time>2023-01-20T09:29:43Z</time>
      </trkpt>
      <trkpt lat="44.47581" lon="6.7083">
        <ele>1911</ele>
        <time>2023-01-20T09:29:44Z</time>
      </trkpt>
      <trkpt lat="44.47581" lon="6.70829">
        <ele>1911.3</ele>
        <time>2023-01-20T09:29:45Z</time>
      </trkpt>
      <trkpt lat="44.4758" lon="6.70828">
        <ele>1911.5</ele>
        <time>2023-01-20T09:29:46Z</time>
      </trkpt>
      <trkpt lat="44.4758" lon="6.70827">
        <ele>1911.8</ele>
        <time>2023-01-20T09:29:47Z</time>
      </trkpt>
      <trkpt lat="44.4758" lon="6.70827">
        <ele>1911.8</ele>
        <time>2023-01-20T09:29:48Z</time>
      </trkpt>
      <trkpt lat="44.47581" lon="6.70827">
        <ele>1911.9</ele>
        <time>2023-01-20T09:29:49Z</time>
      </trkpt>
      <trkpt lat="44.47581" lon="6.70826">
        <ele>1912</ele>
        <time>2023-01-20T09:29:50Z</time>
      </trkpt>
      <trkpt lat="44.47581" lon="6.70826">
        <ele>1912.1</ele>
        <time>2023-01-20T09:29:51Z</time>
      </trkpt>
      <trkpt lat="44.47581" lon="6.70825">
        <ele>1912.1</ele>
        <time>2023-01-20T09:29:52Z</time>
      </trkpt>
      <trkpt lat="44.47581" lon="6.70825">
        <ele>1912.1</ele>
        <time>2023-01-20T09:29:53Z</time>
      </trkpt>
      <trkpt lat="44.47581" lon="6.70825">
        <ele>1912.1</ele>
        <time>2023-01-20T09:29:54Z</time>
      </trkpt>
      <trkpt lat="44.47581" lon="6.70825">
        <ele>1912.1</ele>
        <time>2023-01-20T09:29:55Z</time>
      </trkpt>
      <trkpt lat="44.4758" lon="6.70827">
        <ele>1911.9</ele>
        <time>2023-01-20T09:29:56Z</time>
      </trkpt>
      <trkpt lat="44.47579" lon="6.70828">
        <ele>1911.8</ele>
        <time>2023-01-20T09:29:57Z</time>
      </trkpt>
      <trkpt lat="44.47579" lon="6.70829">
        <ele>1911.6</ele>
        <time>2023-01-20T09:29:58Z</time>
      </trkpt>
      <trkpt lat="44.47578" lon="6.7083">
        <ele>1911.4</ele>
        <time>2023-01-20T09:29:59Z</time>
      </trkpt>
      <trkpt lat="44.47578" lon="6.70832">
        <ele>1911.2</ele>
        <time>2023-01-20T09:30:00Z</time>
      </trkpt>
      <trkpt lat="44.47577" lon="6.70833">
        <ele>1911</ele>
        <time>2023-01-20T09:30:01Z</time>
      </trkpt>
      <trkpt lat="44.47577" lon="6.70834">
        <ele>1910.9</ele>
        <time>2023-01-20T09:30:02Z</time>
      </trkpt>
      <trkpt lat="44.47577" lon="6.70835">
        <ele>1910.7</ele>
        <time>2023-01-20T09:30:03Z</time>
      </trkpt>
      <trkpt lat="44.47576" lon="6.70835">
        <ele>1910.6</ele>
        <time>2023-01-20T09:30:04Z</time>
      </trkpt>
      <trkpt lat="44.47576" lon="6.70836">
        <ele>1910.4</ele>
        <time>2023-01-20T09:30:05Z</time>
      </trkpt>
      <trkpt lat="44.47576" lon="6.70836">
        <ele>1910.4</ele>
        <time>2023-01-20T09:30:06Z</time>
      </trkpt>
      <trkpt lat="44.47575" lon="6.70837">
        <ele>1910.3</ele>
        <time>2023-01-20T09:30:07Z</time>
      </trkpt>
      <trkpt lat="44.47575" lon="6.70837">
        <ele>1910.2</ele>
        <time>2023-01-20T09:30:08Z</time>
      </trkpt>
      <trkpt lat="44.47575" lon="6.70838">
        <ele>1910</ele>
        <time>2023-01-20T09:30:09Z</time>
      </trkpt>
      <trkpt lat="44.47575" lon="6.70839">
        <ele>1910</ele>
        <time>2023-01-20T09:30:10Z</time>
      </trkpt>
      <trkpt lat="44.47575" lon="6.70839">
        <ele>1909.9</ele>
        <time>2023-01-20T09:30:11Z</time>
      </trkpt>
      <trkpt lat="44.47575" lon="6.70839">
        <ele>1909.9</ele>
        <time>2023-01-20T09:30:12Z</time>
      </trkpt>
      <trkpt lat="44.47575" lon="6.70839">
        <ele>1910</ele>
        <time>2023-01-20T09:30:13Z</time>
      </trkpt>
      <trkpt lat="44.47575" lon="6.70839">
        <ele>1909.9</ele>
        <time>2023-01-20T09:30:14Z</time>
      </trkpt>
      <trkpt lat="44.47575" lon="6.70839">
        <ele>1910</ele>
        <time>2023-01-20T09:30:15Z</time>
      </trkpt>
      <trkpt lat="44.47575" lon="6.70839">
        <ele>1909.9</ele>
        <time>2023-01-20T09:30:16Z</time>
      </trkpt>
      <trkpt lat="44.47575" lon="6.70838">
        <ele>1910</ele>
        <time>2023-01-20T09:30:17Z</time>
      </trkpt>
      <trkpt lat="44.47575" lon="6.70838">
        <ele>1910</ele>
        <time>2023-01-20T09:30:18Z</time>
      </trkpt>
      <trkpt lat="44.47575" lon="6.70837">
        <ele>1910.2</ele>
        <time>2023-01-20T09:30:19Z</time>
      </trkpt>
      <trkpt lat="44.47575" lon="6.70836">
        <ele>1910.5</ele>
        <time>2023-01-20T09:30:20Z</time>
      </trkpt>
      <trkpt lat="44.47575" lon="6.70836">
        <ele>1910.7</ele>
        <time>2023-01-20T09:30:21Z</time>
      </trkpt>
      <trkpt lat="44.47574" lon="6.70835">
        <ele>1910.9</ele>
        <time>2023-01-20T09:30:22Z</time>
      </trkpt>
      <trkpt lat="44.47574" lon="6.70834">
        <ele>1911.1</ele>
        <time>2023-01-20T09:30:23Z</time>
      </trkpt>
      <trkpt lat="44.47574" lon="6.70833">
        <ele>1911.3</ele>
        <time>2023-01-20T09:30:24Z</time>
      </trkpt>
      <trkpt lat="44.47574" lon="6.70833">
        <ele>1911.5</ele>
        <time>2023-01-20T09:30:25Z</time>
      </trkpt>
      <trkpt lat="44.47574" lon="6.70831">
        <ele>1911.7</ele>
        <time>2023-01-20T09:30:26Z</time>
      </trkpt>
      <trkpt lat="44.47575" lon="6.7083">
        <ele>1912</ele>
        <time>2023-01-20T09:30:27Z</time>
      </trkpt>
      <trkpt lat="44.47575" lon="6.70829">
        <ele>1912.2</ele>
        <time>2023-01-20T09:30:28Z</time>
      </trkpt>
      <trkpt lat="44.47575" lon="6.70828">
        <ele>1912.3</ele>
        <time>2023-01-20T09:30:29Z</time>
      </trkpt>
      <trkpt lat="44.47575" lon="6.70827">
        <ele>1912.5</ele>
        <time>2023-01-20T09:30:30Z</time>
      </trkpt>
      <trkpt lat="44.47575" lon="6.70827">
        <ele>1912.7</ele>
        <time>2023-01-20T09:30:31Z</time>
      </trkpt>
      <trkpt lat="44.47576" lon="6.70825">
        <ele>1913</ele>
        <time>2023-01-20T09:30:32Z</time>
      </trkpt>
      <trkpt lat="44.47575" lon="6.70824">
        <ele>1913.2</ele>
        <time>2023-01-20T09:30:33Z</time>
      </trkpt>
      <trkpt lat="44.47575" lon="6.70823">
        <ele>1913.4</ele>
        <time>2023-01-20T09:30:34Z</time>
      </trkpt>
      <trkpt lat="44.47576" lon="6.70822">
        <ele>1913.6</ele>
        <time>2023-01-20T09:30:35Z</time>
      </trkpt>
      <trkpt lat="44.47576" lon="6.70821">
        <ele>1913.8</ele>
        <time>2023-01-20T09:30:36Z</time>
      </trkpt>
      <trkpt lat="44.47576" lon="6.7082">
        <ele>1913.9</ele>
        <time>2023-01-20T09:30:37Z</time>
      </trkpt>
      <trkpt lat="44.47576" lon="6.7082">
        <ele>1914</ele>
        <time>2023-01-20T09:30:38Z</time>
      </trkpt>
      <trkpt lat="44.47577" lon="6.70819">
        <ele>1914.1</ele>
        <time>2023-01-20T09:30:39Z</time>
      </trkpt>
      <trkpt lat="44.47577" lon="6.70819">
        <ele>1914.2</ele>
        <time>2023-01-20T09:30:40Z</time>
      </trkpt>
      <trkpt lat="44.47577" lon="6.70819">
        <ele>1914.2</ele>
        <time>2023-01-20T09:30:41Z</time>
      </trkpt>
      <trkpt lat="44.47577" lon="6.70818">
        <ele>1914.3</ele>
        <time>2023-01-20T09:30:42Z</time>
      </trkpt>
      <trkpt lat="44.47577" lon="6.70817">
        <ele>1914.6</ele>
        <time>2023-01-20T09:30:43Z</time>
      </trkpt>
      <trkpt lat="44.47577" lon="6.70816">
        <ele>1914.7</ele>
        <time>2023-01-20T09:30:44Z</time>
      </trkpt>
      <trkpt lat="44.47577" lon="6.70816">
        <ele>1914.9</ele>
        <time>2023-01-20T09:30:45Z</time>
      </trkpt>
      <trkpt lat="44.47577" lon="6.70815">
        <ele>1915</ele>
        <time>2023-01-20T09:30:46Z</time>
      </trkpt>
      <trkpt lat="44.47576" lon="6.70814">
        <ele>1915.3</ele>
        <time>2023-01-20T09:30:47Z</time>
      </trkpt>
      <trkpt lat="44.47576" lon="6.70814">
        <ele>1915.5</ele>
        <time>2023-01-20T09:30:48Z</time>
      </trkpt>
      <trkpt lat="44.47575" lon="6.70814">
        <ele>1915.5</ele>
        <time>2023-01-20T09:30:49Z</time>
      </trkpt>
      <trkpt lat="44.47575" lon="6.70814">
        <ele>1915.5</ele>
        <time>2023-01-20T09:30:50Z</time>
      </trkpt>
      <trkpt lat="44.47574" lon="6.70815">
        <ele>1915.5</ele>
        <time>2023-01-20T09:30:51Z</time>
      </trkpt>
      <trkpt lat="44.47574" lon="6.70815">
        <ele>1915.5</ele>
        <time>2023-01-20T09:30:52Z</time>
      </trkpt>
      <trkpt lat="44.47573" lon="6.70816">
        <ele>1915.5</ele>
        <time>2023-01-20T09:30:53Z</time>
      </trkpt>
      <trkpt lat="44.47573" lon="6.70816">
        <ele>1915.5</ele>
        <time>2023-01-20T09:30:54Z</time>
      </trkpt>
      <trkpt lat="44.47573" lon="6.70816">
        <ele>1915.5</ele>
        <time>2023-01-20T09:30:55Z</time>
      </trkpt>
      <trkpt lat="44.47572" lon="6.70817">
        <ele>1915.5</ele>
        <time>2023-01-20T09:30:56Z</time>
      </trkpt>
      <trkpt lat="44.47572" lon="6.70817">
        <ele>1915.4</ele>
        <time>2023-01-20T09:30:57Z</time>
      </trkpt>
      <trkpt lat="44.47572" lon="6.70817">
        <ele>1915.3</ele>
        <time>2023-01-20T09:30:58Z</time>
      </trkpt>
      <trkpt lat="44.47571" lon="6.70818">
        <ele>1915.3</ele>
        <time>2023-01-20T09:30:59Z</time>
      </trkpt>
      <trkpt lat="44.47571" lon="6.70818">
        <ele>1915.3</ele>
        <time>2023-01-20T09:31:00Z</time>
      </trkpt>
      <trkpt lat="44.47571" lon="6.70818">
        <ele>1915.3</ele>
        <time>2023-01-20T09:31:01Z</time>
      </trkpt>
      <trkpt lat="44.4757" lon="6.70818">
        <ele>1915.4</ele>
        <time>2023-01-20T09:31:02Z</time>
      </trkpt>
      <trkpt lat="44.4757" lon="6.70819">
        <ele>1915.4</ele>
        <time>2023-01-20T09:31:03Z</time>
      </trkpt>
      <trkpt lat="44.47569" lon="6.70819">
        <ele>1915.5</ele>
        <time>2023-01-20T09:31:04Z</time>
      </trkpt>
      <trkpt lat="44.47569" lon="6.70818">
        <ele>1915.6</ele>
        <time>2023-01-20T09:31:05Z</time>
      </trkpt>
      <trkpt lat="44.47568" lon="6.70818">
        <ele>1915.8</ele>
        <time>2023-01-20T09:31:06Z</time>
      </trkpt>
      <trkpt lat="44.47567" lon="6.70818">
        <ele>1915.9</ele>
        <time>2023-01-20T09:31:07Z</time>
      </trkpt>
      <trkpt lat="44.47567" lon="6.70818">
        <ele>1916</ele>
        <time>2023-01-20T09:31:08Z</time>
      </trkpt>
      <trkpt lat="44.47566" lon="6.70818">
        <ele>1916.1</ele>
        <time>2023-01-20T09:31:09Z</time>
      </trkpt>
      <trkpt lat="44.47565" lon="6.70818">
        <ele>1916.2</ele>
        <time>2023-01-20T09:31:10Z</time>
      </trkpt>
      <trkpt lat="44.47564" lon="6.70818">
        <ele>1916.4</ele>
        <time>2023-01-20T09:31:11Z</time>
      </trkpt>
      <trkpt lat="44.47564" lon="6.70819">
        <ele>1916.4</ele>
        <time>2023-01-20T09:31:12Z</time>
      </trkpt>
      <trkpt lat="44.47564" lon="6.70818">
        <ele>1916.5</ele>
        <time>2023-01-20T09:31:13Z</time>
      </trkpt>
      <trkpt lat="44.47563" lon="6.70819">
        <ele>1916.5</ele>
        <time>2023-01-20T09:31:14Z</time>
      </trkpt>
      <trkpt lat="44.47561" lon="6.70819">
        <ele>1916.6</ele>
        <time>2023-01-20T09:31:15Z</time>
      </trkpt>
      <trkpt lat="44.47561" lon="6.7082">
        <ele>1916.6</ele>
        <time>2023-01-20T09:31:16Z</time>
      </trkpt>
      <trkpt lat="44.4756" lon="6.7082">
        <ele>1916.7</ele>
        <time>2023-01-20T09:31:17Z</time>
      </trkpt>
      <trkpt lat="44.47559" lon="6.7082">
        <ele>1916.7</ele>
        <time>2023-01-20T09:31:18Z</time>
      </trkpt>
      <trkpt lat="44.47559" lon="6.7082">
        <ele>1916.7</ele>
        <time>2023-01-20T09:31:19Z</time>
      </trkpt>
      <trkpt lat="44.47558" lon="6.70821">
        <ele>1916.7</ele>
        <time>2023-01-20T09:31:20Z</time>
      </trkpt>
      <trkpt lat="44.47558" lon="6.70821">
        <ele>1916.7</ele>
        <time>2023-01-20T09:31:21Z</time>
      </trkpt>
      <trkpt lat="44.47557" lon="6.70822">
        <ele>1916.7</ele>
        <time>2023-01-20T09:31:22Z</time>
      </trkpt>
      <trkpt lat="44.47556" lon="6.70822">
        <ele>1916.8</ele>
        <time>2023-01-20T09:31:23Z</time>
      </trkpt>
      <trkpt lat="44.47556" lon="6.70823">
        <ele>1916.6</ele>
        <time>2023-01-20T09:31:24Z</time>
      </trkpt>
      <trkpt lat="44.47555" lon="6.70824">
        <ele>1916.5</ele>
        <time>2023-01-20T09:31:25Z</time>
      </trkpt>
      <trkpt lat="44.47555" lon="6.70824">
        <ele>1916.5</ele>
        <time>2023-01-20T09:31:26Z</time>
      </trkpt>
      <trkpt lat="44.47554" lon="6.70824">
        <ele>1916.5</ele>
        <time>2023-01-20T09:31:27Z</time>
      </trkpt>
      <trkpt lat="44.47554" lon="6.70825">
        <ele>1916.5</ele>
        <time>2023-01-20T09:31:28Z</time>
      </trkpt>
      <trkpt lat="44.47553" lon="6.70825">
        <ele>1916.5</ele>
        <time>2023-01-20T09:31:29Z</time>
      </trkpt>
      <trkpt lat="44.47553" lon="6.70825">
        <ele>1916.5</ele>
        <time>2023-01-20T09:31:30Z</time>
      </trkpt>
      <trkpt lat="44.47553" lon="6.70824">
        <ele>1916.6</ele>
        <time>2023-01-20T09:31:31Z</time>
      </trkpt>
      <trkpt lat="44.47554" lon="6.70824">
        <ele>1916.7</ele>
        <time>2023-01-20T09:31:32Z</time>
      </trkpt>
      <trkpt lat="44.47554" lon="6.70823">
        <ele>1916.8</ele>
        <time>2023-01-20T09:31:33Z</time>
      </trkpt>
      <trkpt lat="44.47554" lon="6.70822">
        <ele>1917</ele>
        <time>2023-01-20T09:31:34Z</time>
      </trkpt>
      <trkpt lat="44.47554" lon="6.70822">
        <ele>1917.1</ele>
        <time>2023-01-20T09:31:35Z</time>
      </trkpt>
      <trkpt lat="44.47555" lon="6.70821">
        <ele>1917.2</ele>
        <time>2023-01-20T09:31:36Z</time>
      </trkpt>
      <trkpt lat="44.47554" lon="6.7082">
        <ele>1917.4</ele>
        <time>2023-01-20T09:31:37Z</time>
      </trkpt>
      <trkpt lat="44.47554" lon="6.70819">
        <ele>1917.7</ele>
        <time>2023-01-20T09:31:38Z</time>
      </trkpt>
      <trkpt lat="44.47555" lon="6.70818">
        <ele>1917.9</ele>
        <time>2023-01-20T09:31:39Z</time>
      </trkpt>
      <trkpt lat="44.47555" lon="6.70817">
        <ele>1918.1</ele>
        <time>2023-01-20T09:31:40Z</time>
      </trkpt>
      <trkpt lat="44.47555" lon="6.70817">
        <ele>1918.2</ele>
        <time>2023-01-20T09:31:41Z</time>
      </trkpt>
      <trkpt lat="44.47555" lon="6.70816">
        <ele>1918.5</ele>
        <time>2023-01-20T09:31:42Z</time>
      </trkpt>
      <trkpt lat="44.47556" lon="6.70815">
        <ele>1918.5</ele>
        <time>2023-01-20T09:31:43Z</time>
      </trkpt>
      <trkpt lat="44.47556" lon="6.70814">
        <ele>1918.6</ele>
        <time>2023-01-20T09:31:44Z</time>
      </trkpt>
      <trkpt lat="44.47556" lon="6.70814">
        <ele>1918.8</ele>
        <time>2023-01-20T09:31:45Z</time>
      </trkpt>
      <trkpt lat="44.47557" lon="6.70813">
        <ele>1918.9</ele>
        <time>2023-01-20T09:31:46Z</time>
      </trkpt>
      <trkpt lat="44.47557" lon="6.70812">
        <ele>1919.1</ele>
        <time>2023-01-20T09:31:47Z</time>
      </trkpt>
      <trkpt lat="44.47557" lon="6.70811">
        <ele>1919.3</ele>
        <time>2023-01-20T09:31:48Z</time>
      </trkpt>
      <trkpt lat="44.47557" lon="6.7081">
        <ele>1919.7</ele>
        <time>2023-01-20T09:31:49Z</time>
      </trkpt>
      <trkpt lat="44.47557" lon="6.70809">
        <ele>1919.9</ele>
        <time>2023-01-20T09:31:50Z</time>
      </trkpt>
      <trkpt lat="44.47556" lon="6.70808">
        <ele>1920.3</ele>
        <time>2023-01-20T09:31:51Z</time>
      </trkpt>
      <trkpt lat="44.47556" lon="6.70808">
        <ele>1920.5</ele>
        <time>2023-01-20T09:31:52Z</time>
      </trkpt>
      <trkpt lat="44.47556" lon="6.70807">
        <ele>1920.5</ele>
        <time>2023-01-20T09:31:53Z</time>
      </trkpt>
      <trkpt lat="44.47555" lon="6.70807">
        <ele>1920.6</ele>
        <time>2023-01-20T09:31:54Z</time>
      </trkpt>
      <trkpt lat="44.47555" lon="6.70807">
        <ele>1920.8</ele>
        <time>2023-01-20T09:31:55Z</time>
      </trkpt>
      <trkpt lat="44.47554" lon="6.70806">
        <ele>1921</ele>
        <time>2023-01-20T09:31:56Z</time>
      </trkpt>
      <trkpt lat="44.47553" lon="6.70807">
        <ele>1921.1</ele>
        <time>2023-01-20T09:31:57Z</time>
      </trkpt>
      <trkpt lat="44.47553" lon="6.70807">
        <ele>1921.1</ele>
        <time>2023-01-20T09:31:58Z</time>
      </trkpt>
      <trkpt lat="44.47553" lon="6.70807">
        <ele>1921.1</ele>
        <time>2023-01-20T09:31:59Z</time>
      </trkpt>
      <trkpt lat="44.47553" lon="6.70807">
        <ele>1921</ele>
        <time>2023-01-20T09:32:00Z</time>
      </trkpt>
      <trkpt lat="44.47552" lon="6.70807">
        <ele>1921</ele>
        <time>2023-01-20T09:32:01Z</time>
      </trkpt>
      <trkpt lat="44.47552" lon="6.70808">
        <ele>1921</ele>
        <time>2023-01-20T09:32:02Z</time>
      </trkpt>
      <trkpt lat="44.47551" lon="6.70808">
        <ele>1921</ele>
        <time>2023-01-20T09:32:03Z</time>
      </trkpt>
      <trkpt lat="44.47551" lon="6.70809">
        <ele>1921</ele>
        <time>2023-01-20T09:32:04Z</time>
      </trkpt>
      <trkpt lat="44.4755" lon="6.70809">
        <ele>1921</ele>
        <time>2023-01-20T09:32:05Z</time>
      </trkpt>
      <trkpt lat="44.47549" lon="6.70809">
        <ele>1921.1</ele>
        <time>2023-01-20T09:32:06Z</time>
      </trkpt>
      <trkpt lat="44.47549" lon="6.70809">
        <ele>1921.1</ele>
        <time>2023-01-20T09:32:07Z</time>
      </trkpt>
      <trkpt lat="44.47548" lon="6.70809">
        <ele>1921.2</ele>
        <time>2023-01-20T09:32:08Z</time>
      </trkpt>
      <trkpt lat="44.47548" lon="6.70809">
        <ele>1921.3</ele>
        <time>2023-01-20T09:32:09Z</time>
      </trkpt>
      <trkpt lat="44.47547" lon="6.70809">
        <ele>1921.4</ele>
        <time>2023-01-20T09:32:10Z</time>
      </trkpt>
      <trkpt lat="44.47546" lon="6.70809">
        <ele>1921.5</ele>
        <time>2023-01-20T09:32:11Z</time>
      </trkpt>
      <trkpt lat="44.47546" lon="6.70809">
        <ele>1921.6</ele>
        <time>2023-01-20T09:32:12Z</time>
      </trkpt>
      <trkpt lat="44.47545" lon="6.70809">
        <ele>1921.7</ele>
        <time>2023-01-20T09:32:13Z</time>
      </trkpt>
      <trkpt lat="44.47545" lon="6.70808">
        <ele>1921.9</ele>
        <time>2023-01-20T09:32:14Z</time>
      </trkpt>
      <trkpt lat="44.47544" lon="6.70808">
        <ele>1922</ele>
        <time>2023-01-20T09:32:15Z</time>
      </trkpt>
      <trkpt lat="44.47544" lon="6.70808">
        <ele>1922.2</ele>
        <time>2023-01-20T09:32:16Z</time>
      </trkpt>
      <trkpt lat="44.47543" lon="6.70808">
        <ele>1922.3</ele>
        <time>2023-01-20T09:32:17Z</time>
      </trkpt>
      <trkpt lat="44.47543" lon="6.70808">
        <ele>1922.3</ele>
        <time>2023-01-20T09:32:18Z</time>
      </trkpt>
      <trkpt lat="44.47542" lon="6.70807">
        <ele>1922.5</ele>
        <time>2023-01-20T09:32:19Z</time>
      </trkpt>
      <trkpt lat="44.47541" lon="6.70807">
        <ele>1922.7</ele>
        <time>2023-01-20T09:32:20Z</time>
      </trkpt>
      <trkpt lat="44.47541" lon="6.70807">
        <ele>1922.7</ele>
        <time>2023-01-20T09:32:21Z</time>
      </trkpt>
      <trkpt lat="44.47541" lon="6.70807">
        <ele>1922.8</ele>
        <time>2023-01-20T09:32:22Z</time>
      </trkpt>
      <trkpt lat="44.4754" lon="6.70807">
        <ele>1922.9</ele>
        <time>2023-01-20T09:32:23Z</time>
      </trkpt>
      <trkpt lat="44.47539" lon="6.70807">
        <ele>1923</ele>
        <time>2023-01-20T09:32:24Z</time>
      </trkpt>
      <trkpt lat="44.47538" lon="6.70807">
        <ele>1923.1</ele>
        <time>2023-01-20T09:32:25Z</time>
      </trkpt>
      <trkpt lat="44.47537" lon="6.70807">
        <ele>1923.3</ele>
        <time>2023-01-20T09:32:26Z</time>
      </trkpt>
      <trkpt lat="44.47536" lon="6.70807">
        <ele>1923.4</ele>
        <time>2023-01-20T09:32:27Z</time>
      </trkpt>
      <trkpt lat="44.47535" lon="6.70807">
        <ele>1923.4</ele>
        <time>2023-01-20T09:32:28Z</time>
      </trkpt>
      <trkpt lat="44.47535" lon="6.70808">
        <ele>1923.4</ele>
        <time>2023-01-20T09:32:29Z</time>
      </trkpt>
      <trkpt lat="44.47534" lon="6.70808">
        <ele>1923.5</ele>
        <time>2023-01-20T09:32:30Z</time>
      </trkpt>
      <trkpt lat="44.47533" lon="6.70808">
        <ele>1923.5</ele>
        <time>2023-01-20T09:32:31Z</time>
      </trkpt>
      <trkpt lat="44.47533" lon="6.70809">
        <ele>1923.5</ele>
        <time>2023-01-20T09:32:32Z</time>
      </trkpt>
      <trkpt lat="44.47532" lon="6.70809">
        <ele>1923.5</ele>
        <time>2023-01-20T09:32:33Z</time>
      </trkpt>
      <trkpt lat="44.47531" lon="6.70809">
        <ele>1923.6</ele>
        <time>2023-01-20T09:32:34Z</time>
      </trkpt>
      <trkpt lat="44.47531" lon="6.70809">
        <ele>1923.7</ele>
        <time>2023-01-20T09:32:35Z</time>
      </trkpt>
      <trkpt lat="44.4753" lon="6.70809">
        <ele>1923.8</ele>
        <time>2023-01-20T09:32:36Z</time>
      </trkpt>
      <trkpt lat="44.47528" lon="6.70809">
        <ele>1923.9</ele>
        <time>2023-01-20T09:32:37Z</time>
      </trkpt>
      <trkpt lat="44.47528" lon="6.70809">
        <ele>1924.1</ele>
        <time>2023-01-20T09:32:38Z</time>
      </trkpt>
      <trkpt lat="44.47527" lon="6.70809">
        <ele>1924.2</ele>
        <time>2023-01-20T09:32:39Z</time>
      </trkpt>
      <trkpt lat="44.47526" lon="6.70809">
        <ele>1924.3</ele>
        <time>2023-01-20T09:32:40Z</time>
      </trkpt>
      <trkpt lat="44.47525" lon="6.70809">
        <ele>1924.4</ele>
        <time>2023-01-20T09:32:41Z</time>
      </trkpt>
      <trkpt lat="44.47524" lon="6.70809">
        <ele>1924.5</ele>
        <time>2023-01-20T09:32:42Z</time>
      </trkpt>
      <trkpt lat="44.47524" lon="6.70809">
        <ele>1924.5</ele>
        <time>2023-01-20T09:32:43Z</time>
      </trkpt>
      <trkpt lat="44.47523" lon="6.7081">
        <ele>1924.5</ele>
        <time>2023-01-20T09:32:44Z</time>
      </trkpt>
      <trkpt lat="44.47522" lon="6.7081">
        <ele>1924.6</ele>
        <time>2023-01-20T09:32:45Z</time>
      </trkpt>
      <trkpt lat="44.47522" lon="6.70809">
        <ele>1924.7</ele>
        <time>2023-01-20T09:32:46Z</time>
      </trkpt>
      <trkpt lat="44.47521" lon="6.70809">
        <ele>1924.7</ele>
        <time>2023-01-20T09:32:47Z</time>
      </trkpt>
      <trkpt lat="44.47521" lon="6.70809">
        <ele>1924.8</ele>
        <time>2023-01-20T09:32:48Z</time>
      </trkpt>
      <trkpt lat="44.4752" lon="6.70809">
        <ele>1924.9</ele>
        <time>2023-01-20T09:32:49Z</time>
      </trkpt>
      <trkpt lat="44.47519" lon="6.70809">
        <ele>1925</ele>
        <time>2023-01-20T09:32:50Z</time>
      </trkpt>
      <trkpt lat="44.47518" lon="6.70809">
        <ele>1925.1</ele>
        <time>2023-01-20T09:32:51Z</time>
      </trkpt>
      <trkpt lat="44.47518" lon="6.70809">
        <ele>1925.2</ele>
        <time>2023-01-20T09:32:52Z</time>
      </trkpt>
      <trkpt lat="44.47518" lon="6.70809">
        <ele>1925.2</ele>
        <time>2023-01-20T09:32:53Z</time>
      </trkpt>
      <trkpt lat="44.47518" lon="6.70809">
        <ele>1925.3</ele>
        <time>2023-01-20T09:32:54Z</time>
      </trkpt>
      <trkpt lat="44.47517" lon="6.70808">
        <ele>1925.5</ele>
        <time>2023-01-20T09:32:55Z</time>
      </trkpt>
      <trkpt lat="44.47516" lon="6.70808">
        <ele>1925.6</ele>
        <time>2023-01-20T09:32:56Z</time>
      </trkpt>
      <trkpt lat="44.47516" lon="6.70807">
        <ele>1925.8</ele>
        <time>2023-01-20T09:32:57Z</time>
      </trkpt>
      <trkpt lat="44.47516" lon="6.70807">
        <ele>1925.9</ele>
        <time>2023-01-20T09:32:58Z</time>
      </trkpt>
      <trkpt lat="44.47516" lon="6.70806">
        <ele>1926.2</ele>
        <time>2023-01-20T09:32:59Z</time>
      </trkpt>
      <trkpt lat="44.47516" lon="6.70805">
        <ele>1926.3</ele>
        <time>2023-01-20T09:33:00Z</time>
      </trkpt>
      <trkpt lat="44.47517" lon="6.70804">
        <ele>1926.5</ele>
        <time>2023-01-20T09:33:01Z</time>
      </trkpt>
      <trkpt lat="44.47517" lon="6.70803">
        <ele>1926.7</ele>
        <time>2023-01-20T09:33:02Z</time>
      </trkpt>
      <trkpt lat="44.47517" lon="6.70803">
        <ele>1926.8</ele>
        <time>2023-01-20T09:33:03Z</time>
      </trkpt>
      <trkpt lat="44.47517" lon="6.70802">
        <ele>1926.9</ele>
        <time>2023-01-20T09:33:04Z</time>
      </trkpt>
      <trkpt lat="44.47518" lon="6.70801">
        <ele>1927</ele>
        <time>2023-01-20T09:33:05Z</time>
      </trkpt>
      <trkpt lat="44.47518" lon="6.708">
        <ele>1927.2</ele>
        <time>2023-01-20T09:33:06Z</time>
      </trkpt>
      <trkpt lat="44.47519" lon="6.70799">
        <ele>1927.4</ele>
        <time>2023-01-20T09:33:07Z</time>
      </trkpt>
      <trkpt lat="44.47519" lon="6.70798">
        <ele>1927.7</ele>
        <time>2023-01-20T09:33:08Z</time>
      </trkpt>
      <trkpt lat="44.47519" lon="6.70797">
        <ele>1927.8</ele>
        <time>2023-01-20T09:33:09Z</time>
      </trkpt>
      <trkpt lat="44.47519" lon="6.70796">
        <ele>1928</ele>
        <time>2023-01-20T09:33:10Z</time>
      </trkpt>
      <trkpt lat="44.47519" lon="6.70796">
        <ele>1928.1</ele>
        <time>2023-01-20T09:33:11Z</time>
      </trkpt>
      <trkpt lat="44.47519" lon="6.70795">
        <ele>1928.2</ele>
        <time>2023-01-20T09:33:12Z</time>
      </trkpt>
      <trkpt lat="44.4752" lon="6.70795">
        <ele>1928.4</ele>
        <time>2023-01-20T09:33:13Z</time>
      </trkpt>
      <trkpt lat="44.4752" lon="6.70794">
        <ele>1928.5</ele>
        <time>2023-01-20T09:33:14Z</time>
      </trkpt>
      <trkpt lat="44.4752" lon="6.70793">
        <ele>1928.8</ele>
        <time>2023-01-20T09:33:15Z</time>
      </trkpt>
      <trkpt lat="44.4752" lon="6.70792">
        <ele>1928.9</ele>
        <time>2023-01-20T09:33:16Z</time>
      </trkpt>
      <trkpt lat="44.4752" lon="6.70791">
        <ele>1929.1</ele>
        <time>2023-01-20T09:33:17Z</time>
      </trkpt>
      <trkpt lat="44.4752" lon="6.7079">
        <ele>1929.3</ele>
        <time>2023-01-20T09:33:18Z</time>
      </trkpt>
      <trkpt lat="44.4752" lon="6.70789">
        <ele>1929.6</ele>
        <time>2023-01-20T09:33:19Z</time>
      </trkpt>
      <trkpt lat="44.4752" lon="6.70788">
        <ele>1929.9</ele>
        <time>2023-01-20T09:33:20Z</time>
      </trkpt>
      <trkpt lat="44.4752" lon="6.70786">
        <ele>1930.2</ele>
        <time>2023-01-20T09:33:21Z</time>
      </trkpt>
      <trkpt lat="44.47519" lon="6.70785">
        <ele>1930.6</ele>
        <time>2023-01-20T09:33:22Z</time>
      </trkpt>
      <trkpt lat="44.47519" lon="6.70784">
        <ele>1930.8</ele>
        <time>2023-01-20T09:33:23Z</time>
      </trkpt>
      <trkpt lat="44.47518" lon="6.70784">
        <ele>1931</ele>
        <time>2023-01-20T09:33:24Z</time>
      </trkpt>
      <trkpt lat="44.47518" lon="6.70784">
        <ele>1931.1</ele>
        <time>2023-01-20T09:33:25Z</time>
      </trkpt>
      <trkpt lat="44.47518" lon="6.70784">
        <ele>1931.1</ele>
        <time>2023-01-20T09:33:26Z</time>
      </trkpt>
      <trkpt lat="44.47517" lon="6.70784">
        <ele>1931.2</ele>
        <time>2023-01-20T09:33:27Z</time>
      </trkpt>
      <trkpt lat="44.47516" lon="6.70784">
        <ele>1931.2</ele>
        <time>2023-01-20T09:33:28Z</time>
      </trkpt>
      <trkpt lat="44.47516" lon="6.70784">
        <ele>1931.1</ele>
        <time>2023-01-20T09:33:29Z</time>
      </trkpt>
      <trkpt lat="44.47516" lon="6.70785">
        <ele>1931</ele>
        <time>2023-01-20T09:33:30Z</time>
      </trkpt>
      <trkpt lat="44.47515" lon="6.70785">
        <ele>1931</ele>
        <time>2023-01-20T09:33:31Z</time>
      </trkpt>
      <trkpt lat="44.47515" lon="6.70786">
        <ele>1930.9</ele>
        <time>2023-01-20T09:33:32Z</time>
      </trkpt>
      <trkpt lat="44.47515" lon="6.70786">
        <ele>1930.9</ele>
        <time>2023-01-20T09:33:33Z</time>
      </trkpt>
      <trkpt lat="44.47514" lon="6.70787">
        <ele>1930.9</ele>
        <time>2023-01-20T09:33:34Z</time>
      </trkpt>
      <trkpt lat="44.47514" lon="6.70787">
        <ele>1930.8</ele>
        <time>2023-01-20T09:33:35Z</time>
      </trkpt>
      <trkpt lat="44.47513" lon="6.70788">
        <ele>1930.7</ele>
        <time>2023-01-20T09:33:36Z</time>
      </trkpt>
      <trkpt lat="44.47512" lon="6.70788">
        <ele>1930.7</ele>
        <time>2023-01-20T09:33:37Z</time>
      </trkpt>
      <trkpt lat="44.47511" lon="6.70789">
        <ele>1930.6</ele>
        <time>2023-01-20T09:33:38Z</time>
      </trkpt>
      <trkpt lat="44.47511" lon="6.7079">
        <ele>1930.5</ele>
        <time>2023-01-20T09:33:39Z</time>
      </trkpt>
      <trkpt lat="44.4751" lon="6.70792">
        <ele>1930.3</ele>
        <time>2023-01-20T09:33:40Z</time>
      </trkpt>
      <trkpt lat="44.4751" lon="6.70792">
        <ele>1930.1</ele>
        <time>2023-01-20T09:33:41Z</time>
      </trkpt>
      <trkpt lat="44.47509" lon="6.70793">
        <ele>1930.1</ele>
        <time>2023-01-20T09:33:42Z</time>
      </trkpt>
      <trkpt lat="44.47509" lon="6.70793">
        <ele>1930.1</ele>
        <time>2023-01-20T09:33:43Z</time>
      </trkpt>
      <trkpt lat="44.47508" lon="6.70793">
        <ele>1930.2</ele>
        <time>2023-01-20T09:33:44Z</time>
      </trkpt>
      <trkpt lat="44.47508" lon="6.70793">
        <ele>1930.1</ele>
        <time>2023-01-20T09:33:45Z</time>
      </trkpt>
      <trkpt lat="44.47507" lon="6.70794">
        <ele>1930.1</ele>
        <time>2023-01-20T09:33:46Z</time>
      </trkpt>
      <trkpt lat="44.47506" lon="6.70794">
        <ele>1930.2</ele>
        <time>2023-01-20T09:33:47Z</time>
      </trkpt>
      <trkpt lat="44.47506" lon="6.70794">
        <ele>1930.3</ele>
        <time>2023-01-20T09:33:48Z</time>
      </trkpt>
      <trkpt lat="44.47505" lon="6.70794">
        <ele>1930.3</ele>
        <time>2023-01-20T09:33:49Z</time>
      </trkpt>
      <trkpt lat="44.47504" lon="6.70794">
        <ele>1930.3</ele>
        <time>2023-01-20T09:33:50Z</time>
      </trkpt>
      <trkpt lat="44.47504" lon="6.70794">
        <ele>1930.4</ele>
        <time>2023-01-20T09:33:51Z</time>
      </trkpt>
      <trkpt lat="44.47504" lon="6.70794">
        <ele>1930.5</ele>
        <time>2023-01-20T09:33:52Z</time>
      </trkpt>
      <trkpt lat="44.47503" lon="6.70794">
        <ele>1930.6</ele>
        <time>2023-01-20T09:33:53Z</time>
      </trkpt>
      <trkpt lat="44.47502" lon="6.70794">
        <ele>1930.6</ele>
        <time>2023-01-20T09:33:54Z</time>
      </trkpt>
      <trkpt lat="44.47501" lon="6.70794">
        <ele>1930.7</ele>
        <time>2023-01-20T09:33:55Z</time>
      </trkpt>
      <trkpt lat="44.47501" lon="6.70794">
        <ele>1930.8</ele>
        <time>2023-01-20T09:33:56Z</time>
      </trkpt>
      <trkpt lat="44.475" lon="6.70794">
        <ele>1930.9</ele>
        <time>2023-01-20T09:33:57Z</time>
      </trkpt>
      <trkpt lat="44.47498" lon="6.70795">
        <ele>1931</ele>
        <time>2023-01-20T09:33:59Z</time>
      </trkpt>
      <trkpt lat="44.47498" lon="6.70795">
        <ele>1931</ele>
        <time>2023-01-20T09:34:00Z</time>
      </trkpt>
      <trkpt lat="44.47497" lon="6.70795">
        <ele>1931.1</ele>
        <time>2023-01-20T09:34:01Z</time>
      </trkpt>
      <trkpt lat="44.47496" lon="6.70795">
        <ele>1931.2</ele>
        <time>2023-01-20T09:34:02Z</time>
      </trkpt>
      <trkpt lat="44.47496" lon="6.70795">
        <ele>1931.3</ele>
        <time>2023-01-20T09:34:03Z</time>
      </trkpt>
      <trkpt lat="44.47495" lon="6.70795">
        <ele>1931.4</ele>
        <time>2023-01-20T09:34:04Z</time>
      </trkpt>
      <trkpt lat="44.47494" lon="6.70795">
        <ele>1931.6</ele>
        <time>2023-01-20T09:34:05Z</time>
      </trkpt>
      <trkpt lat="44.47493" lon="6.70795">
        <ele>1931.7</ele>
        <time>2023-01-20T09:34:06Z</time>
      </trkpt>
      <trkpt lat="44.47492" lon="6.70794">
        <ele>1931.9</ele>
        <time>2023-01-20T09:34:07Z</time>
      </trkpt>
      <trkpt lat="44.47492" lon="6.70794">
        <ele>1932.1</ele>
        <time>2023-01-20T09:34:08Z</time>
      </trkpt>
      <trkpt lat="44.47491" lon="6.70794">
        <ele>1932.3</ele>
        <time>2023-01-20T09:34:09Z</time>
      </trkpt>
      <trkpt lat="44.47491" lon="6.70793">
        <ele>1932.4</ele>
        <time>2023-01-20T09:34:10Z</time>
      </trkpt>
      <trkpt lat="44.4749" lon="6.70793">
        <ele>1932.6</ele>
        <time>2023-01-20T09:34:11Z</time>
      </trkpt>
      <trkpt lat="44.47488" lon="6.70792">
        <ele>1933</ele>
        <time>2023-01-20T09:34:12Z</time>
      </trkpt>
      <trkpt lat="44.47488" lon="6.70792">
        <ele>1933.2</ele>
        <time>2023-01-20T09:34:13Z</time>
      </trkpt>
      <trkpt lat="44.47487" lon="6.70792">
        <ele>1933.4</ele>
        <time>2023-01-20T09:34:14Z</time>
      </trkpt>
      <trkpt lat="44.47486" lon="6.70791">
        <ele>1933.6</ele>
        <time>2023-01-20T09:34:15Z</time>
      </trkpt>
      <trkpt lat="44.47486" lon="6.70791">
        <ele>1933.6</ele>
        <time>2023-01-20T09:34:16Z</time>
      </trkpt>
      <trkpt lat="44.47485" lon="6.70791">
        <ele>1933.7</ele>
        <time>2023-01-20T09:34:17Z</time>
      </trkpt>
      <trkpt lat="44.47485" lon="6.70791">
        <ele>1933.9</ele>
        <time>2023-01-20T09:34:18Z</time>
      </trkpt>
      <trkpt lat="44.47484" lon="6.70791">
        <ele>1934.1</ele>
        <time>2023-01-20T09:34:19Z</time>
      </trkpt>
      <trkpt lat="44.47483" lon="6.7079">
        <ele>1934.4</ele>
        <time>2023-01-20T09:34:20Z</time>
      </trkpt>
      <trkpt lat="44.47481" lon="6.70791">
        <ele>1934.5</ele>
        <time>2023-01-20T09:34:21Z</time>
      </trkpt>
      <trkpt lat="44.4748" lon="6.7079">
        <ele>1934.7</ele>
        <time>2023-01-20T09:34:22Z</time>
      </trkpt>
      <trkpt lat="44.47479" lon="6.7079">
        <ele>1934.9</ele>
        <time>2023-01-20T09:34:23Z</time>
      </trkpt>
      <trkpt lat="44.47478" lon="6.70789">
        <ele>1935.2</ele>
        <time>2023-01-20T09:34:24Z</time>
      </trkpt>
      <trkpt lat="44.47477" lon="6.70788">
        <ele>1935.6</ele>
        <time>2023-01-20T09:34:25Z</time>
      </trkpt>
      <trkpt lat="44.47477" lon="6.70788">
        <ele>1935.9</ele>
        <time>2023-01-20T09:34:26Z</time>
      </trkpt>
      <trkpt lat="44.47476" lon="6.70787">
        <ele>1936.1</ele>
        <time>2023-01-20T09:34:27Z</time>
      </trkpt>
      <trkpt lat="44.47475" lon="6.70786">
        <ele>1936.4</ele>
        <time>2023-01-20T09:34:28Z</time>
      </trkpt>
      <trkpt lat="44.47475" lon="6.70785">
        <ele>1936.7</ele>
        <time>2023-01-20T09:34:29Z</time>
      </trkpt>
      <trkpt lat="44.47474" lon="6.70785">
        <ele>1936.9</ele>
        <time>2023-01-20T09:34:30Z</time>
      </trkpt>
      <trkpt lat="44.47474" lon="6.70783">
        <ele>1937.3</ele>
        <time>2023-01-20T09:34:31Z</time>
      </trkpt>
      <trkpt lat="44.47474" lon="6.70783">
        <ele>1937.5</ele>
        <time>2023-01-20T09:34:32Z</time>
      </trkpt>
      <trkpt lat="44.47473" lon="6.70782">
        <ele>1937.8</ele>
        <time>2023-01-20T09:34:33Z</time>
      </trkpt>
      <trkpt lat="44.47473" lon="6.70781">
        <ele>1938.1</ele>
        <time>2023-01-20T09:34:34Z</time>
      </trkpt>
      <trkpt lat="44.47473" lon="6.7078">
        <ele>1938.3</ele>
        <time>2023-01-20T09:34:35Z</time>
      </trkpt>
      <trkpt lat="44.47473" lon="6.70779">
        <ele>1938.6</ele>
        <time>2023-01-20T09:34:36Z</time>
      </trkpt>
      <trkpt lat="44.47473" lon="6.70779">
        <ele>1938.7</ele>
        <time>2023-01-20T09:34:37Z</time>
      </trkpt>
      <trkpt lat="44.47472" lon="6.70778">
        <ele>1938.8</ele>
        <time>2023-01-20T09:34:38Z</time>
      </trkpt>
      <trkpt lat="44.47472" lon="6.70778">
        <ele>1939</ele>
        <time>2023-01-20T09:34:39Z</time>
      </trkpt>
      <trkpt lat="44.47472" lon="6.70777">
        <ele>1939.1</ele>
        <time>2023-01-20T09:34:40Z</time>
      </trkpt>
      <trkpt lat="44.47473" lon="6.70777">
        <ele>1939.3</ele>
        <time>2023-01-20T09:34:41Z</time>
      </trkpt>
      <trkpt lat="44.47473" lon="6.70776">
        <ele>1939.3</ele>
        <time>2023-01-20T09:34:42Z</time>
      </trkpt>
      <trkpt lat="44.47474" lon="6.70775">
        <ele>1939.5</ele>
        <time>2023-01-20T09:34:43Z</time>
      </trkpt>
      <trkpt lat="44.47474" lon="6.70774">
        <ele>1939.5</ele>
        <time>2023-01-20T09:34:44Z</time>
      </trkpt>
      <trkpt lat="44.47475" lon="6.70774">
        <ele>1939.7</ele>
        <time>2023-01-20T09:34:45Z</time>
      </trkpt>
      <trkpt lat="44.47475" lon="6.70772">
        <ele>1940</ele>
        <time>2023-01-20T09:34:46Z</time>
      </trkpt>
      <trkpt lat="44.47476" lon="6.70771">
        <ele>1940.1</ele>
        <time>2023-01-20T09:34:47Z</time>
      </trkpt>
      <trkpt lat="44.47477" lon="6.70771">
        <ele>1940.2</ele>
        <time>2023-01-20T09:34:48Z</time>
      </trkpt>
      <trkpt lat="44.47477" lon="6.7077">
        <ele>1940.3</ele>
        <time>2023-01-20T09:34:49Z</time>
      </trkpt>
      <trkpt lat="44.47478" lon="6.70769">
        <ele>1940.4</ele>
        <time>2023-01-20T09:34:50Z</time>
      </trkpt>
      <trkpt lat="44.47479" lon="6.70768">
        <ele>1940.5</ele>
        <time>2023-01-20T09:34:51Z</time>
      </trkpt>
      <trkpt lat="44.47479" lon="6.70767">
        <ele>1940.6</ele>
        <time>2023-01-20T09:34:52Z</time>
      </trkpt>
      <trkpt lat="44.4748" lon="6.70767">
        <ele>1940.6</ele>
        <time>2023-01-20T09:34:53Z</time>
      </trkpt>
      <trkpt lat="44.47481" lon="6.70767">
        <ele>1940.6</ele>
        <time>2023-01-20T09:34:54Z</time>
      </trkpt>
      <trkpt lat="44.47481" lon="6.70766">
        <ele>1940.6</ele>
        <time>2023-01-20T09:34:55Z</time>
      </trkpt>
      <trkpt lat="44.47481" lon="6.70766">
        <ele>1940.8</ele>
        <time>2023-01-20T09:34:56Z</time>
      </trkpt>
      <trkpt lat="44.47481" lon="6.70765">
        <ele>1940.9</ele>
        <time>2023-01-20T09:34:57Z</time>
      </trkpt>
      <trkpt lat="44.47482" lon="6.70764">
        <ele>1941.2</ele>
        <time>2023-01-20T09:34:58Z</time>
      </trkpt>
      <trkpt lat="44.47482" lon="6.70763">
        <ele>1941.4</ele>
        <time>2023-01-20T09:34:59Z</time>
      </trkpt>
      <trkpt lat="44.47481" lon="6.70763">
        <ele>1941.5</ele>
        <time>2023-01-20T09:35:00Z</time>
      </trkpt>
      <trkpt lat="44.47482" lon="6.70762">
        <ele>1941.6</ele>
        <time>2023-01-20T09:35:01Z</time>
      </trkpt>
      <trkpt lat="44.47482" lon="6.70762">
        <ele>1941.7</ele>
        <time>2023-01-20T09:35:02Z</time>
      </trkpt>
      <trkpt lat="44.47482" lon="6.7076">
        <ele>1942.1</ele>
        <time>2023-01-20T09:35:03Z</time>
      </trkpt>
      <trkpt lat="44.47482" lon="6.70759">
        <ele>1942.3</ele>
        <time>2023-01-20T09:35:04Z</time>
      </trkpt>
      <trkpt lat="44.47482" lon="6.70758">
        <ele>1942.5</ele>
        <time>2023-01-20T09:35:05Z</time>
      </trkpt>
      <trkpt lat="44.47483" lon="6.70757">
        <ele>1942.6</ele>
        <time>2023-01-20T09:35:06Z</time>
      </trkpt>
      <trkpt lat="44.47483" lon="6.70757">
        <ele>1942.7</ele>
        <time>2023-01-20T09:35:07Z</time>
      </trkpt>
      <trkpt lat="44.47484" lon="6.70756">
        <ele>1942.8</ele>
        <time>2023-01-20T09:35:08Z</time>
      </trkpt>
      <trkpt lat="44.47484" lon="6.70754">
        <ele>1943.3</ele>
        <time>2023-01-20T09:35:09Z</time>
      </trkpt>
      <trkpt lat="44.47484" lon="6.70754">
        <ele>1943.4</ele>
        <time>2023-01-20T09:35:10Z</time>
      </trkpt>
      <trkpt lat="44.47485" lon="6.70753">
        <ele>1943.4</ele>
        <time>2023-01-20T09:35:11Z</time>
      </trkpt>
      <trkpt lat="44.47485" lon="6.70753">
        <ele>1943.4</ele>
        <time>2023-01-20T09:35:12Z</time>
      </trkpt>
      <trkpt lat="44.47486" lon="6.70752">
        <ele>1943.5</ele>
        <time>2023-01-20T09:35:13Z</time>
      </trkpt>
      <trkpt lat="44.47486" lon="6.70752">
        <ele>1943.5</ele>
        <time>2023-01-20T09:35:14Z</time>
      </trkpt>
      <trkpt lat="44.47487" lon="6.70751">
        <ele>1943.6</ele>
        <time>2023-01-20T09:35:15Z</time>
      </trkpt>
      <trkpt lat="44.47487" lon="6.70751">
        <ele>1943.7</ele>
        <time>2023-01-20T09:35:16Z</time>
      </trkpt>
      <trkpt lat="44.47487" lon="6.7075">
        <ele>1943.8</ele>
        <time>2023-01-20T09:35:17Z</time>
      </trkpt>
      <trkpt lat="44.47487" lon="6.7075">
        <ele>1944</ele>
        <time>2023-01-20T09:35:18Z</time>
      </trkpt>
      <trkpt lat="44.47487" lon="6.70749">
        <ele>1944</ele>
        <time>2023-01-20T09:35:19Z</time>
      </trkpt>
      <trkpt lat="44.47487" lon="6.70749">
        <ele>1944.2</ele>
        <time>2023-01-20T09:35:20Z</time>
      </trkpt>
      <trkpt lat="44.47488" lon="6.70748">
        <ele>1944.2</ele>
        <time>2023-01-20T09:35:21Z</time>
      </trkpt>
      <trkpt lat="44.47488" lon="6.70748">
        <ele>1944.1</ele>
        <time>2023-01-20T09:35:22Z</time>
      </trkpt>
      <trkpt lat="44.47489" lon="6.70748">
        <ele>1944.1</ele>
        <time>2023-01-20T09:35:23Z</time>
      </trkpt>
      <trkpt lat="44.47489" lon="6.70747">
        <ele>1944.3</ele>
        <time>2023-01-20T09:35:24Z</time>
      </trkpt>
      <trkpt lat="44.47489" lon="6.70747">
        <ele>1944.4</ele>
        <time>2023-01-20T09:35:25Z</time>
      </trkpt>
      <trkpt lat="44.47489" lon="6.70746">
        <ele>1944.5</ele>
        <time>2023-01-20T09:35:26Z</time>
      </trkpt>
      <trkpt lat="44.47489" lon="6.70746">
        <ele>1944.5</ele>
        <time>2023-01-20T09:35:27Z</time>
      </trkpt>
      <trkpt lat="44.47489" lon="6.70745">
        <ele>1944.8</ele>
        <time>2023-01-20T09:35:28Z</time>
      </trkpt>
      <trkpt lat="44.4749" lon="6.70745">
        <ele>1944.9</ele>
        <time>2023-01-20T09:35:29Z</time>
      </trkpt>
      <trkpt lat="44.4749" lon="6.70744">
        <ele>1945</ele>
        <time>2023-01-20T09:35:30Z</time>
      </trkpt>
      <trkpt lat="44.4749" lon="6.70744">
        <ele>1945.1</ele>
        <time>2023-01-20T09:35:31Z</time>
      </trkpt>
      <trkpt lat="44.4749" lon="6.70743">
        <ele>1945.1</ele>
        <time>2023-01-20T09:35:32Z</time>
      </trkpt>
      <trkpt lat="44.4749" lon="6.70742">
        <ele>1945.4</ele>
        <time>2023-01-20T09:35:33Z</time>
      </trkpt>
      <trkpt lat="44.4749" lon="6.70742">
        <ele>1945.6</ele>
        <time>2023-01-20T09:35:34Z</time>
      </trkpt>
      <trkpt lat="44.4749" lon="6.70741">
        <ele>1945.8</ele>
        <time>2023-01-20T09:35:35Z</time>
      </trkpt>
      <trkpt lat="44.47489" lon="6.7074">
        <ele>1946.1</ele>
        <time>2023-01-20T09:35:36Z</time>
      </trkpt>
      <trkpt lat="44.47489" lon="6.70739">
        <ele>1946.2</ele>
        <time>2023-01-20T09:35:37Z</time>
      </trkpt>
      <trkpt lat="44.47489" lon="6.70738">
        <ele>1946.5</ele>
        <time>2023-01-20T09:35:38Z</time>
      </trkpt>
      <trkpt lat="44.47489" lon="6.70738">
        <ele>1946.6</ele>
        <time>2023-01-20T09:35:39Z</time>
      </trkpt>
      <trkpt lat="44.47489" lon="6.70738">
        <ele>1946.7</ele>
        <time>2023-01-20T09:35:40Z</time>
      </trkpt>
      <trkpt lat="44.47489" lon="6.70737">
        <ele>1947</ele>
        <time>2023-01-20T09:35:41Z</time>
      </trkpt>
      <trkpt lat="44.47489" lon="6.70736">
        <ele>1947.2</ele>
        <time>2023-01-20T09:35:42Z</time>
      </trkpt>
      <trkpt lat="44.47489" lon="6.70735">
        <ele>1947.4</ele>
        <time>2023-01-20T09:35:43Z</time>
      </trkpt>
      <trkpt lat="44.47489" lon="6.70734">
        <ele>1947.7</ele>
        <time>2023-01-20T09:35:44Z</time>
      </trkpt>
      <trkpt lat="44.47488" lon="6.70733">
        <ele>1947.9</ele>
        <time>2023-01-20T09:35:45Z</time>
      </trkpt>
      <trkpt lat="44.47488" lon="6.70732">
        <ele>1948.3</ele>
        <time>2023-01-20T09:35:46Z</time>
      </trkpt>
      <trkpt lat="44.47488" lon="6.70731">
        <ele>1948.6</ele>
        <time>2023-01-20T09:35:47Z</time>
      </trkpt>
      <trkpt lat="44.47488" lon="6.70729">
        <ele>1949.2</ele>
        <time>2023-01-20T09:35:48Z</time>
      </trkpt>
      <trkpt lat="44.47487" lon="6.70728">
        <ele>1949.5</ele>
        <time>2023-01-20T09:35:49Z</time>
      </trkpt>
      <trkpt lat="44.47486" lon="6.70726">
        <ele>1949.9</ele>
        <time>2023-01-20T09:35:50Z</time>
      </trkpt>
      <trkpt lat="44.47486" lon="6.70726">
        <ele>1950.1</ele>
        <time>2023-01-20T09:35:51Z</time>
      </trkpt>
      <trkpt lat="44.47486" lon="6.70725">
        <ele>1950.4</ele>
        <time>2023-01-20T09:35:52Z</time>
      </trkpt>
      <trkpt lat="44.47486" lon="6.70725">
        <ele>1950.4</ele>
        <time>2023-01-20T09:35:53Z</time>
      </trkpt>
      <trkpt lat="44.47486" lon="6.70725">
        <ele>1950.3</ele>
        <time>2023-01-20T09:35:54Z</time>
      </trkpt>
      <trkpt lat="44.47486" lon="6.70724">
        <ele>1950.4</ele>
        <time>2023-01-20T09:35:55Z</time>
      </trkpt>
      <trkpt lat="44.47486" lon="6.70724">
        <ele>1950.5</ele>
        <time>2023-01-20T09:35:56Z</time>
      </trkpt>
      <trkpt lat="44.47486" lon="6.70724">
        <ele>1950.5</ele>
        <time>2023-01-20T09:35:57Z</time>
      </trkpt>
      <trkpt lat="44.47486" lon="6.70724">
        <ele>1950.5</ele>
        <time>2023-01-20T09:35:58Z</time>
      </trkpt>
      <trkpt lat="44.47487" lon="6.70724">
        <ele>1950.5</ele>
        <time>2023-01-20T09:35:59Z</time>
      </trkpt>
      <trkpt lat="44.47487" lon="6.70724">
        <ele>1950.5</ele>
        <time>2023-01-20T09:36:00Z</time>
      </trkpt>
      <trkpt lat="44.47487" lon="6.70724">
        <ele>1950.6</ele>
        <time>2023-01-20T09:36:01Z</time>
      </trkpt>
      <trkpt lat="44.47487" lon="6.70723">
        <ele>1950.7</ele>
        <time>2023-01-20T09:36:02Z</time>
      </trkpt>
      <trkpt lat="44.47486" lon="6.70723">
        <ele>1950.7</ele>
        <time>2023-01-20T09:36:03Z</time>
      </trkpt>
      <trkpt lat="44.47486" lon="6.70722">
        <ele>1951</ele>
        <time>2023-01-20T09:36:04Z</time>
      </trkpt>
      <trkpt lat="44.47486" lon="6.70721">
        <ele>1951.3</ele>
        <time>2023-01-20T09:36:05Z</time>
      </trkpt>
      <trkpt lat="44.47485" lon="6.7072">
        <ele>1951.6</ele>
        <time>2023-01-20T09:36:06Z</time>
      </trkpt>
      <trkpt lat="44.47485" lon="6.7072">
        <ele>1951.9</ele>
        <time>2023-01-20T09:36:07Z</time>
      </trkpt>
      <trkpt lat="44.47485" lon="6.70719">
        <ele>1952</ele>
        <time>2023-01-20T09:36:08Z</time>
      </trkpt>
      <trkpt lat="44.47484" lon="6.70719">
        <ele>1952.2</ele>
        <time>2023-01-20T09:36:09Z</time>
      </trkpt>
      <trkpt lat="44.47484" lon="6.70718">
        <ele>1952.4</ele>
        <time>2023-01-20T09:36:10Z</time>
      </trkpt>
      <trkpt lat="44.47483" lon="6.70718">
        <ele>1952.6</ele>
        <time>2023-01-20T09:36:11Z</time>
      </trkpt>
      <trkpt lat="44.47483" lon="6.70717">
        <ele>1952.8</ele>
        <time>2023-01-20T09:36:12Z</time>
      </trkpt>
      <trkpt lat="44.47482" lon="6.70716">
        <ele>1953.1</ele>
        <time>2023-01-20T09:36:13Z</time>
      </trkpt>
      <trkpt lat="44.47482" lon="6.70715">
        <ele>1953.3</ele>
        <time>2023-01-20T09:36:14Z</time>
      </trkpt>
      <trkpt lat="44.47481" lon="6.70715">
        <ele>1953.5</ele>
        <time>2023-01-20T09:36:15Z</time>
      </trkpt>
      <trkpt lat="44.4748" lon="6.70715">
        <ele>1953.7</ele>
        <time>2023-01-20T09:36:16Z</time>
      </trkpt>
      <trkpt lat="44.47479" lon="6.70714">
        <ele>1954</ele>
        <time>2023-01-20T09:36:17Z</time>
      </trkpt>
      <trkpt lat="44.47478" lon="6.70714">
        <ele>1954.2</ele>
        <time>2023-01-20T09:36:18Z</time>
      </trkpt>
      <trkpt lat="44.47478" lon="6.70713">
        <ele>1954.4</ele>
        <time>2023-01-20T09:36:19Z</time>
      </trkpt>
      <trkpt lat="44.47478" lon="6.70712">
        <ele>1954.7</ele>
        <time>2023-01-20T09:36:20Z</time>
      </trkpt>
      <trkpt lat="44.47477" lon="6.70712">
        <ele>1954.8</ele>
        <time>2023-01-20T09:36:21Z</time>
      </trkpt>
      <trkpt lat="44.47477" lon="6.70712">
        <ele>1955</ele>
        <time>2023-01-20T09:36:22Z</time>
      </trkpt>
      <trkpt lat="44.47476" lon="6.70711">
        <ele>1955.3</ele>
        <time>2023-01-20T09:36:23Z</time>
      </trkpt>
      <trkpt lat="44.47476" lon="6.7071">
        <ele>1955.4</ele>
        <time>2023-01-20T09:36:24Z</time>
      </trkpt>
      <trkpt lat="44.47476" lon="6.7071">
        <ele>1955.6</ele>
        <time>2023-01-20T09:36:25Z</time>
      </trkpt>
      <trkpt lat="44.47475" lon="6.70709">
        <ele>1956</ele>
        <time>2023-01-20T09:36:27Z</time>
      </trkpt>
      <trkpt lat="44.47474" lon="6.70709">
        <ele>1956.1</ele>
        <time>2023-01-20T09:36:28Z</time>
      </trkpt>
      <trkpt lat="44.47474" lon="6.70708">
        <ele>1956.3</ele>
        <time>2023-01-20T09:36:29Z</time>
      </trkpt>
      <trkpt lat="44.47473" lon="6.70708">
        <ele>1956.6</ele>
        <time>2023-01-20T09:36:31Z</time>
      </trkpt>
      <trkpt lat="44.47473" lon="6.70707">
        <ele>1956.7</ele>
        <time>2023-01-20T09:36:32Z</time>
      </trkpt>
      <trkpt lat="44.47473" lon="6.70707">
        <ele>1956.8</ele>
        <time>2023-01-20T09:36:33Z</time>
      </trkpt>
      <trkpt lat="44.47473" lon="6.70707">
        <ele>1956.9</ele>
        <time>2023-01-20T09:36:34Z</time>
      </trkpt>
      <trkpt lat="44.47472" lon="6.70707">
        <ele>1956.9</ele>
        <time>2023-01-20T09:36:35Z</time>
      </trkpt>
      <trkpt lat="44.47472" lon="6.70706">
        <ele>1957.1</ele>
        <time>2023-01-20T09:36:36Z</time>
      </trkpt>
      <trkpt lat="44.47472" lon="6.70706">
        <ele>1957.1</ele>
        <time>2023-01-20T09:36:37Z</time>
      </trkpt>
      <trkpt lat="44.47471" lon="6.70707">
        <ele>1957.1</ele>
        <time>2023-01-20T09:36:38Z</time>
      </trkpt>
      <trkpt lat="44.47471" lon="6.70707">
        <ele>1957.2</ele>
        <time>2023-01-20T09:36:39Z</time>
      </trkpt>
      <trkpt lat="44.4747" lon="6.70707">
        <ele>1957.1</ele>
        <time>2023-01-20T09:36:40Z</time>
      </trkpt>
      <trkpt lat="44.4747" lon="6.70707">
        <ele>1957.2</ele>
        <time>2023-01-20T09:36:41Z</time>
      </trkpt>
      <trkpt lat="44.4747" lon="6.70707">
        <ele>1957.2</ele>
        <time>2023-01-20T09:36:42Z</time>
      </trkpt>
      <trkpt lat="44.4747" lon="6.70707">
        <ele>1957.2</ele>
        <time>2023-01-20T09:36:43Z</time>
      </trkpt>
      <trkpt lat="44.47469" lon="6.70707">
        <ele>1957.3</ele>
        <time>2023-01-20T09:36:44Z</time>
      </trkpt>
      <trkpt lat="44.47469" lon="6.70707">
        <ele>1957.4</ele>
        <time>2023-01-20T09:36:45Z</time>
      </trkpt>
      <trkpt lat="44.47469" lon="6.70707">
        <ele>1957.5</ele>
        <time>2023-01-20T09:36:46Z</time>
      </trkpt>
      <trkpt lat="44.47468" lon="6.70706">
        <ele>1957.6</ele>
        <time>2023-01-20T09:36:47Z</time>
      </trkpt>
      <trkpt lat="44.47468" lon="6.70706">
        <ele>1957.8</ele>
        <time>2023-01-20T09:36:48Z</time>
      </trkpt>
      <trkpt lat="44.47468" lon="6.70706">
        <ele>1957.8</ele>
        <time>2023-01-20T09:36:49Z</time>
      </trkpt>
      <trkpt lat="44.47468" lon="6.70706">
        <ele>1957.9</ele>
        <time>2023-01-20T09:36:50Z</time>
      </trkpt>
      <trkpt lat="44.47468" lon="6.70705">
        <ele>1957.9</ele>
        <time>2023-01-20T09:36:51Z</time>
      </trkpt>
      <trkpt lat="44.47468" lon="6.70705">
        <ele>1958</ele>
        <time>2023-01-20T09:36:52Z</time>
      </trkpt>
      <trkpt lat="44.47468" lon="6.70705">
        <ele>1958.1</ele>
        <time>2023-01-20T09:36:53Z</time>
      </trkpt>
      <trkpt lat="44.47468" lon="6.70704">
        <ele>1958.2</ele>
        <time>2023-01-20T09:36:54Z</time>
      </trkpt>
      <trkpt lat="44.47468" lon="6.70704">
        <ele>1958.4</ele>
        <time>2023-01-20T09:36:55Z</time>
      </trkpt>
      <trkpt lat="44.47467" lon="6.70704">
        <ele>1958.4</ele>
        <time>2023-01-20T09:36:56Z</time>
      </trkpt>
      <trkpt lat="44.47466" lon="6.70705">
        <ele>1958.4</ele>
        <time>2023-01-20T09:36:57Z</time>
      </trkpt>
      <trkpt lat="44.47465" lon="6.70705">
        <ele>1958.5</ele>
        <time>2023-01-20T09:36:58Z</time>
      </trkpt>
      <trkpt lat="44.47465" lon="6.70705">
        <ele>1958.5</ele>
        <time>2023-01-20T09:36:59Z</time>
      </trkpt>
      <trkpt lat="44.47465" lon="6.70705">
        <ele>1958.6</ele>
        <time>2023-01-20T09:37:00Z</time>
      </trkpt>
      <trkpt lat="44.47465" lon="6.70705">
        <ele>1958.7</ele>
        <time>2023-01-20T09:37:01Z</time>
      </trkpt>
      <trkpt lat="44.47464" lon="6.70705">
        <ele>1958.8</ele>
        <time>2023-01-20T09:37:02Z</time>
      </trkpt>
      <trkpt lat="44.47463" lon="6.70704">
        <ele>1959</ele>
        <time>2023-01-20T09:37:03Z</time>
      </trkpt>
      <trkpt lat="44.47462" lon="6.70704">
        <ele>1959.2</ele>
        <time>2023-01-20T09:37:04Z</time>
      </trkpt>
      <trkpt lat="44.47462" lon="6.70704">
        <ele>1959.4</ele>
        <time>2023-01-20T09:37:05Z</time>
      </trkpt>
      <trkpt lat="44.47461" lon="6.70704">
        <ele>1959.5</ele>
        <time>2023-01-20T09:37:06Z</time>
      </trkpt>
      <trkpt lat="44.4746" lon="6.70704">
        <ele>1959.7</ele>
        <time>2023-01-20T09:37:07Z</time>
      </trkpt>
      <trkpt lat="44.4746" lon="6.70704">
        <ele>1959.7</ele>
        <time>2023-01-20T09:37:08Z</time>
      </trkpt>
      <trkpt lat="44.4746" lon="6.70704">
        <ele>1959.7</ele>
        <time>2023-01-20T09:37:09Z</time>
      </trkpt>
      <trkpt lat="44.4746" lon="6.70703">
        <ele>1959.7</ele>
        <time>2023-01-20T09:37:10Z</time>
      </trkpt>
      <trkpt lat="44.47461" lon="6.70703">
        <ele>1959.7</ele>
        <time>2023-01-20T09:37:11Z</time>
      </trkpt>
      <trkpt lat="44.47461" lon="6.70703">
        <ele>1959.7</ele>
        <time>2023-01-20T09:37:12Z</time>
      </trkpt>
      <trkpt lat="44.47462" lon="6.70701">
        <ele>1959.9</ele>
        <time>2023-01-20T09:37:14Z</time>
      </trkpt>
      <trkpt lat="44.47463" lon="6.70701">
        <ele>1960</ele>
        <time>2023-01-20T09:37:15Z</time>
      </trkpt>
      <trkpt lat="44.47463" lon="6.707">
        <ele>1960.1</ele>
        <time>2023-01-20T09:37:16Z</time>
      </trkpt>
      <trkpt lat="44.47464" lon="6.707">
        <ele>1960.1</ele>
        <time>2023-01-20T09:37:17Z</time>
      </trkpt>
      <trkpt lat="44.47464" lon="6.70699">
        <ele>1960.3</ele>
        <time>2023-01-20T09:37:18Z</time>
      </trkpt>
      <trkpt lat="44.47464" lon="6.70699">
        <ele>1960.4</ele>
        <time>2023-01-20T09:37:19Z</time>
      </trkpt>
      <trkpt lat="44.47464" lon="6.70699">
        <ele>1960.3</ele>
        <time>2023-01-20T09:37:20Z</time>
      </trkpt>
      <trkpt lat="44.47464" lon="6.70699">
        <ele>1960.4</ele>
        <time>2023-01-20T09:37:21Z</time>
      </trkpt>
      <trkpt lat="44.47464" lon="6.70699">
        <ele>1960.4</ele>
        <time>2023-01-20T09:37:22Z</time>
      </trkpt>
      <trkpt lat="44.47464" lon="6.70698">
        <ele>1960.4</ele>
        <time>2023-01-20T09:37:23Z</time>
      </trkpt>
      <trkpt lat="44.47464" lon="6.70698">
        <ele>1960.4</ele>
        <time>2023-01-20T09:37:24Z</time>
      </trkpt>
      <trkpt lat="44.47464" lon="6.70698">
        <ele>1960.5</ele>
        <time>2023-01-20T09:37:25Z</time>
      </trkpt>
      <trkpt lat="44.47465" lon="6.70697">
        <ele>1960.6</ele>
        <time>2023-01-20T09:37:26Z</time>
      </trkpt>
      <trkpt lat="44.47465" lon="6.70697">
        <ele>1960.6</ele>
        <time>2023-01-20T09:37:27Z</time>
      </trkpt>
      <trkpt lat="44.47465" lon="6.70697">
        <ele>1960.7</ele>
        <time>2023-01-20T09:37:28Z</time>
      </trkpt>
      <trkpt lat="44.47465" lon="6.70696">
        <ele>1960.8</ele>
        <time>2023-01-20T09:37:29Z</time>
      </trkpt>
      <trkpt lat="44.47466" lon="6.70696">
        <ele>1960.9</ele>
        <time>2023-01-20T09:37:30Z</time>
      </trkpt>
      <trkpt lat="44.47466" lon="6.70695">
        <ele>1961</ele>
        <time>2023-01-20T09:37:31Z</time>
      </trkpt>
      <trkpt lat="44.47466" lon="6.70694">
        <ele>1961.1</ele>
        <time>2023-01-20T09:37:32Z</time>
      </trkpt>
      <trkpt lat="44.47467" lon="6.70694">
        <ele>1961.1</ele>
        <time>2023-01-20T09:37:33Z</time>
      </trkpt>
      <trkpt lat="44.47468" lon="6.70692">
        <ele>1961.2</ele>
        <time>2023-01-20T09:37:34Z</time>
      </trkpt>
      <trkpt lat="44.47469" lon="6.70691">
        <ele>1961.4</ele>
        <time>2023-01-20T09:37:35Z</time>
      </trkpt>
      <trkpt lat="44.4747" lon="6.7069">
        <ele>1961.6</ele>
        <time>2023-01-20T09:37:36Z</time>
      </trkpt>
      <trkpt lat="44.47471" lon="6.70689">
        <ele>1961.6</ele>
        <time>2023-01-20T09:37:37Z</time>
      </trkpt>
      <trkpt lat="44.47472" lon="6.70689">
        <ele>1961.6</ele>
        <time>2023-01-20T09:37:38Z</time>
      </trkpt>
      <trkpt lat="44.47472" lon="6.70688">
        <ele>1961.7</ele>
        <time>2023-01-20T09:37:39Z</time>
      </trkpt>
      <trkpt lat="44.47474" lon="6.70687">
        <ele>1961.6</ele>
        <time>2023-01-20T09:37:40Z</time>
      </trkpt>
      <trkpt lat="44.47475" lon="6.70687">
        <ele>1961.6</ele>
        <time>2023-01-20T09:37:41Z</time>
      </trkpt>
      <trkpt lat="44.47475" lon="6.70687">
        <ele>1961.5</ele>
        <time>2023-01-20T09:37:42Z</time>
      </trkpt>
      <trkpt lat="44.47476" lon="6.70686">
        <ele>1961.4</ele>
        <time>2023-01-20T09:37:43Z</time>
      </trkpt>
      <trkpt lat="44.47477" lon="6.70686">
        <ele>1961.3</ele>
        <time>2023-01-20T09:37:44Z</time>
      </trkpt>
      <trkpt lat="44.47482" lon="6.70683">
        <ele>1961.3</ele>
        <time>2023-01-20T09:37:54Z</time>
      </trkpt>
      <trkpt lat="44.47482" lon="6.70683">
        <ele>1961.3</ele>
        <time>2023-01-20T09:37:55Z</time>
      </trkpt>
      <trkpt lat="44.47483" lon="6.70682">
        <ele>1961.3</ele>
        <time>2023-01-20T09:37:56Z</time>
      </trkpt>
      <trkpt lat="44.47484" lon="6.70682">
        <ele>1961.2</ele>
        <time>2023-01-20T09:37:57Z</time>
      </trkpt>
      <trkpt lat="44.47485" lon="6.70682">
        <ele>1961.2</ele>
        <time>2023-01-20T09:37:58Z</time>
      </trkpt>
      <trkpt lat="44.47486" lon="6.70682">
        <ele>1961.1</ele>
        <time>2023-01-20T09:37:59Z</time>
      </trkpt>
      <trkpt lat="44.47486" lon="6.70682">
        <ele>1961</ele>
        <time>2023-01-20T09:38:00Z</time>
      </trkpt>
      <trkpt lat="44.47487" lon="6.70682">
        <ele>1960.9</ele>
        <time>2023-01-20T09:38:01Z</time>
      </trkpt>
      <trkpt lat="44.47488" lon="6.70681">
        <ele>1960.8</ele>
        <time>2023-01-20T09:38:02Z</time>
      </trkpt>
      <trkpt lat="44.47489" lon="6.70681">
        <ele>1960.6</ele>
        <time>2023-01-20T09:38:03Z</time>
      </trkpt>
      <trkpt lat="44.4749" lon="6.70681">
        <ele>1960.6</ele>
        <time>2023-01-20T09:38:04Z</time>
      </trkpt>
      <trkpt lat="44.4749" lon="6.70681">
        <ele>1960.5</ele>
        <time>2023-01-20T09:38:05Z</time>
      </trkpt>
      <trkpt lat="44.47491" lon="6.70681">
        <ele>1960.2</ele>
        <time>2023-01-20T09:38:06Z</time>
      </trkpt>
      <trkpt lat="44.47493" lon="6.70681">
        <ele>1960</ele>
        <time>2023-01-20T09:38:07Z</time>
      </trkpt>
      <trkpt lat="44.47494" lon="6.70681">
        <ele>1959.9</ele>
        <time>2023-01-20T09:38:09Z</time>
      </trkpt>
      <trkpt lat="44.47496" lon="6.7068">
        <ele>1959.7</ele>
        <time>2023-01-20T09:38:12Z</time>
      </trkpt>
      <trkpt lat="44.47497" lon="6.70679">
        <ele>1959.7</ele>
        <time>2023-01-20T09:38:13Z</time>
      </trkpt>
      <trkpt lat="44.47497" lon="6.70679">
        <ele>1959.8</ele>
        <time>2023-01-20T09:38:14Z</time>
      </trkpt>
      <trkpt lat="44.47498" lon="6.70678">
        <ele>1959.9</ele>
        <time>2023-01-20T09:38:15Z</time>
      </trkpt>
      <trkpt lat="44.47498" lon="6.70678">
        <ele>1959.9</ele>
        <time>2023-01-20T09:38:16Z</time>
      </trkpt>
      <trkpt lat="44.47498" lon="6.70678">
        <ele>1959.8</ele>
        <time>2023-01-20T09:38:17Z</time>
      </trkpt>
      <trkpt lat="44.47499" lon="6.70678">
        <ele>1959.8</ele>
        <time>2023-01-20T09:38:18Z</time>
      </trkpt>
      <trkpt lat="44.47499" lon="6.70677">
        <ele>1959.8</ele>
        <time>2023-01-20T09:38:19Z</time>
      </trkpt>
      <trkpt lat="44.475" lon="6.70677">
        <ele>1959.8</ele>
        <time>2023-01-20T09:38:20Z</time>
      </trkpt>
      <trkpt lat="44.475" lon="6.70676">
        <ele>1959.8</ele>
        <time>2023-01-20T09:38:21Z</time>
      </trkpt>
      <trkpt lat="44.47501" lon="6.70676">
        <ele>1959.8</ele>
        <time>2023-01-20T09:38:22Z</time>
      </trkpt>
      <trkpt lat="44.47501" lon="6.70676">
        <ele>1959.8</ele>
        <time>2023-01-20T09:38:23Z</time>
      </trkpt>
      <trkpt lat="44.47502" lon="6.70676">
        <ele>1959.8</ele>
        <time>2023-01-20T09:38:24Z</time>
      </trkpt>
      <trkpt lat="44.47502" lon="6.70675">
        <ele>1959.9</ele>
        <time>2023-01-20T09:38:25Z</time>
      </trkpt>
      <trkpt lat="44.47503" lon="6.70675">
        <ele>1959.7</ele>
        <time>2023-01-20T09:38:26Z</time>
      </trkpt>
      <trkpt lat="44.47503" lon="6.70675">
        <ele>1959.8</ele>
        <time>2023-01-20T09:38:27Z</time>
      </trkpt>
      <trkpt lat="44.47504" lon="6.70674">
        <ele>1959.8</ele>
        <time>2023-01-20T09:38:28Z</time>
      </trkpt>
      <trkpt lat="44.47505" lon="6.70674">
        <ele>1959.6</ele>
        <time>2023-01-20T09:38:29Z</time>
      </trkpt>
      <trkpt lat="44.47506" lon="6.70673">
        <ele>1959.7</ele>
        <time>2023-01-20T09:38:30Z</time>
      </trkpt>
      <trkpt lat="44.47506" lon="6.70673">
        <ele>1959.8</ele>
        <time>2023-01-20T09:38:31Z</time>
      </trkpt>
      <trkpt lat="44.47507" lon="6.70672">
        <ele>1959.7</ele>
        <time>2023-01-20T09:38:32Z</time>
      </trkpt>
      <trkpt lat="44.47508" lon="6.70672">
        <ele>1959.6</ele>
        <time>2023-01-20T09:38:33Z</time>
      </trkpt>
      <trkpt lat="44.47509" lon="6.70672">
        <ele>1959.6</ele>
        <time>2023-01-20T09:38:34Z</time>
      </trkpt>
      <trkpt lat="44.4751" lon="6.70671">
        <ele>1959.6</ele>
        <time>2023-01-20T09:38:35Z</time>
      </trkpt>
      <trkpt lat="44.4751" lon="6.70671">
        <ele>1959.5</ele>
        <time>2023-01-20T09:38:36Z</time>
      </trkpt>
      <trkpt lat="44.47511" lon="6.70671">
        <ele>1959.3</ele>
        <time>2023-01-20T09:38:37Z</time>
      </trkpt>
      <trkpt lat="44.47512" lon="6.70671">
        <ele>1959.3</ele>
        <time>2023-01-20T09:38:38Z</time>
      </trkpt>
      <trkpt lat="44.47512" lon="6.70671">
        <ele>1959.3</ele>
        <time>2023-01-20T09:38:39Z</time>
      </trkpt>
      <trkpt lat="44.47512" lon="6.70671">
        <ele>1959.3</ele>
        <time>2023-01-20T09:38:40Z</time>
      </trkpt>
      <trkpt lat="44.47513" lon="6.7067">
        <ele>1959.3</ele>
        <time>2023-01-20T09:38:41Z</time>
      </trkpt>
      <trkpt lat="44.47514" lon="6.7067">
        <ele>1959.3</ele>
        <time>2023-01-20T09:38:42Z</time>
      </trkpt>
      <trkpt lat="44.47514" lon="6.70669">
        <ele>1959.3</ele>
        <time>2023-01-20T09:38:43Z</time>
      </trkpt>
      <trkpt lat="44.47514" lon="6.70669">
        <ele>1959.4</ele>
        <time>2023-01-20T09:38:44Z</time>
      </trkpt>
      <trkpt lat="44.47515" lon="6.70669">
        <ele>1959.4</ele>
        <time>2023-01-20T09:38:45Z</time>
      </trkpt>
      <trkpt lat="44.47515" lon="6.70668">
        <ele>1959.4</ele>
        <time>2023-01-20T09:38:46Z</time>
      </trkpt>
      <trkpt lat="44.47516" lon="6.70668">
        <ele>1959.4</ele>
        <time>2023-01-20T09:38:47Z</time>
      </trkpt>
      <trkpt lat="44.47517" lon="6.70668">
        <ele>1959.2</ele>
        <time>2023-01-20T09:38:48Z</time>
      </trkpt>
      <trkpt lat="44.47518" lon="6.70668">
        <ele>1959.1</ele>
        <time>2023-01-20T09:38:49Z</time>
      </trkpt>
      <trkpt lat="44.47519" lon="6.70668">
        <ele>1959</ele>
        <time>2023-01-20T09:38:50Z</time>
      </trkpt>
      <trkpt lat="44.47521" lon="6.70667">
        <ele>1958.9</ele>
        <time>2023-01-20T09:38:52Z</time>
      </trkpt>
      <trkpt lat="44.47521" lon="6.70666">
        <ele>1959</ele>
        <time>2023-01-20T09:38:53Z</time>
      </trkpt>
      <trkpt lat="44.47522" lon="6.70666">
        <ele>1959.1</ele>
        <time>2023-01-20T09:38:54Z</time>
      </trkpt>
      <trkpt lat="44.47523" lon="6.70665">
        <ele>1959.1</ele>
        <time>2023-01-20T09:38:55Z</time>
      </trkpt>
      <trkpt lat="44.47524" lon="6.70664">
        <ele>1959.2</ele>
        <time>2023-01-20T09:38:56Z</time>
      </trkpt>
      <trkpt lat="44.47524" lon="6.70664">
        <ele>1959.2</ele>
        <time>2023-01-20T09:38:57Z</time>
      </trkpt>
      <trkpt lat="44.47525" lon="6.70663">
        <ele>1959.1</ele>
        <time>2023-01-20T09:38:58Z</time>
      </trkpt>
      <trkpt lat="44.47526" lon="6.70663">
        <ele>1959</ele>
        <time>2023-01-20T09:38:59Z</time>
      </trkpt>
      <trkpt lat="44.47526" lon="6.70663">
        <ele>1959.1</ele>
        <time>2023-01-20T09:39:00Z</time>
      </trkpt>
      <trkpt lat="44.47527" lon="6.70662">
        <ele>1959.2</ele>
        <time>2023-01-20T09:39:01Z</time>
      </trkpt>
      <trkpt lat="44.47528" lon="6.70661">
        <ele>1959.2</ele>
        <time>2023-01-20T09:39:02Z</time>
      </trkpt>
      <trkpt lat="44.47528" lon="6.7066">
        <ele>1959.5</ele>
        <time>2023-01-20T09:39:03Z</time>
      </trkpt>
      <trkpt lat="44.47528" lon="6.70659">
        <ele>1959.6</ele>
        <time>2023-01-20T09:39:04Z</time>
      </trkpt>
      <trkpt lat="44.47529" lon="6.70658">
        <ele>1959.6</ele>
        <time>2023-01-20T09:39:05Z</time>
      </trkpt>
      <trkpt lat="44.4753" lon="6.70658">
        <ele>1959.6</ele>
        <time>2023-01-20T09:39:06Z</time>
      </trkpt>
      <trkpt lat="44.4753" lon="6.70657">
        <ele>1959.7</ele>
        <time>2023-01-20T09:39:07Z</time>
      </trkpt>
      <trkpt lat="44.4753" lon="6.70656">
        <ele>1959.8</ele>
        <time>2023-01-20T09:39:08Z</time>
      </trkpt>
      <trkpt lat="44.47531" lon="6.70656">
        <ele>1959.9</ele>
        <time>2023-01-20T09:39:09Z</time>
      </trkpt>
      <trkpt lat="44.47532" lon="6.70655">
        <ele>1959.8</ele>
        <time>2023-01-20T09:39:10Z</time>
      </trkpt>
      <trkpt lat="44.47532" lon="6.70655">
        <ele>1959.8</ele>
        <time>2023-01-20T09:39:11Z</time>
      </trkpt>
      <trkpt lat="44.47532" lon="6.70654">
        <ele>1959.8</ele>
        <time>2023-01-20T09:39:12Z</time>
      </trkpt>
      <trkpt lat="44.47533" lon="6.70653">
        <ele>1959.9</ele>
        <time>2023-01-20T09:39:13Z</time>
      </trkpt>
      <trkpt lat="44.47533" lon="6.70653">
        <ele>1960</ele>
        <time>2023-01-20T09:39:14Z</time>
      </trkpt>
      <trkpt lat="44.47534" lon="6.70653">
        <ele>1960</ele>
        <time>2023-01-20T09:39:15Z</time>
      </trkpt>
      <trkpt lat="44.47534" lon="6.70652">
        <ele>1960.1</ele>
        <time>2023-01-20T09:39:16Z</time>
      </trkpt>
      <trkpt lat="44.47535" lon="6.70652">
        <ele>1960</ele>
        <time>2023-01-20T09:39:17Z</time>
      </trkpt>
      <trkpt lat="44.47535" lon="6.70651">
        <ele>1960</ele>
        <time>2023-01-20T09:39:18Z</time>
      </trkpt>
      <trkpt lat="44.47535" lon="6.70651">
        <ele>1960.1</ele>
        <time>2023-01-20T09:39:19Z</time>
      </trkpt>
      <trkpt lat="44.47536" lon="6.7065">
        <ele>1960.1</ele>
        <time>2023-01-20T09:39:20Z</time>
      </trkpt>
      <trkpt lat="44.47536" lon="6.7065">
        <ele>1960.2</ele>
        <time>2023-01-20T09:39:21Z</time>
      </trkpt>
      <trkpt lat="44.47536" lon="6.70649">
        <ele>1960.2</ele>
        <time>2023-01-20T09:39:22Z</time>
      </trkpt>
      <trkpt lat="44.47537" lon="6.70649">
        <ele>1960.2</ele>
        <time>2023-01-20T09:39:23Z</time>
      </trkpt>
      <trkpt lat="44.47537" lon="6.70648">
        <ele>1960.3</ele>
        <time>2023-01-20T09:39:24Z</time>
      </trkpt>
      <trkpt lat="44.47538" lon="6.70648">
        <ele>1960.3</ele>
        <time>2023-01-20T09:39:25Z</time>
      </trkpt>
      <trkpt lat="44.47538" lon="6.70647">
        <ele>1960.4</ele>
        <time>2023-01-20T09:39:26Z</time>
      </trkpt>
      <trkpt lat="44.47538" lon="6.70647">
        <ele>1960.4</ele>
        <time>2023-01-20T09:39:27Z</time>
      </trkpt>
      <trkpt lat="44.47539" lon="6.70646">
        <ele>1960.4</ele>
        <time>2023-01-20T09:39:28Z</time>
      </trkpt>
      <trkpt lat="44.47539" lon="6.70646">
        <ele>1960.4</ele>
        <time>2023-01-20T09:39:29Z</time>
      </trkpt>
      <trkpt lat="44.4754" lon="6.70646">
        <ele>1960.4</ele>
        <time>2023-01-20T09:39:30Z</time>
      </trkpt>
      <trkpt lat="44.4754" lon="6.70645">
        <ele>1960.4</ele>
        <time>2023-01-20T09:39:31Z</time>
      </trkpt>
      <trkpt lat="44.47541" lon="6.70645">
        <ele>1960.4</ele>
        <time>2023-01-20T09:39:32Z</time>
      </trkpt>
      <trkpt lat="44.47541" lon="6.70644">
        <ele>1960.5</ele>
        <time>2023-01-20T09:39:33Z</time>
      </trkpt>
      <trkpt lat="44.47542" lon="6.70643">
        <ele>1960.5</ele>
        <time>2023-01-20T09:39:34Z</time>
      </trkpt>
      <trkpt lat="44.47542" lon="6.70642">
        <ele>1960.7</ele>
        <time>2023-01-20T09:39:35Z</time>
      </trkpt>
      <trkpt lat="44.47543" lon="6.70641">
        <ele>1960.8</ele>
        <time>2023-01-20T09:39:36Z</time>
      </trkpt>
      <trkpt lat="44.47543" lon="6.70641">
        <ele>1960.9</ele>
        <time>2023-01-20T09:39:37Z</time>
      </trkpt>
      <trkpt lat="44.47543" lon="6.7064">
        <ele>1960.9</ele>
        <time>2023-01-20T09:39:38Z</time>
      </trkpt>
      <trkpt lat="44.47543" lon="6.7064">
        <ele>1960.9</ele>
        <time>2023-01-20T09:39:39Z</time>
      </trkpt>
      <trkpt lat="44.47543" lon="6.7064">
        <ele>1961</ele>
        <time>2023-01-20T09:39:40Z</time>
      </trkpt>
      <trkpt lat="44.47544" lon="6.70639">
        <ele>1961.1</ele>
        <time>2023-01-20T09:39:41Z</time>
      </trkpt>
      <trkpt lat="44.47544" lon="6.70639">
        <ele>1961.2</ele>
        <time>2023-01-20T09:39:42Z</time>
      </trkpt>
      <trkpt lat="44.47544" lon="6.70638">
        <ele>1961.2</ele>
        <time>2023-01-20T09:39:43Z</time>
      </trkpt>
      <trkpt lat="44.47544" lon="6.70637">
        <ele>1961.4</ele>
        <time>2023-01-20T09:39:44Z</time>
      </trkpt>
      <trkpt lat="44.47544" lon="6.70637">
        <ele>1961.6</ele>
        <time>2023-01-20T09:39:45Z</time>
      </trkpt>
      <trkpt lat="44.47544" lon="6.70636">
        <ele>1961.6</ele>
        <time>2023-01-20T09:39:46Z</time>
      </trkpt>
      <trkpt lat="44.47544" lon="6.70636">
        <ele>1961.7</ele>
        <time>2023-01-20T09:39:47Z</time>
      </trkpt>
      <trkpt lat="44.47545" lon="6.70635">
        <ele>1961.6</ele>
        <time>2023-01-20T09:39:48Z</time>
      </trkpt>
      <trkpt lat="44.47546" lon="6.70635">
        <ele>1961.6</ele>
        <time>2023-01-20T09:39:49Z</time>
      </trkpt>
      <trkpt lat="44.47545" lon="6.70634">
        <ele>1961.9</ele>
        <time>2023-01-20T09:39:50Z</time>
      </trkpt>
      <trkpt lat="44.47546" lon="6.70633">
        <ele>1962</ele>
        <time>2023-01-20T09:39:51Z</time>
      </trkpt>
      <trkpt lat="44.47546" lon="6.70633">
        <ele>1962</ele>
        <time>2023-01-20T09:39:52Z</time>
      </trkpt>
      <trkpt lat="44.47545" lon="6.70633">
        <ele>1962.1</ele>
        <time>2023-01-20T09:39:53Z</time>
      </trkpt>
      <trkpt lat="44.47545" lon="6.70632">
        <ele>1962.2</ele>
        <time>2023-01-20T09:39:54Z</time>
      </trkpt>
      <trkpt lat="44.47545" lon="6.70632">
        <ele>1962.3</ele>
        <time>2023-01-20T09:39:55Z</time>
      </trkpt>
      <trkpt lat="44.47545" lon="6.70631">
        <ele>1962.4</ele>
        <time>2023-01-20T09:39:56Z</time>
      </trkpt>
      <trkpt lat="44.47545" lon="6.70631">
        <ele>1962.5</ele>
        <time>2023-01-20T09:39:57Z</time>
      </trkpt>
      <trkpt lat="44.47545" lon="6.70631">
        <ele>1962.6</ele>
        <time>2023-01-20T09:39:58Z</time>
      </trkpt>
      <trkpt lat="44.47545" lon="6.7063">
        <ele>1962.7</ele>
        <time>2023-01-20T09:39:59Z</time>
      </trkpt>
      <trkpt lat="44.47546" lon="6.7063">
        <ele>1962.6</ele>
        <time>2023-01-20T09:40:00Z</time>
      </trkpt>
      <trkpt lat="44.47546" lon="6.70629">
        <ele>1962.8</ele>
        <time>2023-01-20T09:40:01Z</time>
      </trkpt>
      <trkpt lat="44.47546" lon="6.70628">
        <ele>1963</ele>
        <time>2023-01-20T09:40:02Z</time>
      </trkpt>
      <trkpt lat="44.47546" lon="6.70627">
        <ele>1963.2</ele>
        <time>2023-01-20T09:40:03Z</time>
      </trkpt>
      <trkpt lat="44.47546" lon="6.70626">
        <ele>1963.4</ele>
        <time>2023-01-20T09:40:04Z</time>
      </trkpt>
      <trkpt lat="44.47547" lon="6.70625">
        <ele>1963.5</ele>
        <time>2023-01-20T09:40:05Z</time>
      </trkpt>
      <trkpt lat="44.47547" lon="6.70624">
        <ele>1963.8</ele>
        <time>2023-01-20T09:40:06Z</time>
      </trkpt>
      <trkpt lat="44.47547" lon="6.70623">
        <ele>1963.9</ele>
        <time>2023-01-20T09:40:07Z</time>
      </trkpt>
      <trkpt lat="44.47548" lon="6.70622">
        <ele>1964.1</ele>
        <time>2023-01-20T09:40:08Z</time>
      </trkpt>
      <trkpt lat="44.47548" lon="6.70621">
        <ele>1964.2</ele>
        <time>2023-01-20T09:40:09Z</time>
      </trkpt>
      <trkpt lat="44.47548" lon="6.7062">
        <ele>1964.3</ele>
        <time>2023-01-20T09:40:10Z</time>
      </trkpt>
      <trkpt lat="44.47548" lon="6.7062">
        <ele>1964.4</ele>
        <time>2023-01-20T09:40:11Z</time>
      </trkpt>
      <trkpt lat="44.47549" lon="6.70619">
        <ele>1964.5</ele>
        <time>2023-01-20T09:40:12Z</time>
      </trkpt>
      <trkpt lat="44.47549" lon="6.70618">
        <ele>1964.6</ele>
        <time>2023-01-20T09:40:13Z</time>
      </trkpt>
      <trkpt lat="44.47549" lon="6.70617">
        <ele>1964.8</ele>
        <time>2023-01-20T09:40:14Z</time>
      </trkpt>
      <trkpt lat="44.47549" lon="6.70617">
        <ele>1965</ele>
        <time>2023-01-20T09:40:15Z</time>
      </trkpt>
      <trkpt lat="44.47549" lon="6.70616">
        <ele>1965.2</ele>
        <time>2023-01-20T09:40:16Z</time>
      </trkpt>
      <trkpt lat="44.47549" lon="6.70615">
        <ele>1965.4</ele>
        <time>2023-01-20T09:40:17Z</time>
      </trkpt>
      <trkpt lat="44.47549" lon="6.70614">
        <ele>1965.6</ele>
        <time>2023-01-20T09:40:18Z</time>
      </trkpt>
      <trkpt lat="44.47548" lon="6.70614">
        <ele>1965.8</ele>
        <time>2023-01-20T09:40:19Z</time>
      </trkpt>
      <trkpt lat="44.47547" lon="6.70614">
        <ele>1965.9</ele>
        <time>2023-01-20T09:40:20Z</time>
      </trkpt>
      <trkpt lat="44.47547" lon="6.70613">
        <ele>1966.1</ele>
        <time>2023-01-20T09:40:21Z</time>
      </trkpt>
      <trkpt lat="44.47546" lon="6.70613">
        <ele>1966.3</ele>
        <time>2023-01-20T09:40:22Z</time>
      </trkpt>
      <trkpt lat="44.47545" lon="6.70612">
        <ele>1966.6</ele>
        <time>2023-01-20T09:40:23Z</time>
      </trkpt>
      <trkpt lat="44.47544" lon="6.70612">
        <ele>1966.8</ele>
        <time>2023-01-20T09:40:24Z</time>
      </trkpt>
      <trkpt lat="44.47544" lon="6.70612">
        <ele>1967</ele>
        <time>2023-01-20T09:40:25Z</time>
      </trkpt>
      <trkpt lat="44.47543" lon="6.70612">
        <ele>1967.1</ele>
        <time>2023-01-20T09:40:26Z</time>
      </trkpt>
      <trkpt lat="44.47542" lon="6.70612">
        <ele>1967.2</ele>
        <time>2023-01-20T09:40:27Z</time>
      </trkpt>
      <trkpt lat="44.47541" lon="6.70612">
        <ele>1967.4</ele>
        <time>2023-01-20T09:40:28Z</time>
      </trkpt>
      <trkpt lat="44.47541" lon="6.70611">
        <ele>1967.6</ele>
        <time>2023-01-20T09:40:29Z</time>
      </trkpt>
      <trkpt lat="44.4754" lon="6.70611">
        <ele>1967.8</ele>
        <time>2023-01-20T09:40:30Z</time>
      </trkpt>
      <trkpt lat="44.47539" lon="6.70611">
        <ele>1968</ele>
        <time>2023-01-20T09:40:31Z</time>
      </trkpt>
      <trkpt lat="44.47538" lon="6.7061">
        <ele>1968.2</ele>
        <time>2023-01-20T09:40:32Z</time>
      </trkpt>
      <trkpt lat="44.47538" lon="6.7061">
        <ele>1968.4</ele>
        <time>2023-01-20T09:40:33Z</time>
      </trkpt>
      <trkpt lat="44.47537" lon="6.7061">
        <ele>1968.6</ele>
        <time>2023-01-20T09:40:34Z</time>
      </trkpt>
      <trkpt lat="44.47536" lon="6.7061">
        <ele>1968.7</ele>
        <time>2023-01-20T09:40:35Z</time>
      </trkpt>
      <trkpt lat="44.47536" lon="6.70609">
        <ele>1968.9</ele>
        <time>2023-01-20T09:40:36Z</time>
      </trkpt>
      <trkpt lat="44.47535" lon="6.70609">
        <ele>1969.1</ele>
        <time>2023-01-20T09:40:37Z</time>
      </trkpt>
      <trkpt lat="44.47535" lon="6.70609">
        <ele>1969.2</ele>
        <time>2023-01-20T09:40:38Z</time>
      </trkpt>
      <trkpt lat="44.47534" lon="6.70609">
        <ele>1969.3</ele>
        <time>2023-01-20T09:40:39Z</time>
      </trkpt>
      <trkpt lat="44.47533" lon="6.70609">
        <ele>1969.5</ele>
        <time>2023-01-20T09:40:40Z</time>
      </trkpt>
      <trkpt lat="44.47532" lon="6.70609">
        <ele>1969.7</ele>
        <time>2023-01-20T09:40:41Z</time>
      </trkpt>
      <trkpt lat="44.47531" lon="6.70609">
        <ele>1969.8</ele>
        <time>2023-01-20T09:40:42Z</time>
      </trkpt>
      <trkpt lat="44.4753" lon="6.70607">
        <ele>1970.2</ele>
        <time>2023-01-20T09:40:43Z</time>
      </trkpt>
      <trkpt lat="44.4753" lon="6.70607">
        <ele>1970.4</ele>
        <time>2023-01-20T09:40:44Z</time>
      </trkpt>
      <trkpt lat="44.4753" lon="6.70606">
        <ele>1970.6</ele>
        <time>2023-01-20T09:40:45Z</time>
      </trkpt>
      <trkpt lat="44.47529" lon="6.70606">
        <ele>1970.7</ele>
        <time>2023-01-20T09:40:46Z</time>
      </trkpt>
      <trkpt lat="44.47529" lon="6.70605">
        <ele>1970.9</ele>
        <time>2023-01-20T09:40:47Z</time>
      </trkpt>
      <trkpt lat="44.47528" lon="6.70605">
        <ele>1971</ele>
        <time>2023-01-20T09:40:48Z</time>
      </trkpt>
      <trkpt lat="44.47528" lon="6.70604">
        <ele>1971.3</ele>
        <time>2023-01-20T09:40:49Z</time>
      </trkpt>
      <trkpt lat="44.47527" lon="6.70604">
        <ele>1971.4</ele>
        <time>2023-01-20T09:40:50Z</time>
      </trkpt>
      <trkpt lat="44.47526" lon="6.70604">
        <ele>1971.6</ele>
        <time>2023-01-20T09:40:51Z</time>
      </trkpt>
      <trkpt lat="44.47526" lon="6.70603">
        <ele>1971.7</ele>
        <time>2023-01-20T09:40:52Z</time>
      </trkpt>
      <trkpt lat="44.47525" lon="6.70603">
        <ele>1971.9</ele>
        <time>2023-01-20T09:40:53Z</time>
      </trkpt>
      <trkpt lat="44.47525" lon="6.70603">
        <ele>1972.1</ele>
        <time>2023-01-20T09:40:54Z</time>
      </trkpt>
      <trkpt lat="44.47525" lon="6.70602">
        <ele>1972.2</ele>
        <time>2023-01-20T09:40:55Z</time>
      </trkpt>
      <trkpt lat="44.47524" lon="6.70602">
        <ele>1972.3</ele>
        <time>2023-01-20T09:40:56Z</time>
      </trkpt>
      <trkpt lat="44.47524" lon="6.70602">
        <ele>1972.4</ele>
        <time>2023-01-20T09:40:57Z</time>
      </trkpt>
      <trkpt lat="44.47523" lon="6.70603">
        <ele>1972.4</ele>
        <time>2023-01-20T09:40:58Z</time>
      </trkpt>
      <trkpt lat="44.47522" lon="6.70603">
        <ele>1972.5</ele>
        <time>2023-01-20T09:40:59Z</time>
      </trkpt>
      <trkpt lat="44.47522" lon="6.70603">
        <ele>1972.6</ele>
        <time>2023-01-20T09:41:00Z</time>
      </trkpt>
      <trkpt lat="44.47522" lon="6.70603">
        <ele>1972.6</ele>
        <time>2023-01-20T09:41:01Z</time>
      </trkpt>
      <trkpt lat="44.47521" lon="6.70604">
        <ele>1972.6</ele>
        <time>2023-01-20T09:41:02Z</time>
      </trkpt>
      <trkpt lat="44.4752" lon="6.70604">
        <ele>1972.7</ele>
        <time>2023-01-20T09:41:03Z</time>
      </trkpt>
      <trkpt lat="44.4752" lon="6.70604">
        <ele>1972.7</ele>
        <time>2023-01-20T09:41:04Z</time>
      </trkpt>
      <trkpt lat="44.4752" lon="6.70605">
        <ele>1972.7</ele>
        <time>2023-01-20T09:41:05Z</time>
      </trkpt>
      <trkpt lat="44.47519" lon="6.70605">
        <ele>1972.7</ele>
        <time>2023-01-20T09:41:06Z</time>
      </trkpt>
      <trkpt lat="44.47518" lon="6.70606">
        <ele>1972.7</ele>
        <time>2023-01-20T09:41:07Z</time>
      </trkpt>
      <trkpt lat="44.47518" lon="6.70607">
        <ele>1972.6</ele>
        <time>2023-01-20T09:41:08Z</time>
      </trkpt>
      <trkpt lat="44.47518" lon="6.70607">
        <ele>1972.7</ele>
        <time>2023-01-20T09:41:09Z</time>
      </trkpt>
      <trkpt lat="44.47517" lon="6.70607">
        <ele>1972.7</ele>
        <time>2023-01-20T09:41:10Z</time>
      </trkpt>
      <trkpt lat="44.47517" lon="6.70607">
        <ele>1972.8</ele>
        <time>2023-01-20T09:41:11Z</time>
      </trkpt>
      <trkpt lat="44.47516" lon="6.70607">
        <ele>1972.8</ele>
        <time>2023-01-20T09:41:12Z</time>
      </trkpt>
      <trkpt lat="44.47516" lon="6.70607">
        <ele>1972.9</ele>
        <time>2023-01-20T09:41:13Z</time>
      </trkpt>
      <trkpt lat="44.47516" lon="6.70606">
        <ele>1973.1</ele>
        <time>2023-01-20T09:41:14Z</time>
      </trkpt>
      <trkpt lat="44.47516" lon="6.70606">
        <ele>1973.2</ele>
        <time>2023-01-20T09:41:15Z</time>
      </trkpt>
      <trkpt lat="44.47516" lon="6.70605">
        <ele>1973.3</ele>
        <time>2023-01-20T09:41:16Z</time>
      </trkpt>
      <trkpt lat="44.47516" lon="6.70604">
        <ele>1973.5</ele>
        <time>2023-01-20T09:41:17Z</time>
      </trkpt>
      <trkpt lat="44.47516" lon="6.70604">
        <ele>1973.5</ele>
        <time>2023-01-20T09:41:18Z</time>
      </trkpt>
      <trkpt lat="44.47517" lon="6.70603">
        <ele>1973.5</ele>
        <time>2023-01-20T09:41:19Z</time>
      </trkpt>
      <trkpt lat="44.47518" lon="6.70602">
        <ele>1973.5</ele>
        <time>2023-01-20T09:41:20Z</time>
      </trkpt>
      <trkpt lat="44.47518" lon="6.70602">
        <ele>1973.6</ele>
        <time>2023-01-20T09:41:21Z</time>
      </trkpt>
      <trkpt lat="44.47518" lon="6.70601">
        <ele>1973.7</ele>
        <time>2023-01-20T09:41:22Z</time>
      </trkpt>
      <trkpt lat="44.47518" lon="6.70601">
        <ele>1973.7</ele>
        <time>2023-01-20T09:41:23Z</time>
      </trkpt>
      <trkpt lat="44.47519" lon="6.706">
        <ele>1973.7</ele>
        <time>2023-01-20T09:41:24Z</time>
      </trkpt>
      <trkpt lat="44.47519" lon="6.706">
        <ele>1973.8</ele>
        <time>2023-01-20T09:41:25Z</time>
      </trkpt>
      <trkpt lat="44.47519" lon="6.70599">
        <ele>1973.9</ele>
        <time>2023-01-20T09:41:26Z</time>
      </trkpt>
      <trkpt lat="44.4752" lon="6.70598">
        <ele>1974</ele>
        <time>2023-01-20T09:41:27Z</time>
      </trkpt>
      <trkpt lat="44.4752" lon="6.70597">
        <ele>1974</ele>
        <time>2023-01-20T09:41:28Z</time>
      </trkpt>
      <trkpt lat="44.4752" lon="6.70596">
        <ele>1974.2</ele>
        <time>2023-01-20T09:41:29Z</time>
      </trkpt>
      <trkpt lat="44.4752" lon="6.70596">
        <ele>1974.4</ele>
        <time>2023-01-20T09:41:30Z</time>
      </trkpt>
      <trkpt lat="44.4752" lon="6.70595">
        <ele>1974.5</ele>
        <time>2023-01-20T09:41:31Z</time>
      </trkpt>
      <trkpt lat="44.4752" lon="6.70594">
        <ele>1974.6</ele>
        <time>2023-01-20T09:41:32Z</time>
      </trkpt>
      <trkpt lat="44.4752" lon="6.70594">
        <ele>1974.8</ele>
        <time>2023-01-20T09:41:33Z</time>
      </trkpt>
      <trkpt lat="44.4752" lon="6.70593">
        <ele>1974.9</ele>
        <time>2023-01-20T09:41:34Z</time>
      </trkpt>
      <trkpt lat="44.47519" lon="6.70592">
        <ele>1975.1</ele>
        <time>2023-01-20T09:41:35Z</time>
      </trkpt>
      <trkpt lat="44.47519" lon="6.70592">
        <ele>1975.3</ele>
        <time>2023-01-20T09:41:36Z</time>
      </trkpt>
      <trkpt lat="44.47518" lon="6.70591">
        <ele>1975.6</ele>
        <time>2023-01-20T09:41:37Z</time>
      </trkpt>
      <trkpt lat="44.47518" lon="6.7059">
        <ele>1975.8</ele>
        <time>2023-01-20T09:41:38Z</time>
      </trkpt>
      <trkpt lat="44.47518" lon="6.7059">
        <ele>1976</ele>
        <time>2023-01-20T09:41:39Z</time>
      </trkpt>
      <trkpt lat="44.47517" lon="6.70589">
        <ele>1976.2</ele>
        <time>2023-01-20T09:41:40Z</time>
      </trkpt>
      <trkpt lat="44.47517" lon="6.70588">
        <ele>1976.4</ele>
        <time>2023-01-20T09:41:41Z</time>
      </trkpt>
      <trkpt lat="44.47517" lon="6.70588">
        <ele>1976.5</ele>
        <time>2023-01-20T09:41:42Z</time>
      </trkpt>
      <trkpt lat="44.47517" lon="6.70587">
        <ele>1976.7</ele>
        <time>2023-01-20T09:41:43Z</time>
      </trkpt>
      <trkpt lat="44.47517" lon="6.70586">
        <ele>1976.8</ele>
        <time>2023-01-20T09:41:44Z</time>
      </trkpt>
      <trkpt lat="44.47517" lon="6.70585">
        <ele>1976.9</ele>
        <time>2023-01-20T09:41:45Z</time>
      </trkpt>
      <trkpt lat="44.47517" lon="6.70584">
        <ele>1977.1</ele>
        <time>2023-01-20T09:41:46Z</time>
      </trkpt>
      <trkpt lat="44.47517" lon="6.70584">
        <ele>1977.2</ele>
        <time>2023-01-20T09:41:47Z</time>
      </trkpt>
      <trkpt lat="44.47518" lon="6.70583">
        <ele>1977.3</ele>
        <time>2023-01-20T09:41:48Z</time>
      </trkpt>
      <trkpt lat="44.47518" lon="6.70582">
        <ele>1977.4</ele>
        <time>2023-01-20T09:41:49Z</time>
      </trkpt>
      <trkpt lat="44.47518" lon="6.70581">
        <ele>1977.5</ele>
        <time>2023-01-20T09:41:50Z</time>
      </trkpt>
      <trkpt lat="44.47518" lon="6.70581">
        <ele>1977.5</ele>
        <time>2023-01-20T09:41:51Z</time>
      </trkpt>
      <trkpt lat="44.47519" lon="6.7058">
        <ele>1977.6</ele>
        <time>2023-01-20T09:41:52Z</time>
      </trkpt>
      <trkpt lat="44.47519" lon="6.70579">
        <ele>1977.7</ele>
        <time>2023-01-20T09:41:53Z</time>
      </trkpt>
      <trkpt lat="44.47519" lon="6.70578">
        <ele>1977.8</ele>
        <time>2023-01-20T09:41:54Z</time>
      </trkpt>
      <trkpt lat="44.4752" lon="6.70577">
        <ele>1977.8</ele>
        <time>2023-01-20T09:41:55Z</time>
      </trkpt>
      <trkpt lat="44.4752" lon="6.70577">
        <ele>1977.9</ele>
        <time>2023-01-20T09:41:56Z</time>
      </trkpt>
      <trkpt lat="44.4752" lon="6.70576">
        <ele>1977.9</ele>
        <time>2023-01-20T09:41:57Z</time>
      </trkpt>
      <trkpt lat="44.47521" lon="6.70575">
        <ele>1978</ele>
        <time>2023-01-20T09:41:58Z</time>
      </trkpt>
      <trkpt lat="44.47521" lon="6.70575">
        <ele>1978</ele>
        <time>2023-01-20T09:41:59Z</time>
      </trkpt>
      <trkpt lat="44.47521" lon="6.70574">
        <ele>1978</ele>
        <time>2023-01-20T09:42:00Z</time>
      </trkpt>
      <trkpt lat="44.47522" lon="6.70573">
        <ele>1978.1</ele>
        <time>2023-01-20T09:42:01Z</time>
      </trkpt>
      <trkpt lat="44.47522" lon="6.70572">
        <ele>1978.1</ele>
        <time>2023-01-20T09:42:02Z</time>
      </trkpt>
      <trkpt lat="44.47522" lon="6.70572">
        <ele>1978.2</ele>
        <time>2023-01-20T09:42:03Z</time>
      </trkpt>
      <trkpt lat="44.47523" lon="6.70572">
        <ele>1978.1</ele>
        <time>2023-01-20T09:42:04Z</time>
      </trkpt>
      <trkpt lat="44.47523" lon="6.70572">
        <ele>1978.1</ele>
        <time>2023-01-20T09:42:05Z</time>
      </trkpt>
      <trkpt lat="44.47523" lon="6.70572">
        <ele>1978.2</ele>
        <time>2023-01-20T09:42:06Z</time>
      </trkpt>
      <trkpt lat="44.47523" lon="6.70572">
        <ele>1978.2</ele>
        <time>2023-01-20T09:42:07Z</time>
      </trkpt>
      <trkpt lat="44.47523" lon="6.70572">
        <ele>1978.2</ele>
        <time>2023-01-20T09:42:08Z</time>
      </trkpt>
      <trkpt lat="44.47523" lon="6.70572">
        <ele>1978.2</ele>
        <time>2023-01-20T09:42:09Z</time>
      </trkpt>
      <trkpt lat="44.47523" lon="6.70572">
        <ele>1978.1</ele>
        <time>2023-01-20T09:42:10Z</time>
      </trkpt>
      <trkpt lat="44.47523" lon="6.70572">
        <ele>1978.1</ele>
        <time>2023-01-20T09:42:11Z</time>
      </trkpt>
      <trkpt lat="44.47523" lon="6.70571">
        <ele>1978.2</ele>
        <time>2023-01-20T09:42:12Z</time>
      </trkpt>
      <trkpt lat="44.47524" lon="6.7057">
        <ele>1978.2</ele>
        <time>2023-01-20T09:42:13Z</time>
      </trkpt>
      <trkpt lat="44.47524" lon="6.7057">
        <ele>1978.3</ele>
        <time>2023-01-20T09:42:14Z</time>
      </trkpt>
      <trkpt lat="44.47524" lon="6.70569">
        <ele>1978.4</ele>
        <time>2023-01-20T09:42:15Z</time>
      </trkpt>
      <trkpt lat="44.47524" lon="6.70568">
        <ele>1978.4</ele>
        <time>2023-01-20T09:42:16Z</time>
      </trkpt>
      <trkpt lat="44.47525" lon="6.70567">
        <ele>1978.5</ele>
        <time>2023-01-20T09:42:17Z</time>
      </trkpt>
      <trkpt lat="44.47525" lon="6.70567">
        <ele>1978.6</ele>
        <time>2023-01-20T09:42:18Z</time>
      </trkpt>
      <trkpt lat="44.47525" lon="6.70566">
        <ele>1978.7</ele>
        <time>2023-01-20T09:42:19Z</time>
      </trkpt>
      <trkpt lat="44.47525" lon="6.70566">
        <ele>1978.7</ele>
        <time>2023-01-20T09:42:20Z</time>
      </trkpt>
      <trkpt lat="44.47526" lon="6.70565">
        <ele>1978.7</ele>
        <time>2023-01-20T09:42:21Z</time>
      </trkpt>
      <trkpt lat="44.47526" lon="6.70565">
        <ele>1978.7</ele>
        <time>2023-01-20T09:42:22Z</time>
      </trkpt>
      <trkpt lat="44.47527" lon="6.70564">
        <ele>1978.7</ele>
        <time>2023-01-20T09:42:23Z</time>
      </trkpt>
      <trkpt lat="44.47527" lon="6.70563">
        <ele>1978.8</ele>
        <time>2023-01-20T09:42:24Z</time>
      </trkpt>
      <trkpt lat="44.47527" lon="6.70563">
        <ele>1978.8</ele>
        <time>2023-01-20T09:42:25Z</time>
      </trkpt>
      <trkpt lat="44.47528" lon="6.70562">
        <ele>1978.8</ele>
        <time>2023-01-20T09:42:26Z</time>
      </trkpt>
      <trkpt lat="44.47528" lon="6.70562">
        <ele>1978.8</ele>
        <time>2023-01-20T09:42:27Z</time>
      </trkpt>
      <trkpt lat="44.47528" lon="6.70562">
        <ele>1978.8</ele>
        <time>2023-01-20T09:42:28Z</time>
      </trkpt>
      <trkpt lat="44.47529" lon="6.70561">
        <ele>1978.9</ele>
        <time>2023-01-20T09:42:29Z</time>
      </trkpt>
      <trkpt lat="44.47529" lon="6.70561">
        <ele>1978.9</ele>
        <time>2023-01-20T09:42:30Z</time>
      </trkpt>
      <trkpt lat="44.47529" lon="6.7056">
        <ele>1979</ele>
        <time>2023-01-20T09:42:31Z</time>
      </trkpt>
      <trkpt lat="44.4753" lon="6.70559">
        <ele>1979</ele>
        <time>2023-01-20T09:42:32Z</time>
      </trkpt>
      <trkpt lat="44.4753" lon="6.70559">
        <ele>1979</ele>
        <time>2023-01-20T09:42:33Z</time>
      </trkpt>
      <trkpt lat="44.4753" lon="6.70558">
        <ele>1979.1</ele>
        <time>2023-01-20T09:42:34Z</time>
      </trkpt>
      <trkpt lat="44.47531" lon="6.70557">
        <ele>1979.2</ele>
        <time>2023-01-20T09:42:35Z</time>
      </trkpt>
      <trkpt lat="44.47531" lon="6.70557">
        <ele>1979.3</ele>
        <time>2023-01-20T09:42:36Z</time>
      </trkpt>
      <trkpt lat="44.47531" lon="6.70556">
        <ele>1979.4</ele>
        <time>2023-01-20T09:42:37Z</time>
      </trkpt>
      <trkpt lat="44.47531" lon="6.70555">
        <ele>1979.5</ele>
        <time>2023-01-20T09:42:38Z</time>
      </trkpt>
      <trkpt lat="44.47531" lon="6.70555">
        <ele>1979.6</ele>
        <time>2023-01-20T09:42:39Z</time>
      </trkpt>
      <trkpt lat="44.47531" lon="6.70554">
        <ele>1979.6</ele>
        <time>2023-01-20T09:42:40Z</time>
      </trkpt>
      <trkpt lat="44.47531" lon="6.70553">
        <ele>1979.8</ele>
        <time>2023-01-20T09:42:41Z</time>
      </trkpt>
      <trkpt lat="44.47531" lon="6.70552">
        <ele>1980</ele>
        <time>2023-01-20T09:42:42Z</time>
      </trkpt>
      <trkpt lat="44.47531" lon="6.70551">
        <ele>1980.2</ele>
        <time>2023-01-20T09:42:43Z</time>
      </trkpt>
      <trkpt lat="44.4753" lon="6.7055">
        <ele>1980.3</ele>
        <time>2023-01-20T09:42:44Z</time>
      </trkpt>
      <trkpt lat="44.4753" lon="6.70549">
        <ele>1980.5</ele>
        <time>2023-01-20T09:42:45Z</time>
      </trkpt>
      <trkpt lat="44.47529" lon="6.70549">
        <ele>1980.7</ele>
        <time>2023-01-20T09:42:46Z</time>
      </trkpt>
      <trkpt lat="44.47529" lon="6.70548">
        <ele>1980.8</ele>
        <time>2023-01-20T09:42:47Z</time>
      </trkpt>
      <trkpt lat="44.47529" lon="6.70548">
        <ele>1980.9</ele>
        <time>2023-01-20T09:42:48Z</time>
      </trkpt>
      <trkpt lat="44.47529" lon="6.70547">
        <ele>1980.9</ele>
        <time>2023-01-20T09:42:49Z</time>
      </trkpt>
      <trkpt lat="44.47529" lon="6.70547">
        <ele>1980.9</ele>
        <time>2023-01-20T09:42:50Z</time>
      </trkpt>
      <trkpt lat="44.47529" lon="6.70547">
        <ele>1981</ele>
        <time>2023-01-20T09:42:51Z</time>
      </trkpt>
      <trkpt lat="44.47529" lon="6.70547">
        <ele>1981</ele>
        <time>2023-01-20T09:42:52Z</time>
      </trkpt>
      <trkpt lat="44.47529" lon="6.70547">
        <ele>1981</ele>
        <time>2023-01-20T09:42:53Z</time>
      </trkpt>
      <trkpt lat="44.47529" lon="6.70547">
        <ele>1980.9</ele>
        <time>2023-01-20T09:42:54Z</time>
      </trkpt>
      <trkpt lat="44.47529" lon="6.70547">
        <ele>1980.9</ele>
        <time>2023-01-20T09:42:55Z</time>
      </trkpt>
      <trkpt lat="44.47529" lon="6.70547">
        <ele>1981</ele>
        <time>2023-01-20T09:42:56Z</time>
      </trkpt>
      <trkpt lat="44.47529" lon="6.70547">
        <ele>1981</ele>
        <time>2023-01-20T09:42:57Z</time>
      </trkpt>
      <trkpt lat="44.47529" lon="6.70547">
        <ele>1981</ele>
        <time>2023-01-20T09:42:58Z</time>
      </trkpt>
      <trkpt lat="44.47529" lon="6.70547">
        <ele>1981</ele>
        <time>2023-01-20T09:42:59Z</time>
      </trkpt>
      <trkpt lat="44.47529" lon="6.70547">
        <ele>1981</ele>
        <time>2023-01-20T09:43:00Z</time>
      </trkpt>
      <trkpt lat="44.47529" lon="6.70547">
        <ele>1981</ele>
        <time>2023-01-20T09:43:01Z</time>
      </trkpt>
      <trkpt lat="44.47529" lon="6.70547">
        <ele>1981</ele>
        <time>2023-01-20T09:43:02Z</time>
      </trkpt>
      <trkpt lat="44.47529" lon="6.70547">
        <ele>1981.1</ele>
        <time>2023-01-20T09:43:03Z</time>
      </trkpt>
      <trkpt lat="44.47529" lon="6.70547">
        <ele>1981.1</ele>
        <time>2023-01-20T09:43:04Z</time>
      </trkpt>
      <trkpt lat="44.47529" lon="6.70547">
        <ele>1981.1</ele>
        <time>2023-01-20T09:43:05Z</time>
      </trkpt>
      <trkpt lat="44.47528" lon="6.70547">
        <ele>1981.1</ele>
        <time>2023-01-20T09:43:06Z</time>
      </trkpt>
      <trkpt lat="44.47528" lon="6.70547">
        <ele>1981.1</ele>
        <time>2023-01-20T09:43:07Z</time>
      </trkpt>
      <trkpt lat="44.47528" lon="6.70547">
        <ele>1981.1</ele>
        <time>2023-01-20T09:43:08Z</time>
      </trkpt>
      <trkpt lat="44.47528" lon="6.70547">
        <ele>1981.1</ele>
        <time>2023-01-20T09:43:09Z</time>
      </trkpt>
      <trkpt lat="44.47528" lon="6.70547">
        <ele>1981.2</ele>
        <time>2023-01-20T09:43:10Z</time>
      </trkpt>
      <trkpt lat="44.47528" lon="6.70547">
        <ele>1981.2</ele>
        <time>2023-01-20T09:43:11Z</time>
      </trkpt>
      <trkpt lat="44.47528" lon="6.70547">
        <ele>1981.2</ele>
        <time>2023-01-20T09:43:12Z</time>
      </trkpt>
      <trkpt lat="44.47528" lon="6.70548">
        <ele>1981.2</ele>
        <time>2023-01-20T09:43:13Z</time>
      </trkpt>
      <trkpt lat="44.47528" lon="6.70547">
        <ele>1981.2</ele>
        <time>2023-01-20T09:43:14Z</time>
      </trkpt>
      <trkpt lat="44.47528" lon="6.70547">
        <ele>1981.2</ele>
        <time>2023-01-20T09:43:15Z</time>
      </trkpt>
      <trkpt lat="44.47528" lon="6.70547">
        <ele>1981.2</ele>
        <time>2023-01-20T09:43:16Z</time>
      </trkpt>
      <trkpt lat="44.47527" lon="6.70547">
        <ele>1981.3</ele>
        <time>2023-01-20T09:43:17Z</time>
      </trkpt>
      <trkpt lat="44.47527" lon="6.70548">
        <ele>1981.3</ele>
        <time>2023-01-20T09:43:18Z</time>
      </trkpt>
      <trkpt lat="44.47527" lon="6.70548">
        <ele>1981.3</ele>
        <time>2023-01-20T09:43:19Z</time>
      </trkpt>
      <trkpt lat="44.47527" lon="6.70548">
        <ele>1981.2</ele>
        <time>2023-01-20T09:43:20Z</time>
      </trkpt>
      <trkpt lat="44.47527" lon="6.70548">
        <ele>1981.2</ele>
        <time>2023-01-20T09:43:21Z</time>
      </trkpt>
      <trkpt lat="44.47527" lon="6.70548">
        <ele>1981.2</ele>
        <time>2023-01-20T09:43:22Z</time>
      </trkpt>
      <trkpt lat="44.47527" lon="6.70548">
        <ele>1981.2</ele>
        <time>2023-01-20T09:43:23Z</time>
      </trkpt>
      <trkpt lat="44.47527" lon="6.70548">
        <ele>1981.2</ele>
        <time>2023-01-20T09:43:24Z</time>
      </trkpt>
      <trkpt lat="44.47527" lon="6.70548">
        <ele>1981.2</ele>
        <time>2023-01-20T09:43:25Z</time>
      </trkpt>
      <trkpt lat="44.47527" lon="6.70548">
        <ele>1981.2</ele>
        <time>2023-01-20T09:43:26Z</time>
      </trkpt>
      <trkpt lat="44.47527" lon="6.70548">
        <ele>1981.2</ele>
        <time>2023-01-20T09:43:27Z</time>
      </trkpt>
      <trkpt lat="44.47527" lon="6.70548">
        <ele>1981.2</ele>
        <time>2023-01-20T09:43:28Z</time>
      </trkpt>
      <trkpt lat="44.47528" lon="6.70548">
        <ele>1981.1</ele>
        <time>2023-01-20T09:43:29Z</time>
      </trkpt>
      <trkpt lat="44.47528" lon="6.70548">
        <ele>1981.2</ele>
        <time>2023-01-20T09:43:30Z</time>
      </trkpt>
      <trkpt lat="44.47528" lon="6.70548">
        <ele>1981.1</ele>
        <time>2023-01-20T09:43:31Z</time>
      </trkpt>
      <trkpt lat="44.47527" lon="6.70548">
        <ele>1981.2</ele>
        <time>2023-01-20T09:43:32Z</time>
      </trkpt>
      <trkpt lat="44.47527" lon="6.70548">
        <ele>1981.2</ele>
        <time>2023-01-20T09:43:33Z</time>
      </trkpt>
      <trkpt lat="44.47528" lon="6.70548">
        <ele>1981.1</ele>
        <time>2023-01-20T09:43:34Z</time>
      </trkpt>
      <trkpt lat="44.47528" lon="6.70548">
        <ele>1981.2</ele>
        <time>2023-01-20T09:43:35Z</time>
      </trkpt>
      <trkpt lat="44.47528" lon="6.70548">
        <ele>1981.2</ele>
        <time>2023-01-20T09:43:37Z</time>
      </trkpt>
      <trkpt lat="44.47528" lon="6.70548">
        <ele>1981.1</ele>
        <time>2023-01-20T09:43:38Z</time>
      </trkpt>
      <trkpt lat="44.47528" lon="6.70548">
        <ele>1981.1</ele>
        <time>2023-01-20T09:43:39Z</time>
      </trkpt>
      <trkpt lat="44.47528" lon="6.70548">
        <ele>1981.1</ele>
        <time>2023-01-20T09:43:40Z</time>
      </trkpt>
      <trkpt lat="44.47527" lon="6.70548">
        <ele>1981.1</ele>
        <time>2023-01-20T09:43:41Z</time>
      </trkpt>
      <trkpt lat="44.47527" lon="6.70548">
        <ele>1981.2</ele>
        <time>2023-01-20T09:43:42Z</time>
      </trkpt>
      <trkpt lat="44.47527" lon="6.70548">
        <ele>1981.2</ele>
        <time>2023-01-20T09:43:43Z</time>
      </trkpt>
      <trkpt lat="44.47527" lon="6.70548">
        <ele>1981.2</ele>
        <time>2023-01-20T09:43:44Z</time>
      </trkpt>
      <trkpt lat="44.47527" lon="6.70548">
        <ele>1981.2</ele>
        <time>2023-01-20T09:43:45Z</time>
      </trkpt>
      <trkpt lat="44.47526" lon="6.70549">
        <ele>1981.3</ele>
        <time>2023-01-20T09:43:46Z</time>
      </trkpt>
      <trkpt lat="44.47526" lon="6.70549">
        <ele>1981.4</ele>
        <time>2023-01-20T09:43:47Z</time>
      </trkpt>
      <trkpt lat="44.47526" lon="6.70549">
        <ele>1981.2</ele>
        <time>2023-01-20T09:43:48Z</time>
      </trkpt>
      <trkpt lat="44.47526" lon="6.7055">
        <ele>1981.3</ele>
        <time>2023-01-20T09:43:49Z</time>
      </trkpt>
      <trkpt lat="44.47525" lon="6.7055">
        <ele>1981.4</ele>
        <time>2023-01-20T09:43:50Z</time>
      </trkpt>
      <trkpt lat="44.47525" lon="6.7055">
        <ele>1981.5</ele>
        <time>2023-01-20T09:43:51Z</time>
      </trkpt>
      <trkpt lat="44.47524" lon="6.7055">
        <ele>1981.5</ele>
        <time>2023-01-20T09:43:52Z</time>
      </trkpt>
      <trkpt lat="44.47524" lon="6.7055">
        <ele>1981.5</ele>
        <time>2023-01-20T09:43:53Z</time>
      </trkpt>
      <trkpt lat="44.47524" lon="6.7055">
        <ele>1981.6</ele>
        <time>2023-01-20T09:43:54Z</time>
      </trkpt>
      <trkpt lat="44.47524" lon="6.7055">
        <ele>1981.7</ele>
        <time>2023-01-20T09:43:55Z</time>
      </trkpt>
      <trkpt lat="44.47524" lon="6.7055">
        <ele>1981.7</ele>
        <time>2023-01-20T09:43:56Z</time>
      </trkpt>
      <trkpt lat="44.47523" lon="6.7055">
        <ele>1981.8</ele>
        <time>2023-01-20T09:43:57Z</time>
      </trkpt>
      <trkpt lat="44.47523" lon="6.7055">
        <ele>1981.8</ele>
        <time>2023-01-20T09:43:58Z</time>
      </trkpt>
      <trkpt lat="44.47523" lon="6.7055">
        <ele>1981.8</ele>
        <time>2023-01-20T09:43:59Z</time>
      </trkpt>
      <trkpt lat="44.47523" lon="6.7055">
        <ele>1981.8</ele>
        <time>2023-01-20T09:44:00Z</time>
      </trkpt>
      <trkpt lat="44.47523" lon="6.7055">
        <ele>1981.8</ele>
        <time>2023-01-20T09:44:01Z</time>
      </trkpt>
      <trkpt lat="44.47523" lon="6.7055">
        <ele>1981.8</ele>
        <time>2023-01-20T09:44:02Z</time>
      </trkpt>
      <trkpt lat="44.47523" lon="6.7055">
        <ele>1981.9</ele>
        <time>2023-01-20T09:44:03Z</time>
      </trkpt>
      <trkpt lat="44.47523" lon="6.7055">
        <ele>1981.9</ele>
        <time>2023-01-20T09:44:04Z</time>
      </trkpt>
      <trkpt lat="44.47523" lon="6.7055">
        <ele>1981.9</ele>
        <time>2023-01-20T09:44:05Z</time>
      </trkpt>
      <trkpt lat="44.47523" lon="6.70549">
        <ele>1982</ele>
        <time>2023-01-20T09:44:06Z</time>
      </trkpt>
      <trkpt lat="44.47523" lon="6.70549">
        <ele>1982</ele>
        <time>2023-01-20T09:44:07Z</time>
      </trkpt>
      <trkpt lat="44.47522" lon="6.70549">
        <ele>1982.1</ele>
        <time>2023-01-20T09:44:08Z</time>
      </trkpt>
      <trkpt lat="44.47522" lon="6.70549">
        <ele>1982.1</ele>
        <time>2023-01-20T09:44:09Z</time>
      </trkpt>
      <trkpt lat="44.47522" lon="6.70549">
        <ele>1982.1</ele>
        <time>2023-01-20T09:44:10Z</time>
      </trkpt>
      <trkpt lat="44.47522" lon="6.70549">
        <ele>1982.1</ele>
        <time>2023-01-20T09:44:11Z</time>
      </trkpt>
      <trkpt lat="44.47522" lon="6.70549">
        <ele>1982.2</ele>
        <time>2023-01-20T09:44:12Z</time>
      </trkpt>
      <trkpt lat="44.47522" lon="6.70549">
        <ele>1982.2</ele>
        <time>2023-01-20T09:44:13Z</time>
      </trkpt>
      <trkpt lat="44.47522" lon="6.70549">
        <ele>1982.1</ele>
        <time>2023-01-20T09:44:14Z</time>
      </trkpt>
      <trkpt lat="44.47522" lon="6.70549">
        <ele>1982.1</ele>
        <time>2023-01-20T09:44:15Z</time>
      </trkpt>
      <trkpt lat="44.47522" lon="6.70549">
        <ele>1982.2</ele>
        <time>2023-01-20T09:44:16Z</time>
      </trkpt>
      <trkpt lat="44.47522" lon="6.70549">
        <ele>1982.2</ele>
        <time>2023-01-20T09:44:17Z</time>
      </trkpt>
      <trkpt lat="44.47522" lon="6.70549">
        <ele>1982.2</ele>
        <time>2023-01-20T09:44:18Z</time>
      </trkpt>
      <trkpt lat="44.47522" lon="6.70549">
        <ele>1982.2</ele>
        <time>2023-01-20T09:44:19Z</time>
      </trkpt>
      <trkpt lat="44.47522" lon="6.70549">
        <ele>1982.2</ele>
        <time>2023-01-20T09:44:20Z</time>
      </trkpt>
      <trkpt lat="44.47522" lon="6.70549">
        <ele>1982.2</ele>
        <time>2023-01-20T09:44:21Z</time>
      </trkpt>
      <trkpt lat="44.47522" lon="6.70549">
        <ele>1982.2</ele>
        <time>2023-01-20T09:44:22Z</time>
      </trkpt>
      <trkpt lat="44.47522" lon="6.70549">
        <ele>1982.2</ele>
        <time>2023-01-20T09:44:23Z</time>
      </trkpt>
      <trkpt lat="44.47522" lon="6.70549">
        <ele>1982.2</ele>
        <time>2023-01-20T09:44:24Z</time>
      </trkpt>
      <trkpt lat="44.47522" lon="6.70549">
        <ele>1982.2</ele>
        <time>2023-01-20T09:44:25Z</time>
      </trkpt>
      <trkpt lat="44.47522" lon="6.70549">
        <ele>1982.2</ele>
        <time>2023-01-20T09:44:26Z</time>
      </trkpt>
      <trkpt lat="44.47522" lon="6.7055">
        <ele>1982.2</ele>
        <time>2023-01-20T09:44:27Z</time>
      </trkpt>
      <trkpt lat="44.47522" lon="6.7055">
        <ele>1982.2</ele>
        <time>2023-01-20T09:44:28Z</time>
      </trkpt>
      <trkpt lat="44.47522" lon="6.7055">
        <ele>1982.2</ele>
        <time>2023-01-20T09:44:29Z</time>
      </trkpt>
      <trkpt lat="44.47521" lon="6.7055">
        <ele>1982.2</ele>
        <time>2023-01-20T09:44:30Z</time>
      </trkpt>
      <trkpt lat="44.47521" lon="6.70549">
        <ele>1982.3</ele>
        <time>2023-01-20T09:44:31Z</time>
      </trkpt>
      <trkpt lat="44.47521" lon="6.70549">
        <ele>1982.3</ele>
        <time>2023-01-20T09:44:32Z</time>
      </trkpt>
      <trkpt lat="44.47521" lon="6.70549">
        <ele>1982.4</ele>
        <time>2023-01-20T09:44:33Z</time>
      </trkpt>
      <trkpt lat="44.47521" lon="6.70548">
        <ele>1982.5</ele>
        <time>2023-01-20T09:44:34Z</time>
      </trkpt>
      <trkpt lat="44.47521" lon="6.70548">
        <ele>1982.7</ele>
        <time>2023-01-20T09:44:35Z</time>
      </trkpt>
      <trkpt lat="44.4752" lon="6.70547">
        <ele>1982.9</ele>
        <time>2023-01-20T09:44:36Z</time>
      </trkpt>
      <trkpt lat="44.4752" lon="6.70546">
        <ele>1983.1</ele>
        <time>2023-01-20T09:44:37Z</time>
      </trkpt>
      <trkpt lat="44.47519" lon="6.70546">
        <ele>1983.3</ele>
        <time>2023-01-20T09:44:38Z</time>
      </trkpt>
      <trkpt lat="44.47518" lon="6.70545">
        <ele>1983.5</ele>
        <time>2023-01-20T09:44:39Z</time>
      </trkpt>
      <trkpt lat="44.47518" lon="6.70545">
        <ele>1983.7</ele>
        <time>2023-01-20T09:44:40Z</time>
      </trkpt>
      <trkpt lat="44.47517" lon="6.70545">
        <ele>1983.8</ele>
        <time>2023-01-20T09:44:41Z</time>
      </trkpt>
      <trkpt lat="44.47517" lon="6.70545">
        <ele>1983.9</ele>
        <time>2023-01-20T09:44:42Z</time>
      </trkpt>
      <trkpt lat="44.47516" lon="6.70545">
        <ele>1984</ele>
        <time>2023-01-20T09:44:43Z</time>
      </trkpt>
      <trkpt lat="44.47515" lon="6.70545">
        <ele>1984.2</ele>
        <time>2023-01-20T09:44:44Z</time>
      </trkpt>
      <trkpt lat="44.47515" lon="6.70545">
        <ele>1984.4</ele>
        <time>2023-01-20T09:44:45Z</time>
      </trkpt>
      <trkpt lat="44.47514" lon="6.70545">
        <ele>1984.5</ele>
        <time>2023-01-20T09:44:46Z</time>
      </trkpt>
      <trkpt lat="44.47514" lon="6.70545">
        <ele>1984.6</ele>
        <time>2023-01-20T09:44:47Z</time>
      </trkpt>
      <trkpt lat="44.47513" lon="6.70545">
        <ele>1984.7</ele>
        <time>2023-01-20T09:44:48Z</time>
      </trkpt>
      <trkpt lat="44.47513" lon="6.70545">
        <ele>1984.8</ele>
        <time>2023-01-20T09:44:49Z</time>
      </trkpt>
      <trkpt lat="44.47512" lon="6.70546">
        <ele>1984.8</ele>
        <time>2023-01-20T09:44:50Z</time>
      </trkpt>
      <trkpt lat="44.47512" lon="6.70546">
        <ele>1984.8</ele>
        <time>2023-01-20T09:44:51Z</time>
      </trkpt>
      <trkpt lat="44.47511" lon="6.70547">
        <ele>1984.8</ele>
        <time>2023-01-20T09:44:52Z</time>
      </trkpt>
      <trkpt lat="44.47511" lon="6.70547">
        <ele>1984.8</ele>
        <time>2023-01-20T09:44:53Z</time>
      </trkpt>
      <trkpt lat="44.47511" lon="6.70548">
        <ele>1984.7</ele>
        <time>2023-01-20T09:44:54Z</time>
      </trkpt>
      <trkpt lat="44.47511" lon="6.70548">
        <ele>1984.7</ele>
        <time>2023-01-20T09:44:55Z</time>
      </trkpt>
      <trkpt lat="44.4751" lon="6.70549">
        <ele>1984.8</ele>
        <time>2023-01-20T09:44:56Z</time>
      </trkpt>
      <trkpt lat="44.47509" lon="6.70549">
        <ele>1984.9</ele>
        <time>2023-01-20T09:44:57Z</time>
      </trkpt>
      <trkpt lat="44.47509" lon="6.7055">
        <ele>1985</ele>
        <time>2023-01-20T09:44:58Z</time>
      </trkpt>
      <trkpt lat="44.47508" lon="6.7055">
        <ele>1985.1</ele>
        <time>2023-01-20T09:44:59Z</time>
      </trkpt>
      <trkpt lat="44.47507" lon="6.7055">
        <ele>1985.2</ele>
        <time>2023-01-20T09:45:00Z</time>
      </trkpt>
      <trkpt lat="44.47507" lon="6.7055">
        <ele>1985.3</ele>
        <time>2023-01-20T09:45:01Z</time>
      </trkpt>
      <trkpt lat="44.47507" lon="6.70551">
        <ele>1985.3</ele>
        <time>2023-01-20T09:45:02Z</time>
      </trkpt>
      <trkpt lat="44.47506" lon="6.70551">
        <ele>1985.3</ele>
        <time>2023-01-20T09:45:03Z</time>
      </trkpt>
      <trkpt lat="44.47506" lon="6.70551">
        <ele>1985.3</ele>
        <time>2023-01-20T09:45:04Z</time>
      </trkpt>
      <trkpt lat="44.47506" lon="6.70552">
        <ele>1985.3</ele>
        <time>2023-01-20T09:45:05Z</time>
      </trkpt>
      <trkpt lat="44.47505" lon="6.70552">
        <ele>1985.3</ele>
        <time>2023-01-20T09:45:06Z</time>
      </trkpt>
      <trkpt lat="44.47505" lon="6.70553">
        <ele>1985.4</ele>
        <time>2023-01-20T09:45:07Z</time>
      </trkpt>
      <trkpt lat="44.47504" lon="6.70553">
        <ele>1985.5</ele>
        <time>2023-01-20T09:45:08Z</time>
      </trkpt>
      <trkpt lat="44.47504" lon="6.70553">
        <ele>1985.7</ele>
        <time>2023-01-20T09:45:09Z</time>
      </trkpt>
      <trkpt lat="44.47503" lon="6.70553">
        <ele>1985.8</ele>
        <time>2023-01-20T09:45:10Z</time>
      </trkpt>
      <trkpt lat="44.47502" lon="6.70553">
        <ele>1985.9</ele>
        <time>2023-01-20T09:45:11Z</time>
      </trkpt>
      <trkpt lat="44.47502" lon="6.70553">
        <ele>1985.9</ele>
        <time>2023-01-20T09:45:12Z</time>
      </trkpt>
      <trkpt lat="44.47502" lon="6.70553">
        <ele>1985.9</ele>
        <time>2023-01-20T09:45:13Z</time>
      </trkpt>
      <trkpt lat="44.47502" lon="6.70552">
        <ele>1986</ele>
        <time>2023-01-20T09:45:14Z</time>
      </trkpt>
      <trkpt lat="44.47502" lon="6.70552">
        <ele>1986.1</ele>
        <time>2023-01-20T09:45:15Z</time>
      </trkpt>
      <trkpt lat="44.47502" lon="6.70551">
        <ele>1986.3</ele>
        <time>2023-01-20T09:45:16Z</time>
      </trkpt>
      <trkpt lat="44.47501" lon="6.70551">
        <ele>1986.4</ele>
        <time>2023-01-20T09:45:17Z</time>
      </trkpt>
      <trkpt lat="44.47501" lon="6.70549">
        <ele>1986.7</ele>
        <time>2023-01-20T09:45:18Z</time>
      </trkpt>
      <trkpt lat="44.47501" lon="6.70548">
        <ele>1986.9</ele>
        <time>2023-01-20T09:45:19Z</time>
      </trkpt>
      <trkpt lat="44.475" lon="6.70548">
        <ele>1987.1</ele>
        <time>2023-01-20T09:45:20Z</time>
      </trkpt>
      <trkpt lat="44.475" lon="6.70547">
        <ele>1987.3</ele>
        <time>2023-01-20T09:45:21Z</time>
      </trkpt>
      <trkpt lat="44.47499" lon="6.70546">
        <ele>1987.5</ele>
        <time>2023-01-20T09:45:22Z</time>
      </trkpt>
      <trkpt lat="44.47499" lon="6.70545">
        <ele>1987.7</ele>
        <time>2023-01-20T09:45:23Z</time>
      </trkpt>
      <trkpt lat="44.47498" lon="6.70544">
        <ele>1988.1</ele>
        <time>2023-01-20T09:45:24Z</time>
      </trkpt>
      <trkpt lat="44.47498" lon="6.70543">
        <ele>1988.3</ele>
        <time>2023-01-20T09:45:25Z</time>
      </trkpt>
      <trkpt lat="44.47498" lon="6.70542">
        <ele>1988.5</ele>
        <time>2023-01-20T09:45:26Z</time>
      </trkpt>
      <trkpt lat="44.47497" lon="6.70541">
        <ele>1988.7</ele>
        <time>2023-01-20T09:45:27Z</time>
      </trkpt>
      <trkpt lat="44.47497" lon="6.7054">
        <ele>1988.9</ele>
        <time>2023-01-20T09:45:28Z</time>
      </trkpt>
      <trkpt lat="44.47497" lon="6.7054">
        <ele>1989</ele>
        <time>2023-01-20T09:45:29Z</time>
      </trkpt>
      <trkpt lat="44.47497" lon="6.7054">
        <ele>1989</ele>
        <time>2023-01-20T09:45:30Z</time>
      </trkpt>
      <trkpt lat="44.47497" lon="6.7054">
        <ele>1989</ele>
        <time>2023-01-20T09:45:31Z</time>
      </trkpt>
      <trkpt lat="44.47497" lon="6.7054">
        <ele>1989</ele>
        <time>2023-01-20T09:45:32Z</time>
      </trkpt>
      <trkpt lat="44.47497" lon="6.7054">
        <ele>1988.9</ele>
        <time>2023-01-20T09:45:33Z</time>
      </trkpt>
      <trkpt lat="44.47497" lon="6.7054">
        <ele>1988.9</ele>
        <time>2023-01-20T09:45:34Z</time>
      </trkpt>
      <trkpt lat="44.47497" lon="6.7054">
        <ele>1989</ele>
        <time>2023-01-20T09:45:35Z</time>
      </trkpt>
      <trkpt lat="44.47496" lon="6.70539">
        <ele>1989.3</ele>
        <time>2023-01-20T09:45:36Z</time>
      </trkpt>
      <trkpt lat="44.47496" lon="6.70538">
        <ele>1989.5</ele>
        <time>2023-01-20T09:45:37Z</time>
      </trkpt>
      <trkpt lat="44.47495" lon="6.70537">
        <ele>1989.8</ele>
        <time>2023-01-20T09:45:38Z</time>
      </trkpt>
      <trkpt lat="44.47495" lon="6.70536">
        <ele>1990.1</ele>
        <time>2023-01-20T09:45:39Z</time>
      </trkpt>
      <trkpt lat="44.47495" lon="6.70535">
        <ele>1990.3</ele>
        <time>2023-01-20T09:45:40Z</time>
      </trkpt>
      <trkpt lat="44.47494" lon="6.70534">
        <ele>1990.6</ele>
        <time>2023-01-20T09:45:41Z</time>
      </trkpt>
      <trkpt lat="44.47494" lon="6.70533">
        <ele>1990.9</ele>
        <time>2023-01-20T09:45:42Z</time>
      </trkpt>
      <trkpt lat="44.47493" lon="6.70532">
        <ele>1991.2</ele>
        <time>2023-01-20T09:45:43Z</time>
      </trkpt>
      <trkpt lat="44.47493" lon="6.70531">
        <ele>1991.4</ele>
        <time>2023-01-20T09:45:44Z</time>
      </trkpt>
      <trkpt lat="44.47492" lon="6.70529">
        <ele>1991.7</ele>
        <time>2023-01-20T09:45:45Z</time>
      </trkpt>
      <trkpt lat="44.47492" lon="6.70529">
        <ele>1991.9</ele>
        <time>2023-01-20T09:45:46Z</time>
      </trkpt>
      <trkpt lat="44.47491" lon="6.70528">
        <ele>1992.1</ele>
        <time>2023-01-20T09:45:47Z</time>
      </trkpt>
      <trkpt lat="44.47491" lon="6.70528">
        <ele>1992.3</ele>
        <time>2023-01-20T09:45:48Z</time>
      </trkpt>
      <trkpt lat="44.4749" lon="6.70527">
        <ele>1992.5</ele>
        <time>2023-01-20T09:45:49Z</time>
      </trkpt>
      <trkpt lat="44.4749" lon="6.70527">
        <ele>1992.6</ele>
        <time>2023-01-20T09:45:50Z</time>
      </trkpt>
      <trkpt lat="44.4749" lon="6.70526">
        <ele>1992.8</ele>
        <time>2023-01-20T09:45:51Z</time>
      </trkpt>
      <trkpt lat="44.4749" lon="6.70526">
        <ele>1992.9</ele>
        <time>2023-01-20T09:45:52Z</time>
      </trkpt>
      <trkpt lat="44.4749" lon="6.70525">
        <ele>1993</ele>
        <time>2023-01-20T09:45:53Z</time>
      </trkpt>
      <trkpt lat="44.4749" lon="6.70524">
        <ele>1993.1</ele>
        <time>2023-01-20T09:45:54Z</time>
      </trkpt>
      <trkpt lat="44.47491" lon="6.70523">
        <ele>1993.2</ele>
        <time>2023-01-20T09:45:55Z</time>
      </trkpt>
      <trkpt lat="44.47491" lon="6.70522">
        <ele>1993.3</ele>
        <time>2023-01-20T09:45:56Z</time>
      </trkpt>
      <trkpt lat="44.47491" lon="6.70521">
        <ele>1993.3</ele>
        <time>2023-01-20T09:45:57Z</time>
      </trkpt>
      <trkpt lat="44.47492" lon="6.70521">
        <ele>1993.4</ele>
        <time>2023-01-20T09:45:58Z</time>
      </trkpt>
      <trkpt lat="44.47492" lon="6.7052">
        <ele>1993.4</ele>
        <time>2023-01-20T09:45:59Z</time>
      </trkpt>
      <trkpt lat="44.47492" lon="6.70519">
        <ele>1993.4</ele>
        <time>2023-01-20T09:46:00Z</time>
      </trkpt>
      <trkpt lat="44.47493" lon="6.70519">
        <ele>1993.5</ele>
        <time>2023-01-20T09:46:01Z</time>
      </trkpt>
      <trkpt lat="44.47493" lon="6.70518">
        <ele>1993.5</ele>
        <time>2023-01-20T09:46:02Z</time>
      </trkpt>
      <trkpt lat="44.47493" lon="6.70517">
        <ele>1993.6</ele>
        <time>2023-01-20T09:46:03Z</time>
      </trkpt>
      <trkpt lat="44.47494" lon="6.70517">
        <ele>1993.6</ele>
        <time>2023-01-20T09:46:04Z</time>
      </trkpt>
      <trkpt lat="44.47494" lon="6.70516">
        <ele>1993.6</ele>
        <time>2023-01-20T09:46:05Z</time>
      </trkpt>
      <trkpt lat="44.47495" lon="6.70515">
        <ele>1993.6</ele>
        <time>2023-01-20T09:46:06Z</time>
      </trkpt>
      <trkpt lat="44.47495" lon="6.70515">
        <ele>1993.7</ele>
        <time>2023-01-20T09:46:07Z</time>
      </trkpt>
      <trkpt lat="44.47495" lon="6.70514">
        <ele>1993.7</ele>
        <time>2023-01-20T09:46:08Z</time>
      </trkpt>
      <trkpt lat="44.47495" lon="6.70514">
        <ele>1993.7</ele>
        <time>2023-01-20T09:46:09Z</time>
      </trkpt>
      <trkpt lat="44.47496" lon="6.70513">
        <ele>1993.7</ele>
        <time>2023-01-20T09:46:10Z</time>
      </trkpt>
      <trkpt lat="44.47496" lon="6.70512">
        <ele>1993.8</ele>
        <time>2023-01-20T09:46:11Z</time>
      </trkpt>
      <trkpt lat="44.47496" lon="6.70512">
        <ele>1993.9</ele>
        <time>2023-01-20T09:46:12Z</time>
      </trkpt>
      <trkpt lat="44.47496" lon="6.70511">
        <ele>1994</ele>
        <time>2023-01-20T09:46:13Z</time>
      </trkpt>
      <trkpt lat="44.47497" lon="6.70509">
        <ele>1994.2</ele>
        <time>2023-01-20T09:46:14Z</time>
      </trkpt>
      <trkpt lat="44.47497" lon="6.70508">
        <ele>1994.4</ele>
        <time>2023-01-20T09:46:15Z</time>
      </trkpt>
      <trkpt lat="44.47497" lon="6.70508">
        <ele>1994.5</ele>
        <time>2023-01-20T09:46:16Z</time>
      </trkpt>
      <trkpt lat="44.47497" lon="6.70506">
        <ele>1994.7</ele>
        <time>2023-01-20T09:46:17Z</time>
      </trkpt>
      <trkpt lat="44.47496" lon="6.70506">
        <ele>1994.8</ele>
        <time>2023-01-20T09:46:18Z</time>
      </trkpt>
      <trkpt lat="44.47496" lon="6.70505">
        <ele>1995</ele>
        <time>2023-01-20T09:46:19Z</time>
      </trkpt>
      <trkpt lat="44.47496" lon="6.70504">
        <ele>1995.2</ele>
        <time>2023-01-20T09:46:20Z</time>
      </trkpt>
      <trkpt lat="44.47496" lon="6.70503">
        <ele>1995.4</ele>
        <time>2023-01-20T09:46:21Z</time>
      </trkpt>
      <trkpt lat="44.47496" lon="6.70502">
        <ele>1995.6</ele>
        <time>2023-01-20T09:46:22Z</time>
      </trkpt>
      <trkpt lat="44.47496" lon="6.70502">
        <ele>1995.8</ele>
        <time>2023-01-20T09:46:23Z</time>
      </trkpt>
      <trkpt lat="44.47495" lon="6.705">
        <ele>1996.1</ele>
        <time>2023-01-20T09:46:24Z</time>
      </trkpt>
      <trkpt lat="44.47496" lon="6.70499">
        <ele>1996.2</ele>
        <time>2023-01-20T09:46:25Z</time>
      </trkpt>
      <trkpt lat="44.47496" lon="6.70499">
        <ele>1996.4</ele>
        <time>2023-01-20T09:46:26Z</time>
      </trkpt>
      <trkpt lat="44.47496" lon="6.70498">
        <ele>1996.4</ele>
        <time>2023-01-20T09:46:27Z</time>
      </trkpt>
      <trkpt lat="44.47496" lon="6.70497">
        <ele>1996.5</ele>
        <time>2023-01-20T09:46:28Z</time>
      </trkpt>
      <trkpt lat="44.47496" lon="6.70496">
        <ele>1996.6</ele>
        <time>2023-01-20T09:46:29Z</time>
      </trkpt>
      <trkpt lat="44.47497" lon="6.70495">
        <ele>1996.6</ele>
        <time>2023-01-20T09:46:30Z</time>
      </trkpt>
      <trkpt lat="44.47497" lon="6.70495">
        <ele>1996.7</ele>
        <time>2023-01-20T09:46:31Z</time>
      </trkpt>
      <trkpt lat="44.47497" lon="6.70494">
        <ele>1996.7</ele>
        <time>2023-01-20T09:46:32Z</time>
      </trkpt>
      <trkpt lat="44.47498" lon="6.70494">
        <ele>1996.8</ele>
        <time>2023-01-20T09:46:33Z</time>
      </trkpt>
      <trkpt lat="44.47498" lon="6.70493">
        <ele>1996.8</ele>
        <time>2023-01-20T09:46:34Z</time>
      </trkpt>
      <trkpt lat="44.47498" lon="6.70492">
        <ele>1996.8</ele>
        <time>2023-01-20T09:46:35Z</time>
      </trkpt>
      <trkpt lat="44.47499" lon="6.70491">
        <ele>1996.9</ele>
        <time>2023-01-20T09:46:36Z</time>
      </trkpt>
      <trkpt lat="44.47499" lon="6.7049">
        <ele>1997</ele>
        <time>2023-01-20T09:46:37Z</time>
      </trkpt>
      <trkpt lat="44.47499" lon="6.70489">
        <ele>1997.2</ele>
        <time>2023-01-20T09:46:38Z</time>
      </trkpt>
      <trkpt lat="44.47499" lon="6.70488">
        <ele>1997.4</ele>
        <time>2023-01-20T09:46:39Z</time>
      </trkpt>
      <trkpt lat="44.47499" lon="6.70487">
        <ele>1997.6</ele>
        <time>2023-01-20T09:46:40Z</time>
      </trkpt>
      <trkpt lat="44.47499" lon="6.70486">
        <ele>1997.7</ele>
        <time>2023-01-20T09:46:41Z</time>
      </trkpt>
      <trkpt lat="44.47499" lon="6.70485">
        <ele>1998</ele>
        <time>2023-01-20T09:46:42Z</time>
      </trkpt>
      <trkpt lat="44.47499" lon="6.70484">
        <ele>1998.2</ele>
        <time>2023-01-20T09:46:43Z</time>
      </trkpt>
      <trkpt lat="44.47499" lon="6.70483">
        <ele>1998.3</ele>
        <time>2023-01-20T09:46:44Z</time>
      </trkpt>
      <trkpt lat="44.47499" lon="6.70482">
        <ele>1998.6</ele>
        <time>2023-01-20T09:46:45Z</time>
      </trkpt>
      <trkpt lat="44.47499" lon="6.70481">
        <ele>1998.8</ele>
        <time>2023-01-20T09:46:46Z</time>
      </trkpt>
      <trkpt lat="44.47499" lon="6.7048">
        <ele>1998.9</ele>
        <time>2023-01-20T09:46:47Z</time>
      </trkpt>
      <trkpt lat="44.47499" lon="6.7048">
        <ele>1998.9</ele>
        <time>2023-01-20T09:46:48Z</time>
      </trkpt>
      <trkpt lat="44.47499" lon="6.7048">
        <ele>1999</ele>
        <time>2023-01-20T09:46:49Z</time>
      </trkpt>
      <trkpt lat="44.47499" lon="6.70479">
        <ele>1999</ele>
        <time>2023-01-20T09:46:50Z</time>
      </trkpt>
      <trkpt lat="44.47499" lon="6.70478">
        <ele>1999.2</ele>
        <time>2023-01-20T09:46:51Z</time>
      </trkpt>
      <trkpt lat="44.47499" lon="6.70478">
        <ele>1999.2</ele>
        <time>2023-01-20T09:46:52Z</time>
      </trkpt>
      <trkpt lat="44.47499" lon="6.70477">
        <ele>1999.3</ele>
        <time>2023-01-20T09:46:53Z</time>
      </trkpt>
      <trkpt lat="44.47499" lon="6.70476">
        <ele>1999.5</ele>
        <time>2023-01-20T09:46:54Z</time>
      </trkpt>
      <trkpt lat="44.475" lon="6.70475">
        <ele>1999.6</ele>
        <time>2023-01-20T09:46:55Z</time>
      </trkpt>
      <trkpt lat="44.475" lon="6.70474">
        <ele>1999.7</ele>
        <time>2023-01-20T09:46:56Z</time>
      </trkpt>
      <trkpt lat="44.475" lon="6.70473">
        <ele>1999.9</ele>
        <time>2023-01-20T09:46:57Z</time>
      </trkpt>
      <trkpt lat="44.475" lon="6.70472">
        <ele>2000</ele>
        <time>2023-01-20T09:46:58Z</time>
      </trkpt>
      <trkpt lat="44.47501" lon="6.70471">
        <ele>2000.1</ele>
        <time>2023-01-20T09:46:59Z</time>
      </trkpt>
      <trkpt lat="44.47501" lon="6.7047">
        <ele>2000.2</ele>
        <time>2023-01-20T09:47:00Z</time>
      </trkpt>
      <trkpt lat="44.47501" lon="6.70469">
        <ele>2000.3</ele>
        <time>2023-01-20T09:47:01Z</time>
      </trkpt>
      <trkpt lat="44.47502" lon="6.70468">
        <ele>2000.3</ele>
        <time>2023-01-20T09:47:02Z</time>
      </trkpt>
      <trkpt lat="44.47502" lon="6.70467">
        <ele>2000.3</ele>
        <time>2023-01-20T09:47:03Z</time>
      </trkpt>
      <trkpt lat="44.47502" lon="6.70466">
        <ele>2000.5</ele>
        <time>2023-01-20T09:47:04Z</time>
      </trkpt>
      <trkpt lat="44.47503" lon="6.70465">
        <ele>2000.6</ele>
        <time>2023-01-20T09:47:05Z</time>
      </trkpt>
      <trkpt lat="44.47503" lon="6.70465">
        <ele>2000.7</ele>
        <time>2023-01-20T09:47:06Z</time>
      </trkpt>
      <trkpt lat="44.47503" lon="6.70464">
        <ele>2000.7</ele>
        <time>2023-01-20T09:47:07Z</time>
      </trkpt>
      <trkpt lat="44.47503" lon="6.70463">
        <ele>2000.8</ele>
        <time>2023-01-20T09:47:08Z</time>
      </trkpt>
      <trkpt lat="44.47504" lon="6.70462">
        <ele>2000.9</ele>
        <time>2023-01-20T09:47:09Z</time>
      </trkpt>
      <trkpt lat="44.47504" lon="6.70461">
        <ele>2001</ele>
        <time>2023-01-20T09:47:10Z</time>
      </trkpt>
      <trkpt lat="44.47504" lon="6.7046">
        <ele>2001.1</ele>
        <time>2023-01-20T09:47:11Z</time>
      </trkpt>
      <trkpt lat="44.47505" lon="6.70459">
        <ele>2001.2</ele>
        <time>2023-01-20T09:47:12Z</time>
      </trkpt>
      <trkpt lat="44.47505" lon="6.70458">
        <ele>2001.3</ele>
        <time>2023-01-20T09:47:13Z</time>
      </trkpt>
      <trkpt lat="44.47505" lon="6.70457">
        <ele>2001.4</ele>
        <time>2023-01-20T09:47:14Z</time>
      </trkpt>
      <trkpt lat="44.47505" lon="6.70456">
        <ele>2001.5</ele>
        <time>2023-01-20T09:47:15Z</time>
      </trkpt>
      <trkpt lat="44.47505" lon="6.70455">
        <ele>2001.6</ele>
        <time>2023-01-20T09:47:16Z</time>
      </trkpt>
      <trkpt lat="44.47505" lon="6.70455">
        <ele>2001.6</ele>
        <time>2023-01-20T09:47:17Z</time>
      </trkpt>
      <trkpt lat="44.47506" lon="6.70454">
        <ele>2001.7</ele>
        <time>2023-01-20T09:47:18Z</time>
      </trkpt>
      <trkpt lat="44.47506" lon="6.70453">
        <ele>2001.8</ele>
        <time>2023-01-20T09:47:19Z</time>
      </trkpt>
      <trkpt lat="44.47506" lon="6.70452">
        <ele>2001.9</ele>
        <time>2023-01-20T09:47:20Z</time>
      </trkpt>
      <trkpt lat="44.47506" lon="6.70451">
        <ele>2002</ele>
        <time>2023-01-20T09:47:21Z</time>
      </trkpt>
      <trkpt lat="44.47507" lon="6.7045">
        <ele>2002.1</ele>
        <time>2023-01-20T09:47:22Z</time>
      </trkpt>
      <trkpt lat="44.47507" lon="6.7045">
        <ele>2002.1</ele>
        <time>2023-01-20T09:47:23Z</time>
      </trkpt>
      <trkpt lat="44.47507" lon="6.70449">
        <ele>2002.2</ele>
        <time>2023-01-20T09:47:24Z</time>
      </trkpt>
      <trkpt lat="44.47507" lon="6.70448">
        <ele>2002.3</ele>
        <time>2023-01-20T09:47:25Z</time>
      </trkpt>
      <trkpt lat="44.47507" lon="6.70448">
        <ele>2002.4</ele>
        <time>2023-01-20T09:47:26Z</time>
      </trkpt>
      <trkpt lat="44.47507" lon="6.70447">
        <ele>2002.5</ele>
        <time>2023-01-20T09:47:27Z</time>
      </trkpt>
      <trkpt lat="44.47507" lon="6.70447">
        <ele>2002.5</ele>
        <time>2023-01-20T09:47:28Z</time>
      </trkpt>
      <trkpt lat="44.47507" lon="6.70446">
        <ele>2002.6</ele>
        <time>2023-01-20T09:47:29Z</time>
      </trkpt>
      <trkpt lat="44.47507" lon="6.70446">
        <ele>2002.8</ele>
        <time>2023-01-20T09:47:30Z</time>
      </trkpt>
      <trkpt lat="44.47507" lon="6.70445">
        <ele>2002.9</ele>
        <time>2023-01-20T09:47:31Z</time>
      </trkpt>
      <trkpt lat="44.47507" lon="6.70445">
        <ele>2002.9</ele>
        <time>2023-01-20T09:47:32Z</time>
      </trkpt>
      <trkpt lat="44.47507" lon="6.70445">
        <ele>2002.9</ele>
        <time>2023-01-20T09:47:33Z</time>
      </trkpt>
      <trkpt lat="44.47507" lon="6.70445">
        <ele>2003</ele>
        <time>2023-01-20T09:47:34Z</time>
      </trkpt>
      <trkpt lat="44.47507" lon="6.70445">
        <ele>2003</ele>
        <time>2023-01-20T09:47:35Z</time>
      </trkpt>
      <trkpt lat="44.47507" lon="6.70445">
        <ele>2003</ele>
        <time>2023-01-20T09:47:36Z</time>
      </trkpt>
      <trkpt lat="44.47507" lon="6.70445">
        <ele>2003</ele>
        <time>2023-01-20T09:47:37Z</time>
      </trkpt>
      <trkpt lat="44.47507" lon="6.70445">
        <ele>2003</ele>
        <time>2023-01-20T09:47:38Z</time>
      </trkpt>
      <trkpt lat="44.47507" lon="6.70444">
        <ele>2002.9</ele>
        <time>2023-01-20T09:47:39Z</time>
      </trkpt>
      <trkpt lat="44.47508" lon="6.70444">
        <ele>2002.9</ele>
        <time>2023-01-20T09:47:40Z</time>
      </trkpt>
      <trkpt lat="44.47508" lon="6.70443">
        <ele>2003</ele>
        <time>2023-01-20T09:47:41Z</time>
      </trkpt>
      <trkpt lat="44.47508" lon="6.70442">
        <ele>2003</ele>
        <time>2023-01-20T09:47:42Z</time>
      </trkpt>
      <trkpt lat="44.47508" lon="6.70441">
        <ele>2003.3</ele>
        <time>2023-01-20T09:47:43Z</time>
      </trkpt>
      <trkpt lat="44.47508" lon="6.70441">
        <ele>2003.4</ele>
        <time>2023-01-20T09:47:44Z</time>
      </trkpt>
      <trkpt lat="44.47508" lon="6.7044">
        <ele>2003.5</ele>
        <time>2023-01-20T09:47:45Z</time>
      </trkpt>
      <trkpt lat="44.47508" lon="6.70439">
        <ele>2003.7</ele>
        <time>2023-01-20T09:47:46Z</time>
      </trkpt>
      <trkpt lat="44.47507" lon="6.70439">
        <ele>2003.9</ele>
        <time>2023-01-20T09:47:47Z</time>
      </trkpt>
      <trkpt lat="44.47507" lon="6.70439">
        <ele>2003.9</ele>
        <time>2023-01-20T09:47:48Z</time>
      </trkpt>
      <trkpt lat="44.47507" lon="6.70439">
        <ele>2003.9</ele>
        <time>2023-01-20T09:47:49Z</time>
      </trkpt>
      <trkpt lat="44.47507" lon="6.70438">
        <ele>2004</ele>
        <time>2023-01-20T09:47:50Z</time>
      </trkpt>
      <trkpt lat="44.47507" lon="6.70438">
        <ele>2004</ele>
        <time>2023-01-20T09:47:51Z</time>
      </trkpt>
      <trkpt lat="44.47508" lon="6.70438">
        <ele>2004.1</ele>
        <time>2023-01-20T09:47:52Z</time>
      </trkpt>
      <trkpt lat="44.47508" lon="6.70437">
        <ele>2004.1</ele>
        <time>2023-01-20T09:47:53Z</time>
      </trkpt>
      <trkpt lat="44.47508" lon="6.70437">
        <ele>2004.1</ele>
        <time>2023-01-20T09:47:54Z</time>
      </trkpt>
      <trkpt lat="44.47508" lon="6.70436">
        <ele>2004.2</ele>
        <time>2023-01-20T09:47:55Z</time>
      </trkpt>
      <trkpt lat="44.47508" lon="6.70436">
        <ele>2004.2</ele>
        <time>2023-01-20T09:47:56Z</time>
      </trkpt>
      <trkpt lat="44.47508" lon="6.70436">
        <ele>2004.4</ele>
        <time>2023-01-20T09:47:57Z</time>
      </trkpt>
      <trkpt lat="44.47508" lon="6.70435">
        <ele>2004.5</ele>
        <time>2023-01-20T09:47:58Z</time>
      </trkpt>
      <trkpt lat="44.47508" lon="6.70434">
        <ele>2004.6</ele>
        <time>2023-01-20T09:47:59Z</time>
      </trkpt>
      <trkpt lat="44.47508" lon="6.70433">
        <ele>2004.7</ele>
        <time>2023-01-20T09:48:00Z</time>
      </trkpt>
      <trkpt lat="44.47508" lon="6.70433">
        <ele>2004.8</ele>
        <time>2023-01-20T09:48:01Z</time>
      </trkpt>
      <trkpt lat="44.47508" lon="6.70431">
        <ele>2005</ele>
        <time>2023-01-20T09:48:02Z</time>
      </trkpt>
      <trkpt lat="44.47508" lon="6.7043">
        <ele>2005.2</ele>
        <time>2023-01-20T09:48:03Z</time>
      </trkpt>
      <trkpt lat="44.47508" lon="6.70429">
        <ele>2005.3</ele>
        <time>2023-01-20T09:48:04Z</time>
      </trkpt>
      <trkpt lat="44.47509" lon="6.70429">
        <ele>2005.3</ele>
        <time>2023-01-20T09:48:05Z</time>
      </trkpt>
      <trkpt lat="44.47508" lon="6.70429">
        <ele>2005.4</ele>
        <time>2023-01-20T09:48:06Z</time>
      </trkpt>
      <trkpt lat="44.47508" lon="6.70428">
        <ele>2005.6</ele>
        <time>2023-01-20T09:48:07Z</time>
      </trkpt>
      <trkpt lat="44.47509" lon="6.70427">
        <ele>2005.6</ele>
        <time>2023-01-20T09:48:08Z</time>
      </trkpt>
      <trkpt lat="44.47509" lon="6.70426">
        <ele>2005.8</ele>
        <time>2023-01-20T09:48:09Z</time>
      </trkpt>
      <trkpt lat="44.47509" lon="6.70425">
        <ele>2006</ele>
        <time>2023-01-20T09:48:10Z</time>
      </trkpt>
      <trkpt lat="44.47509" lon="6.70424">
        <ele>2006.1</ele>
        <time>2023-01-20T09:48:11Z</time>
      </trkpt>
      <trkpt lat="44.47508" lon="6.70424">
        <ele>2006.3</ele>
        <time>2023-01-20T09:48:12Z</time>
      </trkpt>
      <trkpt lat="44.47508" lon="6.70423">
        <ele>2006.5</ele>
        <time>2023-01-20T09:48:13Z</time>
      </trkpt>
      <trkpt lat="44.47508" lon="6.70422">
        <ele>2006.6</ele>
        <time>2023-01-20T09:48:14Z</time>
      </trkpt>
      <trkpt lat="44.47508" lon="6.70421">
        <ele>2006.7</ele>
        <time>2023-01-20T09:48:15Z</time>
      </trkpt>
      <trkpt lat="44.47508" lon="6.7042">
        <ele>2006.9</ele>
        <time>2023-01-20T09:48:16Z</time>
      </trkpt>
      <trkpt lat="44.47508" lon="6.7042">
        <ele>2007.1</ele>
        <time>2023-01-20T09:48:17Z</time>
      </trkpt>
      <trkpt lat="44.47509" lon="6.70419">
        <ele>2007.1</ele>
        <time>2023-01-20T09:48:18Z</time>
      </trkpt>
      <trkpt lat="44.47509" lon="6.70418">
        <ele>2007.3</ele>
        <time>2023-01-20T09:48:19Z</time>
      </trkpt>
      <trkpt lat="44.47509" lon="6.70417">
        <ele>2007.4</ele>
        <time>2023-01-20T09:48:20Z</time>
      </trkpt>
      <trkpt lat="44.47509" lon="6.70416">
        <ele>2007.5</ele>
        <time>2023-01-20T09:48:21Z</time>
      </trkpt>
      <trkpt lat="44.47509" lon="6.70416">
        <ele>2007.5</ele>
        <time>2023-01-20T09:48:22Z</time>
      </trkpt>
      <trkpt lat="44.47509" lon="6.70415">
        <ele>2007.6</ele>
        <time>2023-01-20T09:48:23Z</time>
      </trkpt>
      <trkpt lat="44.47509" lon="6.70414">
        <ele>2007.7</ele>
        <time>2023-01-20T09:48:24Z</time>
      </trkpt>
      <trkpt lat="44.4751" lon="6.70413">
        <ele>2007.9</ele>
        <time>2023-01-20T09:48:25Z</time>
      </trkpt>
      <trkpt lat="44.4751" lon="6.70412">
        <ele>2008</ele>
        <time>2023-01-20T09:48:26Z</time>
      </trkpt>
      <trkpt lat="44.4751" lon="6.70412">
        <ele>2008</ele>
        <time>2023-01-20T09:48:27Z</time>
      </trkpt>
      <trkpt lat="44.4751" lon="6.70411">
        <ele>2008.2</ele>
        <time>2023-01-20T09:48:28Z</time>
      </trkpt>
      <trkpt lat="44.4751" lon="6.7041">
        <ele>2008.3</ele>
        <time>2023-01-20T09:48:29Z</time>
      </trkpt>
      <trkpt lat="44.4751" lon="6.70409">
        <ele>2008.5</ele>
        <time>2023-01-20T09:48:30Z</time>
      </trkpt>
      <trkpt lat="44.4751" lon="6.70408">
        <ele>2008.6</ele>
        <time>2023-01-20T09:48:31Z</time>
      </trkpt>
      <trkpt lat="44.4751" lon="6.70407">
        <ele>2008.7</ele>
        <time>2023-01-20T09:48:32Z</time>
      </trkpt>
      <trkpt lat="44.47511" lon="6.70407">
        <ele>2008.8</ele>
        <time>2023-01-20T09:48:33Z</time>
      </trkpt>
      <trkpt lat="44.47511" lon="6.70406">
        <ele>2008.9</ele>
        <time>2023-01-20T09:48:34Z</time>
      </trkpt>
      <trkpt lat="44.47511" lon="6.70405">
        <ele>2009.1</ele>
        <time>2023-01-20T09:48:35Z</time>
      </trkpt>
      <trkpt lat="44.47511" lon="6.70404">
        <ele>2009.2</ele>
        <time>2023-01-20T09:48:36Z</time>
      </trkpt>
      <trkpt lat="44.47511" lon="6.70403">
        <ele>2009.3</ele>
        <time>2023-01-20T09:48:37Z</time>
      </trkpt>
      <trkpt lat="44.47511" lon="6.70402">
        <ele>2009.4</ele>
        <time>2023-01-20T09:48:38Z</time>
      </trkpt>
      <trkpt lat="44.47511" lon="6.70401">
        <ele>2009.5</ele>
        <time>2023-01-20T09:48:39Z</time>
      </trkpt>
      <trkpt lat="44.47511" lon="6.70401">
        <ele>2009.6</ele>
        <time>2023-01-20T09:48:40Z</time>
      </trkpt>
      <trkpt lat="44.47511" lon="6.704">
        <ele>2009.8</ele>
        <time>2023-01-20T09:48:41Z</time>
      </trkpt>
      <trkpt lat="44.47511" lon="6.704">
        <ele>2009.8</ele>
        <time>2023-01-20T09:48:42Z</time>
      </trkpt>
      <trkpt lat="44.47511" lon="6.70399">
        <ele>2009.9</ele>
        <time>2023-01-20T09:48:43Z</time>
      </trkpt>
      <trkpt lat="44.47511" lon="6.70398">
        <ele>2010.1</ele>
        <time>2023-01-20T09:48:44Z</time>
      </trkpt>
      <trkpt lat="44.47511" lon="6.70397">
        <ele>2010.2</ele>
        <time>2023-01-20T09:48:45Z</time>
      </trkpt>
      <trkpt lat="44.47512" lon="6.70397">
        <ele>2010.2</ele>
        <time>2023-01-20T09:48:46Z</time>
      </trkpt>
      <trkpt lat="44.47512" lon="6.70396">
        <ele>2010.3</ele>
        <time>2023-01-20T09:48:47Z</time>
      </trkpt>
      <trkpt lat="44.47512" lon="6.70396">
        <ele>2010.4</ele>
        <time>2023-01-20T09:48:48Z</time>
      </trkpt>
      <trkpt lat="44.47512" lon="6.70394">
        <ele>2010.6</ele>
        <time>2023-01-20T09:48:49Z</time>
      </trkpt>
      <trkpt lat="44.47512" lon="6.70394">
        <ele>2010.7</ele>
        <time>2023-01-20T09:48:50Z</time>
      </trkpt>
      <trkpt lat="44.47512" lon="6.70393">
        <ele>2010.8</ele>
        <time>2023-01-20T09:48:51Z</time>
      </trkpt>
      <trkpt lat="44.47512" lon="6.70392">
        <ele>2010.9</ele>
        <time>2023-01-20T09:48:52Z</time>
      </trkpt>
      <trkpt lat="44.47512" lon="6.70391">
        <ele>2011.1</ele>
        <time>2023-01-20T09:48:53Z</time>
      </trkpt>
      <trkpt lat="44.47512" lon="6.70391">
        <ele>2011.2</ele>
        <time>2023-01-20T09:48:54Z</time>
      </trkpt>
      <trkpt lat="44.47512" lon="6.7039">
        <ele>2011.4</ele>
        <time>2023-01-20T09:48:55Z</time>
      </trkpt>
      <trkpt lat="44.47512" lon="6.70389">
        <ele>2011.5</ele>
        <time>2023-01-20T09:48:56Z</time>
      </trkpt>
      <trkpt lat="44.47512" lon="6.70388">
        <ele>2011.6</ele>
        <time>2023-01-20T09:48:57Z</time>
      </trkpt>
      <trkpt lat="44.47512" lon="6.70387">
        <ele>2011.7</ele>
        <time>2023-01-20T09:48:58Z</time>
      </trkpt>
      <trkpt lat="44.47512" lon="6.70387">
        <ele>2011.9</ele>
        <time>2023-01-20T09:48:59Z</time>
      </trkpt>
      <trkpt lat="44.47512" lon="6.70386">
        <ele>2012</ele>
        <time>2023-01-20T09:49:00Z</time>
      </trkpt>
      <trkpt lat="44.47512" lon="6.70385">
        <ele>2012.1</ele>
        <time>2023-01-20T09:49:01Z</time>
      </trkpt>
      <trkpt lat="44.47512" lon="6.70384">
        <ele>2012.3</ele>
        <time>2023-01-20T09:49:02Z</time>
      </trkpt>
      <trkpt lat="44.47512" lon="6.70383">
        <ele>2012.5</ele>
        <time>2023-01-20T09:49:03Z</time>
      </trkpt>
      <trkpt lat="44.47512" lon="6.70382">
        <ele>2012.6</ele>
        <time>2023-01-20T09:49:04Z</time>
      </trkpt>
      <trkpt lat="44.47512" lon="6.70381">
        <ele>2012.7</ele>
        <time>2023-01-20T09:49:05Z</time>
      </trkpt>
      <trkpt lat="44.47512" lon="6.7038">
        <ele>2012.9</ele>
        <time>2023-01-20T09:49:06Z</time>
      </trkpt>
      <trkpt lat="44.47512" lon="6.70379">
        <ele>2013.1</ele>
        <time>2023-01-20T09:49:07Z</time>
      </trkpt>
      <trkpt lat="44.47512" lon="6.70379">
        <ele>2013.2</ele>
        <time>2023-01-20T09:49:08Z</time>
      </trkpt>
      <trkpt lat="44.47512" lon="6.70378">
        <ele>2013.2</ele>
        <time>2023-01-20T09:49:09Z</time>
      </trkpt>
      <trkpt lat="44.47512" lon="6.70377">
        <ele>2013.4</ele>
        <time>2023-01-20T09:49:10Z</time>
      </trkpt>
      <trkpt lat="44.47512" lon="6.70377">
        <ele>2013.4</ele>
        <time>2023-01-20T09:49:11Z</time>
      </trkpt>
      <trkpt lat="44.47513" lon="6.70376">
        <ele>2013.5</ele>
        <time>2023-01-20T09:49:12Z</time>
      </trkpt>
      <trkpt lat="44.47513" lon="6.70374">
        <ele>2013.7</ele>
        <time>2023-01-20T09:49:13Z</time>
      </trkpt>
      <trkpt lat="44.47513" lon="6.70374">
        <ele>2013.8</ele>
        <time>2023-01-20T09:49:14Z</time>
      </trkpt>
      <trkpt lat="44.47513" lon="6.70373">
        <ele>2013.8</ele>
        <time>2023-01-20T09:49:15Z</time>
      </trkpt>
      <trkpt lat="44.47513" lon="6.70372">
        <ele>2014</ele>
        <time>2023-01-20T09:49:16Z</time>
      </trkpt>
      <trkpt lat="44.47513" lon="6.70371">
        <ele>2014.1</ele>
        <time>2023-01-20T09:49:17Z</time>
      </trkpt>
      <trkpt lat="44.47513" lon="6.7037">
        <ele>2014.2</ele>
        <time>2023-01-20T09:49:18Z</time>
      </trkpt>
      <trkpt lat="44.47513" lon="6.70369">
        <ele>2014.4</ele>
        <time>2023-01-20T09:49:19Z</time>
      </trkpt>
      <trkpt lat="44.47513" lon="6.70368">
        <ele>2014.5</ele>
        <time>2023-01-20T09:49:20Z</time>
      </trkpt>
      <trkpt lat="44.47513" lon="6.70367">
        <ele>2014.7</ele>
        <time>2023-01-20T09:49:21Z</time>
      </trkpt>
      <trkpt lat="44.47514" lon="6.70366">
        <ele>2014.7</ele>
        <time>2023-01-20T09:49:22Z</time>
      </trkpt>
      <trkpt lat="44.47514" lon="6.70365">
        <ele>2014.8</ele>
        <time>2023-01-20T09:49:23Z</time>
      </trkpt>
      <trkpt lat="44.47514" lon="6.70365">
        <ele>2015</ele>
        <time>2023-01-20T09:49:24Z</time>
      </trkpt>
      <trkpt lat="44.47514" lon="6.70364">
        <ele>2015.1</ele>
        <time>2023-01-20T09:49:25Z</time>
      </trkpt>
      <trkpt lat="44.47514" lon="6.70363">
        <ele>2015.3</ele>
        <time>2023-01-20T09:49:26Z</time>
      </trkpt>
      <trkpt lat="44.47514" lon="6.70362">
        <ele>2015.5</ele>
        <time>2023-01-20T09:49:27Z</time>
      </trkpt>
      <trkpt lat="44.47514" lon="6.70361">
        <ele>2015.6</ele>
        <time>2023-01-20T09:49:28Z</time>
      </trkpt>
      <trkpt lat="44.47514" lon="6.7036">
        <ele>2015.9</ele>
        <time>2023-01-20T09:49:29Z</time>
      </trkpt>
      <trkpt lat="44.47513" lon="6.70359">
        <ele>2016.1</ele>
        <time>2023-01-20T09:49:30Z</time>
      </trkpt>
      <trkpt lat="44.47513" lon="6.70358">
        <ele>2016.3</ele>
        <time>2023-01-20T09:49:31Z</time>
      </trkpt>
      <trkpt lat="44.47513" lon="6.70357">
        <ele>2016.5</ele>
        <time>2023-01-20T09:49:32Z</time>
      </trkpt>
      <trkpt lat="44.47513" lon="6.70357">
        <ele>2016.7</ele>
        <time>2023-01-20T09:49:33Z</time>
      </trkpt>
      <trkpt lat="44.47513" lon="6.70355">
        <ele>2017.1</ele>
        <time>2023-01-20T09:49:34Z</time>
      </trkpt>
      <trkpt lat="44.47513" lon="6.70354">
        <ele>2017.3</ele>
        <time>2023-01-20T09:49:35Z</time>
      </trkpt>
      <trkpt lat="44.47513" lon="6.70353">
        <ele>2017.4</ele>
        <time>2023-01-20T09:49:36Z</time>
      </trkpt>
      <trkpt lat="44.47513" lon="6.70352">
        <ele>2017.6</ele>
        <time>2023-01-20T09:49:37Z</time>
      </trkpt>
      <trkpt lat="44.47513" lon="6.70351">
        <ele>2017.8</ele>
        <time>2023-01-20T09:49:38Z</time>
      </trkpt>
      <trkpt lat="44.47513" lon="6.7035">
        <ele>2018</ele>
        <time>2023-01-20T09:49:39Z</time>
      </trkpt>
      <trkpt lat="44.47513" lon="6.70349">
        <ele>2018.1</ele>
        <time>2023-01-20T09:49:40Z</time>
      </trkpt>
      <trkpt lat="44.47513" lon="6.70348">
        <ele>2018.3</ele>
        <time>2023-01-20T09:49:41Z</time>
      </trkpt>
      <trkpt lat="44.47513" lon="6.70347">
        <ele>2018.5</ele>
        <time>2023-01-20T09:49:42Z</time>
      </trkpt>
      <trkpt lat="44.47513" lon="6.70347">
        <ele>2018.7</ele>
        <time>2023-01-20T09:49:43Z</time>
      </trkpt>
      <trkpt lat="44.47513" lon="6.70346">
        <ele>2018.9</ele>
        <time>2023-01-20T09:49:44Z</time>
      </trkpt>
      <trkpt lat="44.47513" lon="6.70345">
        <ele>2019</ele>
        <time>2023-01-20T09:49:45Z</time>
      </trkpt>
      <trkpt lat="44.47513" lon="6.70344">
        <ele>2019.1</ele>
        <time>2023-01-20T09:49:46Z</time>
      </trkpt>
      <trkpt lat="44.47513" lon="6.70343">
        <ele>2019.2</ele>
        <time>2023-01-20T09:49:47Z</time>
      </trkpt>
      <trkpt lat="44.47514" lon="6.70343">
        <ele>2019.2</ele>
        <time>2023-01-20T09:49:48Z</time>
      </trkpt>
      <trkpt lat="44.47514" lon="6.70342">
        <ele>2019.2</ele>
        <time>2023-01-20T09:49:49Z</time>
      </trkpt>
      <trkpt lat="44.47514" lon="6.70341">
        <ele>2019.3</ele>
        <time>2023-01-20T09:49:50Z</time>
      </trkpt>
      <trkpt lat="44.47515" lon="6.7034">
        <ele>2019.4</ele>
        <time>2023-01-20T09:49:51Z</time>
      </trkpt>
      <trkpt lat="44.47515" lon="6.70339">
        <ele>2019.5</ele>
        <time>2023-01-20T09:49:52Z</time>
      </trkpt>
      <trkpt lat="44.47515" lon="6.70338">
        <ele>2019.7</ele>
        <time>2023-01-20T09:49:53Z</time>
      </trkpt>
      <trkpt lat="44.47515" lon="6.70337">
        <ele>2019.8</ele>
        <time>2023-01-20T09:49:54Z</time>
      </trkpt>
      <trkpt lat="44.47516" lon="6.70336">
        <ele>2019.8</ele>
        <time>2023-01-20T09:49:55Z</time>
      </trkpt>
      <trkpt lat="44.47517" lon="6.70335">
        <ele>2019.8</ele>
        <time>2023-01-20T09:49:56Z</time>
      </trkpt>
      <trkpt lat="44.47517" lon="6.70334">
        <ele>2019.9</ele>
        <time>2023-01-20T09:49:57Z</time>
      </trkpt>
      <trkpt lat="44.47518" lon="6.70333">
        <ele>2020</ele>
        <time>2023-01-20T09:49:58Z</time>
      </trkpt>
      <trkpt lat="44.47518" lon="6.70332">
        <ele>2020.1</ele>
        <time>2023-01-20T09:49:59Z</time>
      </trkpt>
      <trkpt lat="44.47519" lon="6.70331">
        <ele>2020.1</ele>
        <time>2023-01-20T09:50:00Z</time>
      </trkpt>
      <trkpt lat="44.47519" lon="6.70329">
        <ele>2020.3</ele>
        <time>2023-01-20T09:50:01Z</time>
      </trkpt>
      <trkpt lat="44.47519" lon="6.70328">
        <ele>2020.3</ele>
        <time>2023-01-20T09:50:02Z</time>
      </trkpt>
      <trkpt lat="44.4752" lon="6.70328">
        <ele>2020.3</ele>
        <time>2023-01-20T09:50:03Z</time>
      </trkpt>
      <trkpt lat="44.4752" lon="6.70328">
        <ele>2020.2</ele>
        <time>2023-01-20T09:50:04Z</time>
      </trkpt>
      <trkpt lat="44.47521" lon="6.70327">
        <ele>2020.2</ele>
        <time>2023-01-20T09:50:05Z</time>
      </trkpt>
      <trkpt lat="44.47521" lon="6.70326">
        <ele>2020.4</ele>
        <time>2023-01-20T09:50:06Z</time>
      </trkpt>
      <trkpt lat="44.47521" lon="6.70325">
        <ele>2020.4</ele>
        <time>2023-01-20T09:50:07Z</time>
      </trkpt>
      <trkpt lat="44.47521" lon="6.70325">
        <ele>2020.5</ele>
        <time>2023-01-20T09:50:08Z</time>
      </trkpt>
      <trkpt lat="44.47522" lon="6.70325">
        <ele>2020.4</ele>
        <time>2023-01-20T09:50:09Z</time>
      </trkpt>
      <trkpt lat="44.47522" lon="6.70324">
        <ele>2020.4</ele>
        <time>2023-01-20T09:50:10Z</time>
      </trkpt>
      <trkpt lat="44.47522" lon="6.70324">
        <ele>2020.4</ele>
        <time>2023-01-20T09:50:11Z</time>
      </trkpt>
      <trkpt lat="44.47523" lon="6.70323">
        <ele>2020.4</ele>
        <time>2023-01-20T09:50:12Z</time>
      </trkpt>
      <trkpt lat="44.47524" lon="6.70322">
        <ele>2020.3</ele>
        <time>2023-01-20T09:50:13Z</time>
      </trkpt>
      <trkpt lat="44.47524" lon="6.70321">
        <ele>2020.4</ele>
        <time>2023-01-20T09:50:14Z</time>
      </trkpt>
      <trkpt lat="44.47524" lon="6.7032">
        <ele>2020.5</ele>
        <time>2023-01-20T09:50:15Z</time>
      </trkpt>
      <trkpt lat="44.47525" lon="6.70319">
        <ele>2020.5</ele>
        <time>2023-01-20T09:50:16Z</time>
      </trkpt>
      <trkpt lat="44.47525" lon="6.70319">
        <ele>2020.5</ele>
        <time>2023-01-20T09:50:17Z</time>
      </trkpt>
      <trkpt lat="44.47526" lon="6.70318">
        <ele>2020.4</ele>
        <time>2023-01-20T09:50:18Z</time>
      </trkpt>
      <trkpt lat="44.47526" lon="6.70318">
        <ele>2020.3</ele>
        <time>2023-01-20T09:50:19Z</time>
      </trkpt>
      <trkpt lat="44.47526" lon="6.70317">
        <ele>2020.4</ele>
        <time>2023-01-20T09:50:20Z</time>
      </trkpt>
      <trkpt lat="44.47527" lon="6.70316">
        <ele>2020.4</ele>
        <time>2023-01-20T09:50:21Z</time>
      </trkpt>
      <trkpt lat="44.47527" lon="6.70316">
        <ele>2020.5</ele>
        <time>2023-01-20T09:50:22Z</time>
      </trkpt>
      <trkpt lat="44.47527" lon="6.70315">
        <ele>2020.5</ele>
        <time>2023-01-20T09:50:23Z</time>
      </trkpt>
      <trkpt lat="44.47527" lon="6.70314">
        <ele>2020.6</ele>
        <time>2023-01-20T09:50:24Z</time>
      </trkpt>
      <trkpt lat="44.47528" lon="6.70314">
        <ele>2020.6</ele>
        <time>2023-01-20T09:50:25Z</time>
      </trkpt>
      <trkpt lat="44.47528" lon="6.70313">
        <ele>2020.6</ele>
        <time>2023-01-20T09:50:26Z</time>
      </trkpt>
      <trkpt lat="44.47528" lon="6.70312">
        <ele>2020.5</ele>
        <time>2023-01-20T09:50:27Z</time>
      </trkpt>
      <trkpt lat="44.47529" lon="6.70312">
        <ele>2020.6</ele>
        <time>2023-01-20T09:50:28Z</time>
      </trkpt>
      <trkpt lat="44.47529" lon="6.70311">
        <ele>2020.7</ele>
        <time>2023-01-20T09:50:29Z</time>
      </trkpt>
      <trkpt lat="44.47529" lon="6.7031">
        <ele>2020.7</ele>
        <time>2023-01-20T09:50:30Z</time>
      </trkpt>
      <trkpt lat="44.4753" lon="6.70309">
        <ele>2020.7</ele>
        <time>2023-01-20T09:50:31Z</time>
      </trkpt>
      <trkpt lat="44.4753" lon="6.70309">
        <ele>2020.7</ele>
        <time>2023-01-20T09:50:32Z</time>
      </trkpt>
      <trkpt lat="44.47531" lon="6.70308">
        <ele>2020.8</ele>
        <time>2023-01-20T09:50:33Z</time>
      </trkpt>
      <trkpt lat="44.47531" lon="6.70308">
        <ele>2020.8</ele>
        <time>2023-01-20T09:50:34Z</time>
      </trkpt>
      <trkpt lat="44.47531" lon="6.70307">
        <ele>2020.8</ele>
        <time>2023-01-20T09:50:35Z</time>
      </trkpt>
      <trkpt lat="44.47531" lon="6.70307">
        <ele>2020.8</ele>
        <time>2023-01-20T09:50:36Z</time>
      </trkpt>
      <trkpt lat="44.47531" lon="6.70307">
        <ele>2020.8</ele>
        <time>2023-01-20T09:50:37Z</time>
      </trkpt>
      <trkpt lat="44.47531" lon="6.70307">
        <ele>2020.8</ele>
        <time>2023-01-20T09:50:38Z</time>
      </trkpt>
      <trkpt lat="44.47531" lon="6.70307">
        <ele>2020.8</ele>
        <time>2023-01-20T09:50:39Z</time>
      </trkpt>
      <trkpt lat="44.47531" lon="6.70307">
        <ele>2020.8</ele>
        <time>2023-01-20T09:50:40Z</time>
      </trkpt>
      <trkpt lat="44.47531" lon="6.70307">
        <ele>2020.8</ele>
        <time>2023-01-20T09:50:41Z</time>
      </trkpt>
      <trkpt lat="44.47531" lon="6.70307">
        <ele>2020.8</ele>
        <time>2023-01-20T09:50:42Z</time>
      </trkpt>
      <trkpt lat="44.47531" lon="6.70307">
        <ele>2020.8</ele>
        <time>2023-01-20T09:50:43Z</time>
      </trkpt>
      <trkpt lat="44.47531" lon="6.70307">
        <ele>2020.9</ele>
        <time>2023-01-20T09:50:44Z</time>
      </trkpt>
      <trkpt lat="44.4753" lon="6.70307">
        <ele>2021</ele>
        <time>2023-01-20T09:50:45Z</time>
      </trkpt>
      <trkpt lat="44.4753" lon="6.70307">
        <ele>2021</ele>
        <time>2023-01-20T09:50:46Z</time>
      </trkpt>
      <trkpt lat="44.4753" lon="6.70307">
        <ele>2021.1</ele>
        <time>2023-01-20T09:50:47Z</time>
      </trkpt>
      <trkpt lat="44.4753" lon="6.70307">
        <ele>2021.1</ele>
        <time>2023-01-20T09:50:48Z</time>
      </trkpt>
      <trkpt lat="44.4753" lon="6.70307">
        <ele>2021.2</ele>
        <time>2023-01-20T09:50:49Z</time>
      </trkpt>
      <trkpt lat="44.47529" lon="6.70306">
        <ele>2021.7</ele>
        <time>2023-01-20T09:50:50Z</time>
      </trkpt>
      <trkpt lat="44.47528" lon="6.70306">
        <ele>2021.9</ele>
        <time>2023-01-20T09:50:51Z</time>
      </trkpt>
      <trkpt lat="44.47527" lon="6.70306">
        <ele>2022.3</ele>
        <time>2023-01-20T09:50:52Z</time>
      </trkpt>
      <trkpt lat="44.47526" lon="6.70305">
        <ele>2022.7</ele>
        <time>2023-01-20T09:50:53Z</time>
      </trkpt>
      <trkpt lat="44.47525" lon="6.70305">
        <ele>2023</ele>
        <time>2023-01-20T09:50:54Z</time>
      </trkpt>
      <trkpt lat="44.47524" lon="6.70305">
        <ele>2023.2</ele>
        <time>2023-01-20T09:50:55Z</time>
      </trkpt>
      <trkpt lat="44.47523" lon="6.70306">
        <ele>2023.4</ele>
        <time>2023-01-20T09:50:56Z</time>
      </trkpt>
      <trkpt lat="44.47523" lon="6.70306">
        <ele>2023.5</ele>
        <time>2023-01-20T09:50:57Z</time>
      </trkpt>
      <trkpt lat="44.47522" lon="6.70307">
        <ele>2023.6</ele>
        <time>2023-01-20T09:50:58Z</time>
      </trkpt>
      <trkpt lat="44.47521" lon="6.70307">
        <ele>2023.9</ele>
        <time>2023-01-20T09:50:59Z</time>
      </trkpt>
      <trkpt lat="44.4752" lon="6.70308">
        <ele>2023.9</ele>
        <time>2023-01-20T09:51:00Z</time>
      </trkpt>
      <trkpt lat="44.4752" lon="6.70309">
        <ele>2023.8</ele>
        <time>2023-01-20T09:51:01Z</time>
      </trkpt>
      <trkpt lat="44.4752" lon="6.70309">
        <ele>2024</ele>
        <time>2023-01-20T09:51:02Z</time>
      </trkpt>
      <trkpt lat="44.47519" lon="6.70309">
        <ele>2024.1</ele>
        <time>2023-01-20T09:51:03Z</time>
      </trkpt>
      <trkpt lat="44.47518" lon="6.7031">
        <ele>2024.2</ele>
        <time>2023-01-20T09:51:04Z</time>
      </trkpt>
      <trkpt lat="44.47518" lon="6.7031">
        <ele>2024.3</ele>
        <time>2023-01-20T09:51:05Z</time>
      </trkpt>
      <trkpt lat="44.47518" lon="6.70311">
        <ele>2024.3</ele>
        <time>2023-01-20T09:51:06Z</time>
      </trkpt>
      <trkpt lat="44.47518" lon="6.70311">
        <ele>2024.3</ele>
        <time>2023-01-20T09:51:07Z</time>
      </trkpt>
      <trkpt lat="44.47517" lon="6.70312">
        <ele>2024.2</ele>
        <time>2023-01-20T09:51:08Z</time>
      </trkpt>
      <trkpt lat="44.47517" lon="6.70312">
        <ele>2024.2</ele>
        <time>2023-01-20T09:51:09Z</time>
      </trkpt>
      <trkpt lat="44.47516" lon="6.70313">
        <ele>2024.3</ele>
        <time>2023-01-20T09:51:10Z</time>
      </trkpt>
      <trkpt lat="44.47516" lon="6.70313">
        <ele>2024.3</ele>
        <time>2023-01-20T09:51:11Z</time>
      </trkpt>
      <trkpt lat="44.47516" lon="6.70315">
        <ele>2024</ele>
        <time>2023-01-20T09:51:12Z</time>
      </trkpt>
      <trkpt lat="44.47516" lon="6.70315">
        <ele>2024</ele>
        <time>2023-01-20T09:51:13Z</time>
      </trkpt>
      <trkpt lat="44.47516" lon="6.70315">
        <ele>2024</ele>
        <time>2023-01-20T09:51:14Z</time>
      </trkpt>
      <trkpt lat="44.47516" lon="6.70315">
        <ele>2024</ele>
        <time>2023-01-20T09:51:15Z</time>
      </trkpt>
      <trkpt lat="44.47516" lon="6.70315">
        <ele>2024</ele>
        <time>2023-01-20T09:51:16Z</time>
      </trkpt>
      <trkpt lat="44.47516" lon="6.70314">
        <ele>2024.2</ele>
        <time>2023-01-20T09:51:17Z</time>
      </trkpt>
      <trkpt lat="44.47516" lon="6.70313">
        <ele>2024.4</ele>
        <time>2023-01-20T09:51:18Z</time>
      </trkpt>
      <trkpt lat="44.47516" lon="6.70312">
        <ele>2024.4</ele>
        <time>2023-01-20T09:51:19Z</time>
      </trkpt>
      <trkpt lat="44.47517" lon="6.70311">
        <ele>2024.4</ele>
        <time>2023-01-20T09:51:20Z</time>
      </trkpt>
      <trkpt lat="44.47517" lon="6.7031">
        <ele>2024.6</ele>
        <time>2023-01-20T09:51:21Z</time>
      </trkpt>
      <trkpt lat="44.47517" lon="6.70309">
        <ele>2024.7</ele>
        <time>2023-01-20T09:51:22Z</time>
      </trkpt>
      <trkpt lat="44.47517" lon="6.70308">
        <ele>2024.8</ele>
        <time>2023-01-20T09:51:23Z</time>
      </trkpt>
      <trkpt lat="44.47517" lon="6.70308">
        <ele>2025</ele>
        <time>2023-01-20T09:51:24Z</time>
      </trkpt>
      <trkpt lat="44.47518" lon="6.70307">
        <ele>2025.1</ele>
        <time>2023-01-20T09:51:25Z</time>
      </trkpt>
      <trkpt lat="44.47518" lon="6.70306">
        <ele>2025.2</ele>
        <time>2023-01-20T09:51:26Z</time>
      </trkpt>
      <trkpt lat="44.47518" lon="6.70305">
        <ele>2025.3</ele>
        <time>2023-01-20T09:51:27Z</time>
      </trkpt>
      <trkpt lat="44.47518" lon="6.70305">
        <ele>2025.3</ele>
        <time>2023-01-20T09:51:28Z</time>
      </trkpt>
      <trkpt lat="44.47518" lon="6.70304">
        <ele>2025.5</ele>
        <time>2023-01-20T09:51:29Z</time>
      </trkpt>
      <trkpt lat="44.47518" lon="6.70303">
        <ele>2025.6</ele>
        <time>2023-01-20T09:51:30Z</time>
      </trkpt>
      <trkpt lat="44.47518" lon="6.70302">
        <ele>2025.8</ele>
        <time>2023-01-20T09:51:31Z</time>
      </trkpt>
      <trkpt lat="44.47518" lon="6.70302">
        <ele>2025.8</ele>
        <time>2023-01-20T09:51:32Z</time>
      </trkpt>
      <trkpt lat="44.47518" lon="6.70301">
        <ele>2026</ele>
        <time>2023-01-20T09:51:33Z</time>
      </trkpt>
      <trkpt lat="44.47518" lon="6.703">
        <ele>2026.1</ele>
        <time>2023-01-20T09:51:34Z</time>
      </trkpt>
      <trkpt lat="44.47518" lon="6.70299">
        <ele>2026.3</ele>
        <time>2023-01-20T09:51:35Z</time>
      </trkpt>
      <trkpt lat="44.47518" lon="6.70299">
        <ele>2026.4</ele>
        <time>2023-01-20T09:51:36Z</time>
      </trkpt>
      <trkpt lat="44.47518" lon="6.70298">
        <ele>2026.5</ele>
        <time>2023-01-20T09:51:37Z</time>
      </trkpt>
      <trkpt lat="44.47519" lon="6.70296">
        <ele>2026.7</ele>
        <time>2023-01-20T09:51:38Z</time>
      </trkpt>
      <trkpt lat="44.47519" lon="6.70295">
        <ele>2026.9</ele>
        <time>2023-01-20T09:51:39Z</time>
      </trkpt>
      <trkpt lat="44.47519" lon="6.70294">
        <ele>2027.1</ele>
        <time>2023-01-20T09:51:40Z</time>
      </trkpt>
      <trkpt lat="44.47519" lon="6.70293">
        <ele>2027.3</ele>
        <time>2023-01-20T09:51:41Z</time>
      </trkpt>
      <trkpt lat="44.47519" lon="6.70292">
        <ele>2027.5</ele>
        <time>2023-01-20T09:51:42Z</time>
      </trkpt>
      <trkpt lat="44.47518" lon="6.70291">
        <ele>2027.7</ele>
        <time>2023-01-20T09:51:43Z</time>
      </trkpt>
      <trkpt lat="44.47518" lon="6.70291">
        <ele>2028</ele>
        <time>2023-01-20T09:51:44Z</time>
      </trkpt>
      <trkpt lat="44.47518" lon="6.7029">
        <ele>2028.2</ele>
        <time>2023-01-20T09:51:45Z</time>
      </trkpt>
      <trkpt lat="44.47517" lon="6.70291">
        <ele>2028.3</ele>
        <time>2023-01-20T09:51:46Z</time>
      </trkpt>
      <trkpt lat="44.47517" lon="6.7029">
        <ele>2028.6</ele>
        <time>2023-01-20T09:51:47Z</time>
      </trkpt>
      <trkpt lat="44.47516" lon="6.7029">
        <ele>2028.8</ele>
        <time>2023-01-20T09:51:48Z</time>
      </trkpt>
      <trkpt lat="44.47515" lon="6.7029">
        <ele>2029.1</ele>
        <time>2023-01-20T09:51:49Z</time>
      </trkpt>
      <trkpt lat="44.47515" lon="6.7029">
        <ele>2029.3</ele>
        <time>2023-01-20T09:51:50Z</time>
      </trkpt>
      <trkpt lat="44.47514" lon="6.7029">
        <ele>2029.6</ele>
        <time>2023-01-20T09:51:51Z</time>
      </trkpt>
      <trkpt lat="44.47513" lon="6.7029">
        <ele>2029.8</ele>
        <time>2023-01-20T09:51:52Z</time>
      </trkpt>
      <trkpt lat="44.47512" lon="6.7029">
        <ele>2030.1</ele>
        <time>2023-01-20T09:51:53Z</time>
      </trkpt>
      <trkpt lat="44.47512" lon="6.7029">
        <ele>2030.3</ele>
        <time>2023-01-20T09:51:54Z</time>
      </trkpt>
      <trkpt lat="44.47511" lon="6.70291">
        <ele>2030.5</ele>
        <time>2023-01-20T09:51:55Z</time>
      </trkpt>
      <trkpt lat="44.4751" lon="6.70291">
        <ele>2030.8</ele>
        <time>2023-01-20T09:51:56Z</time>
      </trkpt>
      <trkpt lat="44.47509" lon="6.70291">
        <ele>2031</ele>
        <time>2023-01-20T09:51:57Z</time>
      </trkpt>
      <trkpt lat="44.47509" lon="6.70291">
        <ele>2031.2</ele>
        <time>2023-01-20T09:51:58Z</time>
      </trkpt>
      <trkpt lat="44.47508" lon="6.70291">
        <ele>2031.4</ele>
        <time>2023-01-20T09:51:59Z</time>
      </trkpt>
      <trkpt lat="44.47507" lon="6.70291">
        <ele>2031.7</ele>
        <time>2023-01-20T09:52:00Z</time>
      </trkpt>
      <trkpt lat="44.47506" lon="6.70292">
        <ele>2032</ele>
        <time>2023-01-20T09:52:01Z</time>
      </trkpt>
      <trkpt lat="44.47505" lon="6.70292">
        <ele>2032.2</ele>
        <time>2023-01-20T09:52:02Z</time>
      </trkpt>
      <trkpt lat="44.47505" lon="6.70292">
        <ele>2032.3</ele>
        <time>2023-01-20T09:52:03Z</time>
      </trkpt>
      <trkpt lat="44.47504" lon="6.70293">
        <ele>2032.4</ele>
        <time>2023-01-20T09:52:04Z</time>
      </trkpt>
      <trkpt lat="44.47504" lon="6.70293">
        <ele>2032.5</ele>
        <time>2023-01-20T09:52:05Z</time>
      </trkpt>
      <trkpt lat="44.47503" lon="6.70293">
        <ele>2032.6</ele>
        <time>2023-01-20T09:52:06Z</time>
      </trkpt>
      <trkpt lat="44.47502" lon="6.70294">
        <ele>2032.7</ele>
        <time>2023-01-20T09:52:07Z</time>
      </trkpt>
      <trkpt lat="44.47502" lon="6.70294">
        <ele>2032.9</ele>
        <time>2023-01-20T09:52:08Z</time>
      </trkpt>
      <trkpt lat="44.47501" lon="6.70294">
        <ele>2033</ele>
        <time>2023-01-20T09:52:09Z</time>
      </trkpt>
      <trkpt lat="44.47501" lon="6.70294">
        <ele>2033.2</ele>
        <time>2023-01-20T09:52:10Z</time>
      </trkpt>
      <trkpt lat="44.475" lon="6.70295">
        <ele>2033.4</ele>
        <time>2023-01-20T09:52:11Z</time>
      </trkpt>
      <trkpt lat="44.47499" lon="6.70295">
        <ele>2033.6</ele>
        <time>2023-01-20T09:52:12Z</time>
      </trkpt>
      <trkpt lat="44.47499" lon="6.70295">
        <ele>2033.6</ele>
        <time>2023-01-20T09:52:13Z</time>
      </trkpt>
      <trkpt lat="44.47499" lon="6.70295">
        <ele>2033.6</ele>
        <time>2023-01-20T09:52:14Z</time>
      </trkpt>
      <trkpt lat="44.47499" lon="6.70296">
        <ele>2033.6</ele>
        <time>2023-01-20T09:52:15Z</time>
      </trkpt>
      <trkpt lat="44.47498" lon="6.70296">
        <ele>2033.5</ele>
        <time>2023-01-20T09:52:16Z</time>
      </trkpt>
      <trkpt lat="44.47498" lon="6.70297">
        <ele>2033.6</ele>
        <time>2023-01-20T09:52:17Z</time>
      </trkpt>
      <trkpt lat="44.47498" lon="6.70297">
        <ele>2033.7</ele>
        <time>2023-01-20T09:52:18Z</time>
      </trkpt>
      <trkpt lat="44.47497" lon="6.70298">
        <ele>2033.7</ele>
        <time>2023-01-20T09:52:19Z</time>
      </trkpt>
      <trkpt lat="44.47497" lon="6.70298">
        <ele>2033.7</ele>
        <time>2023-01-20T09:52:20Z</time>
      </trkpt>
      <trkpt lat="44.47497" lon="6.70298">
        <ele>2033.8</ele>
        <time>2023-01-20T09:52:21Z</time>
      </trkpt>
      <trkpt lat="44.47497" lon="6.70297">
        <ele>2033.9</ele>
        <time>2023-01-20T09:52:22Z</time>
      </trkpt>
      <trkpt lat="44.47497" lon="6.70297">
        <ele>2033.9</ele>
        <time>2023-01-20T09:52:23Z</time>
      </trkpt>
      <trkpt lat="44.47497" lon="6.70297">
        <ele>2034.1</ele>
        <time>2023-01-20T09:52:24Z</time>
      </trkpt>
      <trkpt lat="44.47496" lon="6.70296">
        <ele>2034.4</ele>
        <time>2023-01-20T09:52:25Z</time>
      </trkpt>
      <trkpt lat="44.47496" lon="6.70295">
        <ele>2034.6</ele>
        <time>2023-01-20T09:52:26Z</time>
      </trkpt>
      <trkpt lat="44.47496" lon="6.70294">
        <ele>2034.8</ele>
        <time>2023-01-20T09:52:27Z</time>
      </trkpt>
      <trkpt lat="44.47496" lon="6.70293">
        <ele>2035</ele>
        <time>2023-01-20T09:52:28Z</time>
      </trkpt>
      <trkpt lat="44.47496" lon="6.70292">
        <ele>2035.2</ele>
        <time>2023-01-20T09:52:29Z</time>
      </trkpt>
      <trkpt lat="44.47496" lon="6.70291">
        <ele>2035.4</ele>
        <time>2023-01-20T09:52:30Z</time>
      </trkpt>
      <trkpt lat="44.47497" lon="6.7029">
        <ele>2035.5</ele>
        <time>2023-01-20T09:52:31Z</time>
      </trkpt>
      <trkpt lat="44.47496" lon="6.70289">
        <ele>2035.8</ele>
        <time>2023-01-20T09:52:32Z</time>
      </trkpt>
      <trkpt lat="44.47497" lon="6.70288">
        <ele>2036</ele>
        <time>2023-01-20T09:52:33Z</time>
      </trkpt>
      <trkpt lat="44.47497" lon="6.70288">
        <ele>2036.1</ele>
        <time>2023-01-20T09:52:34Z</time>
      </trkpt>
      <trkpt lat="44.47497" lon="6.70286">
        <ele>2036.2</ele>
        <time>2023-01-20T09:52:35Z</time>
      </trkpt>
      <trkpt lat="44.47497" lon="6.70285">
        <ele>2036.6</ele>
        <time>2023-01-20T09:52:36Z</time>
      </trkpt>
      <trkpt lat="44.47497" lon="6.70284">
        <ele>2036.7</ele>
        <time>2023-01-20T09:52:37Z</time>
      </trkpt>
      <trkpt lat="44.47497" lon="6.70284">
        <ele>2036.9</ele>
        <time>2023-01-20T09:52:38Z</time>
      </trkpt>
      <trkpt lat="44.47497" lon="6.70283">
        <ele>2036.9</ele>
        <time>2023-01-20T09:52:39Z</time>
      </trkpt>
      <trkpt lat="44.47497" lon="6.70282">
        <ele>2037</ele>
        <time>2023-01-20T09:52:40Z</time>
      </trkpt>
      <trkpt lat="44.47498" lon="6.70282">
        <ele>2036.9</ele>
        <time>2023-01-20T09:52:41Z</time>
      </trkpt>
      <trkpt lat="44.47498" lon="6.70281">
        <ele>2036.9</ele>
        <time>2023-01-20T09:52:42Z</time>
      </trkpt>
      <trkpt lat="44.47499" lon="6.7028">
        <ele>2037</ele>
        <time>2023-01-20T09:52:43Z</time>
      </trkpt>
      <trkpt lat="44.47499" lon="6.70279">
        <ele>2037</ele>
        <time>2023-01-20T09:52:44Z</time>
      </trkpt>
      <trkpt lat="44.475" lon="6.70279">
        <ele>2036.8</ele>
        <time>2023-01-20T09:52:45Z</time>
      </trkpt>
      <trkpt lat="44.475" lon="6.70278">
        <ele>2036.9</ele>
        <time>2023-01-20T09:52:46Z</time>
      </trkpt>
      <trkpt lat="44.475" lon="6.70278">
        <ele>2036.9</ele>
        <time>2023-01-20T09:52:47Z</time>
      </trkpt>
      <trkpt lat="44.47501" lon="6.70277">
        <ele>2037</ele>
        <time>2023-01-20T09:52:48Z</time>
      </trkpt>
      <trkpt lat="44.47501" lon="6.70276">
        <ele>2037.1</ele>
        <time>2023-01-20T09:52:49Z</time>
      </trkpt>
      <trkpt lat="44.47501" lon="6.70276">
        <ele>2037.1</ele>
        <time>2023-01-20T09:52:50Z</time>
      </trkpt>
      <trkpt lat="44.47501" lon="6.70276">
        <ele>2037.1</ele>
        <time>2023-01-20T09:52:51Z</time>
      </trkpt>
      <trkpt lat="44.47501" lon="6.70275">
        <ele>2037.1</ele>
        <time>2023-01-20T09:52:52Z</time>
      </trkpt>
      <trkpt lat="44.47501" lon="6.70275">
        <ele>2037</ele>
        <time>2023-01-20T09:52:53Z</time>
      </trkpt>
      <trkpt lat="44.47501" lon="6.70276">
        <ele>2037</ele>
        <time>2023-01-20T09:52:54Z</time>
      </trkpt>
      <trkpt lat="44.47501" lon="6.70275">
        <ele>2037</ele>
        <time>2023-01-20T09:52:55Z</time>
      </trkpt>
      <trkpt lat="44.47502" lon="6.70275">
        <ele>2037</ele>
        <time>2023-01-20T09:52:56Z</time>
      </trkpt>
      <trkpt lat="44.47502" lon="6.70275">
        <ele>2037</ele>
        <time>2023-01-20T09:52:57Z</time>
      </trkpt>
      <trkpt lat="44.47502" lon="6.70275">
        <ele>2037.1</ele>
        <time>2023-01-20T09:52:58Z</time>
      </trkpt>
      <trkpt lat="44.47502" lon="6.70274">
        <ele>2037.3</ele>
        <time>2023-01-20T09:52:59Z</time>
      </trkpt>
      <trkpt lat="44.47502" lon="6.70273">
        <ele>2037.3</ele>
        <time>2023-01-20T09:53:00Z</time>
      </trkpt>
      <trkpt lat="44.47502" lon="6.70273">
        <ele>2037.5</ele>
        <time>2023-01-20T09:53:01Z</time>
      </trkpt>
      <trkpt lat="44.47502" lon="6.70272">
        <ele>2037.6</ele>
        <time>2023-01-20T09:53:02Z</time>
      </trkpt>
      <trkpt lat="44.47502" lon="6.70272">
        <ele>2037.7</ele>
        <time>2023-01-20T09:53:03Z</time>
      </trkpt>
      <trkpt lat="44.47502" lon="6.70271">
        <ele>2037.8</ele>
        <time>2023-01-20T09:53:04Z</time>
      </trkpt>
      <trkpt lat="44.47502" lon="6.70271">
        <ele>2037.8</ele>
        <time>2023-01-20T09:53:05Z</time>
      </trkpt>
      <trkpt lat="44.47502" lon="6.7027">
        <ele>2037.9</ele>
        <time>2023-01-20T09:53:06Z</time>
      </trkpt>
      <trkpt lat="44.47502" lon="6.70269">
        <ele>2038.2</ele>
        <time>2023-01-20T09:53:07Z</time>
      </trkpt>
      <trkpt lat="44.47502" lon="6.70268">
        <ele>2038.4</ele>
        <time>2023-01-20T09:53:08Z</time>
      </trkpt>
      <trkpt lat="44.47502" lon="6.70267">
        <ele>2038.6</ele>
        <time>2023-01-20T09:53:09Z</time>
      </trkpt>
      <trkpt lat="44.47502" lon="6.70266">
        <ele>2038.7</ele>
        <time>2023-01-20T09:53:10Z</time>
      </trkpt>
      <trkpt lat="44.47503" lon="6.70265">
        <ele>2038.8</ele>
        <time>2023-01-20T09:53:11Z</time>
      </trkpt>
      <trkpt lat="44.47503" lon="6.70264">
        <ele>2039</ele>
        <time>2023-01-20T09:53:12Z</time>
      </trkpt>
      <trkpt lat="44.47503" lon="6.70263">
        <ele>2039.2</ele>
        <time>2023-01-20T09:53:13Z</time>
      </trkpt>
      <trkpt lat="44.47503" lon="6.70263">
        <ele>2039.2</ele>
        <time>2023-01-20T09:53:14Z</time>
      </trkpt>
      <trkpt lat="44.47503" lon="6.70262">
        <ele>2039.3</ele>
        <time>2023-01-20T09:53:15Z</time>
      </trkpt>
      <trkpt lat="44.47503" lon="6.70261">
        <ele>2039.5</ele>
        <time>2023-01-20T09:53:16Z</time>
      </trkpt>
      <trkpt lat="44.47503" lon="6.70261">
        <ele>2039.7</ele>
        <time>2023-01-20T09:53:17Z</time>
      </trkpt>
      <trkpt lat="44.47503" lon="6.7026">
        <ele>2039.9</ele>
        <time>2023-01-20T09:53:18Z</time>
      </trkpt>
      <trkpt lat="44.47503" lon="6.70259">
        <ele>2040.1</ele>
        <time>2023-01-20T09:53:19Z</time>
      </trkpt>
      <trkpt lat="44.47503" lon="6.70258">
        <ele>2040.3</ele>
        <time>2023-01-20T09:53:20Z</time>
      </trkpt>
      <trkpt lat="44.47503" lon="6.70258">
        <ele>2040.3</ele>
        <time>2023-01-20T09:53:21Z</time>
      </trkpt>
      <trkpt lat="44.47502" lon="6.70257">
        <ele>2040.6</ele>
        <time>2023-01-20T09:53:22Z</time>
      </trkpt>
      <trkpt lat="44.47502" lon="6.70257">
        <ele>2040.7</ele>
        <time>2023-01-20T09:53:23Z</time>
      </trkpt>
      <trkpt lat="44.47502" lon="6.70257">
        <ele>2040.7</ele>
        <time>2023-01-20T09:53:24Z</time>
      </trkpt>
      <trkpt lat="44.47502" lon="6.70257">
        <ele>2040.8</ele>
        <time>2023-01-20T09:53:25Z</time>
      </trkpt>
      <trkpt lat="44.47502" lon="6.70256">
        <ele>2040.8</ele>
        <time>2023-01-20T09:53:26Z</time>
      </trkpt>
      <trkpt lat="44.47502" lon="6.70256">
        <ele>2040.8</ele>
        <time>2023-01-20T09:53:27Z</time>
      </trkpt>
      <trkpt lat="44.47502" lon="6.70256">
        <ele>2040.8</ele>
        <time>2023-01-20T09:53:28Z</time>
      </trkpt>
      <trkpt lat="44.47502" lon="6.70256">
        <ele>2040.7</ele>
        <time>2023-01-20T09:53:29Z</time>
      </trkpt>
      <trkpt lat="44.47502" lon="6.70256">
        <ele>2040.7</ele>
        <time>2023-01-20T09:53:30Z</time>
      </trkpt>
      <trkpt lat="44.47503" lon="6.70256">
        <ele>2040.7</ele>
        <time>2023-01-20T09:53:31Z</time>
      </trkpt>
      <trkpt lat="44.47503" lon="6.70256">
        <ele>2040.6</ele>
        <time>2023-01-20T09:53:32Z</time>
      </trkpt>
      <trkpt lat="44.47503" lon="6.70256">
        <ele>2040.6</ele>
        <time>2023-01-20T09:53:33Z</time>
      </trkpt>
      <trkpt lat="44.47503" lon="6.70256">
        <ele>2040.7</ele>
        <time>2023-01-20T09:53:34Z</time>
      </trkpt>
      <trkpt lat="44.47503" lon="6.70255">
        <ele>2040.8</ele>
        <time>2023-01-20T09:53:35Z</time>
      </trkpt>
      <trkpt lat="44.47503" lon="6.70254">
        <ele>2040.9</ele>
        <time>2023-01-20T09:53:36Z</time>
      </trkpt>
      <trkpt lat="44.47503" lon="6.70254">
        <ele>2041.1</ele>
        <time>2023-01-20T09:53:37Z</time>
      </trkpt>
      <trkpt lat="44.47504" lon="6.70253">
        <ele>2041.2</ele>
        <time>2023-01-20T09:53:38Z</time>
      </trkpt>
      <trkpt lat="44.47504" lon="6.70252">
        <ele>2041.3</ele>
        <time>2023-01-20T09:53:39Z</time>
      </trkpt>
      <trkpt lat="44.47504" lon="6.70251">
        <ele>2041.4</ele>
        <time>2023-01-20T09:53:40Z</time>
      </trkpt>
      <trkpt lat="44.47504" lon="6.70251">
        <ele>2041.5</ele>
        <time>2023-01-20T09:53:41Z</time>
      </trkpt>
      <trkpt lat="44.47504" lon="6.7025">
        <ele>2041.7</ele>
        <time>2023-01-20T09:53:42Z</time>
      </trkpt>
      <trkpt lat="44.47504" lon="6.70249">
        <ele>2041.8</ele>
        <time>2023-01-20T09:53:43Z</time>
      </trkpt>
      <trkpt lat="44.47504" lon="6.70249">
        <ele>2041.9</ele>
        <time>2023-01-20T09:53:44Z</time>
      </trkpt>
      <trkpt lat="44.47503" lon="6.70249">
        <ele>2042.1</ele>
        <time>2023-01-20T09:53:45Z</time>
      </trkpt>
      <trkpt lat="44.47503" lon="6.70248">
        <ele>2042.2</ele>
        <time>2023-01-20T09:53:46Z</time>
      </trkpt>
      <trkpt lat="44.47503" lon="6.70248">
        <ele>2042.3</ele>
        <time>2023-01-20T09:53:47Z</time>
      </trkpt>
      <trkpt lat="44.47503" lon="6.70248">
        <ele>2042.4</ele>
        <time>2023-01-20T09:53:48Z</time>
      </trkpt>
      <trkpt lat="44.47503" lon="6.70248">
        <ele>2042.5</ele>
        <time>2023-01-20T09:53:49Z</time>
      </trkpt>
      <trkpt lat="44.47502" lon="6.70248">
        <ele>2042.5</ele>
        <time>2023-01-20T09:53:50Z</time>
      </trkpt>
      <trkpt lat="44.47502" lon="6.70248">
        <ele>2042.5</ele>
        <time>2023-01-20T09:53:51Z</time>
      </trkpt>
      <trkpt lat="44.47502" lon="6.70248">
        <ele>2042.6</ele>
        <time>2023-01-20T09:53:52Z</time>
      </trkpt>
      <trkpt lat="44.47502" lon="6.70248">
        <ele>2042.6</ele>
        <time>2023-01-20T09:53:53Z</time>
      </trkpt>
      <trkpt lat="44.47502" lon="6.70247">
        <ele>2042.7</ele>
        <time>2023-01-20T09:53:54Z</time>
      </trkpt>
      <trkpt lat="44.47502" lon="6.70247">
        <ele>2042.8</ele>
        <time>2023-01-20T09:53:55Z</time>
      </trkpt>
      <trkpt lat="44.47502" lon="6.70247">
        <ele>2042.9</ele>
        <time>2023-01-20T09:53:56Z</time>
      </trkpt>
      <trkpt lat="44.47502" lon="6.70247">
        <ele>2043</ele>
        <time>2023-01-20T09:53:57Z</time>
      </trkpt>
      <trkpt lat="44.47501" lon="6.70247">
        <ele>2043</ele>
        <time>2023-01-20T09:53:58Z</time>
      </trkpt>
      <trkpt lat="44.47501" lon="6.70247">
        <ele>2043.1</ele>
        <time>2023-01-20T09:53:59Z</time>
      </trkpt>
      <trkpt lat="44.47501" lon="6.70248">
        <ele>2043.1</ele>
        <time>2023-01-20T09:54:00Z</time>
      </trkpt>
      <trkpt lat="44.475" lon="6.70248">
        <ele>2043.2</ele>
        <time>2023-01-20T09:54:01Z</time>
      </trkpt>
      <trkpt lat="44.475" lon="6.70248">
        <ele>2043.2</ele>
        <time>2023-01-20T09:54:02Z</time>
      </trkpt>
      <trkpt lat="44.475" lon="6.70249">
        <ele>2043.3</ele>
        <time>2023-01-20T09:54:03Z</time>
      </trkpt>
      <trkpt lat="44.47499" lon="6.70249">
        <ele>2043.5</ele>
        <time>2023-01-20T09:54:04Z</time>
      </trkpt>
      <trkpt lat="44.47499" lon="6.70249">
        <ele>2043.5</ele>
        <time>2023-01-20T09:54:05Z</time>
      </trkpt>
      <trkpt lat="44.47499" lon="6.7025">
        <ele>2043.4</ele>
        <time>2023-01-20T09:54:06Z</time>
      </trkpt>
      <trkpt lat="44.47499" lon="6.7025">
        <ele>2043.2</ele>
        <time>2023-01-20T09:54:07Z</time>
      </trkpt>
      <trkpt lat="44.47499" lon="6.7025">
        <ele>2043.2</ele>
        <time>2023-01-20T09:54:08Z</time>
      </trkpt>
      <trkpt lat="44.47499" lon="6.70251">
        <ele>2043.2</ele>
        <time>2023-01-20T09:54:09Z</time>
      </trkpt>
      <trkpt lat="44.47499" lon="6.70251">
        <ele>2043.2</ele>
        <time>2023-01-20T09:54:10Z</time>
      </trkpt>
      <trkpt lat="44.47499" lon="6.70251">
        <ele>2043.2</ele>
        <time>2023-01-20T09:54:11Z</time>
      </trkpt>
      <trkpt lat="44.47499" lon="6.70251">
        <ele>2043.3</ele>
        <time>2023-01-20T09:54:12Z</time>
      </trkpt>
      <trkpt lat="44.47498" lon="6.70251">
        <ele>2043.3</ele>
        <time>2023-01-20T09:54:13Z</time>
      </trkpt>
      <trkpt lat="44.47498" lon="6.70252">
        <ele>2043.3</ele>
        <time>2023-01-20T09:54:14Z</time>
      </trkpt>
      <trkpt lat="44.47498" lon="6.70252">
        <ele>2043.3</ele>
        <time>2023-01-20T09:54:15Z</time>
      </trkpt>
      <trkpt lat="44.47497" lon="6.70253">
        <ele>2043.6</ele>
        <time>2023-01-20T09:54:16Z</time>
      </trkpt>
      <trkpt lat="44.47495" lon="6.70253">
        <ele>2043.9</ele>
        <time>2023-01-20T09:54:17Z</time>
      </trkpt>
      <trkpt lat="44.47495" lon="6.70254">
        <ele>2044.1</ele>
        <time>2023-01-20T09:54:18Z</time>
      </trkpt>
      <trkpt lat="44.47494" lon="6.70254">
        <ele>2044.1</ele>
        <time>2023-01-20T09:54:19Z</time>
      </trkpt>
      <trkpt lat="44.47494" lon="6.70255">
        <ele>2044.1</ele>
        <time>2023-01-20T09:54:20Z</time>
      </trkpt>
      <trkpt lat="44.47493" lon="6.70255">
        <ele>2044.3</ele>
        <time>2023-01-20T09:54:21Z</time>
      </trkpt>
      <trkpt lat="44.47492" lon="6.70256">
        <ele>2044.5</ele>
        <time>2023-01-20T09:54:22Z</time>
      </trkpt>
      <trkpt lat="44.47492" lon="6.70257">
        <ele>2044.6</ele>
        <time>2023-01-20T09:54:23Z</time>
      </trkpt>
      <trkpt lat="44.47491" lon="6.70257">
        <ele>2044.7</ele>
        <time>2023-01-20T09:54:24Z</time>
      </trkpt>
      <trkpt lat="44.47491" lon="6.70258">
        <ele>2044.7</ele>
        <time>2023-01-20T09:54:25Z</time>
      </trkpt>
      <trkpt lat="44.4749" lon="6.70258">
        <ele>2044.9</ele>
        <time>2023-01-20T09:54:26Z</time>
      </trkpt>
      <trkpt lat="44.47489" lon="6.70259">
        <ele>2045</ele>
        <time>2023-01-20T09:54:27Z</time>
      </trkpt>
      <trkpt lat="44.47489" lon="6.70259">
        <ele>2045.1</ele>
        <time>2023-01-20T09:54:28Z</time>
      </trkpt>
      <trkpt lat="44.47488" lon="6.70259">
        <ele>2045.2</ele>
        <time>2023-01-20T09:54:29Z</time>
      </trkpt>
      <trkpt lat="44.47488" lon="6.7026">
        <ele>2045.3</ele>
        <time>2023-01-20T09:54:30Z</time>
      </trkpt>
      <trkpt lat="44.47487" lon="6.7026">
        <ele>2045.4</ele>
        <time>2023-01-20T09:54:31Z</time>
      </trkpt>
      <trkpt lat="44.47487" lon="6.70261">
        <ele>2045.3</ele>
        <time>2023-01-20T09:54:32Z</time>
      </trkpt>
      <trkpt lat="44.47487" lon="6.70262">
        <ele>2045.3</ele>
        <time>2023-01-20T09:54:33Z</time>
      </trkpt>
      <trkpt lat="44.47486" lon="6.70262">
        <ele>2045.3</ele>
        <time>2023-01-20T09:54:34Z</time>
      </trkpt>
      <trkpt lat="44.47486" lon="6.70263">
        <ele>2045.3</ele>
        <time>2023-01-20T09:54:35Z</time>
      </trkpt>
      <trkpt lat="44.47485" lon="6.70263">
        <ele>2045.4</ele>
        <time>2023-01-20T09:54:36Z</time>
      </trkpt>
      <trkpt lat="44.47485" lon="6.70264">
        <ele>2045.6</ele>
        <time>2023-01-20T09:54:37Z</time>
      </trkpt>
      <trkpt lat="44.47484" lon="6.70264">
        <ele>2045.6</ele>
        <time>2023-01-20T09:54:38Z</time>
      </trkpt>
      <trkpt lat="44.47484" lon="6.70264">
        <ele>2045.8</ele>
        <time>2023-01-20T09:54:39Z</time>
      </trkpt>
      <trkpt lat="44.47484" lon="6.70265">
        <ele>2045.7</ele>
        <time>2023-01-20T09:54:40Z</time>
      </trkpt>
      <trkpt lat="44.47483" lon="6.70265">
        <ele>2045.7</ele>
        <time>2023-01-20T09:54:41Z</time>
      </trkpt>
      <trkpt lat="44.47483" lon="6.70265">
        <ele>2045.8</ele>
        <time>2023-01-20T09:54:42Z</time>
      </trkpt>
      <trkpt lat="44.47482" lon="6.70265">
        <ele>2046</ele>
        <time>2023-01-20T09:54:43Z</time>
      </trkpt>
      <trkpt lat="44.47482" lon="6.70266">
        <ele>2046</ele>
        <time>2023-01-20T09:54:44Z</time>
      </trkpt>
      <trkpt lat="44.47482" lon="6.70266">
        <ele>2046.1</ele>
        <time>2023-01-20T09:54:45Z</time>
      </trkpt>
      <trkpt lat="44.4748" lon="6.70267">
        <ele>2046.3</ele>
        <time>2023-01-20T09:54:48Z</time>
      </trkpt>
      <trkpt lat="44.4748" lon="6.70268">
        <ele>2046.2</ele>
        <time>2023-01-20T09:54:49Z</time>
      </trkpt>
      <trkpt lat="44.4748" lon="6.70269">
        <ele>2046.2</ele>
        <time>2023-01-20T09:54:50Z</time>
      </trkpt>
      <trkpt lat="44.4748" lon="6.70269">
        <ele>2046.1</ele>
        <time>2023-01-20T09:54:51Z</time>
      </trkpt>
      <trkpt lat="44.4748" lon="6.70269">
        <ele>2046.2</ele>
        <time>2023-01-20T09:54:52Z</time>
      </trkpt>
      <trkpt lat="44.47479" lon="6.7027">
        <ele>2046.2</ele>
        <time>2023-01-20T09:54:53Z</time>
      </trkpt>
      <trkpt lat="44.47479" lon="6.7027">
        <ele>2046.1</ele>
        <time>2023-01-20T09:54:54Z</time>
      </trkpt>
      <trkpt lat="44.47479" lon="6.70271">
        <ele>2046.1</ele>
        <time>2023-01-20T09:54:55Z</time>
      </trkpt>
      <trkpt lat="44.47478" lon="6.70272">
        <ele>2046.1</ele>
        <time>2023-01-20T09:54:56Z</time>
      </trkpt>
      <trkpt lat="44.47478" lon="6.70273">
        <ele>2046</ele>
        <time>2023-01-20T09:54:57Z</time>
      </trkpt>
      <trkpt lat="44.47477" lon="6.70274">
        <ele>2046.1</ele>
        <time>2023-01-20T09:54:58Z</time>
      </trkpt>
      <trkpt lat="44.47477" lon="6.70274">
        <ele>2046</ele>
        <time>2023-01-20T09:54:59Z</time>
      </trkpt>
      <trkpt lat="44.47477" lon="6.70275">
        <ele>2045.9</ele>
        <time>2023-01-20T09:55:00Z</time>
      </trkpt>
      <trkpt lat="44.47477" lon="6.70276">
        <ele>2045.8</ele>
        <time>2023-01-20T09:55:01Z</time>
      </trkpt>
      <trkpt lat="44.47477" lon="6.70276">
        <ele>2045.7</ele>
        <time>2023-01-20T09:55:02Z</time>
      </trkpt>
      <trkpt lat="44.47476" lon="6.70277">
        <ele>2045.6</ele>
        <time>2023-01-20T09:55:03Z</time>
      </trkpt>
      <trkpt lat="44.47476" lon="6.70279">
        <ele>2045.3</ele>
        <time>2023-01-20T09:55:04Z</time>
      </trkpt>
      <trkpt lat="44.47476" lon="6.70279">
        <ele>2045.4</ele>
        <time>2023-01-20T09:55:05Z</time>
      </trkpt>
      <trkpt lat="44.47476" lon="6.7028">
        <ele>2045.3</ele>
        <time>2023-01-20T09:55:06Z</time>
      </trkpt>
      <trkpt lat="44.47475" lon="6.7028">
        <ele>2045.3</ele>
        <time>2023-01-20T09:55:07Z</time>
      </trkpt>
      <trkpt lat="44.47475" lon="6.70281">
        <ele>2045.4</ele>
        <time>2023-01-20T09:55:08Z</time>
      </trkpt>
      <trkpt lat="44.47475" lon="6.70281">
        <ele>2045.4</ele>
        <time>2023-01-20T09:55:09Z</time>
      </trkpt>
      <trkpt lat="44.47474" lon="6.70282">
        <ele>2045.4</ele>
        <time>2023-01-20T09:55:10Z</time>
      </trkpt>
      <trkpt lat="44.47474" lon="6.70282">
        <ele>2045.4</ele>
        <time>2023-01-20T09:55:11Z</time>
      </trkpt>
      <trkpt lat="44.47473" lon="6.70282">
        <ele>2045.7</ele>
        <time>2023-01-20T09:55:12Z</time>
      </trkpt>
      <trkpt lat="44.47472" lon="6.70283">
        <ele>2045.9</ele>
        <time>2023-01-20T09:55:13Z</time>
      </trkpt>
      <trkpt lat="44.47472" lon="6.70283">
        <ele>2046</ele>
        <time>2023-01-20T09:55:14Z</time>
      </trkpt>
      <trkpt lat="44.47471" lon="6.70283">
        <ele>2046.1</ele>
        <time>2023-01-20T09:55:15Z</time>
      </trkpt>
      <trkpt lat="44.47471" lon="6.70284">
        <ele>2046.2</ele>
        <time>2023-01-20T09:55:16Z</time>
      </trkpt>
      <trkpt lat="44.47471" lon="6.70284">
        <ele>2046.3</ele>
        <time>2023-01-20T09:55:17Z</time>
      </trkpt>
      <trkpt lat="44.4747" lon="6.70284">
        <ele>2046.6</ele>
        <time>2023-01-20T09:55:18Z</time>
      </trkpt>
      <trkpt lat="44.47469" lon="6.70284">
        <ele>2046.8</ele>
        <time>2023-01-20T09:55:19Z</time>
      </trkpt>
      <trkpt lat="44.47469" lon="6.70285">
        <ele>2046.8</ele>
        <time>2023-01-20T09:55:20Z</time>
      </trkpt>
      <trkpt lat="44.47468" lon="6.70286">
        <ele>2047</ele>
        <time>2023-01-20T09:55:21Z</time>
      </trkpt>
      <trkpt lat="44.47468" lon="6.70286">
        <ele>2047</ele>
        <time>2023-01-20T09:55:22Z</time>
      </trkpt>
      <trkpt lat="44.47467" lon="6.70287">
        <ele>2047.1</ele>
        <time>2023-01-20T09:55:23Z</time>
      </trkpt>
      <trkpt lat="44.47467" lon="6.70288">
        <ele>2047</ele>
        <time>2023-01-20T09:55:24Z</time>
      </trkpt>
      <trkpt lat="44.47466" lon="6.70288">
        <ele>2047.1</ele>
        <time>2023-01-20T09:55:25Z</time>
      </trkpt>
      <trkpt lat="44.47466" lon="6.70289">
        <ele>2047.3</ele>
        <time>2023-01-20T09:55:26Z</time>
      </trkpt>
      <trkpt lat="44.47465" lon="6.70289">
        <ele>2047.3</ele>
        <time>2023-01-20T09:55:27Z</time>
      </trkpt>
      <trkpt lat="44.47465" lon="6.70291">
        <ele>2047.1</ele>
        <time>2023-01-20T09:55:28Z</time>
      </trkpt>
      <trkpt lat="44.47465" lon="6.70291">
        <ele>2047.2</ele>
        <time>2023-01-20T09:55:29Z</time>
      </trkpt>
      <trkpt lat="44.47465" lon="6.70291">
        <ele>2047.3</ele>
        <time>2023-01-20T09:55:30Z</time>
      </trkpt>
      <trkpt lat="44.47464" lon="6.70292">
        <ele>2047.2</ele>
        <time>2023-01-20T09:55:31Z</time>
      </trkpt>
      <trkpt lat="44.47464" lon="6.70292">
        <ele>2047.2</ele>
        <time>2023-01-20T09:55:32Z</time>
      </trkpt>
      <trkpt lat="44.47464" lon="6.70293">
        <ele>2047.1</ele>
        <time>2023-01-20T09:55:33Z</time>
      </trkpt>
      <trkpt lat="44.47464" lon="6.70293">
        <ele>2047.1</ele>
        <time>2023-01-20T09:55:34Z</time>
      </trkpt>
      <trkpt lat="44.47463" lon="6.70294">
        <ele>2047.1</ele>
        <time>2023-01-20T09:55:35Z</time>
      </trkpt>
      <trkpt lat="44.47463" lon="6.70295">
        <ele>2047</ele>
        <time>2023-01-20T09:55:36Z</time>
      </trkpt>
      <trkpt lat="44.47463" lon="6.70296">
        <ele>2047</ele>
        <time>2023-01-20T09:55:37Z</time>
      </trkpt>
      <trkpt lat="44.47463" lon="6.70296">
        <ele>2046.9</ele>
        <time>2023-01-20T09:55:38Z</time>
      </trkpt>
      <trkpt lat="44.47462" lon="6.70297">
        <ele>2046.9</ele>
        <time>2023-01-20T09:55:39Z</time>
      </trkpt>
      <trkpt lat="44.47462" lon="6.70297">
        <ele>2047.1</ele>
        <time>2023-01-20T09:55:40Z</time>
      </trkpt>
      <trkpt lat="44.47461" lon="6.70297">
        <ele>2047.2</ele>
        <time>2023-01-20T09:55:41Z</time>
      </trkpt>
      <trkpt lat="44.4746" lon="6.70298">
        <ele>2047.5</ele>
        <time>2023-01-20T09:55:42Z</time>
      </trkpt>
      <trkpt lat="44.47459" lon="6.70299">
        <ele>2047.7</ele>
        <time>2023-01-20T09:55:43Z</time>
      </trkpt>
      <trkpt lat="44.47459" lon="6.70299">
        <ele>2047.9</ele>
        <time>2023-01-20T09:55:44Z</time>
      </trkpt>
      <trkpt lat="44.47458" lon="6.70299">
        <ele>2048.2</ele>
        <time>2023-01-20T09:55:45Z</time>
      </trkpt>
      <trkpt lat="44.47457" lon="6.70299">
        <ele>2048.5</ele>
        <time>2023-01-20T09:55:46Z</time>
      </trkpt>
      <trkpt lat="44.47456" lon="6.70299">
        <ele>2048.8</ele>
        <time>2023-01-20T09:55:47Z</time>
      </trkpt>
      <trkpt lat="44.47456" lon="6.70298">
        <ele>2049.2</ele>
        <time>2023-01-20T09:55:48Z</time>
      </trkpt>
      <trkpt lat="44.47456" lon="6.70298">
        <ele>2049.5</ele>
        <time>2023-01-20T09:55:49Z</time>
      </trkpt>
      <trkpt lat="44.47455" lon="6.70297">
        <ele>2049.7</ele>
        <time>2023-01-20T09:55:50Z</time>
      </trkpt>
      <trkpt lat="44.47455" lon="6.70297">
        <ele>2049.9</ele>
        <time>2023-01-20T09:55:51Z</time>
      </trkpt>
      <trkpt lat="44.47455" lon="6.70296">
        <ele>2050.1</ele>
        <time>2023-01-20T09:55:52Z</time>
      </trkpt>
      <trkpt lat="44.47455" lon="6.70295">
        <ele>2050.3</ele>
        <time>2023-01-20T09:55:53Z</time>
      </trkpt>
      <trkpt lat="44.47455" lon="6.70295">
        <ele>2050.6</ele>
        <time>2023-01-20T09:55:54Z</time>
      </trkpt>
      <trkpt lat="44.47454" lon="6.70294">
        <ele>2050.8</ele>
        <time>2023-01-20T09:55:55Z</time>
      </trkpt>
      <trkpt lat="44.47454" lon="6.70294">
        <ele>2051</ele>
        <time>2023-01-20T09:55:56Z</time>
      </trkpt>
      <trkpt lat="44.47454" lon="6.70293">
        <ele>2051.1</ele>
        <time>2023-01-20T09:55:57Z</time>
      </trkpt>
      <trkpt lat="44.47454" lon="6.70293">
        <ele>2051.3</ele>
        <time>2023-01-20T09:55:58Z</time>
      </trkpt>
      <trkpt lat="44.47454" lon="6.70292">
        <ele>2051.4</ele>
        <time>2023-01-20T09:55:59Z</time>
      </trkpt>
      <trkpt lat="44.47454" lon="6.70291">
        <ele>2051.7</ele>
        <time>2023-01-20T09:56:00Z</time>
      </trkpt>
      <trkpt lat="44.47453" lon="6.7029">
        <ele>2052.1</ele>
        <time>2023-01-20T09:56:01Z</time>
      </trkpt>
      <trkpt lat="44.47453" lon="6.70289">
        <ele>2052.4</ele>
        <time>2023-01-20T09:56:02Z</time>
      </trkpt>
      <trkpt lat="44.47453" lon="6.70289">
        <ele>2052.7</ele>
        <time>2023-01-20T09:56:03Z</time>
      </trkpt>
      <trkpt lat="44.47453" lon="6.70288">
        <ele>2053.1</ele>
        <time>2023-01-20T09:56:04Z</time>
      </trkpt>
      <trkpt lat="44.47452" lon="6.70287">
        <ele>2053.3</ele>
        <time>2023-01-20T09:56:05Z</time>
      </trkpt>
      <trkpt lat="44.47452" lon="6.70286">
        <ele>2053.6</ele>
        <time>2023-01-20T09:56:06Z</time>
      </trkpt>
      <trkpt lat="44.47452" lon="6.70286">
        <ele>2053.8</ele>
        <time>2023-01-20T09:56:07Z</time>
      </trkpt>
      <trkpt lat="44.47452" lon="6.70285">
        <ele>2054.1</ele>
        <time>2023-01-20T09:56:08Z</time>
      </trkpt>
      <trkpt lat="44.47452" lon="6.70284">
        <ele>2054.4</ele>
        <time>2023-01-20T09:56:09Z</time>
      </trkpt>
      <trkpt lat="44.47452" lon="6.70283">
        <ele>2054.7</ele>
        <time>2023-01-20T09:56:10Z</time>
      </trkpt>
      <trkpt lat="44.47452" lon="6.70282">
        <ele>2054.8</ele>
        <time>2023-01-20T09:56:11Z</time>
      </trkpt>
      <trkpt lat="44.47452" lon="6.70281">
        <ele>2055.1</ele>
        <time>2023-01-20T09:56:12Z</time>
      </trkpt>
      <trkpt lat="44.47452" lon="6.7028">
        <ele>2055.2</ele>
        <time>2023-01-20T09:56:13Z</time>
      </trkpt>
      <trkpt lat="44.47452" lon="6.70279">
        <ele>2055.4</ele>
        <time>2023-01-20T09:56:14Z</time>
      </trkpt>
      <trkpt lat="44.47452" lon="6.70279">
        <ele>2055.5</ele>
        <time>2023-01-20T09:56:15Z</time>
      </trkpt>
      <trkpt lat="44.47452" lon="6.70278">
        <ele>2055.6</ele>
        <time>2023-01-20T09:56:16Z</time>
      </trkpt>
      <trkpt lat="44.47452" lon="6.70277">
        <ele>2055.8</ele>
        <time>2023-01-20T09:56:17Z</time>
      </trkpt>
      <trkpt lat="44.47452" lon="6.70276">
        <ele>2056</ele>
        <time>2023-01-20T09:56:18Z</time>
      </trkpt>
      <trkpt lat="44.47452" lon="6.70274">
        <ele>2056.3</ele>
        <time>2023-01-20T09:56:19Z</time>
      </trkpt>
      <trkpt lat="44.47453" lon="6.70273">
        <ele>2056.5</ele>
        <time>2023-01-20T09:56:20Z</time>
      </trkpt>
      <trkpt lat="44.47452" lon="6.70272">
        <ele>2056.9</ele>
        <time>2023-01-20T09:56:21Z</time>
      </trkpt>
      <trkpt lat="44.47453" lon="6.7027">
        <ele>2057</ele>
        <time>2023-01-20T09:56:22Z</time>
      </trkpt>
      <trkpt lat="44.47453" lon="6.70269">
        <ele>2057.2</ele>
        <time>2023-01-20T09:56:23Z</time>
      </trkpt>
      <trkpt lat="44.47453" lon="6.70268">
        <ele>2057.3</ele>
        <time>2023-01-20T09:56:24Z</time>
      </trkpt>
      <trkpt lat="44.47453" lon="6.70268">
        <ele>2057.4</ele>
        <time>2023-01-20T09:56:25Z</time>
      </trkpt>
      <trkpt lat="44.47453" lon="6.70267">
        <ele>2057.5</ele>
        <time>2023-01-20T09:56:26Z</time>
      </trkpt>
      <trkpt lat="44.47453" lon="6.70266">
        <ele>2057.8</ele>
        <time>2023-01-20T09:56:27Z</time>
      </trkpt>
      <trkpt lat="44.47453" lon="6.70265">
        <ele>2057.8</ele>
        <time>2023-01-20T09:56:28Z</time>
      </trkpt>
      <trkpt lat="44.47454" lon="6.70264">
        <ele>2057.9</ele>
        <time>2023-01-20T09:56:29Z</time>
      </trkpt>
      <trkpt lat="44.47454" lon="6.70263">
        <ele>2058</ele>
        <time>2023-01-20T09:56:30Z</time>
      </trkpt>
      <trkpt lat="44.47454" lon="6.70262">
        <ele>2058.1</ele>
        <time>2023-01-20T09:56:31Z</time>
      </trkpt>
      <trkpt lat="44.47455" lon="6.70262">
        <ele>2058</ele>
        <time>2023-01-20T09:56:32Z</time>
      </trkpt>
      <trkpt lat="44.47455" lon="6.7026">
        <ele>2058.2</ele>
        <time>2023-01-20T09:56:33Z</time>
      </trkpt>
      <trkpt lat="44.47455" lon="6.7026">
        <ele>2058.2</ele>
        <time>2023-01-20T09:56:34Z</time>
      </trkpt>
      <trkpt lat="44.47455" lon="6.70259">
        <ele>2058.3</ele>
        <time>2023-01-20T09:56:35Z</time>
      </trkpt>
      <trkpt lat="44.47455" lon="6.70258">
        <ele>2058.8</ele>
        <time>2023-01-20T09:56:36Z</time>
      </trkpt>
      <trkpt lat="44.47454" lon="6.70257">
        <ele>2059.2</ele>
        <time>2023-01-20T09:56:37Z</time>
      </trkpt>
      <trkpt lat="44.47454" lon="6.70257">
        <ele>2059.3</ele>
        <time>2023-01-20T09:56:38Z</time>
      </trkpt>
      <trkpt lat="44.47454" lon="6.70257">
        <ele>2059.5</ele>
        <time>2023-01-20T09:56:39Z</time>
      </trkpt>
      <trkpt lat="44.47453" lon="6.70258">
        <ele>2059.5</ele>
        <time>2023-01-20T09:56:40Z</time>
      </trkpt>
      <trkpt lat="44.47453" lon="6.70258">
        <ele>2059.7</ele>
        <time>2023-01-20T09:56:41Z</time>
      </trkpt>
      <trkpt lat="44.47452" lon="6.70259">
        <ele>2059.6</ele>
        <time>2023-01-20T09:56:42Z</time>
      </trkpt>
      <trkpt lat="44.47452" lon="6.70259">
        <ele>2059.7</ele>
        <time>2023-01-20T09:56:43Z</time>
      </trkpt>
      <trkpt lat="44.47451" lon="6.70259">
        <ele>2059.9</ele>
        <time>2023-01-20T09:56:44Z</time>
      </trkpt>
      <trkpt lat="44.47451" lon="6.7026">
        <ele>2060.1</ele>
        <time>2023-01-20T09:56:45Z</time>
      </trkpt>
      <trkpt lat="44.4745" lon="6.7026">
        <ele>2060.3</ele>
        <time>2023-01-20T09:56:46Z</time>
      </trkpt>
      <trkpt lat="44.4745" lon="6.7026">
        <ele>2060.5</ele>
        <time>2023-01-20T09:56:47Z</time>
      </trkpt>
      <trkpt lat="44.47449" lon="6.7026">
        <ele>2060.7</ele>
        <time>2023-01-20T09:56:48Z</time>
      </trkpt>
      <trkpt lat="44.47449" lon="6.7026">
        <ele>2060.9</ele>
        <time>2023-01-20T09:56:49Z</time>
      </trkpt>
      <trkpt lat="44.47449" lon="6.7026">
        <ele>2061</ele>
        <time>2023-01-20T09:56:50Z</time>
      </trkpt>
      <trkpt lat="44.47448" lon="6.7026">
        <ele>2061.1</ele>
        <time>2023-01-20T09:56:51Z</time>
      </trkpt>
      <trkpt lat="44.47448" lon="6.7026">
        <ele>2061.3</ele>
        <time>2023-01-20T09:56:52Z</time>
      </trkpt>
      <trkpt lat="44.47448" lon="6.70259">
        <ele>2061.5</ele>
        <time>2023-01-20T09:56:53Z</time>
      </trkpt>
      <trkpt lat="44.47448" lon="6.70259">
        <ele>2061.6</ele>
        <time>2023-01-20T09:56:54Z</time>
      </trkpt>
      <trkpt lat="44.47448" lon="6.70258">
        <ele>2061.8</ele>
        <time>2023-01-20T09:56:55Z</time>
      </trkpt>
      <trkpt lat="44.47448" lon="6.70257">
        <ele>2061.9</ele>
        <time>2023-01-20T09:56:56Z</time>
      </trkpt>
      <trkpt lat="44.47448" lon="6.70256">
        <ele>2062.1</ele>
        <time>2023-01-20T09:56:57Z</time>
      </trkpt>
      <trkpt lat="44.47448" lon="6.70256">
        <ele>2062.3</ele>
        <time>2023-01-20T09:56:58Z</time>
      </trkpt>
      <trkpt lat="44.47448" lon="6.70255">
        <ele>2062.4</ele>
        <time>2023-01-20T09:56:59Z</time>
      </trkpt>
      <trkpt lat="44.47448" lon="6.70255">
        <ele>2062.6</ele>
        <time>2023-01-20T09:57:00Z</time>
      </trkpt>
      <trkpt lat="44.47448" lon="6.70254">
        <ele>2062.7</ele>
        <time>2023-01-20T09:57:01Z</time>
      </trkpt>
      <trkpt lat="44.47448" lon="6.70254">
        <ele>2062.8</ele>
        <time>2023-01-20T09:57:02Z</time>
      </trkpt>
      <trkpt lat="44.47448" lon="6.70254">
        <ele>2062.7</ele>
        <time>2023-01-20T09:57:03Z</time>
      </trkpt>
      <trkpt lat="44.47448" lon="6.70254">
        <ele>2062.8</ele>
        <time>2023-01-20T09:57:04Z</time>
      </trkpt>
      <trkpt lat="44.47448" lon="6.70254">
        <ele>2062.7</ele>
        <time>2023-01-20T09:57:05Z</time>
      </trkpt>
      <trkpt lat="44.47448" lon="6.70254">
        <ele>2062.8</ele>
        <time>2023-01-20T09:57:06Z</time>
      </trkpt>
      <trkpt lat="44.47448" lon="6.70254">
        <ele>2062.8</ele>
        <time>2023-01-20T09:57:07Z</time>
      </trkpt>
      <trkpt lat="44.47448" lon="6.70254">
        <ele>2062.9</ele>
        <time>2023-01-20T09:57:08Z</time>
      </trkpt>
      <trkpt lat="44.47447" lon="6.70253">
        <ele>2063.2</ele>
        <time>2023-01-20T09:57:09Z</time>
      </trkpt>
      <trkpt lat="44.47447" lon="6.70253">
        <ele>2063.4</ele>
        <time>2023-01-20T09:57:10Z</time>
      </trkpt>
      <trkpt lat="44.47446" lon="6.70253">
        <ele>2063.7</ele>
        <time>2023-01-20T09:57:11Z</time>
      </trkpt>
      <trkpt lat="44.47446" lon="6.70253">
        <ele>2063.8</ele>
        <time>2023-01-20T09:57:12Z</time>
      </trkpt>
      <trkpt lat="44.47445" lon="6.70253">
        <ele>2064</ele>
        <time>2023-01-20T09:57:13Z</time>
      </trkpt>
      <trkpt lat="44.47445" lon="6.70253">
        <ele>2064.2</ele>
        <time>2023-01-20T09:57:14Z</time>
      </trkpt>
      <trkpt lat="44.47445" lon="6.70253">
        <ele>2064.3</ele>
        <time>2023-01-20T09:57:15Z</time>
      </trkpt>
      <trkpt lat="44.47444" lon="6.70253">
        <ele>2064.6</ele>
        <time>2023-01-20T09:57:16Z</time>
      </trkpt>
      <trkpt lat="44.47444" lon="6.70253">
        <ele>2064.7</ele>
        <time>2023-01-20T09:57:17Z</time>
      </trkpt>
      <trkpt lat="44.47443" lon="6.70253">
        <ele>2064.9</ele>
        <time>2023-01-20T09:57:18Z</time>
      </trkpt>
      <trkpt lat="44.47443" lon="6.70253">
        <ele>2064.9</ele>
        <time>2023-01-20T09:57:19Z</time>
      </trkpt>
      <trkpt lat="44.47442" lon="6.70254">
        <ele>2065</ele>
        <time>2023-01-20T09:57:20Z</time>
      </trkpt>
      <trkpt lat="44.47442" lon="6.70254">
        <ele>2065.3</ele>
        <time>2023-01-20T09:57:21Z</time>
      </trkpt>
      <trkpt lat="44.47441" lon="6.70255">
        <ele>2065.5</ele>
        <time>2023-01-20T09:57:22Z</time>
      </trkpt>
      <trkpt lat="44.4744" lon="6.70255">
        <ele>2065.5</ele>
        <time>2023-01-20T09:57:23Z</time>
      </trkpt>
      <trkpt lat="44.4744" lon="6.70255">
        <ele>2065.8</ele>
        <time>2023-01-20T09:57:24Z</time>
      </trkpt>
      <trkpt lat="44.47439" lon="6.70256">
        <ele>2065.8</ele>
        <time>2023-01-20T09:57:25Z</time>
      </trkpt>
      <trkpt lat="44.47439" lon="6.70256">
        <ele>2066</ele>
        <time>2023-01-20T09:57:26Z</time>
      </trkpt>
      <trkpt lat="44.47438" lon="6.70257">
        <ele>2066.1</ele>
        <time>2023-01-20T09:57:27Z</time>
      </trkpt>
      <trkpt lat="44.47437" lon="6.70257">
        <ele>2066.3</ele>
        <time>2023-01-20T09:57:28Z</time>
      </trkpt>
      <trkpt lat="44.47437" lon="6.70258">
        <ele>2066.4</ele>
        <time>2023-01-20T09:57:29Z</time>
      </trkpt>
      <trkpt lat="44.47436" lon="6.70258">
        <ele>2066.5</ele>
        <time>2023-01-20T09:57:30Z</time>
      </trkpt>
      <trkpt lat="44.47436" lon="6.70259">
        <ele>2066.6</ele>
        <time>2023-01-20T09:57:31Z</time>
      </trkpt>
      <trkpt lat="44.47436" lon="6.70258">
        <ele>2066.7</ele>
        <time>2023-01-20T09:57:32Z</time>
      </trkpt>
      <trkpt lat="44.47436" lon="6.70258">
        <ele>2067</ele>
        <time>2023-01-20T09:57:33Z</time>
      </trkpt>
      <trkpt lat="44.47435" lon="6.70257">
        <ele>2067.2</ele>
        <time>2023-01-20T09:57:34Z</time>
      </trkpt>
      <trkpt lat="44.47435" lon="6.70256">
        <ele>2067.3</ele>
        <time>2023-01-20T09:57:35Z</time>
      </trkpt>
      <trkpt lat="44.47435" lon="6.70256">
        <ele>2067.5</ele>
        <time>2023-01-20T09:57:36Z</time>
      </trkpt>
      <trkpt lat="44.47435" lon="6.70255">
        <ele>2067.7</ele>
        <time>2023-01-20T09:57:37Z</time>
      </trkpt>
      <trkpt lat="44.47435" lon="6.70254">
        <ele>2067.9</ele>
        <time>2023-01-20T09:57:38Z</time>
      </trkpt>
      <trkpt lat="44.47436" lon="6.70253">
        <ele>2067.9</ele>
        <time>2023-01-20T09:57:39Z</time>
      </trkpt>
      <trkpt lat="44.47436" lon="6.70252">
        <ele>2068.1</ele>
        <time>2023-01-20T09:57:40Z</time>
      </trkpt>
      <trkpt lat="44.47436" lon="6.70251">
        <ele>2068.1</ele>
        <time>2023-01-20T09:57:41Z</time>
      </trkpt>
      <trkpt lat="44.47436" lon="6.70251">
        <ele>2068.2</ele>
        <time>2023-01-20T09:57:42Z</time>
      </trkpt>
      <trkpt lat="44.47436" lon="6.7025">
        <ele>2068.4</ele>
        <time>2023-01-20T09:57:43Z</time>
      </trkpt>
      <trkpt lat="44.47436" lon="6.70249">
        <ele>2068.6</ele>
        <time>2023-01-20T09:57:44Z</time>
      </trkpt>
      <trkpt lat="44.47436" lon="6.70248">
        <ele>2068.6</ele>
        <time>2023-01-20T09:57:45Z</time>
      </trkpt>
      <trkpt lat="44.47436" lon="6.70248">
        <ele>2068.7</ele>
        <time>2023-01-20T09:57:46Z</time>
      </trkpt>
      <trkpt lat="44.47437" lon="6.70247">
        <ele>2068.7</ele>
        <time>2023-01-20T09:57:47Z</time>
      </trkpt>
      <trkpt lat="44.47437" lon="6.70246">
        <ele>2068.6</ele>
        <time>2023-01-20T09:57:48Z</time>
      </trkpt>
      <trkpt lat="44.47438" lon="6.70246">
        <ele>2068.5</ele>
        <time>2023-01-20T09:57:49Z</time>
      </trkpt>
      <trkpt lat="44.47438" lon="6.70245">
        <ele>2068.7</ele>
        <time>2023-01-20T09:57:50Z</time>
      </trkpt>
      <trkpt lat="44.47438" lon="6.70243">
        <ele>2068.8</ele>
        <time>2023-01-20T09:57:51Z</time>
      </trkpt>
      <trkpt lat="44.47438" lon="6.70243">
        <ele>2068.9</ele>
        <time>2023-01-20T09:57:52Z</time>
      </trkpt>
      <trkpt lat="44.47439" lon="6.70242">
        <ele>2068.8</ele>
        <time>2023-01-20T09:57:53Z</time>
      </trkpt>
      <trkpt lat="44.47439" lon="6.70241">
        <ele>2068.9</ele>
        <time>2023-01-20T09:57:54Z</time>
      </trkpt>
      <trkpt lat="44.47439" lon="6.7024">
        <ele>2069</ele>
        <time>2023-01-20T09:57:55Z</time>
      </trkpt>
      <trkpt lat="44.47439" lon="6.70239">
        <ele>2069</ele>
        <time>2023-01-20T09:57:56Z</time>
      </trkpt>
      <trkpt lat="44.47439" lon="6.70239">
        <ele>2069.1</ele>
        <time>2023-01-20T09:57:57Z</time>
      </trkpt>
      <trkpt lat="44.4744" lon="6.70238">
        <ele>2069.1</ele>
        <time>2023-01-20T09:57:58Z</time>
      </trkpt>
      <trkpt lat="44.4744" lon="6.70237">
        <ele>2069.1</ele>
        <time>2023-01-20T09:57:59Z</time>
      </trkpt>
      <trkpt lat="44.4744" lon="6.70236">
        <ele>2069.2</ele>
        <time>2023-01-20T09:58:00Z</time>
      </trkpt>
      <trkpt lat="44.47441" lon="6.70235">
        <ele>2069.3</ele>
        <time>2023-01-20T09:58:01Z</time>
      </trkpt>
      <trkpt lat="44.47441" lon="6.70235">
        <ele>2069.4</ele>
        <time>2023-01-20T09:58:02Z</time>
      </trkpt>
      <trkpt lat="44.47441" lon="6.70234">
        <ele>2069.5</ele>
        <time>2023-01-20T09:58:03Z</time>
      </trkpt>
      <trkpt lat="44.47441" lon="6.70233">
        <ele>2069.5</ele>
        <time>2023-01-20T09:58:04Z</time>
      </trkpt>
      <trkpt lat="44.47441" lon="6.70232">
        <ele>2069.8</ele>
        <time>2023-01-20T09:58:05Z</time>
      </trkpt>
      <trkpt lat="44.4744" lon="6.70231">
        <ele>2070.2</ele>
        <time>2023-01-20T09:58:06Z</time>
      </trkpt>
      <trkpt lat="44.4744" lon="6.70229">
        <ele>2070.6</ele>
        <time>2023-01-20T09:58:07Z</time>
      </trkpt>
      <trkpt lat="44.4744" lon="6.70228">
        <ele>2070.9</ele>
        <time>2023-01-20T09:58:08Z</time>
      </trkpt>
      <trkpt lat="44.4744" lon="6.70227">
        <ele>2071</ele>
        <time>2023-01-20T09:58:09Z</time>
      </trkpt>
      <trkpt lat="44.4744" lon="6.70226">
        <ele>2071.3</ele>
        <time>2023-01-20T09:58:10Z</time>
      </trkpt>
      <trkpt lat="44.47439" lon="6.70226">
        <ele>2071.6</ele>
        <time>2023-01-20T09:58:11Z</time>
      </trkpt>
      <trkpt lat="44.47439" lon="6.70226">
        <ele>2071.6</ele>
        <time>2023-01-20T09:58:12Z</time>
      </trkpt>
      <trkpt lat="44.47439" lon="6.70226">
        <ele>2071.6</ele>
        <time>2023-01-20T09:58:13Z</time>
      </trkpt>
      <trkpt lat="44.47439" lon="6.70226">
        <ele>2071.7</ele>
        <time>2023-01-20T09:58:14Z</time>
      </trkpt>
      <trkpt lat="44.47438" lon="6.70227">
        <ele>2071.7</ele>
        <time>2023-01-20T09:58:15Z</time>
      </trkpt>
      <trkpt lat="44.47438" lon="6.70228">
        <ele>2071.8</ele>
        <time>2023-01-20T09:58:16Z</time>
      </trkpt>
      <trkpt lat="44.47438" lon="6.70229">
        <ele>2071.8</ele>
        <time>2023-01-20T09:58:17Z</time>
      </trkpt>
      <trkpt lat="44.47437" lon="6.70229">
        <ele>2071.7</ele>
        <time>2023-01-20T09:58:18Z</time>
      </trkpt>
      <trkpt lat="44.47437" lon="6.70229">
        <ele>2071.8</ele>
        <time>2023-01-20T09:58:19Z</time>
      </trkpt>
      <trkpt lat="44.47437" lon="6.7023">
        <ele>2071.8</ele>
        <time>2023-01-20T09:58:20Z</time>
      </trkpt>
      <trkpt lat="44.47436" lon="6.7023">
        <ele>2071.9</ele>
        <time>2023-01-20T09:58:21Z</time>
      </trkpt>
      <trkpt lat="44.47436" lon="6.70231">
        <ele>2072</ele>
        <time>2023-01-20T09:58:22Z</time>
      </trkpt>
      <trkpt lat="44.47436" lon="6.70231">
        <ele>2072.2</ele>
        <time>2023-01-20T09:58:23Z</time>
      </trkpt>
      <trkpt lat="44.47435" lon="6.70232">
        <ele>2072.2</ele>
        <time>2023-01-20T09:58:24Z</time>
      </trkpt>
      <trkpt lat="44.47435" lon="6.70232">
        <ele>2072.3</ele>
        <time>2023-01-20T09:58:25Z</time>
      </trkpt>
      <trkpt lat="44.47434" lon="6.70232">
        <ele>2072.6</ele>
        <time>2023-01-20T09:58:27Z</time>
      </trkpt>
      <trkpt lat="44.47434" lon="6.70233">
        <ele>2072.6</ele>
        <time>2023-01-20T09:58:28Z</time>
      </trkpt>
      <trkpt lat="44.47433" lon="6.70233">
        <ele>2072.7</ele>
        <time>2023-01-20T09:58:29Z</time>
      </trkpt>
      <trkpt lat="44.47433" lon="6.70234">
        <ele>2072.6</ele>
        <time>2023-01-20T09:58:30Z</time>
      </trkpt>
      <trkpt lat="44.47433" lon="6.70235">
        <ele>2072.7</ele>
        <time>2023-01-20T09:58:31Z</time>
      </trkpt>
      <trkpt lat="44.47432" lon="6.70235">
        <ele>2072.7</ele>
        <time>2023-01-20T09:58:32Z</time>
      </trkpt>
      <trkpt lat="44.47432" lon="6.70236">
        <ele>2072.7</ele>
        <time>2023-01-20T09:58:33Z</time>
      </trkpt>
      <trkpt lat="44.47432" lon="6.70237">
        <ele>2072.6</ele>
        <time>2023-01-20T09:58:34Z</time>
      </trkpt>
      <trkpt lat="44.47432" lon="6.70238">
        <ele>2072.5</ele>
        <time>2023-01-20T09:58:35Z</time>
      </trkpt>
      <trkpt lat="44.47431" lon="6.70239">
        <ele>2072.4</ele>
        <time>2023-01-20T09:58:36Z</time>
      </trkpt>
      <trkpt lat="44.47431" lon="6.70239">
        <ele>2072.4</ele>
        <time>2023-01-20T09:58:37Z</time>
      </trkpt>
      <trkpt lat="44.47431" lon="6.7024">
        <ele>2072.4</ele>
        <time>2023-01-20T09:58:38Z</time>
      </trkpt>
      <trkpt lat="44.4743" lon="6.70241">
        <ele>2072.5</ele>
        <time>2023-01-20T09:58:39Z</time>
      </trkpt>
      <trkpt lat="44.4743" lon="6.70242">
        <ele>2072.5</ele>
        <time>2023-01-20T09:58:40Z</time>
      </trkpt>
      <trkpt lat="44.47429" lon="6.70242">
        <ele>2072.6</ele>
        <time>2023-01-20T09:58:41Z</time>
      </trkpt>
      <trkpt lat="44.47429" lon="6.70243">
        <ele>2072.7</ele>
        <time>2023-01-20T09:58:42Z</time>
      </trkpt>
      <trkpt lat="44.47428" lon="6.70243">
        <ele>2072.7</ele>
        <time>2023-01-20T09:58:43Z</time>
      </trkpt>
      <trkpt lat="44.47428" lon="6.70244">
        <ele>2072.7</ele>
        <time>2023-01-20T09:58:44Z</time>
      </trkpt>
      <trkpt lat="44.47428" lon="6.70244">
        <ele>2072.7</ele>
        <time>2023-01-20T09:58:45Z</time>
      </trkpt>
      <trkpt lat="44.47427" lon="6.70245">
        <ele>2072.8</ele>
        <time>2023-01-20T09:58:46Z</time>
      </trkpt>
      <trkpt lat="44.47427" lon="6.70245">
        <ele>2072.9</ele>
        <time>2023-01-20T09:58:47Z</time>
      </trkpt>
      <trkpt lat="44.47427" lon="6.70245">
        <ele>2073</ele>
        <time>2023-01-20T09:58:48Z</time>
      </trkpt>
      <trkpt lat="44.47427" lon="6.70245">
        <ele>2073</ele>
        <time>2023-01-20T09:58:49Z</time>
      </trkpt>
      <trkpt lat="44.47426" lon="6.70245">
        <ele>2073.1</ele>
        <time>2023-01-20T09:58:50Z</time>
      </trkpt>
      <trkpt lat="44.47426" lon="6.70245">
        <ele>2073.2</ele>
        <time>2023-01-20T09:58:51Z</time>
      </trkpt>
      <trkpt lat="44.47426" lon="6.70245">
        <ele>2073.2</ele>
        <time>2023-01-20T09:58:55Z</time>
      </trkpt>
      <trkpt lat="44.47426" lon="6.70246">
        <ele>2073.2</ele>
        <time>2023-01-20T09:58:56Z</time>
      </trkpt>
      <trkpt lat="44.47426" lon="6.70246">
        <ele>2073.3</ele>
        <time>2023-01-20T09:58:57Z</time>
      </trkpt>
      <trkpt lat="44.47426" lon="6.70246">
        <ele>2073.3</ele>
        <time>2023-01-20T09:58:58Z</time>
      </trkpt>
      <trkpt lat="44.47425" lon="6.70247">
        <ele>2073.3</ele>
        <time>2023-01-20T09:58:59Z</time>
      </trkpt>
      <trkpt lat="44.47425" lon="6.70247">
        <ele>2073.4</ele>
        <time>2023-01-20T09:59:00Z</time>
      </trkpt>
      <trkpt lat="44.47424" lon="6.70248">
        <ele>2073.4</ele>
        <time>2023-01-20T09:59:01Z</time>
      </trkpt>
      <trkpt lat="44.47424" lon="6.70249">
        <ele>2073.3</ele>
        <time>2023-01-20T09:59:02Z</time>
      </trkpt>
      <trkpt lat="44.47424" lon="6.7025">
        <ele>2073.3</ele>
        <time>2023-01-20T09:59:03Z</time>
      </trkpt>
      <trkpt lat="44.47423" lon="6.7025">
        <ele>2073.4</ele>
        <time>2023-01-20T09:59:04Z</time>
      </trkpt>
      <trkpt lat="44.47423" lon="6.70251">
        <ele>2073.5</ele>
        <time>2023-01-20T09:59:05Z</time>
      </trkpt>
      <trkpt lat="44.47422" lon="6.70252">
        <ele>2073.5</ele>
        <time>2023-01-20T09:59:06Z</time>
      </trkpt>
      <trkpt lat="44.47422" lon="6.70253">
        <ele>2073.4</ele>
        <time>2023-01-20T09:59:07Z</time>
      </trkpt>
      <trkpt lat="44.47421" lon="6.70254">
        <ele>2073.4</ele>
        <time>2023-01-20T09:59:08Z</time>
      </trkpt>
      <trkpt lat="44.47421" lon="6.70255">
        <ele>2073.5</ele>
        <time>2023-01-20T09:59:09Z</time>
      </trkpt>
      <trkpt lat="44.4742" lon="6.70255">
        <ele>2073.5</ele>
        <time>2023-01-20T09:59:10Z</time>
      </trkpt>
      <trkpt lat="44.4742" lon="6.70256">
        <ele>2073.5</ele>
        <time>2023-01-20T09:59:11Z</time>
      </trkpt>
      <trkpt lat="44.4742" lon="6.70258">
        <ele>2073.4</ele>
        <time>2023-01-20T09:59:12Z</time>
      </trkpt>
      <trkpt lat="44.47419" lon="6.70258">
        <ele>2073.4</ele>
        <time>2023-01-20T09:59:13Z</time>
      </trkpt>
      <trkpt lat="44.47419" lon="6.70259">
        <ele>2073.5</ele>
        <time>2023-01-20T09:59:14Z</time>
      </trkpt>
      <trkpt lat="44.47419" lon="6.70259">
        <ele>2073.5</ele>
        <time>2023-01-20T09:59:15Z</time>
      </trkpt>
      <trkpt lat="44.47418" lon="6.7026">
        <ele>2073.6</ele>
        <time>2023-01-20T09:59:16Z</time>
      </trkpt>
      <trkpt lat="44.47418" lon="6.7026">
        <ele>2073.8</ele>
        <time>2023-01-20T09:59:17Z</time>
      </trkpt>
      <trkpt lat="44.47417" lon="6.7026">
        <ele>2073.9</ele>
        <time>2023-01-20T09:59:18Z</time>
      </trkpt>
      <trkpt lat="44.47417" lon="6.70261">
        <ele>2074.1</ele>
        <time>2023-01-20T09:59:19Z</time>
      </trkpt>
      <trkpt lat="44.47416" lon="6.70261">
        <ele>2074.1</ele>
        <time>2023-01-20T09:59:20Z</time>
      </trkpt>
      <trkpt lat="44.47416" lon="6.70261">
        <ele>2074.3</ele>
        <time>2023-01-20T09:59:21Z</time>
      </trkpt>
      <trkpt lat="44.47416" lon="6.70262">
        <ele>2074.3</ele>
        <time>2023-01-20T09:59:22Z</time>
      </trkpt>
      <trkpt lat="44.47415" lon="6.70262">
        <ele>2074.5</ele>
        <time>2023-01-20T09:59:23Z</time>
      </trkpt>
      <trkpt lat="44.47415" lon="6.70262">
        <ele>2074.6</ele>
        <time>2023-01-20T09:59:24Z</time>
      </trkpt>
      <trkpt lat="44.47414" lon="6.70263">
        <ele>2074.7</ele>
        <time>2023-01-20T09:59:25Z</time>
      </trkpt>
      <trkpt lat="44.47414" lon="6.70263">
        <ele>2074.8</ele>
        <time>2023-01-20T09:59:26Z</time>
      </trkpt>
      <trkpt lat="44.47413" lon="6.70263">
        <ele>2075</ele>
        <time>2023-01-20T09:59:27Z</time>
      </trkpt>
      <trkpt lat="44.47412" lon="6.70264">
        <ele>2075.2</ele>
        <time>2023-01-20T09:59:28Z</time>
      </trkpt>
      <trkpt lat="44.47412" lon="6.70264">
        <ele>2075.3</ele>
        <time>2023-01-20T09:59:29Z</time>
      </trkpt>
      <trkpt lat="44.47411" lon="6.70265">
        <ele>2075.5</ele>
        <time>2023-01-20T09:59:30Z</time>
      </trkpt>
      <trkpt lat="44.4741" lon="6.70265">
        <ele>2075.8</ele>
        <time>2023-01-20T09:59:31Z</time>
      </trkpt>
      <trkpt lat="44.47409" lon="6.70265">
        <ele>2076.1</ele>
        <time>2023-01-20T09:59:32Z</time>
      </trkpt>
      <trkpt lat="44.47409" lon="6.70265">
        <ele>2076.2</ele>
        <time>2023-01-20T09:59:33Z</time>
      </trkpt>
      <trkpt lat="44.47408" lon="6.70265">
        <ele>2076.4</ele>
        <time>2023-01-20T09:59:34Z</time>
      </trkpt>
      <trkpt lat="44.47408" lon="6.70266">
        <ele>2076.5</ele>
        <time>2023-01-20T09:59:35Z</time>
      </trkpt>
      <trkpt lat="44.47407" lon="6.70267">
        <ele>2076.6</ele>
        <time>2023-01-20T09:59:36Z</time>
      </trkpt>
      <trkpt lat="44.47407" lon="6.70267">
        <ele>2076.7</ele>
        <time>2023-01-20T09:59:37Z</time>
      </trkpt>
      <trkpt lat="44.47407" lon="6.70267">
        <ele>2076.7</ele>
        <time>2023-01-20T09:59:38Z</time>
      </trkpt>
      <trkpt lat="44.47407" lon="6.70267">
        <ele>2076.7</ele>
        <time>2023-01-20T09:59:39Z</time>
      </trkpt>
      <trkpt lat="44.47407" lon="6.70267">
        <ele>2076.7</ele>
        <time>2023-01-20T09:59:40Z</time>
      </trkpt>
      <trkpt lat="44.47406" lon="6.70267">
        <ele>2076.7</ele>
        <time>2023-01-20T09:59:41Z</time>
      </trkpt>
      <trkpt lat="44.47406" lon="6.70267">
        <ele>2076.7</ele>
        <time>2023-01-20T09:59:42Z</time>
      </trkpt>
      <trkpt lat="44.47406" lon="6.70267">
        <ele>2076.8</ele>
        <time>2023-01-20T09:59:43Z</time>
      </trkpt>
      <trkpt lat="44.47406" lon="6.70267">
        <ele>2076.8</ele>
        <time>2023-01-20T09:59:44Z</time>
      </trkpt>
      <trkpt lat="44.47406" lon="6.70267">
        <ele>2076.9</ele>
        <time>2023-01-20T09:59:45Z</time>
      </trkpt>
      <trkpt lat="44.47406" lon="6.70267">
        <ele>2076.9</ele>
        <time>2023-01-20T09:59:46Z</time>
      </trkpt>
      <trkpt lat="44.47406" lon="6.70267">
        <ele>2076.9</ele>
        <time>2023-01-20T09:59:47Z</time>
      </trkpt>
      <trkpt lat="44.47406" lon="6.70267">
        <ele>2077</ele>
        <time>2023-01-20T09:59:48Z</time>
      </trkpt>
      <trkpt lat="44.47406" lon="6.70267">
        <ele>2077.1</ele>
        <time>2023-01-20T09:59:49Z</time>
      </trkpt>
      <trkpt lat="44.47405" lon="6.70267">
        <ele>2077.3</ele>
        <time>2023-01-20T09:59:50Z</time>
      </trkpt>
      <trkpt lat="44.47404" lon="6.70267">
        <ele>2077.5</ele>
        <time>2023-01-20T09:59:51Z</time>
      </trkpt>
      <trkpt lat="44.47404" lon="6.70267">
        <ele>2077.7</ele>
        <time>2023-01-20T09:59:52Z</time>
      </trkpt>
      <trkpt lat="44.47403" lon="6.70268">
        <ele>2077.9</ele>
        <time>2023-01-20T09:59:53Z</time>
      </trkpt>
      <trkpt lat="44.47402" lon="6.70268">
        <ele>2078.2</ele>
        <time>2023-01-20T09:59:54Z</time>
      </trkpt>
      <trkpt lat="44.47402" lon="6.70268">
        <ele>2078.4</ele>
        <time>2023-01-20T09:59:55Z</time>
      </trkpt>
      <trkpt lat="44.47401" lon="6.70268">
        <ele>2078.6</ele>
        <time>2023-01-20T09:59:56Z</time>
      </trkpt>
      <trkpt lat="44.474" lon="6.70269">
        <ele>2078.7</ele>
        <time>2023-01-20T09:59:57Z</time>
      </trkpt>
      <trkpt lat="44.474" lon="6.70269">
        <ele>2078.9</ele>
        <time>2023-01-20T09:59:58Z</time>
      </trkpt>
      <trkpt lat="44.474" lon="6.70269">
        <ele>2079</ele>
        <time>2023-01-20T09:59:59Z</time>
      </trkpt>
      <trkpt lat="44.47399" lon="6.70268">
        <ele>2079.3</ele>
        <time>2023-01-20T10:00:00Z</time>
      </trkpt>
      <trkpt lat="44.47398" lon="6.70268">
        <ele>2079.5</ele>
        <time>2023-01-20T10:00:01Z</time>
      </trkpt>
      <trkpt lat="44.47398" lon="6.70268">
        <ele>2079.8</ele>
        <time>2023-01-20T10:00:02Z</time>
      </trkpt>
      <trkpt lat="44.47397" lon="6.70268">
        <ele>2080</ele>
        <time>2023-01-20T10:00:03Z</time>
      </trkpt>
      <trkpt lat="44.47397" lon="6.70268">
        <ele>2080.2</ele>
        <time>2023-01-20T10:00:04Z</time>
      </trkpt>
      <trkpt lat="44.47397" lon="6.70268">
        <ele>2080.3</ele>
        <time>2023-01-20T10:00:05Z</time>
      </trkpt>
      <trkpt lat="44.47396" lon="6.70268">
        <ele>2080.4</ele>
        <time>2023-01-20T10:00:06Z</time>
      </trkpt>
      <trkpt lat="44.47396" lon="6.70269">
        <ele>2080.4</ele>
        <time>2023-01-20T10:00:07Z</time>
      </trkpt>
      <trkpt lat="44.47396" lon="6.70269">
        <ele>2080.5</ele>
        <time>2023-01-20T10:00:08Z</time>
      </trkpt>
      <trkpt lat="44.47396" lon="6.70269">
        <ele>2080.5</ele>
        <time>2023-01-20T10:00:09Z</time>
      </trkpt>
      <trkpt lat="44.47396" lon="6.70269">
        <ele>2080.4</ele>
        <time>2023-01-20T10:00:10Z</time>
      </trkpt>
      <trkpt lat="44.47396" lon="6.70269">
        <ele>2080.5</ele>
        <time>2023-01-20T10:00:11Z</time>
      </trkpt>
      <trkpt lat="44.47395" lon="6.70269">
        <ele>2080.5</ele>
        <time>2023-01-20T10:00:12Z</time>
      </trkpt>
      <trkpt lat="44.47395" lon="6.70269">
        <ele>2080.6</ele>
        <time>2023-01-20T10:00:13Z</time>
      </trkpt>
      <trkpt lat="44.47395" lon="6.70269">
        <ele>2080.9</ele>
        <time>2023-01-20T10:00:14Z</time>
      </trkpt>
      <trkpt lat="44.47394" lon="6.70268">
        <ele>2081.2</ele>
        <time>2023-01-20T10:00:15Z</time>
      </trkpt>
      <trkpt lat="44.47393" lon="6.70268">
        <ele>2081.5</ele>
        <time>2023-01-20T10:00:16Z</time>
      </trkpt>
      <trkpt lat="44.47393" lon="6.70267">
        <ele>2081.9</ele>
        <time>2023-01-20T10:00:17Z</time>
      </trkpt>
      <trkpt lat="44.47392" lon="6.70266">
        <ele>2082.1</ele>
        <time>2023-01-20T10:00:18Z</time>
      </trkpt>
      <trkpt lat="44.47392" lon="6.70266">
        <ele>2082.4</ele>
        <time>2023-01-20T10:00:19Z</time>
      </trkpt>
      <trkpt lat="44.47391" lon="6.70266">
        <ele>2082.6</ele>
        <time>2023-01-20T10:00:20Z</time>
      </trkpt>
      <trkpt lat="44.47391" lon="6.70265">
        <ele>2083</ele>
        <time>2023-01-20T10:00:21Z</time>
      </trkpt>
      <trkpt lat="44.4739" lon="6.70265">
        <ele>2083.2</ele>
        <time>2023-01-20T10:00:22Z</time>
      </trkpt>
      <trkpt lat="44.4739" lon="6.70264">
        <ele>2083.6</ele>
        <time>2023-01-20T10:00:23Z</time>
      </trkpt>
      <trkpt lat="44.47389" lon="6.70264">
        <ele>2083.8</ele>
        <time>2023-01-20T10:00:24Z</time>
      </trkpt>
      <trkpt lat="44.47389" lon="6.70263">
        <ele>2084.2</ele>
        <time>2023-01-20T10:00:25Z</time>
      </trkpt>
      <trkpt lat="44.47388" lon="6.70263">
        <ele>2084.4</ele>
        <time>2023-01-20T10:00:26Z</time>
      </trkpt>
      <trkpt lat="44.47387" lon="6.70262">
        <ele>2084.7</ele>
        <time>2023-01-20T10:00:27Z</time>
      </trkpt>
      <trkpt lat="44.47387" lon="6.70262">
        <ele>2084.9</ele>
        <time>2023-01-20T10:00:28Z</time>
      </trkpt>
      <trkpt lat="44.47387" lon="6.70261">
        <ele>2085.1</ele>
        <time>2023-01-20T10:00:29Z</time>
      </trkpt>
      <trkpt lat="44.47386" lon="6.70261">
        <ele>2085.4</ele>
        <time>2023-01-20T10:00:30Z</time>
      </trkpt>
      <trkpt lat="44.47386" lon="6.7026">
        <ele>2085.7</ele>
        <time>2023-01-20T10:00:31Z</time>
      </trkpt>
      <trkpt lat="44.47385" lon="6.70259">
        <ele>2086.1</ele>
        <time>2023-01-20T10:00:32Z</time>
      </trkpt>
      <trkpt lat="44.47384" lon="6.70259">
        <ele>2086.4</ele>
        <time>2023-01-20T10:00:33Z</time>
      </trkpt>
      <trkpt lat="44.47383" lon="6.70258">
        <ele>2086.8</ele>
        <time>2023-01-20T10:00:34Z</time>
      </trkpt>
      <trkpt lat="44.47383" lon="6.70257">
        <ele>2087</ele>
        <time>2023-01-20T10:00:35Z</time>
      </trkpt>
      <trkpt lat="44.47382" lon="6.70256">
        <ele>2087.3</ele>
        <time>2023-01-20T10:00:36Z</time>
      </trkpt>
      <trkpt lat="44.47381" lon="6.70256">
        <ele>2087.6</ele>
        <time>2023-01-20T10:00:37Z</time>
      </trkpt>
      <trkpt lat="44.47381" lon="6.70256">
        <ele>2087.9</ele>
        <time>2023-01-20T10:00:38Z</time>
      </trkpt>
      <trkpt lat="44.4738" lon="6.70255">
        <ele>2088.1</ele>
        <time>2023-01-20T10:00:39Z</time>
      </trkpt>
      <trkpt lat="44.4738" lon="6.70255">
        <ele>2088.3</ele>
        <time>2023-01-20T10:00:40Z</time>
      </trkpt>
      <trkpt lat="44.4738" lon="6.70255">
        <ele>2088.4</ele>
        <time>2023-01-20T10:00:41Z</time>
      </trkpt>
      <trkpt lat="44.47379" lon="6.70254">
        <ele>2088.5</ele>
        <time>2023-01-20T10:00:42Z</time>
      </trkpt>
      <trkpt lat="44.47379" lon="6.70254">
        <ele>2088.6</ele>
        <time>2023-01-20T10:00:43Z</time>
      </trkpt>
      <trkpt lat="44.47378" lon="6.70254">
        <ele>2088.8</ele>
        <time>2023-01-20T10:00:44Z</time>
      </trkpt>
      <trkpt lat="44.47378" lon="6.70254">
        <ele>2089</ele>
        <time>2023-01-20T10:00:45Z</time>
      </trkpt>
      <trkpt lat="44.47377" lon="6.70253">
        <ele>2089.2</ele>
        <time>2023-01-20T10:00:46Z</time>
      </trkpt>
      <trkpt lat="44.47377" lon="6.70253">
        <ele>2089.3</ele>
        <time>2023-01-20T10:00:47Z</time>
      </trkpt>
      <trkpt lat="44.47377" lon="6.70253">
        <ele>2089.5</ele>
        <time>2023-01-20T10:00:48Z</time>
      </trkpt>
      <trkpt lat="44.47376" lon="6.70253">
        <ele>2089.6</ele>
        <time>2023-01-20T10:00:49Z</time>
      </trkpt>
      <trkpt lat="44.47376" lon="6.70253">
        <ele>2089.8</ele>
        <time>2023-01-20T10:00:50Z</time>
      </trkpt>
      <trkpt lat="44.47375" lon="6.70252">
        <ele>2090</ele>
        <time>2023-01-20T10:00:51Z</time>
      </trkpt>
      <trkpt lat="44.47375" lon="6.70252">
        <ele>2090.1</ele>
        <time>2023-01-20T10:00:52Z</time>
      </trkpt>
      <trkpt lat="44.47374" lon="6.70252">
        <ele>2090.3</ele>
        <time>2023-01-20T10:00:53Z</time>
      </trkpt>
      <trkpt lat="44.47374" lon="6.70252">
        <ele>2090.5</ele>
        <time>2023-01-20T10:00:54Z</time>
      </trkpt>
      <trkpt lat="44.47373" lon="6.70251">
        <ele>2090.6</ele>
        <time>2023-01-20T10:00:55Z</time>
      </trkpt>
      <trkpt lat="44.47373" lon="6.70251">
        <ele>2090.8</ele>
        <time>2023-01-20T10:00:56Z</time>
      </trkpt>
      <trkpt lat="44.47373" lon="6.7025">
        <ele>2091</ele>
        <time>2023-01-20T10:00:57Z</time>
      </trkpt>
      <trkpt lat="44.47372" lon="6.7025">
        <ele>2091.2</ele>
        <time>2023-01-20T10:00:58Z</time>
      </trkpt>
      <trkpt lat="44.47372" lon="6.7025">
        <ele>2091.4</ele>
        <time>2023-01-20T10:00:59Z</time>
      </trkpt>
      <trkpt lat="44.47371" lon="6.70249">
        <ele>2091.6</ele>
        <time>2023-01-20T10:01:00Z</time>
      </trkpt>
      <trkpt lat="44.47371" lon="6.70249">
        <ele>2091.7</ele>
        <time>2023-01-20T10:01:01Z</time>
      </trkpt>
      <trkpt lat="44.47371" lon="6.70249">
        <ele>2092</ele>
        <time>2023-01-20T10:01:02Z</time>
      </trkpt>
      <trkpt lat="44.4737" lon="6.70248">
        <ele>2092.2</ele>
        <time>2023-01-20T10:01:03Z</time>
      </trkpt>
      <trkpt lat="44.4737" lon="6.70248">
        <ele>2092.3</ele>
        <time>2023-01-20T10:01:04Z</time>
      </trkpt>
      <trkpt lat="44.47369" lon="6.70247">
        <ele>2092.6</ele>
        <time>2023-01-20T10:01:05Z</time>
      </trkpt>
      <trkpt lat="44.47368" lon="6.70247">
        <ele>2092.8</ele>
        <time>2023-01-20T10:01:06Z</time>
      </trkpt>
      <trkpt lat="44.47368" lon="6.70247">
        <ele>2093</ele>
        <time>2023-01-20T10:01:07Z</time>
      </trkpt>
      <trkpt lat="44.47367" lon="6.70247">
        <ele>2093.2</ele>
        <time>2023-01-20T10:01:08Z</time>
      </trkpt>
      <trkpt lat="44.47367" lon="6.70247">
        <ele>2093.3</ele>
        <time>2023-01-20T10:01:09Z</time>
      </trkpt>
      <trkpt lat="44.47367" lon="6.70246">
        <ele>2093.5</ele>
        <time>2023-01-20T10:01:10Z</time>
      </trkpt>
      <trkpt lat="44.47367" lon="6.70246">
        <ele>2093.6</ele>
        <time>2023-01-20T10:01:11Z</time>
      </trkpt>
      <trkpt lat="44.47366" lon="6.70246">
        <ele>2093.7</ele>
        <time>2023-01-20T10:01:12Z</time>
      </trkpt>
      <trkpt lat="44.47366" lon="6.70246">
        <ele>2093.9</ele>
        <time>2023-01-20T10:01:13Z</time>
      </trkpt>
      <trkpt lat="44.47366" lon="6.70246">
        <ele>2094</ele>
        <time>2023-01-20T10:01:14Z</time>
      </trkpt>
      <trkpt lat="44.47365" lon="6.70245">
        <ele>2094.1</ele>
        <time>2023-01-20T10:01:15Z</time>
      </trkpt>
      <trkpt lat="44.47364" lon="6.70246">
        <ele>2094.3</ele>
        <time>2023-01-20T10:01:16Z</time>
      </trkpt>
      <trkpt lat="44.47364" lon="6.70245">
        <ele>2094.5</ele>
        <time>2023-01-20T10:01:17Z</time>
      </trkpt>
      <trkpt lat="44.47363" lon="6.70245">
        <ele>2094.8</ele>
        <time>2023-01-20T10:01:18Z</time>
      </trkpt>
      <trkpt lat="44.47363" lon="6.70244">
        <ele>2094.9</ele>
        <time>2023-01-20T10:01:19Z</time>
      </trkpt>
      <trkpt lat="44.47363" lon="6.70244">
        <ele>2095</ele>
        <time>2023-01-20T10:01:20Z</time>
      </trkpt>
      <trkpt lat="44.47363" lon="6.70244">
        <ele>2095.1</ele>
        <time>2023-01-20T10:01:21Z</time>
      </trkpt>
      <trkpt lat="44.47363" lon="6.70243">
        <ele>2095.2</ele>
        <time>2023-01-20T10:01:22Z</time>
      </trkpt>
      <trkpt lat="44.47363" lon="6.70243">
        <ele>2095.3</ele>
        <time>2023-01-20T10:01:23Z</time>
      </trkpt>
      <trkpt lat="44.47363" lon="6.70242">
        <ele>2095.4</ele>
        <time>2023-01-20T10:01:24Z</time>
      </trkpt>
      <trkpt lat="44.47364" lon="6.70242">
        <ele>2095.4</ele>
        <time>2023-01-20T10:01:25Z</time>
      </trkpt>
      <trkpt lat="44.47364" lon="6.70241">
        <ele>2095.5</ele>
        <time>2023-01-20T10:01:26Z</time>
      </trkpt>
      <trkpt lat="44.47364" lon="6.70241">
        <ele>2095.6</ele>
        <time>2023-01-20T10:01:27Z</time>
      </trkpt>
      <trkpt lat="44.47364" lon="6.7024">
        <ele>2095.7</ele>
        <time>2023-01-20T10:01:28Z</time>
      </trkpt>
      <trkpt lat="44.47364" lon="6.70239">
        <ele>2095.8</ele>
        <time>2023-01-20T10:01:29Z</time>
      </trkpt>
      <trkpt lat="44.47364" lon="6.70239">
        <ele>2095.8</ele>
        <time>2023-01-20T10:01:30Z</time>
      </trkpt>
      <trkpt lat="44.47364" lon="6.70239">
        <ele>2096</ele>
        <time>2023-01-20T10:01:31Z</time>
      </trkpt>
      <trkpt lat="44.47364" lon="6.70237">
        <ele>2096.5</ele>
        <time>2023-01-20T10:01:32Z</time>
      </trkpt>
      <trkpt lat="44.47363" lon="6.70235">
        <ele>2097.3</ele>
        <time>2023-01-20T10:01:33Z</time>
      </trkpt>
      <trkpt lat="44.47362" lon="6.70234">
        <ele>2097.8</ele>
        <time>2023-01-20T10:01:34Z</time>
      </trkpt>
      <trkpt lat="44.47362" lon="6.70233">
        <ele>2098.1</ele>
        <time>2023-01-20T10:01:35Z</time>
      </trkpt>
      <trkpt lat="44.47361" lon="6.70233">
        <ele>2098.2</ele>
        <time>2023-01-20T10:01:36Z</time>
      </trkpt>
      <trkpt lat="44.47361" lon="6.70233">
        <ele>2098.4</ele>
        <time>2023-01-20T10:01:37Z</time>
      </trkpt>
      <trkpt lat="44.47361" lon="6.70233">
        <ele>2098.4</ele>
        <time>2023-01-20T10:01:38Z</time>
      </trkpt>
      <trkpt lat="44.4736" lon="6.70233">
        <ele>2098.5</ele>
        <time>2023-01-20T10:01:39Z</time>
      </trkpt>
      <trkpt lat="44.4736" lon="6.70233">
        <ele>2098.6</ele>
        <time>2023-01-20T10:01:40Z</time>
      </trkpt>
      <trkpt lat="44.47359" lon="6.70233">
        <ele>2098.6</ele>
        <time>2023-01-20T10:01:41Z</time>
      </trkpt>
      <trkpt lat="44.47359" lon="6.70233">
        <ele>2098.6</ele>
        <time>2023-01-20T10:01:42Z</time>
      </trkpt>
      <trkpt lat="44.47358" lon="6.70234">
        <ele>2098.6</ele>
        <time>2023-01-20T10:01:43Z</time>
      </trkpt>
      <trkpt lat="44.47358" lon="6.70234">
        <ele>2098.6</ele>
        <time>2023-01-20T10:01:44Z</time>
      </trkpt>
      <trkpt lat="44.47358" lon="6.70234">
        <ele>2098.7</ele>
        <time>2023-01-20T10:01:45Z</time>
      </trkpt>
      <trkpt lat="44.47358" lon="6.70234">
        <ele>2098.6</ele>
        <time>2023-01-20T10:01:46Z</time>
      </trkpt>
      <trkpt lat="44.47358" lon="6.70234">
        <ele>2098.7</ele>
        <time>2023-01-20T10:01:47Z</time>
      </trkpt>
      <trkpt lat="44.47358" lon="6.70234">
        <ele>2098.6</ele>
        <time>2023-01-20T10:01:48Z</time>
      </trkpt>
      <trkpt lat="44.47357" lon="6.70234">
        <ele>2098.7</ele>
        <time>2023-01-20T10:01:49Z</time>
      </trkpt>
      <trkpt lat="44.47357" lon="6.70235">
        <ele>2098.7</ele>
        <time>2023-01-20T10:01:50Z</time>
      </trkpt>
      <trkpt lat="44.47357" lon="6.70235">
        <ele>2098.6</ele>
        <time>2023-01-20T10:01:51Z</time>
      </trkpt>
      <trkpt lat="44.47357" lon="6.70235">
        <ele>2098.7</ele>
        <time>2023-01-20T10:01:52Z</time>
      </trkpt>
      <trkpt lat="44.47356" lon="6.70235">
        <ele>2098.8</ele>
        <time>2023-01-20T10:01:53Z</time>
      </trkpt>
      <trkpt lat="44.47355" lon="6.70235">
        <ele>2098.9</ele>
        <time>2023-01-20T10:01:54Z</time>
      </trkpt>
      <trkpt lat="44.47354" lon="6.70235">
        <ele>2099.1</ele>
        <time>2023-01-20T10:01:55Z</time>
      </trkpt>
      <trkpt lat="44.47354" lon="6.70235">
        <ele>2099.2</ele>
        <time>2023-01-20T10:01:56Z</time>
      </trkpt>
      <trkpt lat="44.47353" lon="6.70235">
        <ele>2099.4</ele>
        <time>2023-01-20T10:01:57Z</time>
      </trkpt>
      <trkpt lat="44.47352" lon="6.70236">
        <ele>2099.4</ele>
        <time>2023-01-20T10:01:58Z</time>
      </trkpt>
      <trkpt lat="44.47351" lon="6.70236">
        <ele>2099.5</ele>
        <time>2023-01-20T10:01:59Z</time>
      </trkpt>
      <trkpt lat="44.47351" lon="6.70236">
        <ele>2099.5</ele>
        <time>2023-01-20T10:02:00Z</time>
      </trkpt>
      <trkpt lat="44.4735" lon="6.70237">
        <ele>2099.6</ele>
        <time>2023-01-20T10:02:01Z</time>
      </trkpt>
      <trkpt lat="44.47349" lon="6.70237">
        <ele>2099.6</ele>
        <time>2023-01-20T10:02:02Z</time>
      </trkpt>
      <trkpt lat="44.47349" lon="6.70237">
        <ele>2099.7</ele>
        <time>2023-01-20T10:02:03Z</time>
      </trkpt>
      <trkpt lat="44.47348" lon="6.70237">
        <ele>2099.8</ele>
        <time>2023-01-20T10:02:04Z</time>
      </trkpt>
      <trkpt lat="44.47348" lon="6.70237">
        <ele>2099.8</ele>
        <time>2023-01-20T10:02:05Z</time>
      </trkpt>
      <trkpt lat="44.47348" lon="6.70237">
        <ele>2099.9</ele>
        <time>2023-01-20T10:02:06Z</time>
      </trkpt>
      <trkpt lat="44.47348" lon="6.70237">
        <ele>2100</ele>
        <time>2023-01-20T10:02:07Z</time>
      </trkpt>
      <trkpt lat="44.47348" lon="6.70237">
        <ele>2100</ele>
        <time>2023-01-20T10:02:08Z</time>
      </trkpt>
      <trkpt lat="44.47348" lon="6.70237">
        <ele>2100</ele>
        <time>2023-01-20T10:02:09Z</time>
      </trkpt>
      <trkpt lat="44.47348" lon="6.70237">
        <ele>2100</ele>
        <time>2023-01-20T10:02:10Z</time>
      </trkpt>
      <trkpt lat="44.47348" lon="6.70237">
        <ele>2100</ele>
        <time>2023-01-20T10:02:11Z</time>
      </trkpt>
      <trkpt lat="44.47348" lon="6.70236">
        <ele>2100.1</ele>
        <time>2023-01-20T10:02:12Z</time>
      </trkpt>
      <trkpt lat="44.47348" lon="6.70236">
        <ele>2100.1</ele>
        <time>2023-01-20T10:02:13Z</time>
      </trkpt>
      <trkpt lat="44.47348" lon="6.70236">
        <ele>2100.1</ele>
        <time>2023-01-20T10:02:14Z</time>
      </trkpt>
      <trkpt lat="44.47348" lon="6.70236">
        <ele>2100.1</ele>
        <time>2023-01-20T10:02:15Z</time>
      </trkpt>
      <trkpt lat="44.47348" lon="6.70236">
        <ele>2100.1</ele>
        <time>2023-01-20T10:02:16Z</time>
      </trkpt>
      <trkpt lat="44.47348" lon="6.70236">
        <ele>2100.1</ele>
        <time>2023-01-20T10:02:17Z</time>
      </trkpt>
      <trkpt lat="44.47348" lon="6.70236">
        <ele>2100.1</ele>
        <time>2023-01-20T10:02:18Z</time>
      </trkpt>
      <trkpt lat="44.47348" lon="6.70236">
        <ele>2100.1</ele>
        <time>2023-01-20T10:02:19Z</time>
      </trkpt>
      <trkpt lat="44.47348" lon="6.70236">
        <ele>2100.1</ele>
        <time>2023-01-20T10:02:20Z</time>
      </trkpt>
      <trkpt lat="44.47348" lon="6.70236">
        <ele>2100.1</ele>
        <time>2023-01-20T10:02:21Z</time>
      </trkpt>
      <trkpt lat="44.47348" lon="6.70236">
        <ele>2100.1</ele>
        <time>2023-01-20T10:02:22Z</time>
      </trkpt>
      <trkpt lat="44.47348" lon="6.70236">
        <ele>2100.1</ele>
        <time>2023-01-20T10:02:23Z</time>
      </trkpt>
      <trkpt lat="44.47348" lon="6.70236">
        <ele>2100.2</ele>
        <time>2023-01-20T10:02:24Z</time>
      </trkpt>
      <trkpt lat="44.47348" lon="6.70236">
        <ele>2100.2</ele>
        <time>2023-01-20T10:02:25Z</time>
      </trkpt>
      <trkpt lat="44.47348" lon="6.70235">
        <ele>2100.2</ele>
        <time>2023-01-20T10:02:26Z</time>
      </trkpt>
      <trkpt lat="44.47348" lon="6.70235">
        <ele>2100.2</ele>
        <time>2023-01-20T10:02:27Z</time>
      </trkpt>
      <trkpt lat="44.47348" lon="6.70235">
        <ele>2100.2</ele>
        <time>2023-01-20T10:02:28Z</time>
      </trkpt>
      <trkpt lat="44.47348" lon="6.70236">
        <ele>2100.2</ele>
        <time>2023-01-20T10:02:29Z</time>
      </trkpt>
      <trkpt lat="44.47348" lon="6.70236">
        <ele>2100.2</ele>
        <time>2023-01-20T10:02:30Z</time>
      </trkpt>
      <trkpt lat="44.47347" lon="6.70235">
        <ele>2100.4</ele>
        <time>2023-01-20T10:02:31Z</time>
      </trkpt>
      <trkpt lat="44.47347" lon="6.70235">
        <ele>2100.6</ele>
        <time>2023-01-20T10:02:32Z</time>
      </trkpt>
      <trkpt lat="44.47346" lon="6.70235">
        <ele>2100.8</ele>
        <time>2023-01-20T10:02:33Z</time>
      </trkpt>
      <trkpt lat="44.47345" lon="6.70235">
        <ele>2101</ele>
        <time>2023-01-20T10:02:34Z</time>
      </trkpt>
      <trkpt lat="44.47344" lon="6.70235">
        <ele>2101.2</ele>
        <time>2023-01-20T10:02:35Z</time>
      </trkpt>
      <trkpt lat="44.47343" lon="6.70235">
        <ele>2101.5</ele>
        <time>2023-01-20T10:02:36Z</time>
      </trkpt>
      <trkpt lat="44.47342" lon="6.70234">
        <ele>2101.7</ele>
        <time>2023-01-20T10:02:37Z</time>
      </trkpt>
      <trkpt lat="44.47342" lon="6.70234">
        <ele>2101.9</ele>
        <time>2023-01-20T10:02:38Z</time>
      </trkpt>
      <trkpt lat="44.47341" lon="6.70234">
        <ele>2102</ele>
        <time>2023-01-20T10:02:39Z</time>
      </trkpt>
      <trkpt lat="44.47341" lon="6.70233">
        <ele>2102.2</ele>
        <time>2023-01-20T10:02:40Z</time>
      </trkpt>
      <trkpt lat="44.4734" lon="6.70233">
        <ele>2102.3</ele>
        <time>2023-01-20T10:02:41Z</time>
      </trkpt>
      <trkpt lat="44.47339" lon="6.70233">
        <ele>2102.5</ele>
        <time>2023-01-20T10:02:42Z</time>
      </trkpt>
      <trkpt lat="44.47339" lon="6.70233">
        <ele>2102.6</ele>
        <time>2023-01-20T10:02:43Z</time>
      </trkpt>
      <trkpt lat="44.47338" lon="6.70233">
        <ele>2102.8</ele>
        <time>2023-01-20T10:02:44Z</time>
      </trkpt>
      <trkpt lat="44.47338" lon="6.70232">
        <ele>2103</ele>
        <time>2023-01-20T10:02:45Z</time>
      </trkpt>
      <trkpt lat="44.47337" lon="6.70232">
        <ele>2103.1</ele>
        <time>2023-01-20T10:02:46Z</time>
      </trkpt>
      <trkpt lat="44.47336" lon="6.70232">
        <ele>2103.3</ele>
        <time>2023-01-20T10:02:47Z</time>
      </trkpt>
      <trkpt lat="44.47336" lon="6.70232">
        <ele>2103.4</ele>
        <time>2023-01-20T10:02:48Z</time>
      </trkpt>
      <trkpt lat="44.47335" lon="6.70232">
        <ele>2103.6</ele>
        <time>2023-01-20T10:02:49Z</time>
      </trkpt>
      <trkpt lat="44.47334" lon="6.70232">
        <ele>2103.7</ele>
        <time>2023-01-20T10:02:50Z</time>
      </trkpt>
      <trkpt lat="44.47334" lon="6.70231">
        <ele>2103.9</ele>
        <time>2023-01-20T10:02:51Z</time>
      </trkpt>
      <trkpt lat="44.47333" lon="6.70231">
        <ele>2104.1</ele>
        <time>2023-01-20T10:02:52Z</time>
      </trkpt>
      <trkpt lat="44.47333" lon="6.7023">
        <ele>2104.3</ele>
        <time>2023-01-20T10:02:53Z</time>
      </trkpt>
      <trkpt lat="44.47333" lon="6.7023">
        <ele>2104.4</ele>
        <time>2023-01-20T10:02:54Z</time>
      </trkpt>
      <trkpt lat="44.47333" lon="6.70229">
        <ele>2104.6</ele>
        <time>2023-01-20T10:02:55Z</time>
      </trkpt>
      <trkpt lat="44.47333" lon="6.70229">
        <ele>2104.6</ele>
        <time>2023-01-20T10:02:56Z</time>
      </trkpt>
      <trkpt lat="44.47333" lon="6.70229">
        <ele>2104.6</ele>
        <time>2023-01-20T10:02:57Z</time>
      </trkpt>
      <trkpt lat="44.47334" lon="6.70229">
        <ele>2104.6</ele>
        <time>2023-01-20T10:02:58Z</time>
      </trkpt>
      <trkpt lat="44.47334" lon="6.70228">
        <ele>2104.7</ele>
        <time>2023-01-20T10:02:59Z</time>
      </trkpt>
      <trkpt lat="44.47334" lon="6.70227">
        <ele>2104.7</ele>
        <time>2023-01-20T10:03:00Z</time>
      </trkpt>
      <trkpt lat="44.47335" lon="6.70227">
        <ele>2104.8</ele>
        <time>2023-01-20T10:03:01Z</time>
      </trkpt>
      <trkpt lat="44.47335" lon="6.70226">
        <ele>2104.9</ele>
        <time>2023-01-20T10:03:02Z</time>
      </trkpt>
      <trkpt lat="44.47335" lon="6.70225">
        <ele>2105</ele>
        <time>2023-01-20T10:03:03Z</time>
      </trkpt>
      <trkpt lat="44.47336" lon="6.70224">
        <ele>2105</ele>
        <time>2023-01-20T10:03:04Z</time>
      </trkpt>
      <trkpt lat="44.47336" lon="6.70224">
        <ele>2105.1</ele>
        <time>2023-01-20T10:03:05Z</time>
      </trkpt>
      <trkpt lat="44.47337" lon="6.70223">
        <ele>2105.2</ele>
        <time>2023-01-20T10:03:06Z</time>
      </trkpt>
      <trkpt lat="44.47337" lon="6.70223">
        <ele>2105.3</ele>
        <time>2023-01-20T10:03:07Z</time>
      </trkpt>
      <trkpt lat="44.47337" lon="6.70222">
        <ele>2105.4</ele>
        <time>2023-01-20T10:03:08Z</time>
      </trkpt>
      <trkpt lat="44.47338" lon="6.70221">
        <ele>2105.6</ele>
        <time>2023-01-20T10:03:09Z</time>
      </trkpt>
      <trkpt lat="44.47338" lon="6.7022">
        <ele>2105.7</ele>
        <time>2023-01-20T10:03:10Z</time>
      </trkpt>
      <trkpt lat="44.47338" lon="6.70219">
        <ele>2106</ele>
        <time>2023-01-20T10:03:11Z</time>
      </trkpt>
      <trkpt lat="44.47338" lon="6.70219">
        <ele>2106.1</ele>
        <time>2023-01-20T10:03:12Z</time>
      </trkpt>
      <trkpt lat="44.47338" lon="6.70218">
        <ele>2106.3</ele>
        <time>2023-01-20T10:03:13Z</time>
      </trkpt>
      <trkpt lat="44.47338" lon="6.70217">
        <ele>2106.4</ele>
        <time>2023-01-20T10:03:14Z</time>
      </trkpt>
      <trkpt lat="44.47338" lon="6.70216">
        <ele>2106.6</ele>
        <time>2023-01-20T10:03:15Z</time>
      </trkpt>
      <trkpt lat="44.47338" lon="6.70215">
        <ele>2106.8</ele>
        <time>2023-01-20T10:03:16Z</time>
      </trkpt>
      <trkpt lat="44.47338" lon="6.70214">
        <ele>2107.1</ele>
        <time>2023-01-20T10:03:17Z</time>
      </trkpt>
      <trkpt lat="44.47337" lon="6.70214">
        <ele>2107.3</ele>
        <time>2023-01-20T10:03:18Z</time>
      </trkpt>
      <trkpt lat="44.47337" lon="6.70213">
        <ele>2107.5</ele>
        <time>2023-01-20T10:03:19Z</time>
      </trkpt>
      <trkpt lat="44.47337" lon="6.70213">
        <ele>2107.6</ele>
        <time>2023-01-20T10:03:20Z</time>
      </trkpt>
      <trkpt lat="44.47337" lon="6.70213">
        <ele>2107.6</ele>
        <time>2023-01-20T10:03:21Z</time>
      </trkpt>
      <trkpt lat="44.47337" lon="6.70213">
        <ele>2107.6</ele>
        <time>2023-01-20T10:03:22Z</time>
      </trkpt>
      <trkpt lat="44.47337" lon="6.70213">
        <ele>2107.7</ele>
        <time>2023-01-20T10:03:23Z</time>
      </trkpt>
      <trkpt lat="44.47337" lon="6.70213">
        <ele>2107.7</ele>
        <time>2023-01-20T10:03:24Z</time>
      </trkpt>
      <trkpt lat="44.47337" lon="6.70213">
        <ele>2107.7</ele>
        <time>2023-01-20T10:03:25Z</time>
      </trkpt>
      <trkpt lat="44.47337" lon="6.70213">
        <ele>2107.7</ele>
        <time>2023-01-20T10:03:26Z</time>
      </trkpt>
      <trkpt lat="44.47337" lon="6.70213">
        <ele>2107.7</ele>
        <time>2023-01-20T10:03:27Z</time>
      </trkpt>
      <trkpt lat="44.47337" lon="6.70213">
        <ele>2107.7</ele>
        <time>2023-01-20T10:03:28Z</time>
      </trkpt>
      <trkpt lat="44.47337" lon="6.70212">
        <ele>2107.9</ele>
        <time>2023-01-20T10:03:29Z</time>
      </trkpt>
      <trkpt lat="44.47337" lon="6.70211">
        <ele>2108.1</ele>
        <time>2023-01-20T10:03:30Z</time>
      </trkpt>
      <trkpt lat="44.47337" lon="6.70211">
        <ele>2108.3</ele>
        <time>2023-01-20T10:03:31Z</time>
      </trkpt>
      <trkpt lat="44.47336" lon="6.7021">
        <ele>2108.6</ele>
        <time>2023-01-20T10:03:32Z</time>
      </trkpt>
      <trkpt lat="44.47336" lon="6.70208">
        <ele>2108.9</ele>
        <time>2023-01-20T10:03:33Z</time>
      </trkpt>
      <trkpt lat="44.47336" lon="6.70208">
        <ele>2109</ele>
        <time>2023-01-20T10:03:34Z</time>
      </trkpt>
      <trkpt lat="44.47336" lon="6.70207">
        <ele>2109.2</ele>
        <time>2023-01-20T10:03:35Z</time>
      </trkpt>
      <trkpt lat="44.47336" lon="6.70207">
        <ele>2109.4</ele>
        <time>2023-01-20T10:03:36Z</time>
      </trkpt>
      <trkpt lat="44.47336" lon="6.70206">
        <ele>2109.6</ele>
        <time>2023-01-20T10:03:37Z</time>
      </trkpt>
      <trkpt lat="44.47336" lon="6.70205">
        <ele>2109.7</ele>
        <time>2023-01-20T10:03:38Z</time>
      </trkpt>
      <trkpt lat="44.47336" lon="6.70205">
        <ele>2109.9</ele>
        <time>2023-01-20T10:03:39Z</time>
      </trkpt>
      <trkpt lat="44.47336" lon="6.70205">
        <ele>2110</ele>
        <time>2023-01-20T10:03:40Z</time>
      </trkpt>
      <trkpt lat="44.47336" lon="6.70204">
        <ele>2110.1</ele>
        <time>2023-01-20T10:03:41Z</time>
      </trkpt>
      <trkpt lat="44.47336" lon="6.70203">
        <ele>2110.3</ele>
        <time>2023-01-20T10:03:42Z</time>
      </trkpt>
      <trkpt lat="44.47336" lon="6.70203">
        <ele>2110.4</ele>
        <time>2023-01-20T10:03:43Z</time>
      </trkpt>
      <trkpt lat="44.47336" lon="6.70202">
        <ele>2110.6</ele>
        <time>2023-01-20T10:03:44Z</time>
      </trkpt>
      <trkpt lat="44.47336" lon="6.70201">
        <ele>2110.8</ele>
        <time>2023-01-20T10:03:45Z</time>
      </trkpt>
      <trkpt lat="44.47336" lon="6.702">
        <ele>2111</ele>
        <time>2023-01-20T10:03:46Z</time>
      </trkpt>
      <trkpt lat="44.47335" lon="6.702">
        <ele>2111.2</ele>
        <time>2023-01-20T10:03:47Z</time>
      </trkpt>
      <trkpt lat="44.47335" lon="6.70199">
        <ele>2111.4</ele>
        <time>2023-01-20T10:03:48Z</time>
      </trkpt>
      <trkpt lat="44.47335" lon="6.70198">
        <ele>2111.6</ele>
        <time>2023-01-20T10:03:49Z</time>
      </trkpt>
      <trkpt lat="44.47335" lon="6.70197">
        <ele>2111.9</ele>
        <time>2023-01-20T10:03:50Z</time>
      </trkpt>
      <trkpt lat="44.47335" lon="6.70196">
        <ele>2112.1</ele>
        <time>2023-01-20T10:03:51Z</time>
      </trkpt>
      <trkpt lat="44.47336" lon="6.70195">
        <ele>2112.3</ele>
        <time>2023-01-20T10:03:52Z</time>
      </trkpt>
      <trkpt lat="44.47336" lon="6.70194">
        <ele>2112.4</ele>
        <time>2023-01-20T10:03:53Z</time>
      </trkpt>
      <trkpt lat="44.47336" lon="6.70194">
        <ele>2112.5</ele>
        <time>2023-01-20T10:03:54Z</time>
      </trkpt>
      <trkpt lat="44.47337" lon="6.70193">
        <ele>2112.7</ele>
        <time>2023-01-20T10:03:55Z</time>
      </trkpt>
      <trkpt lat="44.47337" lon="6.70192">
        <ele>2112.9</ele>
        <time>2023-01-20T10:03:56Z</time>
      </trkpt>
      <trkpt lat="44.47337" lon="6.70191">
        <ele>2113</ele>
        <time>2023-01-20T10:03:57Z</time>
      </trkpt>
      <trkpt lat="44.47337" lon="6.7019">
        <ele>2113.1</ele>
        <time>2023-01-20T10:03:58Z</time>
      </trkpt>
      <trkpt lat="44.47338" lon="6.70189">
        <ele>2113.4</ele>
        <time>2023-01-20T10:03:59Z</time>
      </trkpt>
      <trkpt lat="44.47338" lon="6.70188">
        <ele>2113.5</ele>
        <time>2023-01-20T10:04:00Z</time>
      </trkpt>
      <trkpt lat="44.47339" lon="6.70188">
        <ele>2113.5</ele>
        <time>2023-01-20T10:04:01Z</time>
      </trkpt>
      <trkpt lat="44.47339" lon="6.70187">
        <ele>2113.7</ele>
        <time>2023-01-20T10:04:02Z</time>
      </trkpt>
      <trkpt lat="44.4734" lon="6.70186">
        <ele>2113.9</ele>
        <time>2023-01-20T10:04:03Z</time>
      </trkpt>
      <trkpt lat="44.4734" lon="6.70185">
        <ele>2114</ele>
        <time>2023-01-20T10:04:04Z</time>
      </trkpt>
      <trkpt lat="44.4734" lon="6.70184">
        <ele>2114.2</ele>
        <time>2023-01-20T10:04:05Z</time>
      </trkpt>
      <trkpt lat="44.47341" lon="6.70183">
        <ele>2114.3</ele>
        <time>2023-01-20T10:04:06Z</time>
      </trkpt>
      <trkpt lat="44.47341" lon="6.70182">
        <ele>2114.5</ele>
        <time>2023-01-20T10:04:07Z</time>
      </trkpt>
      <trkpt lat="44.47341" lon="6.7018">
        <ele>2114.9</ele>
        <time>2023-01-20T10:04:08Z</time>
      </trkpt>
      <trkpt lat="44.47342" lon="6.70179">
        <ele>2115</ele>
        <time>2023-01-20T10:04:09Z</time>
      </trkpt>
      <trkpt lat="44.47342" lon="6.70178">
        <ele>2115.2</ele>
        <time>2023-01-20T10:04:10Z</time>
      </trkpt>
      <trkpt lat="44.47343" lon="6.70177">
        <ele>2115.4</ele>
        <time>2023-01-20T10:04:11Z</time>
      </trkpt>
      <trkpt lat="44.47343" lon="6.70176">
        <ele>2115.5</ele>
        <time>2023-01-20T10:04:12Z</time>
      </trkpt>
      <trkpt lat="44.47344" lon="6.70176">
        <ele>2115.5</ele>
        <time>2023-01-20T10:04:13Z</time>
      </trkpt>
      <trkpt lat="44.47344" lon="6.70175">
        <ele>2115.5</ele>
        <time>2023-01-20T10:04:14Z</time>
      </trkpt>
      <trkpt lat="44.47345" lon="6.70175">
        <ele>2115.4</ele>
        <time>2023-01-20T10:04:15Z</time>
      </trkpt>
      <trkpt lat="44.47345" lon="6.70175">
        <ele>2115.3</ele>
        <time>2023-01-20T10:04:16Z</time>
      </trkpt>
      <trkpt lat="44.47346" lon="6.70175">
        <ele>2115.3</ele>
        <time>2023-01-20T10:04:17Z</time>
      </trkpt>
      <trkpt lat="44.47346" lon="6.70175">
        <ele>2115.2</ele>
        <time>2023-01-20T10:04:18Z</time>
      </trkpt>
      <trkpt lat="44.47346" lon="6.70175">
        <ele>2115.2</ele>
        <time>2023-01-20T10:04:19Z</time>
      </trkpt>
      <trkpt lat="44.47346" lon="6.70175">
        <ele>2115.2</ele>
        <time>2023-01-20T10:04:20Z</time>
      </trkpt>
      <trkpt lat="44.47346" lon="6.70174">
        <ele>2115.4</ele>
        <time>2023-01-20T10:04:21Z</time>
      </trkpt>
      <trkpt lat="44.47346" lon="6.70174">
        <ele>2115.4</ele>
        <time>2023-01-20T10:04:22Z</time>
      </trkpt>
      <trkpt lat="44.47346" lon="6.70173">
        <ele>2115.6</ele>
        <time>2023-01-20T10:04:23Z</time>
      </trkpt>
      <trkpt lat="44.47346" lon="6.70173">
        <ele>2115.7</ele>
        <time>2023-01-20T10:04:24Z</time>
      </trkpt>
      <trkpt lat="44.47346" lon="6.70172">
        <ele>2116</ele>
        <time>2023-01-20T10:04:25Z</time>
      </trkpt>
      <trkpt lat="44.47345" lon="6.70172">
        <ele>2116.1</ele>
        <time>2023-01-20T10:04:26Z</time>
      </trkpt>
      <trkpt lat="44.47345" lon="6.70172">
        <ele>2116.2</ele>
        <time>2023-01-20T10:04:27Z</time>
      </trkpt>
      <trkpt lat="44.47344" lon="6.70172">
        <ele>2116.2</ele>
        <time>2023-01-20T10:04:28Z</time>
      </trkpt>
      <trkpt lat="44.47344" lon="6.70172">
        <ele>2116.1</ele>
        <time>2023-01-20T10:04:29Z</time>
      </trkpt>
      <trkpt lat="44.47344" lon="6.70173">
        <ele>2116.1</ele>
        <time>2023-01-20T10:04:30Z</time>
      </trkpt>
      <trkpt lat="44.47344" lon="6.70173">
        <ele>2116.1</ele>
        <time>2023-01-20T10:04:31Z</time>
      </trkpt>
      <trkpt lat="44.47344" lon="6.70173">
        <ele>2116.1</ele>
        <time>2023-01-20T10:04:32Z</time>
      </trkpt>
      <trkpt lat="44.47344" lon="6.70173">
        <ele>2116</ele>
        <time>2023-01-20T10:04:33Z</time>
      </trkpt>
      <trkpt lat="44.47344" lon="6.70173">
        <ele>2116</ele>
        <time>2023-01-20T10:04:34Z</time>
      </trkpt>
      <trkpt lat="44.47345" lon="6.70173">
        <ele>2116</ele>
        <time>2023-01-20T10:04:35Z</time>
      </trkpt>
      <trkpt lat="44.47344" lon="6.70173">
        <ele>2116.1</ele>
        <time>2023-01-20T10:04:36Z</time>
      </trkpt>
      <trkpt lat="44.47344" lon="6.70173">
        <ele>2116.1</ele>
        <time>2023-01-20T10:04:37Z</time>
      </trkpt>
      <trkpt lat="44.47344" lon="6.70172">
        <ele>2116.2</ele>
        <time>2023-01-20T10:04:38Z</time>
      </trkpt>
      <trkpt lat="44.47344" lon="6.70172">
        <ele>2116.2</ele>
        <time>2023-01-20T10:04:39Z</time>
      </trkpt>
      <trkpt lat="44.47344" lon="6.70172">
        <ele>2116.2</ele>
        <time>2023-01-20T10:04:40Z</time>
      </trkpt>
      <trkpt lat="44.47344" lon="6.70172">
        <ele>2116.3</ele>
        <time>2023-01-20T10:04:41Z</time>
      </trkpt>
      <trkpt lat="44.47344" lon="6.70172">
        <ele>2116.3</ele>
        <time>2023-01-20T10:04:42Z</time>
      </trkpt>
      <trkpt lat="44.47344" lon="6.70172">
        <ele>2116.3</ele>
        <time>2023-01-20T10:04:43Z</time>
      </trkpt>
      <trkpt lat="44.47344" lon="6.70172">
        <ele>2116.3</ele>
        <time>2023-01-20T10:04:44Z</time>
      </trkpt>
      <trkpt lat="44.47344" lon="6.70172">
        <ele>2116.3</ele>
        <time>2023-01-20T10:04:45Z</time>
      </trkpt>
      <trkpt lat="44.47344" lon="6.70172">
        <ele>2116.3</ele>
        <time>2023-01-20T10:04:46Z</time>
      </trkpt>
      <trkpt lat="44.47344" lon="6.70172">
        <ele>2116.2</ele>
        <time>2023-01-20T10:04:47Z</time>
      </trkpt>
      <trkpt lat="44.47345" lon="6.70172">
        <ele>2116.2</ele>
        <time>2023-01-20T10:04:48Z</time>
      </trkpt>
      <trkpt lat="44.47345" lon="6.70172">
        <ele>2116.2</ele>
        <time>2023-01-20T10:04:49Z</time>
      </trkpt>
      <trkpt lat="44.47345" lon="6.70172">
        <ele>2116.1</ele>
        <time>2023-01-20T10:04:50Z</time>
      </trkpt>
      <trkpt lat="44.47345" lon="6.70172">
        <ele>2116.1</ele>
        <time>2023-01-20T10:04:51Z</time>
      </trkpt>
      <trkpt lat="44.47345" lon="6.70172">
        <ele>2116.1</ele>
        <time>2023-01-20T10:04:52Z</time>
      </trkpt>
      <trkpt lat="44.47345" lon="6.70172">
        <ele>2116.1</ele>
        <time>2023-01-20T10:04:53Z</time>
      </trkpt>
      <trkpt lat="44.47345" lon="6.70172">
        <ele>2116.1</ele>
        <time>2023-01-20T10:04:54Z</time>
      </trkpt>
      <trkpt lat="44.47345" lon="6.70171">
        <ele>2116.3</ele>
        <time>2023-01-20T10:04:55Z</time>
      </trkpt>
      <trkpt lat="44.47345" lon="6.70171">
        <ele>2116.4</ele>
        <time>2023-01-20T10:04:56Z</time>
      </trkpt>
      <trkpt lat="44.47345" lon="6.70171">
        <ele>2116.3</ele>
        <time>2023-01-20T10:04:57Z</time>
      </trkpt>
      <trkpt lat="44.47345" lon="6.70171">
        <ele>2116.2</ele>
        <time>2023-01-20T10:04:58Z</time>
      </trkpt>
      <trkpt lat="44.47346" lon="6.70171">
        <ele>2116.2</ele>
        <time>2023-01-20T10:04:59Z</time>
      </trkpt>
      <trkpt lat="44.47346" lon="6.70171">
        <ele>2116.2</ele>
        <time>2023-01-20T10:05:00Z</time>
      </trkpt>
      <trkpt lat="44.47345" lon="6.70171">
        <ele>2116.2</ele>
        <time>2023-01-20T10:05:01Z</time>
      </trkpt>
      <trkpt lat="44.47346" lon="6.70171">
        <ele>2116.2</ele>
        <time>2023-01-20T10:05:02Z</time>
      </trkpt>
      <trkpt lat="44.47346" lon="6.70171">
        <ele>2116.1</ele>
        <time>2023-01-20T10:05:03Z</time>
      </trkpt>
      <trkpt lat="44.47346" lon="6.70172">
        <ele>2116.1</ele>
        <time>2023-01-20T10:05:04Z</time>
      </trkpt>
      <trkpt lat="44.47346" lon="6.70172">
        <ele>2116</ele>
        <time>2023-01-20T10:05:05Z</time>
      </trkpt>
      <trkpt lat="44.47346" lon="6.70172">
        <ele>2115.9</ele>
        <time>2023-01-20T10:05:06Z</time>
      </trkpt>
      <trkpt lat="44.47346" lon="6.70172">
        <ele>2115.9</ele>
        <time>2023-01-20T10:05:07Z</time>
      </trkpt>
      <trkpt lat="44.47346" lon="6.70172">
        <ele>2115.8</ele>
        <time>2023-01-20T10:05:08Z</time>
      </trkpt>
      <trkpt lat="44.47346" lon="6.70172">
        <ele>2115.8</ele>
        <time>2023-01-20T10:05:10Z</time>
      </trkpt>
      <trkpt lat="44.47347" lon="6.70172">
        <ele>2115.7</ele>
        <time>2023-01-20T10:05:11Z</time>
      </trkpt>
      <trkpt lat="44.47347" lon="6.70172">
        <ele>2115.7</ele>
        <time>2023-01-20T10:05:12Z</time>
      </trkpt>
      <trkpt lat="44.47347" lon="6.70172">
        <ele>2115.7</ele>
        <time>2023-01-20T10:05:13Z</time>
      </trkpt>
      <trkpt lat="44.47347" lon="6.70172">
        <ele>2115.7</ele>
        <time>2023-01-20T10:05:14Z</time>
      </trkpt>
      <trkpt lat="44.47347" lon="6.70172">
        <ele>2115.7</ele>
        <time>2023-01-20T10:05:15Z</time>
      </trkpt>
      <trkpt lat="44.47347" lon="6.70174">
        <ele>2208.29</ele>
        <time>2023-01-20T10:05:24Z</time>
      </trkpt>
      <trkpt lat="44.47346" lon="6.70175">
        <ele>2208.29</ele>
        <time>2023-01-20T10:05:25Z</time>
      </trkpt>
      <trkpt lat="44.47345" lon="6.70167">
        <ele>2205.4</ele>
        <time>2023-01-20T10:06:04Z</time>
      </trkpt>
      <trkpt lat="44.47347" lon="6.7017">
        <ele>2205.4</ele>
        <time>2023-01-20T10:06:17Z</time>
      </trkpt>
      <trkpt lat="44.47347" lon="6.7017">
        <ele>2203.96</ele>
        <time>2023-01-20T10:06:22Z</time>
      </trkpt>
      <trkpt lat="44.47358" lon="6.70154">
        <ele>2204.92</ele>
        <time>2023-01-20T10:07:04Z</time>
      </trkpt>
      <trkpt lat="44.47357" lon="6.70143">
        <ele>2207.32</ele>
        <time>2023-01-20T10:07:26Z</time>
      </trkpt>
      <trkpt lat="44.47351" lon="6.70139">
        <ele>2209.25</ele>
        <time>2023-01-20T10:07:44Z</time>
      </trkpt>
      <trkpt lat="44.47344" lon="6.70141">
        <ele>2210.21</ele>
        <time>2023-01-20T10:08:03Z</time>
      </trkpt>
      <trkpt lat="44.47329" lon="6.7014">
        <ele>2213.09</ele>
        <time>2023-01-20T10:08:30Z</time>
      </trkpt>
      <trkpt lat="44.47316" lon="6.70129">
        <ele>2214.05</ele>
        <time>2023-01-20T10:08:59Z</time>
      </trkpt>
      <trkpt lat="44.4731" lon="6.70117">
        <ele>2215.01</ele>
        <time>2023-01-20T10:09:17Z</time>
      </trkpt>
      <trkpt lat="44.47318" lon="6.70098">
        <ele>2217.42</ele>
        <time>2023-01-20T10:09:47Z</time>
      </trkpt>
      <trkpt lat="44.47325" lon="6.70089">
        <ele>2219.82</ele>
        <time>2023-01-20T10:10:07Z</time>
      </trkpt>
      <trkpt lat="44.47317" lon="6.70085">
        <ele>2220.3</ele>
        <time>2023-01-20T10:10:30Z</time>
      </trkpt>
      <trkpt lat="44.47311" lon="6.70072">
        <ele>2222.22</ele>
        <time>2023-01-20T10:10:55Z</time>
      </trkpt>
      <trkpt lat="44.47316" lon="6.70052">
        <ele>2224.63</ele>
        <time>2023-01-20T10:11:22Z</time>
      </trkpt>
      <trkpt lat="44.47309" lon="6.70045">
        <ele>2227.51</ele>
        <time>2023-01-20T10:11:47Z</time>
      </trkpt>
      <trkpt lat="44.47301" lon="6.70028">
        <ele>2229.92</ele>
        <time>2023-01-20T10:12:19Z</time>
      </trkpt>
      <trkpt lat="44.47305" lon="6.70005">
        <ele>2231.84</ele>
        <time>2023-01-20T10:12:44Z</time>
      </trkpt>
      <trkpt lat="44.47298" lon="6.7">
        <ele>2234.24</ele>
        <time>2023-01-20T10:13:09Z</time>
      </trkpt>
      <trkpt lat="44.47296" lon="6.69993">
        <ele>2235.2</ele>
        <time>2023-01-20T10:13:28Z</time>
      </trkpt>
      <trkpt lat="44.47297" lon="6.6997">
        <ele>2235.2</ele>
        <time>2023-01-20T10:14:42Z</time>
      </trkpt>
      <trkpt lat="44.47284" lon="6.69965">
        <ele>2237.61</ele>
        <time>2023-01-20T10:15:09Z</time>
      </trkpt>
      <trkpt lat="44.47284" lon="6.6995">
        <ele>2240.01</ele>
        <time>2023-01-20T10:15:31Z</time>
      </trkpt>
      <trkpt lat="44.47278" lon="6.69944">
        <ele>2242.41</ele>
        <time>2023-01-20T10:16:00Z</time>
      </trkpt>
      <trkpt lat="44.47261" lon="6.69952">
        <ele>2244.33</ele>
        <time>2023-01-20T10:16:29Z</time>
      </trkpt>
      <trkpt lat="44.47249" lon="6.69952">
        <ele>2245.3</ele>
        <time>2023-01-20T10:16:55Z</time>
      </trkpt>
      <trkpt lat="44.47234" lon="6.69932">
        <ele>2248.66</ele>
        <time>2023-01-20T10:17:23Z</time>
      </trkpt>
      <trkpt lat="44.47228" lon="6.69934">
        <ele>2250.58</ele>
        <time>2023-01-20T10:17:45Z</time>
      </trkpt>
      <trkpt lat="44.47215" lon="6.69933">
        <ele>2253.47</ele>
        <time>2023-01-20T10:18:16Z</time>
      </trkpt>
      <trkpt lat="44.47208" lon="6.69939">
        <ele>2253.95</ele>
        <time>2023-01-20T10:18:50Z</time>
      </trkpt>
      <trkpt lat="44.47197" lon="6.69936">
        <ele>2255.87</ele>
        <time>2023-01-20T10:19:22Z</time>
      </trkpt>
      <trkpt lat="44.47184" lon="6.69926">
        <ele>2258.75</ele>
        <time>2023-01-20T10:19:49Z</time>
      </trkpt>
      <trkpt lat="44.4717" lon="6.69907">
        <ele>2261.64</ele>
        <time>2023-01-20T10:20:14Z</time>
      </trkpt>
      <trkpt lat="44.4716" lon="6.69892">
        <ele>2263.56</ele>
        <time>2023-01-20T10:20:41Z</time>
      </trkpt>
      <trkpt lat="44.4715" lon="6.6988">
        <ele>2265.96</ele>
        <time>2023-01-20T10:21:03Z</time>
      </trkpt>
      <trkpt lat="44.47145" lon="6.69857">
        <ele>2269.33</ele>
        <time>2023-01-20T10:21:28Z</time>
      </trkpt>
      <trkpt lat="44.4715" lon="6.69838">
        <ele>2272.21</ele>
        <time>2023-01-20T10:21:51Z</time>
      </trkpt>
      <trkpt lat="44.47143" lon="6.69842">
        <ele>2273.66</ele>
        <time>2023-01-20T10:23:10Z</time>
      </trkpt>
      <trkpt lat="44.47131" lon="6.69841">
        <ele>2275.58</ele>
        <time>2023-01-20T10:23:37Z</time>
      </trkpt>
      <trkpt lat="44.4712" lon="6.69833">
        <ele>2277.5</ele>
        <time>2023-01-20T10:24:01Z</time>
      </trkpt>
      <trkpt lat="44.47118" lon="6.69807">
        <ele>2280.87</ele>
        <time>2023-01-20T10:24:37Z</time>
      </trkpt>
      <trkpt lat="44.47118" lon="6.69791">
        <ele>2281.83</ele>
        <time>2023-01-20T10:25:06Z</time>
      </trkpt>
      <trkpt lat="44.47126" lon="6.69766">
        <ele>2284.71</ele>
        <time>2023-01-20T10:25:39Z</time>
      </trkpt>
      <trkpt lat="44.47129" lon="6.69755">
        <ele>2285.67</ele>
        <time>2023-01-20T10:26:10Z</time>
      </trkpt>
      <trkpt lat="44.47137" lon="6.69741">
        <ele>2289.04</ele>
        <time>2023-01-20T10:26:27Z</time>
      </trkpt>
      <trkpt lat="44.4714" lon="6.69723">
        <ele>2290.48</ele>
        <time>2023-01-20T10:26:58Z</time>
      </trkpt>
      <trkpt lat="44.47141" lon="6.69708">
        <ele>2292.88</ele>
        <time>2023-01-20T10:27:18Z</time>
      </trkpt>
      <trkpt lat="44.47137" lon="6.69679">
        <ele>2293.36</ele>
        <time>2023-01-20T10:27:50Z</time>
      </trkpt>
      <trkpt lat="44.47142" lon="6.69654">
        <ele>2294.32</ele>
        <time>2023-01-20T10:28:15Z</time>
      </trkpt>
      <trkpt lat="44.47152" lon="6.69644">
        <ele>2296.25</ele>
        <time>2023-01-20T10:28:40Z</time>
      </trkpt>
      <trkpt lat="44.47145" lon="6.69634">
        <ele>2298.17</ele>
        <time>2023-01-20T10:29:02Z</time>
      </trkpt>
      <trkpt lat="44.47133" lon="6.6961">
        <ele>2301.05</ele>
        <time>2023-01-20T10:29:31Z</time>
      </trkpt>
      <trkpt lat="44.47132" lon="6.69591">
        <ele>2302.98</ele>
        <time>2023-01-20T10:29:55Z</time>
      </trkpt>
      <trkpt lat="44.47133" lon="6.69582">
        <ele>2305.38</ele>
        <time>2023-01-20T10:30:19Z</time>
      </trkpt>
      <trkpt lat="44.47141" lon="6.69578">
        <ele>2307.3</ele>
        <time>2023-01-20T10:30:44Z</time>
      </trkpt>
      <trkpt lat="44.47145" lon="6.69574">
        <ele>2306.82</ele>
        <time>2023-01-20T10:32:17Z</time>
      </trkpt>
      <trkpt lat="44.47144" lon="6.69557">
        <ele>2309.22</ele>
        <time>2023-01-20T10:32:59Z</time>
      </trkpt>
      <trkpt lat="44.4714" lon="6.69549">
        <ele>2312.11</ele>
        <time>2023-01-20T10:33:21Z</time>
      </trkpt>
      <trkpt lat="44.47131" lon="6.69538">
        <ele>2314.99</ele>
        <time>2023-01-20T10:33:54Z</time>
      </trkpt>
      <trkpt lat="44.47133" lon="6.69527">
        <ele>2316.91</ele>
        <time>2023-01-20T10:34:12Z</time>
      </trkpt>
      <trkpt lat="44.47138" lon="6.69521">
        <ele>2319.8</ele>
        <time>2023-01-20T10:34:37Z</time>
      </trkpt>
      <trkpt lat="44.47142" lon="6.69509">
        <ele>2320.76</ele>
        <time>2023-01-20T10:35:17Z</time>
      </trkpt>
      <trkpt lat="44.47138" lon="6.69497">
        <ele>2323.64</ele>
        <time>2023-01-20T10:35:37Z</time>
      </trkpt>
      <trkpt lat="44.47148" lon="6.69488">
        <ele>2326.05</ele>
        <time>2023-01-20T10:36:04Z</time>
      </trkpt>
      <trkpt lat="44.47156" lon="6.69483">
        <ele>2328.45</ele>
        <time>2023-01-20T10:36:32Z</time>
      </trkpt>
      <trkpt lat="44.4716" lon="6.69475">
        <ele>2331.33</ele>
        <time>2023-01-20T10:36:50Z</time>
      </trkpt>
      <trkpt lat="44.47167" lon="6.69473">
        <ele>2331.33</ele>
        <time>2023-01-20T10:37:19Z</time>
      </trkpt>
      <trkpt lat="44.47165" lon="6.69466">
        <ele>2330.85</ele>
        <time>2023-01-20T10:38:12Z</time>
      </trkpt>
      <trkpt lat="44.4716" lon="6.69441">
        <ele>2331.33</ele>
        <time>2023-01-20T10:38:35Z</time>
      </trkpt>
      <trkpt lat="44.47165" lon="6.69428">
        <ele>2332.3</ele>
        <time>2023-01-20T10:38:52Z</time>
      </trkpt>
      <trkpt lat="44.4717" lon="6.69417">
        <ele>2333.74</ele>
        <time>2023-01-20T10:39:10Z</time>
      </trkpt>
      <trkpt lat="44.47182" lon="6.69409">
        <ele>2337.1</ele>
        <time>2023-01-20T10:39:42Z</time>
      </trkpt>
      <trkpt lat="44.47176" lon="6.69395">
        <ele>2339.99</ele>
        <time>2023-01-20T10:40:05Z</time>
      </trkpt>
      <trkpt lat="44.4718" lon="6.69388">
        <ele>2342.87</ele>
        <time>2023-01-20T10:40:32Z</time>
      </trkpt>
      <trkpt lat="44.47186" lon="6.69382">
        <ele>2344.79</ele>
        <time>2023-01-20T10:41:27Z</time>
      </trkpt>
      <trkpt lat="44.47187" lon="6.69376">
        <ele>2346.23</ele>
        <time>2023-01-20T10:41:55Z</time>
      </trkpt>
      <trkpt lat="44.47182" lon="6.69368">
        <ele>2349.6</ele>
        <time>2023-01-20T10:42:22Z</time>
      </trkpt>
      <trkpt lat="44.47184" lon="6.69357">
        <ele>2352.48</ele>
        <time>2023-01-20T10:43:00Z</time>
      </trkpt>
      <trkpt lat="44.4719" lon="6.69347">
        <ele>2353.93</ele>
        <time>2023-01-20T10:43:21Z</time>
      </trkpt>
      <trkpt lat="44.47197" lon="6.6935">
        <ele>2351.04</ele>
        <time>2023-01-20T10:44:24Z</time>
      </trkpt>
      <trkpt lat="44.47187" lon="6.69344">
        <ele>2351.04</ele>
        <time>2023-01-20T10:44:48Z</time>
      </trkpt>
      <trkpt lat="44.47176" lon="6.69334">
        <ele>2353.44</ele>
        <time>2023-01-20T10:45:19Z</time>
      </trkpt>
      <trkpt lat="44.47161" lon="6.6933">
        <ele>2356.81</ele>
        <time>2023-01-20T10:45:43Z</time>
      </trkpt>
      <trkpt lat="44.47151" lon="6.69333">
        <ele>2359.69</ele>
        <time>2023-01-20T10:46:04Z</time>
      </trkpt>
      <trkpt lat="44.47136" lon="6.69339">
        <ele>2363.06</ele>
        <time>2023-01-20T10:46:40Z</time>
      </trkpt>
      <trkpt lat="44.47131" lon="6.69345">
        <ele>2364.5</ele>
        <time>2023-01-20T10:47:26Z</time>
      </trkpt>
      <trkpt lat="44.47118" lon="6.69341">
        <ele>2367.38</ele>
        <time>2023-01-20T10:47:49Z</time>
      </trkpt>
      <trkpt lat="44.47108" lon="6.6934">
        <ele>2370.27</ele>
        <time>2023-01-20T10:48:13Z</time>
      </trkpt>
      <trkpt lat="44.47095" lon="6.69329">
        <ele>2373.15</ele>
        <time>2023-01-20T10:48:36Z</time>
      </trkpt>
      <trkpt lat="44.47097" lon="6.69318">
        <ele>2375.07</ele>
        <time>2023-01-20T10:49:15Z</time>
      </trkpt>
      <trkpt lat="44.47104" lon="6.69316">
        <ele>2375.55</ele>
        <time>2023-01-20T10:49:46Z</time>
      </trkpt>
      <trkpt lat="44.471" lon="6.69325">
        <ele>2376.04</ele>
        <time>2023-01-20T10:50:11Z</time>
      </trkpt>
      <trkpt lat="44.47087" lon="6.69329">
        <ele>2378.92</ele>
        <time>2023-01-20T10:50:32Z</time>
      </trkpt>
      <trkpt lat="44.47072" lon="6.69333">
        <ele>2381.8</ele>
        <time>2023-01-20T10:51:01Z</time>
      </trkpt>
      <trkpt lat="44.47067" lon="6.69313">
        <ele>2384.69</ele>
        <time>2023-01-20T10:51:38Z</time>
      </trkpt>
      <trkpt lat="44.47067" lon="6.69309">
        <ele>2387.57</ele>
        <time>2023-01-20T10:51:58Z</time>
      </trkpt>
      <trkpt lat="44.47065" lon="6.69317">
        <ele>2388.53</ele>
        <time>2023-01-20T10:52:32Z</time>
      </trkpt>
      <trkpt lat="44.47064" lon="6.69318">
        <ele>2389.01</ele>
        <time>2023-01-20T10:52:58Z</time>
      </trkpt>
      <trkpt lat="44.47063" lon="6.69311">
        <ele>2391.9</ele>
        <time>2023-01-20T10:53:16Z</time>
      </trkpt>
      <trkpt lat="44.47054" lon="6.69309">
        <ele>2393.34</ele>
        <time>2023-01-20T10:53:45Z</time>
      </trkpt>
      <trkpt lat="44.47052" lon="6.69303">
        <ele>2395.26</ele>
        <time>2023-01-20T10:54:16Z</time>
      </trkpt>
      <trkpt lat="44.47049" lon="6.69303">
        <ele>2398.63</ele>
        <time>2023-01-20T10:54:39Z</time>
      </trkpt>
      <trkpt lat="44.47041" lon="6.69306">
        <ele>2399.11</ele>
        <time>2023-01-20T10:55:08Z</time>
      </trkpt>
      <trkpt lat="44.47032" lon="6.69313">
        <ele>2401.99</ele>
        <time>2023-01-20T10:55:25Z</time>
      </trkpt>
      <trkpt lat="44.47028" lon="6.69316">
        <ele>2402.47</ele>
        <time>2023-01-20T10:55:57Z</time>
      </trkpt>
      <trkpt lat="44.4702" lon="6.69314">
        <ele>2402.47</ele>
        <time>2023-01-20T10:56:21Z</time>
      </trkpt>
      <trkpt lat="44.47013" lon="6.6931">
        <ele>2404.39</ele>
        <time>2023-01-20T10:56:44Z</time>
      </trkpt>
      <trkpt lat="44.47005" lon="6.69306">
        <ele>2403.91</ele>
        <time>2023-01-20T10:57:14Z</time>
      </trkpt>
      <trkpt lat="44.47007" lon="6.69304">
        <ele>2407.76</ele>
        <time>2023-01-20T10:57:39Z</time>
      </trkpt>
      <trkpt lat="44.47007" lon="6.69304">
        <ele>2407.76</ele>
        <time>2023-01-20T10:57:40Z</time>
      </trkpt>
      <trkpt lat="44.47006" lon="6.69304">
        <ele>2404.39</ele>
        <time>2023-01-20T10:58:00Z</time>
      </trkpt>
      <trkpt lat="44.47006" lon="6.69304">
        <ele>2403.43</ele>
        <time>2023-01-20T10:58:02Z</time>
      </trkpt>
      <trkpt lat="44.47008" lon="6.69303">
        <ele>2400.55</ele>
        <time>2023-01-20T10:58:24Z</time>
      </trkpt>
      <trkpt lat="44.47009" lon="6.69304">
        <ele>2403.91</ele>
        <time>2023-01-20T10:59:04Z</time>
      </trkpt>
      <trkpt lat="44.47008" lon="6.69304">
        <ele>2406.32</ele>
        <time>2023-01-20T10:59:16Z</time>
      </trkpt>
      <trkpt lat="44.47007" lon="6.69306">
        <ele>2403.43</ele>
        <time>2023-01-20T11:00:38Z</time>
      </trkpt>
      <trkpt lat="44.47007" lon="6.69305">
        <ele>2400.07</ele>
        <time>2023-01-20T11:02:14Z</time>
      </trkpt>
      <trkpt lat="44.47006" lon="6.69305">
        <ele>2401.51</ele>
        <time>2023-01-20T11:02:57Z</time>
      </trkpt>
      <trkpt lat="44.47006" lon="6.69305">
        <ele>2398.63</ele>
        <time>2023-01-20T11:04:56Z</time>
      </trkpt>
      <trkpt lat="44.47006" lon="6.69305">
        <ele>2401.99</ele>
        <time>2023-01-20T11:06:20Z</time>
      </trkpt>
      <trkpt lat="44.47006" lon="6.69305">
        <ele>2398.63</ele>
        <time>2023-01-20T11:07:39Z</time>
      </trkpt>
      <trkpt lat="44.47007" lon="6.69304">
        <ele>2401.51</ele>
        <time>2023-01-20T11:13:22Z</time>
      </trkpt>
      <trkpt lat="44.47007" lon="6.69304">
        <ele>2398.63</ele>
        <time>2023-01-20T11:14:05Z</time>
      </trkpt>
      <trkpt lat="44.47007" lon="6.69304">
        <ele>2398.63</ele>
        <time>2023-01-20T11:14:06Z</time>
      </trkpt>
      <trkpt lat="44.47002" lon="6.69294">
        <ele>2395.74</ele>
        <time>2023-01-20T11:15:45Z</time>
      </trkpt>
      <trkpt lat="44.47005" lon="6.69302">
        <ele>2398.63</ele>
        <time>2023-01-20T11:24:51Z</time>
      </trkpt>
      <trkpt lat="44.47005" lon="6.69302">
        <ele>2398.63</ele>
        <time>2023-01-20T11:24:52Z</time>
      </trkpt>
      <trkpt lat="44.47026" lon="6.6931">
        <ele>2395.74</ele>
        <time>2023-01-20T11:28:28Z</time>
      </trkpt>
      <trkpt lat="44.47042" lon="6.69311">
        <ele>2392.38</ele>
        <time>2023-01-20T11:28:38Z</time>
      </trkpt>
      <trkpt lat="44.47043" lon="6.69312">
        <ele>2391.9</ele>
        <time>2023-01-20T11:28:40Z</time>
      </trkpt>
      <trkpt lat="44.47048" lon="6.69311">
        <ele>2389.97</ele>
        <time>2023-01-20T11:28:45Z</time>
      </trkpt>
      <trkpt lat="44.47049" lon="6.6931">
        <ele>2389.01</ele>
        <time>2023-01-20T11:28:47Z</time>
      </trkpt>
      <trkpt lat="44.47053" lon="6.69308">
        <ele>2388.53</ele>
        <time>2023-01-20T11:28:51Z</time>
      </trkpt>
      <trkpt lat="44.47056" lon="6.69307">
        <ele>2388.05</ele>
        <time>2023-01-20T11:28:53Z</time>
      </trkpt>
      <trkpt lat="44.47057" lon="6.69326">
        <ele>2384.69</ele>
        <time>2023-01-20T11:29:00Z</time>
      </trkpt>
      <trkpt lat="44.47055" lon="6.69336">
        <ele>2382.28</ele>
        <time>2023-01-20T11:29:03Z</time>
      </trkpt>
      <trkpt lat="44.47055" lon="6.6934">
        <ele>2379.88</ele>
        <time>2023-01-20T11:29:06Z</time>
      </trkpt>
      <trkpt lat="44.47055" lon="6.6934">
        <ele>2378.44</ele>
        <time>2023-01-20T11:29:10Z</time>
      </trkpt>
      <trkpt lat="44.47062" lon="6.69349">
        <ele>2376.04</ele>
        <time>2023-01-20T11:29:15Z</time>
      </trkpt>
      <trkpt lat="44.47061" lon="6.6936">
        <ele>2372.19</ele>
        <time>2023-01-20T11:29:17Z</time>
      </trkpt>
      <trkpt lat="44.47063" lon="6.69362">
        <ele>2369.31</ele>
        <time>2023-01-20T11:29:20Z</time>
      </trkpt>
      <trkpt lat="44.47068" lon="6.69365">
        <ele>2368.35</ele>
        <time>2023-01-20T11:29:24Z</time>
      </trkpt>
      <trkpt lat="44.47075" lon="6.69358">
        <ele>2366.42</ele>
        <time>2023-01-20T11:29:27Z</time>
      </trkpt>
      <trkpt lat="44.47074" lon="6.69354">
        <ele>2364.02</ele>
        <time>2023-01-20T11:29:32Z</time>
      </trkpt>
      <trkpt lat="44.47075" lon="6.69354">
        <ele>2363.54</ele>
        <time>2023-01-20T11:29:41Z</time>
      </trkpt>
      <trkpt lat="44.47078" lon="6.69368">
        <ele>2361.62</ele>
        <time>2023-01-20T11:29:46Z</time>
      </trkpt>
      <trkpt lat="44.47085" lon="6.69368">
        <ele>2359.69</ele>
        <time>2023-01-20T11:29:48Z</time>
      </trkpt>
      <trkpt lat="44.47088" lon="6.69376">
        <ele>2354.89</ele>
        <time>2023-01-20T11:29:50Z</time>
      </trkpt>
      <trkpt lat="44.47087" lon="6.6938">
        <ele>2354.89</ele>
        <time>2023-01-20T11:29:51Z</time>
      </trkpt>
      <trkpt lat="44.47091" lon="6.69386">
        <ele>2352.48</ele>
        <time>2023-01-20T11:29:53Z</time>
      </trkpt>
      <trkpt lat="44.47097" lon="6.69383">
        <ele>2347.68</ele>
        <time>2023-01-20T11:29:55Z</time>
      </trkpt>
      <trkpt lat="44.47104" lon="6.69391">
        <ele>2343.83</ele>
        <time>2023-01-20T11:29:58Z</time>
      </trkpt>
      <trkpt lat="44.47105" lon="6.69392">
        <ele>2343.83</ele>
        <time>2023-01-20T11:29:59Z</time>
      </trkpt>
      <trkpt lat="44.47104" lon="6.69393">
        <ele>2341.91</ele>
        <time>2023-01-20T11:30:01Z</time>
      </trkpt>
      <trkpt lat="44.47105" lon="6.69394">
        <ele>2340.47</ele>
        <time>2023-01-20T11:30:04Z</time>
      </trkpt>
      <trkpt lat="44.47105" lon="6.69394">
        <ele>2339.99</ele>
        <time>2023-01-20T11:30:31Z</time>
      </trkpt>
      <trkpt lat="44.47118" lon="6.69402">
        <ele>2335.18</ele>
        <time>2023-01-20T11:30:36Z</time>
      </trkpt>
      <trkpt lat="44.47122" lon="6.69405">
        <ele>2335.66</ele>
        <time>2023-01-20T11:30:37Z</time>
      </trkpt>
      <trkpt lat="44.47129" lon="6.69409">
        <ele>2329.89</ele>
        <time>2023-01-20T11:30:39Z</time>
      </trkpt>
      <trkpt lat="44.47137" lon="6.69414">
        <ele>2325.09</ele>
        <time>2023-01-20T11:30:41Z</time>
      </trkpt>
      <trkpt lat="44.47144" lon="6.69418">
        <ele>2320.28</ele>
        <time>2023-01-20T11:30:43Z</time>
      </trkpt>
      <trkpt lat="44.47147" lon="6.69422">
        <ele>2318.36</ele>
        <time>2023-01-20T11:30:44Z</time>
      </trkpt>
      <trkpt lat="44.47159" lon="6.69428">
        <ele>2314.03</ele>
        <time>2023-01-20T11:30:47Z</time>
      </trkpt>
      <trkpt lat="44.47173" lon="6.69436">
        <ele>2307.78</ele>
        <time>2023-01-20T11:30:50Z</time>
      </trkpt>
      <trkpt lat="44.47179" lon="6.69443">
        <ele>2303.94</ele>
        <time>2023-01-20T11:30:52Z</time>
      </trkpt>
      <trkpt lat="44.47179" lon="6.69447">
        <ele>2303.94</ele>
        <time>2023-01-20T11:30:53Z</time>
      </trkpt>
      <trkpt lat="44.47178" lon="6.69451">
        <ele>2301.05</ele>
        <time>2023-01-20T11:30:57Z</time>
      </trkpt>
      <trkpt lat="44.47177" lon="6.69454">
        <ele>2301.53</ele>
        <time>2023-01-20T11:31:20Z</time>
      </trkpt>
      <trkpt lat="44.47186" lon="6.69445">
        <ele>2303.46</ele>
        <time>2023-01-20T11:35:39Z</time>
      </trkpt>
      <trkpt lat="44.47191" lon="6.69441">
        <ele>2302.98</ele>
        <time>2023-01-20T11:36:08Z</time>
      </trkpt>
      <trkpt lat="44.47192" lon="6.69441">
        <ele>2304.42</ele>
        <time>2023-01-20T11:36:58Z</time>
      </trkpt>
      <trkpt lat="44.4721" lon="6.69456">
        <ele>2300.57</ele>
        <time>2023-01-20T11:37:03Z</time>
      </trkpt>
      <trkpt lat="44.47219" lon="6.69464">
        <ele>2295.77</ele>
        <time>2023-01-20T11:37:05Z</time>
      </trkpt>
      <trkpt lat="44.47224" lon="6.69468">
        <ele>2293.36</ele>
        <time>2023-01-20T11:37:06Z</time>
      </trkpt>
      <trkpt lat="44.47232" lon="6.69482">
        <ele>2289.04</ele>
        <time>2023-01-20T11:37:09Z</time>
      </trkpt>
      <trkpt lat="44.47235" lon="6.69491">
        <ele>2284.23</ele>
        <time>2023-01-20T11:37:11Z</time>
      </trkpt>
      <trkpt lat="44.47242" lon="6.69502">
        <ele>2276.54</ele>
        <time>2023-01-20T11:37:14Z</time>
      </trkpt>
      <trkpt lat="44.47243" lon="6.69503">
        <ele>2276.54</ele>
        <time>2023-01-20T11:37:15Z</time>
      </trkpt>
      <trkpt lat="44.47244" lon="6.69506">
        <ele>2276.06</ele>
        <time>2023-01-20T11:37:32Z</time>
      </trkpt>
      <trkpt lat="44.47252" lon="6.69519">
        <ele>2273.66</ele>
        <time>2023-01-20T11:37:35Z</time>
      </trkpt>
      <trkpt lat="44.4726" lon="6.69544">
        <ele>2269.33</ele>
        <time>2023-01-20T11:37:38Z</time>
      </trkpt>
      <trkpt lat="44.47265" lon="6.6956">
        <ele>2264.52</ele>
        <time>2023-01-20T11:37:40Z</time>
      </trkpt>
      <trkpt lat="44.47266" lon="6.69569">
        <ele>2261.64</ele>
        <time>2023-01-20T11:37:43Z</time>
      </trkpt>
      <trkpt lat="44.47256" lon="6.69596">
        <ele>2260.2</ele>
        <time>2023-01-20T11:38:00Z</time>
      </trkpt>
      <trkpt lat="44.47254" lon="6.69597">
        <ele>2258.27</ele>
        <time>2023-01-20T11:38:37Z</time>
      </trkpt>
      <trkpt lat="44.47239" lon="6.69604">
        <ele>2255.39</ele>
        <time>2023-01-20T11:38:45Z</time>
      </trkpt>
      <trkpt lat="44.47224" lon="6.69611">
        <ele>2252.03</ele>
        <time>2023-01-20T11:38:50Z</time>
      </trkpt>
      <trkpt lat="44.47224" lon="6.6961">
        <ele>2252.03</ele>
        <time>2023-01-20T11:38:51Z</time>
      </trkpt>
      <trkpt lat="44.47205" lon="6.69632">
        <ele>2250.58</ele>
        <time>2023-01-20T11:40:53Z</time>
      </trkpt>
      <trkpt lat="44.47199" lon="6.69647">
        <ele>2244.33</ele>
        <time>2023-01-20T11:40:55Z</time>
      </trkpt>
      <trkpt lat="44.47202" lon="6.69668">
        <ele>2239.53</ele>
        <time>2023-01-20T11:40:58Z</time>
      </trkpt>
      <trkpt lat="44.47206" lon="6.69673">
        <ele>2238.09</ele>
        <time>2023-01-20T11:40:59Z</time>
      </trkpt>
      <trkpt lat="44.4722" lon="6.69693">
        <ele>2233.76</ele>
        <time>2023-01-20T11:41:03Z</time>
      </trkpt>
      <trkpt lat="44.4723" lon="6.69704">
        <ele>2230.88</ele>
        <time>2023-01-20T11:41:05Z</time>
      </trkpt>
      <trkpt lat="44.47237" lon="6.69714">
        <ele>2227.03</ele>
        <time>2023-01-20T11:41:07Z</time>
      </trkpt>
      <trkpt lat="44.4724" lon="6.69717">
        <ele>2227.03</ele>
        <time>2023-01-20T11:41:08Z</time>
      </trkpt>
      <trkpt lat="44.4724" lon="6.69718">
        <ele>2223.67</ele>
        <time>2023-01-20T11:41:10Z</time>
      </trkpt>
      <trkpt lat="44.47239" lon="6.69717">
        <ele>2222.22</ele>
        <time>2023-01-20T11:41:36Z</time>
      </trkpt>
      <trkpt lat="44.47239" lon="6.69718">
        <ele>2223.19</ele>
        <time>2023-01-20T11:43:14Z</time>
      </trkpt>
      <trkpt lat="44.47236" lon="6.69741">
        <ele>2221.26</ele>
        <time>2023-01-20T11:43:18Z</time>
      </trkpt>
      <trkpt lat="44.47234" lon="6.69759">
        <ele>2219.34</ele>
        <time>2023-01-20T11:43:22Z</time>
      </trkpt>
      <trkpt lat="44.47237" lon="6.69771">
        <ele>2216.94</ele>
        <time>2023-01-20T11:43:25Z</time>
      </trkpt>
      <trkpt lat="44.47236" lon="6.69773">
        <ele>2215.5</ele>
        <time>2023-01-20T11:45:31Z</time>
      </trkpt>
      <trkpt lat="44.47246" lon="6.69789">
        <ele>2211.17</ele>
        <time>2023-01-20T11:45:35Z</time>
      </trkpt>
      <trkpt lat="44.47254" lon="6.69801">
        <ele>2208.77</ele>
        <time>2023-01-20T11:45:37Z</time>
      </trkpt>
      <trkpt lat="44.47265" lon="6.69816">
        <ele>2199.63</ele>
        <time>2023-01-20T11:45:40Z</time>
      </trkpt>
      <trkpt lat="44.47272" lon="6.69826">
        <ele>2194.83</ele>
        <time>2023-01-20T11:45:42Z</time>
      </trkpt>
      <trkpt lat="44.4728" lon="6.69837">
        <ele>2192.9</ele>
        <time>2023-01-20T11:45:44Z</time>
      </trkpt>
      <trkpt lat="44.47287" lon="6.69847">
        <ele>2189.06</ele>
        <time>2023-01-20T11:45:46Z</time>
      </trkpt>
      <trkpt lat="44.47291" lon="6.69847">
        <ele>2185.69</ele>
        <time>2023-01-20T11:45:48Z</time>
      </trkpt>
      <trkpt lat="44.47298" lon="6.69858">
        <ele>2181.85</ele>
        <time>2023-01-20T11:46:53Z</time>
      </trkpt>
      <trkpt lat="44.473" lon="6.69863">
        <ele>2181.85</ele>
        <time>2023-01-20T11:46:54Z</time>
      </trkpt>
      <trkpt lat="44.47306" lon="6.69879">
        <ele>2178</ele>
        <time>2023-01-20T11:46:57Z</time>
      </trkpt>
      <trkpt lat="44.47312" lon="6.6989">
        <ele>2174.64</ele>
        <time>2023-01-20T11:46:59Z</time>
      </trkpt>
      <trkpt lat="44.47321" lon="6.69897">
        <ele>2170.31</ele>
        <time>2023-01-20T11:47:01Z</time>
      </trkpt>
      <trkpt lat="44.47325" lon="6.69901">
        <ele>2170.31</ele>
        <time>2023-01-20T11:47:02Z</time>
      </trkpt>
      <trkpt lat="44.47336" lon="6.69909">
        <ele>2165.99</ele>
        <time>2023-01-20T11:47:04Z</time>
      </trkpt>
      <trkpt lat="44.47345" lon="6.6992">
        <ele>2161.66</ele>
        <time>2023-01-20T11:47:06Z</time>
      </trkpt>
      <trkpt lat="44.47352" lon="6.69933">
        <ele>2157.34</ele>
        <time>2023-01-20T11:47:08Z</time>
      </trkpt>
      <trkpt lat="44.4736" lon="6.69947">
        <ele>2155.89</ele>
        <time>2023-01-20T11:47:10Z</time>
      </trkpt>
      <trkpt lat="44.47368" lon="6.69959">
        <ele>2151.57</ele>
        <time>2023-01-20T11:47:12Z</time>
      </trkpt>
      <trkpt lat="44.47372" lon="6.69966">
        <ele>2149.65</ele>
        <time>2023-01-20T11:47:13Z</time>
      </trkpt>
      <trkpt lat="44.47383" lon="6.69986">
        <ele>2145.32</ele>
        <time>2023-01-20T11:47:17Z</time>
      </trkpt>
      <trkpt lat="44.47383" lon="6.69993">
        <ele>2143.88</ele>
        <time>2023-01-20T11:47:35Z</time>
      </trkpt>
      <trkpt lat="44.47384" lon="6.69994">
        <ele>2143.88</ele>
        <time>2023-01-20T11:47:49Z</time>
      </trkpt>
      <trkpt lat="44.47387" lon="6.70024">
        <ele>2140.51</ele>
        <time>2023-01-20T11:47:59Z</time>
      </trkpt>
      <trkpt lat="44.47386" lon="6.7004">
        <ele>2140.51</ele>
        <time>2023-01-20T11:48:13Z</time>
      </trkpt>
      <trkpt lat="44.47383" lon="6.70065">
        <ele>2137.63</ele>
        <time>2023-01-20T11:48:20Z</time>
      </trkpt>
      <trkpt lat="44.47383" lon="6.70083">
        <ele>2133.78</ele>
        <time>2023-01-20T11:48:24Z</time>
      </trkpt>
      <trkpt lat="44.47383" lon="6.70097">
        <ele>2130.42</ele>
        <time>2023-01-20T11:48:27Z</time>
      </trkpt>
      <trkpt lat="44.47382" lon="6.701">
        <ele>2130.42</ele>
        <time>2023-01-20T11:48:28Z</time>
      </trkpt>
      <trkpt lat="44.47382" lon="6.70103">
        <ele>2128.02</ele>
        <time>2023-01-20T11:48:32Z</time>
      </trkpt>
      <trkpt lat="44.47382" lon="6.70103">
        <ele>2130.9</ele>
        <time>2023-01-20T11:50:13Z</time>
      </trkpt>
      <trkpt lat="44.4738" lon="6.70125">
        <ele>2126.09</ele>
        <time>2023-01-20T11:50:18Z</time>
      </trkpt>
      <trkpt lat="44.47381" lon="6.70131">
        <ele>2126.09</ele>
        <time>2023-01-20T11:50:19Z</time>
      </trkpt>
      <trkpt lat="44.47383" lon="6.70146">
        <ele>2122.25</ele>
        <time>2023-01-20T11:50:21Z</time>
      </trkpt>
      <trkpt lat="44.47383" lon="6.70153">
        <ele>2122.25</ele>
        <time>2023-01-20T11:50:22Z</time>
      </trkpt>
      <trkpt lat="44.47384" lon="6.70167">
        <ele>2116.96</ele>
        <time>2023-01-20T11:50:24Z</time>
      </trkpt>
      <trkpt lat="44.47385" lon="6.70179">
        <ele>2112.63</ele>
        <time>2023-01-20T11:50:26Z</time>
      </trkpt>
      <trkpt lat="44.47384" lon="6.70184">
        <ele>2108.79</ele>
        <time>2023-01-20T11:50:29Z</time>
      </trkpt>
      <trkpt lat="44.47384" lon="6.70184">
        <ele>2108.79</ele>
        <time>2023-01-20T11:50:30Z</time>
      </trkpt>
      <trkpt lat="44.47385" lon="6.70185">
        <ele>2108.79</ele>
        <time>2023-01-20T11:50:53Z</time>
      </trkpt>
      <trkpt lat="44.47389" lon="6.70193">
        <ele>2107.35</ele>
        <time>2023-01-20T11:50:56Z</time>
      </trkpt>
      <trkpt lat="44.47392" lon="6.70202">
        <ele>2103.5</ele>
        <time>2023-01-20T11:50:58Z</time>
      </trkpt>
      <trkpt lat="44.47394" lon="6.70208">
        <ele>2103.5</ele>
        <time>2023-01-20T11:50:59Z</time>
      </trkpt>
      <trkpt lat="44.47394" lon="6.70212">
        <ele>2101.1</ele>
        <time>2023-01-20T11:51:00Z</time>
      </trkpt>
      <trkpt lat="44.47393" lon="6.70216">
        <ele>2098.21</ele>
        <time>2023-01-20T11:51:02Z</time>
      </trkpt>
      <trkpt lat="44.47393" lon="6.70216">
        <ele>2095.81</ele>
        <time>2023-01-20T11:51:05Z</time>
      </trkpt>
      <trkpt lat="44.47393" lon="6.70212">
        <ele>2095.33</ele>
        <time>2023-01-20T11:51:52Z</time>
      </trkpt>
      <trkpt lat="44.47391" lon="6.70216">
        <ele>2094.85</ele>
        <time>2023-01-20T11:51:58Z</time>
      </trkpt>
      <trkpt lat="44.4739" lon="6.70222">
        <ele>2093.41</ele>
        <time>2023-01-20T11:52:01Z</time>
      </trkpt>
      <trkpt lat="44.47388" lon="6.70232">
        <ele>2091.49</ele>
        <time>2023-01-20T11:52:03Z</time>
      </trkpt>
      <trkpt lat="44.47384" lon="6.70242">
        <ele>2086.2</ele>
        <time>2023-01-20T11:52:05Z</time>
      </trkpt>
      <trkpt lat="44.4738" lon="6.70247">
        <ele>2082.83</ele>
        <time>2023-01-20T11:52:07Z</time>
      </trkpt>
      <trkpt lat="44.47378" lon="6.70252">
        <ele>2082.83</ele>
        <time>2023-01-20T11:52:22Z</time>
      </trkpt>
      <trkpt lat="44.47378" lon="6.70255">
        <ele>2078.99</ele>
        <time>2023-01-20T11:52:43Z</time>
      </trkpt>
      <trkpt lat="44.47379" lon="6.70264">
        <ele>2075.14</ele>
        <time>2023-01-20T11:52:46Z</time>
      </trkpt>
      <trkpt lat="44.47379" lon="6.70268">
        <ele>2075.14</ele>
        <time>2023-01-20T11:52:47Z</time>
      </trkpt>
      <trkpt lat="44.4738" lon="6.70274">
        <ele>2071.78</ele>
        <time>2023-01-20T11:52:49Z</time>
      </trkpt>
      <trkpt lat="44.47385" lon="6.70273">
        <ele>2070.34</ele>
        <time>2023-01-20T11:52:52Z</time>
      </trkpt>
      <trkpt lat="44.4739" lon="6.70274">
        <ele>2067.45</ele>
        <time>2023-01-20T11:53:23Z</time>
      </trkpt>
      <trkpt lat="44.47393" lon="6.70274">
        <ele>2067.45</ele>
        <time>2023-01-20T11:53:24Z</time>
      </trkpt>
      <trkpt lat="44.47404" lon="6.70277">
        <ele>2065.05</ele>
        <time>2023-01-20T11:53:28Z</time>
      </trkpt>
      <trkpt lat="44.4741" lon="6.70272">
        <ele>2062.17</ele>
        <time>2023-01-20T11:53:35Z</time>
      </trkpt>
      <trkpt lat="44.47409" lon="6.70275">
        <ele>2063.13</ele>
        <time>2023-01-20T11:53:56Z</time>
      </trkpt>
      <trkpt lat="44.47403" lon="6.70292">
        <ele>2059.76</ele>
        <time>2023-01-20T11:54:01Z</time>
      </trkpt>
      <trkpt lat="44.474" lon="6.70301">
        <ele>2055.44</ele>
        <time>2023-01-20T11:54:03Z</time>
      </trkpt>
      <trkpt lat="44.47398" lon="6.70305">
        <ele>2055.44</ele>
        <time>2023-01-20T11:54:04Z</time>
      </trkpt>
      <trkpt lat="44.47395" lon="6.70314">
        <ele>2051.59</ele>
        <time>2023-01-20T11:54:06Z</time>
      </trkpt>
      <trkpt lat="44.47392" lon="6.70322">
        <ele>2047.75</ele>
        <time>2023-01-20T11:54:08Z</time>
      </trkpt>
      <trkpt lat="44.47391" lon="6.70329">
        <ele>2046.78</ele>
        <time>2023-01-20T11:54:10Z</time>
      </trkpt>
      <trkpt lat="44.47391" lon="6.70332">
        <ele>2043.42</ele>
        <time>2023-01-20T11:54:13Z</time>
      </trkpt>
      <trkpt lat="44.47395" lon="6.70329">
        <ele>2043.9</ele>
        <time>2023-01-20T11:54:37Z</time>
      </trkpt>
      <trkpt lat="44.47403" lon="6.70327">
        <ele>2042.94</ele>
        <time>2023-01-20T11:54:39Z</time>
      </trkpt>
      <trkpt lat="44.47416" lon="6.70324">
        <ele>2039.57</ele>
        <time>2023-01-20T11:54:41Z</time>
      </trkpt>
      <trkpt lat="44.4742" lon="6.70326">
        <ele>2036.69</ele>
        <time>2023-01-20T11:54:43Z</time>
      </trkpt>
      <trkpt lat="44.47421" lon="6.70327">
        <ele>2036.69</ele>
        <time>2023-01-20T11:54:44Z</time>
      </trkpt>
      <trkpt lat="44.47423" lon="6.70349">
        <ele>2036.21</ele>
        <time>2023-01-20T11:55:01Z</time>
      </trkpt>
      <trkpt lat="44.47422" lon="6.70352">
        <ele>2038.13</ele>
        <time>2023-01-20T11:55:34Z</time>
      </trkpt>
      <trkpt lat="44.47411" lon="6.70396">
        <ele>2039.57</ele>
        <time>2023-01-20T11:55:44Z</time>
      </trkpt>
      <trkpt lat="44.47411" lon="6.70398">
        <ele>2040.05</ele>
        <time>2023-01-20T11:56:02Z</time>
      </trkpt>
      <trkpt lat="44.47424" lon="6.70411">
        <ele>2036.69</ele>
        <time>2023-01-20T11:56:08Z</time>
      </trkpt>
      <trkpt lat="44.47431" lon="6.70418">
        <ele>2032.84</ele>
        <time>2023-01-20T11:56:10Z</time>
      </trkpt>
      <trkpt lat="44.47435" lon="6.70421">
        <ele>2030.92</ele>
        <time>2023-01-20T11:56:11Z</time>
      </trkpt>
      <trkpt lat="44.47439" lon="6.70424">
        <ele>2029</ele>
        <time>2023-01-20T11:56:13Z</time>
      </trkpt>
      <trkpt lat="44.47442" lon="6.7042">
        <ele>2027.08</ele>
        <time>2023-01-20T11:56:16Z</time>
      </trkpt>
      <trkpt lat="44.47442" lon="6.70418">
        <ele>2028.52</ele>
        <time>2023-01-20T11:56:47Z</time>
      </trkpt>
      <trkpt lat="44.47433" lon="6.70434">
        <ele>2024.67</ele>
        <time>2023-01-20T11:56:53Z</time>
      </trkpt>
      <trkpt lat="44.47427" lon="6.70439">
        <ele>2022.75</ele>
        <time>2023-01-20T11:56:55Z</time>
      </trkpt>
      <trkpt lat="44.47426" lon="6.70445">
        <ele>2017.94</ele>
        <time>2023-01-20T11:56:57Z</time>
      </trkpt>
      <trkpt lat="44.47427" lon="6.70448">
        <ele>2018.43</ele>
        <time>2023-01-20T11:56:58Z</time>
      </trkpt>
      <trkpt lat="44.47433" lon="6.70452">
        <ele>2014.1</ele>
        <time>2023-01-20T11:57:00Z</time>
      </trkpt>
      <trkpt lat="44.47433" lon="6.70456">
        <ele>2014.1</ele>
        <time>2023-01-20T11:57:01Z</time>
      </trkpt>
      <trkpt lat="44.47431" lon="6.70463">
        <ele>2008.81</ele>
        <time>2023-01-20T11:57:03Z</time>
      </trkpt>
      <trkpt lat="44.4743" lon="6.70467">
        <ele>2008.81</ele>
        <time>2023-01-20T11:57:04Z</time>
      </trkpt>
      <trkpt lat="44.47429" lon="6.70471">
        <ele>2004.49</ele>
        <time>2023-01-20T11:57:06Z</time>
      </trkpt>
      <trkpt lat="44.47429" lon="6.70473">
        <ele>2002.08</ele>
        <time>2023-01-20T11:57:09Z</time>
      </trkpt>
      <trkpt lat="44.47429" lon="6.70473">
        <ele>2003.04</ele>
        <time>2023-01-20T11:57:26Z</time>
      </trkpt>
      <trkpt lat="44.4742" lon="6.70514">
        <ele>1999.68</ele>
        <time>2023-01-20T11:57:34Z</time>
      </trkpt>
      <trkpt lat="44.4742" lon="6.70523">
        <ele>1997.28</ele>
        <time>2023-01-20T11:57:37Z</time>
      </trkpt>
      <trkpt lat="44.47414" lon="6.7052">
        <ele>1993.91</ele>
        <time>2023-01-20T11:57:50Z</time>
      </trkpt>
      <trkpt lat="44.4741" lon="6.70534">
        <ele>1992.47</ele>
        <time>2023-01-20T11:57:54Z</time>
      </trkpt>
      <trkpt lat="44.47409" lon="6.70542">
        <ele>1990.07</ele>
        <time>2023-01-20T11:57:57Z</time>
      </trkpt>
      <trkpt lat="44.47405" lon="6.70564">
        <ele>1988.14</ele>
        <time>2023-01-20T11:58:00Z</time>
      </trkpt>
      <trkpt lat="44.47405" lon="6.70564">
        <ele>1987.18</ele>
        <time>2023-01-20T11:58:01Z</time>
      </trkpt>
      <trkpt lat="44.47408" lon="6.70568">
        <ele>1986.22</ele>
        <time>2023-01-20T11:58:03Z</time>
      </trkpt>
      <trkpt lat="44.4741" lon="6.70596">
        <ele>1984.3</ele>
        <time>2023-01-20T11:58:06Z</time>
      </trkpt>
      <trkpt lat="44.47408" lon="6.70604">
        <ele>1981.41</ele>
        <time>2023-01-20T11:58:08Z</time>
      </trkpt>
      <trkpt lat="44.47404" lon="6.70608">
        <ele>1978.53</ele>
        <time>2023-01-20T11:58:20Z</time>
      </trkpt>
      <trkpt lat="44.47404" lon="6.70608">
        <ele>1979.49</ele>
        <time>2023-01-20T11:58:52Z</time>
      </trkpt>
      <trkpt lat="44.47406" lon="6.70617">
        <ele>1978.05</ele>
        <time>2023-01-20T11:58:55Z</time>
      </trkpt>
      <trkpt lat="44.47409" lon="6.70631">
        <ele>1973.72</ele>
        <time>2023-01-20T11:58:57Z</time>
      </trkpt>
      <trkpt lat="44.4741" lon="6.70635">
        <ele>1974.2</ele>
        <time>2023-01-20T11:58:58Z</time>
      </trkpt>
      <trkpt lat="44.47414" lon="6.70643">
        <ele>1971.32</ele>
        <time>2023-01-20T11:59:00Z</time>
      </trkpt>
      <trkpt lat="44.47419" lon="6.70652">
        <ele>1966.51</ele>
        <time>2023-01-20T11:59:02Z</time>
      </trkpt>
      <trkpt lat="44.47419" lon="6.70677">
        <ele>1966.51</ele>
        <time>2023-01-20T11:59:03Z</time>
      </trkpt>
      <trkpt lat="44.47426" lon="6.70687">
        <ele>1963.15</ele>
        <time>2023-01-20T11:59:05Z</time>
      </trkpt>
      <trkpt lat="44.47428" lon="6.70691">
        <ele>1963.15</ele>
        <time>2023-01-20T11:59:06Z</time>
      </trkpt>
      <trkpt lat="44.4743" lon="6.70702">
        <ele>1960.27</ele>
        <time>2023-01-20T11:59:09Z</time>
      </trkpt>
      <trkpt lat="44.47431" lon="6.70709">
        <ele>1956.9</ele>
        <time>2023-01-20T11:59:21Z</time>
      </trkpt>
      <trkpt lat="44.47431" lon="6.70708">
        <ele>1959.78</ele>
        <time>2023-01-20T11:59:30Z</time>
      </trkpt>
      <trkpt lat="44.47417" lon="6.70863">
        <ele>1960.27</ele>
        <time>2023-01-20T12:00:24Z</time>
      </trkpt>
      <trkpt lat="44.47417" lon="6.70864">
        <ele>1959.78</ele>
        <time>2023-01-20T12:01:09Z</time>
      </trkpt>
      <trkpt lat="44.47421" lon="6.70866">
        <ele>1959.3</ele>
        <time>2023-01-20T12:01:14Z</time>
      </trkpt>
      <trkpt lat="44.47439" lon="6.7087">
        <ele>1956.42</ele>
        <time>2023-01-20T12:01:23Z</time>
      </trkpt>
      <trkpt lat="44.47452" lon="6.70869">
        <ele>1952.57</ele>
        <time>2023-01-20T12:01:28Z</time>
      </trkpt>
      <trkpt lat="44.47459" lon="6.7087">
        <ele>1951.61</ele>
        <time>2023-01-20T12:01:44Z</time>
      </trkpt>
      <trkpt lat="44.47459" lon="6.70871">
        <ele>1951.61</ele>
        <time>2023-01-20T12:01:45Z</time>
      </trkpt>
      <trkpt lat="44.47443" lon="6.70901">
        <ele>1948.25</ele>
        <time>2023-01-20T12:01:53Z</time>
      </trkpt>
      <trkpt lat="44.47431" lon="6.70912">
        <ele>1945.85</ele>
        <time>2023-01-20T12:01:57Z</time>
      </trkpt>
      <trkpt lat="44.47414" lon="6.70926">
        <ele>1943.44</ele>
        <time>2023-01-20T12:02:02Z</time>
      </trkpt>
      <trkpt lat="44.47404" lon="6.70936">
        <ele>1941.04</ele>
        <time>2023-01-20T12:02:05Z</time>
      </trkpt>
      <trkpt lat="44.4739" lon="6.70949">
        <ele>1937.67</ele>
        <time>2023-01-20T12:02:09Z</time>
      </trkpt>
      <trkpt lat="44.47383" lon="6.70953">
        <ele>1934.31</ele>
        <time>2023-01-20T12:02:12Z</time>
      </trkpt>
      <trkpt lat="44.47384" lon="6.70953">
        <ele>1932.87</ele>
        <time>2023-01-20T12:02:24Z</time>
      </trkpt>
      <trkpt lat="44.47384" lon="6.70953">
        <ele>1932.87</ele>
        <time>2023-01-20T12:02:28Z</time>
      </trkpt>
      <trkpt lat="44.47374" lon="6.70958">
        <ele>1930.95</ele>
        <time>2023-01-20T12:02:33Z</time>
      </trkpt>
      <trkpt lat="44.47371" lon="6.70955">
        <ele>1929.5</ele>
        <time>2023-01-20T12:02:36Z</time>
      </trkpt>
      <trkpt lat="44.47371" lon="6.70955">
        <ele>1927.58</ele>
        <time>2023-01-20T12:02:39Z</time>
      </trkpt>
      <trkpt lat="44.47369" lon="6.70957">
        <ele>1926.62</ele>
        <time>2023-01-20T12:02:46Z</time>
      </trkpt>
      <trkpt lat="44.4737" lon="6.70974">
        <ele>1925.18</ele>
        <time>2023-01-20T12:02:50Z</time>
      </trkpt>
      <trkpt lat="44.47374" lon="6.70991">
        <ele>1922.29</ele>
        <time>2023-01-20T12:02:53Z</time>
      </trkpt>
      <trkpt lat="44.47378" lon="6.7101">
        <ele>1917.97</ele>
        <time>2023-01-20T12:02:56Z</time>
      </trkpt>
      <trkpt lat="44.47381" lon="6.71022">
        <ele>1915.08</ele>
        <time>2023-01-20T12:02:58Z</time>
      </trkpt>
      <trkpt lat="44.47385" lon="6.71022">
        <ele>1912.68</ele>
        <time>2023-01-20T12:03:01Z</time>
      </trkpt>
      <trkpt lat="44.47384" lon="6.71023">
        <ele>1911.24</ele>
        <time>2023-01-20T12:03:07Z</time>
      </trkpt>
      <trkpt lat="44.47376" lon="6.71029">
        <ele>1908.35</ele>
        <time>2023-01-20T12:03:19Z</time>
      </trkpt>
      <trkpt lat="44.47374" lon="6.7103">
        <ele>1907.39</ele>
        <time>2023-01-20T12:03:55Z</time>
      </trkpt>
      <trkpt lat="44.47365" lon="6.71044">
        <ele>1905.95</ele>
        <time>2023-01-20T12:03:59Z</time>
      </trkpt>
      <trkpt lat="44.47357" lon="6.71049">
        <ele>1901.14</ele>
        <time>2023-01-20T12:04:03Z</time>
      </trkpt>
      <trkpt lat="44.47358" lon="6.71049">
        <ele>1901.14</ele>
        <time>2023-01-20T12:04:04Z</time>
      </trkpt>
      <trkpt lat="44.47361" lon="6.71051">
        <ele>1900.18</ele>
        <time>2023-01-20T12:04:14Z</time>
      </trkpt>
      <trkpt lat="44.47373" lon="6.71056">
        <ele>1897.3</ele>
        <time>2023-01-20T12:04:21Z</time>
      </trkpt>
      <trkpt lat="44.47381" lon="6.71077">
        <ele>1893.93</ele>
        <time>2023-01-20T12:04:30Z</time>
      </trkpt>
      <trkpt lat="44.47381" lon="6.71081">
        <ele>1891.05</ele>
        <time>2023-01-20T12:04:40Z</time>
      </trkpt>
      <trkpt lat="44.47381" lon="6.71081">
        <ele>1890.57</ele>
        <time>2023-01-20T12:05:08Z</time>
      </trkpt>
      <trkpt lat="44.474" lon="6.71088">
        <ele>1888.17</ele>
        <time>2023-01-20T12:05:15Z</time>
      </trkpt>
      <trkpt lat="44.4741" lon="6.7111">
        <ele>1883.84</ele>
        <time>2023-01-20T12:05:21Z</time>
      </trkpt>
      <trkpt lat="44.47412" lon="6.71122">
        <ele>1880.96</ele>
        <time>2023-01-20T12:05:23Z</time>
      </trkpt>
      <trkpt lat="44.47413" lon="6.71139">
        <ele>1876.63</ele>
        <time>2023-01-20T12:05:26Z</time>
      </trkpt>
      <trkpt lat="44.47411" lon="6.71141">
        <ele>1873.75</ele>
        <time>2023-01-20T12:05:28Z</time>
      </trkpt>
      <trkpt lat="44.47412" lon="6.7114">
        <ele>1871.82</ele>
        <time>2023-01-20T12:05:31Z</time>
      </trkpt>
      <trkpt lat="44.47411" lon="6.7114">
        <ele>1871.82</ele>
        <time>2023-01-20T12:05:43Z</time>
      </trkpt>
      <trkpt lat="44.47397" lon="6.71161">
        <ele>1868.94</ele>
        <time>2023-01-20T12:05:52Z</time>
      </trkpt>
      <trkpt lat="44.47391" lon="6.71166">
        <ele>1866.54</ele>
        <time>2023-01-20T12:05:57Z</time>
      </trkpt>
      <trkpt lat="44.47389" lon="6.71167">
        <ele>1865.09</ele>
        <time>2023-01-20T12:06:41Z</time>
      </trkpt>
      <trkpt lat="44.47373" lon="6.71171">
        <ele>1862.69</ele>
        <time>2023-01-20T12:06:46Z</time>
      </trkpt>
      <trkpt lat="44.47368" lon="6.71177">
        <ele>1859.33</ele>
        <time>2023-01-20T12:06:54Z</time>
      </trkpt>
      <trkpt lat="44.47369" lon="6.71178">
        <ele>1859.33</ele>
        <time>2023-01-20T12:07:15Z</time>
      </trkpt>
      <trkpt lat="44.47385" lon="6.71213">
        <ele>1855</ele>
        <time>2023-01-20T12:07:22Z</time>
      </trkpt>
      <trkpt lat="44.47388" lon="6.71229">
        <ele>1853.56</ele>
        <time>2023-01-20T12:07:24Z</time>
      </trkpt>
      <trkpt lat="44.4739" lon="6.71242">
        <ele>1850.19</ele>
        <time>2023-01-20T12:07:26Z</time>
      </trkpt>
      <trkpt lat="44.47387" lon="6.71259">
        <ele>1846.35</ele>
        <time>2023-01-20T12:07:29Z</time>
      </trkpt>
      <trkpt lat="44.47393" lon="6.7127">
        <ele>1841.54</ele>
        <time>2023-01-20T12:07:32Z</time>
      </trkpt>
      <trkpt lat="44.47397" lon="6.71275">
        <ele>1841.54</ele>
        <time>2023-01-20T12:07:33Z</time>
      </trkpt>
      <trkpt lat="44.47402" lon="6.71276">
        <ele>1837.7</ele>
        <time>2023-01-20T12:07:36Z</time>
      </trkpt>
      <trkpt lat="44.47402" lon="6.71276">
        <ele>1837.22</ele>
        <time>2023-01-20T12:07:38Z</time>
      </trkpt>
      <trkpt lat="44.47399" lon="6.7128">
        <ele>1836.26</ele>
        <time>2023-01-20T12:07:40Z</time>
      </trkpt>
      <trkpt lat="44.47386" lon="6.71295">
        <ele>1834.33</ele>
        <time>2023-01-20T12:07:45Z</time>
      </trkpt>
      <trkpt lat="44.47385" lon="6.71305">
        <ele>1832.89</ele>
        <time>2023-01-20T12:07:47Z</time>
      </trkpt>
      <trkpt lat="44.47394" lon="6.71322">
        <ele>1830.97</ele>
        <time>2023-01-20T12:07:49Z</time>
      </trkpt>
      <trkpt lat="44.47395" lon="6.71345">
        <ele>1827.12</ele>
        <time>2023-01-20T12:07:51Z</time>
      </trkpt>
      <trkpt lat="44.47392" lon="6.71375">
        <ele>1820.39</ele>
        <time>2023-01-20T12:07:54Z</time>
      </trkpt>
      <trkpt lat="44.47383" lon="6.71396">
        <ele>1816.07</ele>
        <time>2023-01-20T12:07:57Z</time>
      </trkpt>
      <trkpt lat="44.47379" lon="6.71399">
        <ele>1813.66</ele>
        <time>2023-01-20T12:08:02Z</time>
      </trkpt>
      <trkpt lat="44.47379" lon="6.71399">
        <ele>1814.15</ele>
        <time>2023-01-20T12:08:38Z</time>
      </trkpt>
      <trkpt lat="44.47395" lon="6.71419">
        <ele>1811.74</ele>
        <time>2023-01-20T12:08:44Z</time>
      </trkpt>
      <trkpt lat="44.47397" lon="6.71444">
        <ele>1808.38</ele>
        <time>2023-01-20T12:08:48Z</time>
      </trkpt>
      <trkpt lat="44.47391" lon="6.71477">
        <ele>1805.01</ele>
        <time>2023-01-20T12:08:59Z</time>
      </trkpt>
      <trkpt lat="44.47391" lon="6.71494">
        <ele>1803.57</ele>
        <time>2023-01-20T12:09:01Z</time>
      </trkpt>
      <trkpt lat="44.47397" lon="6.71524">
        <ele>1799.24</ele>
        <time>2023-01-20T12:09:04Z</time>
      </trkpt>
      <trkpt lat="44.474" lon="6.71545">
        <ele>1796.84</ele>
        <time>2023-01-20T12:09:06Z</time>
      </trkpt>
      <trkpt lat="44.47404" lon="6.71569">
        <ele>1791.55</ele>
        <time>2023-01-20T12:09:09Z</time>
      </trkpt>
      <trkpt lat="44.47409" lon="6.71586">
        <ele>1788.67</ele>
        <time>2023-01-20T12:09:11Z</time>
      </trkpt>
      <trkpt lat="44.47415" lon="6.71614">
        <ele>1784.82</ele>
        <time>2023-01-20T12:09:14Z</time>
      </trkpt>
      <trkpt lat="44.47423" lon="6.71648">
        <ele>1780.5</ele>
        <time>2023-01-20T12:09:19Z</time>
      </trkpt>
      <trkpt lat="44.47425" lon="6.71664">
        <ele>1778.58</ele>
        <time>2023-01-20T12:09:21Z</time>
      </trkpt>
      <trkpt lat="44.47425" lon="6.7168">
        <ele>1777.13</ele>
        <time>2023-01-20T12:09:23Z</time>
      </trkpt>
      <trkpt lat="44.47423" lon="6.71708">
        <ele>1773.29</ele>
        <time>2023-01-20T12:09:26Z</time>
      </trkpt>
      <trkpt lat="44.47423" lon="6.71726">
        <ele>1769.92</ele>
        <time>2023-01-20T12:09:28Z</time>
      </trkpt>
      <trkpt lat="44.47422" lon="6.71735">
        <ele>1768</ele>
        <time>2023-01-20T12:09:29Z</time>
      </trkpt>
      <trkpt lat="44.47418" lon="6.71751">
        <ele>1766.56</ele>
        <time>2023-01-20T12:09:31Z</time>
      </trkpt>
      <trkpt lat="44.47416" lon="6.71766">
        <ele>1763.68</ele>
        <time>2023-01-20T12:09:33Z</time>
      </trkpt>
      <trkpt lat="44.47417" lon="6.71781">
        <ele>1762.23</ele>
        <time>2023-01-20T12:09:35Z</time>
      </trkpt>
      <trkpt lat="44.47422" lon="6.71807">
        <ele>1759.83</ele>
        <time>2023-01-20T12:09:39Z</time>
      </trkpt>
      <trkpt lat="44.47428" lon="6.71835">
        <ele>1756.95</ele>
        <time>2023-01-20T12:09:44Z</time>
      </trkpt>
      <trkpt lat="44.4743" lon="6.71848">
        <ele>1755.02</ele>
        <time>2023-01-20T12:09:46Z</time>
      </trkpt>
      <trkpt lat="44.4743" lon="6.71863">
        <ele>1754.06</ele>
        <time>2023-01-20T12:09:48Z</time>
      </trkpt>
      <trkpt lat="44.47427" lon="6.71876">
        <ele>1752.14</ele>
        <time>2023-01-20T12:09:50Z</time>
      </trkpt>
      <trkpt lat="44.47412" lon="6.71896">
        <ele>1747.33</ele>
        <time>2023-01-20T12:09:55Z</time>
      </trkpt>
      <trkpt lat="44.4741" lon="6.71929">
        <ele>1743.97</ele>
        <time>2023-01-20T12:10:01Z</time>
      </trkpt>
      <trkpt lat="44.4741" lon="6.71934">
        <ele>1743.49</ele>
        <time>2023-01-20T12:10:02Z</time>
      </trkpt>
      <trkpt lat="44.47413" lon="6.71956">
        <ele>1742.53</ele>
        <time>2023-01-20T12:10:08Z</time>
      </trkpt>
      <trkpt lat="44.47423" lon="6.71971">
        <ele>1740.12</ele>
        <time>2023-01-20T12:10:18Z</time>
      </trkpt>
      <trkpt lat="44.47423" lon="6.71972">
        <ele>1739.16</ele>
        <time>2023-01-20T12:11:13Z</time>
      </trkpt>
      <trkpt lat="44.47423" lon="6.71974">
        <ele>1739.64</ele>
        <time>2023-01-20T12:11:47Z</time>
      </trkpt>
      <trkpt lat="44.47431" lon="6.71977">
        <ele>1739.64</ele>
        <time>2023-01-20T12:11:59Z</time>
      </trkpt>
      <trkpt lat="44.47429" lon="6.71978">
        <ele>1739.64</ele>
        <time>2023-01-20T12:12:33Z</time>
      </trkpt>
      <trkpt lat="44.4743" lon="6.71977">
        <ele>1739.64</ele>
        <time>2023-01-20T12:12:40Z</time>
      </trkpt>
      <trkpt lat="44.4743" lon="6.71976">
        <ele>1739.64</ele>
        <time>2023-01-20T12:12:55Z</time>
      </trkpt>
      <trkpt lat="44.47429" lon="6.71974">
        <ele>1739.64</ele>
        <time>2023-01-20T12:13:54Z</time>
      </trkpt>
      <trkpt lat="44.47429" lon="6.71977">
        <ele>1736.76</ele>
        <time>2023-01-20T12:18:53Z</time>
      </trkpt>
      <trkpt lat="44.47442" lon="6.71979">
        <ele>1735.32</ele>
        <time>2023-01-20T12:21:11Z</time>
      </trkpt>
    </trkseg>
  </trk>
</gpx>